<?xml version="1.0" encoding="UTF-8" standalone="no" ?>
<gpx xmlns="http://www.topografix.com/GPX/1/1" xmlns:xsi="http://www.w3.org/2001/XMLSchema-instance" xsi:schemaLocation="http://www.topografix.com/GPX/1/1 http://www.topografix.com/GPX/1/1/gpx.xsd" version="1.1" creator="VisuGPX - https://www.visugpx.com">
  <metadata>
    <name>Douai  les terrils  avec Roger</name>
    <desc><![CDATA[Les terrils du Nord ]]></desc>
  </metadata>
  <trk>
    <name><![CDATA[terrils]]></name>
    <trkseg>
      <trkpt lat="50.37504" lon="3.07332">
        <ele>37.9</ele>
        <time>2015-07-18T12:33:07Z</time>
      </trkpt>
      <trkpt lat="50.37503" lon="3.07331">
        <ele>37.9</ele>
        <time>2015-07-18T12:33:08Z</time>
      </trkpt>
      <trkpt lat="50.37499" lon="3.07318">
        <ele>38.4</ele>
        <time>2015-07-18T12:33:18Z</time>
      </trkpt>
      <trkpt lat="50.37491" lon="3.07309">
        <ele>38.5</ele>
        <time>2015-07-18T12:33:22Z</time>
      </trkpt>
      <trkpt lat="50.37484" lon="3.07298">
        <ele>38.6</ele>
        <time>2015-07-18T12:33:25Z</time>
      </trkpt>
      <trkpt lat="50.37477" lon="3.07287">
        <ele>38.6</ele>
        <time>2015-07-18T12:33:28Z</time>
      </trkpt>
      <trkpt lat="50.37469" lon="3.07274">
        <ele>38.6</ele>
        <time>2015-07-18T12:33:31Z</time>
      </trkpt>
      <trkpt lat="50.3746" lon="3.07261">
        <ele>38.7</ele>
        <time>2015-07-18T12:33:34Z</time>
      </trkpt>
      <trkpt lat="50.37451" lon="3.07247">
        <ele>38.7</ele>
        <time>2015-07-18T12:33:37Z</time>
      </trkpt>
      <trkpt lat="50.37442" lon="3.0723">
        <ele>38.8</ele>
        <time>2015-07-18T12:33:40Z</time>
      </trkpt>
      <trkpt lat="50.37436" lon="3.07218">
        <ele>38.8</ele>
        <time>2015-07-18T12:33:42Z</time>
      </trkpt>
      <trkpt lat="50.37428" lon="3.07208">
        <ele>38.8</ele>
        <time>2015-07-18T12:33:44Z</time>
      </trkpt>
      <trkpt lat="50.3742" lon="3.07197">
        <ele>38.9</ele>
        <time>2015-07-18T12:33:46Z</time>
      </trkpt>
      <trkpt lat="50.37413" lon="3.07185">
        <ele>39</ele>
        <time>2015-07-18T12:33:48Z</time>
      </trkpt>
      <trkpt lat="50.37406" lon="3.07173">
        <ele>39.1</ele>
        <time>2015-07-18T12:33:50Z</time>
      </trkpt>
      <trkpt lat="50.37399" lon="3.07162">
        <ele>39.1</ele>
        <time>2015-07-18T12:33:52Z</time>
      </trkpt>
      <trkpt lat="50.37391" lon="3.07152">
        <ele>39.2</ele>
        <time>2015-07-18T12:33:54Z</time>
      </trkpt>
      <trkpt lat="50.37381" lon="3.0714">
        <ele>39.2</ele>
        <time>2015-07-18T12:33:57Z</time>
      </trkpt>
      <trkpt lat="50.37371" lon="3.07133">
        <ele>39.3</ele>
        <time>2015-07-18T12:34:00Z</time>
      </trkpt>
      <trkpt lat="50.37364" lon="3.07124">
        <ele>39.3</ele>
        <time>2015-07-18T12:34:03Z</time>
      </trkpt>
      <trkpt lat="50.37359" lon="3.0711">
        <ele>39.4</ele>
        <time>2015-07-18T12:34:07Z</time>
      </trkpt>
      <trkpt lat="50.37367" lon="3.07099">
        <ele>39.4</ele>
        <time>2015-07-18T12:34:10Z</time>
      </trkpt>
      <trkpt lat="50.37374" lon="3.07088">
        <ele>39.4</ele>
        <time>2015-07-18T12:34:12Z</time>
      </trkpt>
      <trkpt lat="50.37381" lon="3.07076">
        <ele>39.4</ele>
        <time>2015-07-18T12:34:14Z</time>
      </trkpt>
      <trkpt lat="50.37389" lon="3.07067">
        <ele>39.4</ele>
        <time>2015-07-18T12:34:16Z</time>
      </trkpt>
      <trkpt lat="50.37397" lon="3.07057">
        <ele>39.4</ele>
        <time>2015-07-18T12:34:18Z</time>
      </trkpt>
      <trkpt lat="50.37402" lon="3.07046">
        <ele>39.4</ele>
        <time>2015-07-18T12:34:20Z</time>
      </trkpt>
      <trkpt lat="50.37411" lon="3.0703">
        <ele>39.3</ele>
        <time>2015-07-18T12:34:23Z</time>
      </trkpt>
      <trkpt lat="50.37419" lon="3.07016">
        <ele>39.2</ele>
        <time>2015-07-18T12:34:26Z</time>
      </trkpt>
      <trkpt lat="50.37428" lon="3.07022">
        <ele>39.1</ele>
        <time>2015-07-18T12:34:28Z</time>
      </trkpt>
      <trkpt lat="50.37436" lon="3.07037">
        <ele>39.1</ele>
        <time>2015-07-18T12:34:30Z</time>
      </trkpt>
      <trkpt lat="50.37445" lon="3.07048">
        <ele>39</ele>
        <time>2015-07-18T12:34:32Z</time>
      </trkpt>
      <trkpt lat="50.37453" lon="3.07057">
        <ele>39</ele>
        <time>2015-07-18T12:34:34Z</time>
      </trkpt>
      <trkpt lat="50.37461" lon="3.07067">
        <ele>38.9</ele>
        <time>2015-07-18T12:34:36Z</time>
      </trkpt>
      <trkpt lat="50.37467" lon="3.07079">
        <ele>38.9</ele>
        <time>2015-07-18T12:34:38Z</time>
      </trkpt>
      <trkpt lat="50.37476" lon="3.07093">
        <ele>38.8</ele>
        <time>2015-07-18T12:34:40Z</time>
      </trkpt>
      <trkpt lat="50.37484" lon="3.07108">
        <ele>38.8</ele>
        <time>2015-07-18T12:34:42Z</time>
      </trkpt>
      <trkpt lat="50.37493" lon="3.07122">
        <ele>38.8</ele>
        <time>2015-07-18T12:34:44Z</time>
      </trkpt>
      <trkpt lat="50.37503" lon="3.07136">
        <ele>38.7</ele>
        <time>2015-07-18T12:34:46Z</time>
      </trkpt>
      <trkpt lat="50.37512" lon="3.0715">
        <ele>38.7</ele>
        <time>2015-07-18T12:34:48Z</time>
      </trkpt>
      <trkpt lat="50.37523" lon="3.07165">
        <ele>38.7</ele>
        <time>2015-07-18T12:34:50Z</time>
      </trkpt>
      <trkpt lat="50.37532" lon="3.07178">
        <ele>38.6</ele>
        <time>2015-07-18T12:34:52Z</time>
      </trkpt>
      <trkpt lat="50.3754" lon="3.07191">
        <ele>38.6</ele>
        <time>2015-07-18T12:34:54Z</time>
      </trkpt>
      <trkpt lat="50.37549" lon="3.07203">
        <ele>38.6</ele>
        <time>2015-07-18T12:34:56Z</time>
      </trkpt>
      <trkpt lat="50.37557" lon="3.07216">
        <ele>38.6</ele>
        <time>2015-07-18T12:34:58Z</time>
      </trkpt>
      <trkpt lat="50.37565" lon="3.07229">
        <ele>38.5</ele>
        <time>2015-07-18T12:35:00Z</time>
      </trkpt>
      <trkpt lat="50.37574" lon="3.07242">
        <ele>38.5</ele>
        <time>2015-07-18T12:35:02Z</time>
      </trkpt>
      <trkpt lat="50.37584" lon="3.07255">
        <ele>38.4</ele>
        <time>2015-07-18T12:35:04Z</time>
      </trkpt>
      <trkpt lat="50.37594" lon="3.07266">
        <ele>38.4</ele>
        <time>2015-07-18T12:35:06Z</time>
      </trkpt>
      <trkpt lat="50.376" lon="3.07278">
        <ele>38.4</ele>
        <time>2015-07-18T12:35:08Z</time>
      </trkpt>
      <trkpt lat="50.37607" lon="3.07292">
        <ele>38.3</ele>
        <time>2015-07-18T12:35:10Z</time>
      </trkpt>
      <trkpt lat="50.37615" lon="3.07304">
        <ele>38.3</ele>
        <time>2015-07-18T12:35:12Z</time>
      </trkpt>
      <trkpt lat="50.37622" lon="3.07316">
        <ele>38.3</ele>
        <time>2015-07-18T12:35:14Z</time>
      </trkpt>
      <trkpt lat="50.3763" lon="3.07329">
        <ele>38.3</ele>
        <time>2015-07-18T12:35:16Z</time>
      </trkpt>
      <trkpt lat="50.37639" lon="3.07341">
        <ele>38.3</ele>
        <time>2015-07-18T12:35:18Z</time>
      </trkpt>
      <trkpt lat="50.37647" lon="3.07353">
        <ele>38.3</ele>
        <time>2015-07-18T12:35:20Z</time>
      </trkpt>
      <trkpt lat="50.37654" lon="3.07367">
        <ele>38.3</ele>
        <time>2015-07-18T12:35:22Z</time>
      </trkpt>
      <trkpt lat="50.37663" lon="3.0738">
        <ele>38.3</ele>
        <time>2015-07-18T12:35:24Z</time>
      </trkpt>
      <trkpt lat="50.37673" lon="3.07394">
        <ele>38.2</ele>
        <time>2015-07-18T12:35:26Z</time>
      </trkpt>
      <trkpt lat="50.37683" lon="3.07407">
        <ele>38.2</ele>
        <time>2015-07-18T12:35:28Z</time>
      </trkpt>
      <trkpt lat="50.37692" lon="3.0742">
        <ele>38.2</ele>
        <time>2015-07-18T12:35:30Z</time>
      </trkpt>
      <trkpt lat="50.37701" lon="3.07433">
        <ele>38.2</ele>
        <time>2015-07-18T12:35:32Z</time>
      </trkpt>
      <trkpt lat="50.37711" lon="3.07446">
        <ele>38.2</ele>
        <time>2015-07-18T12:35:34Z</time>
      </trkpt>
      <trkpt lat="50.37721" lon="3.07459">
        <ele>38.2</ele>
        <time>2015-07-18T12:35:36Z</time>
      </trkpt>
      <trkpt lat="50.37728" lon="3.07472">
        <ele>38.2</ele>
        <time>2015-07-18T12:35:38Z</time>
      </trkpt>
      <trkpt lat="50.37734" lon="3.07484">
        <ele>38.2</ele>
        <time>2015-07-18T12:35:40Z</time>
      </trkpt>
      <trkpt lat="50.37741" lon="3.07493">
        <ele>38.2</ele>
        <time>2015-07-18T12:35:42Z</time>
      </trkpt>
      <trkpt lat="50.3775" lon="3.07507">
        <ele>38.3</ele>
        <time>2015-07-18T12:35:45Z</time>
      </trkpt>
      <trkpt lat="50.37759" lon="3.0752">
        <ele>38.4</ele>
        <time>2015-07-18T12:35:48Z</time>
      </trkpt>
      <trkpt lat="50.37769" lon="3.07529">
        <ele>38.4</ele>
        <time>2015-07-18T12:35:51Z</time>
      </trkpt>
      <trkpt lat="50.37779" lon="3.07538">
        <ele>38.5</ele>
        <time>2015-07-18T12:35:54Z</time>
      </trkpt>
      <trkpt lat="50.3779" lon="3.07531">
        <ele>38.5</ele>
        <time>2015-07-18T12:35:58Z</time>
      </trkpt>
      <trkpt lat="50.37798" lon="3.07521">
        <ele>38.6</ele>
        <time>2015-07-18T12:36:01Z</time>
      </trkpt>
      <trkpt lat="50.37807" lon="3.07512">
        <ele>38.7</ele>
        <time>2015-07-18T12:36:04Z</time>
      </trkpt>
      <trkpt lat="50.37818" lon="3.07502">
        <ele>38.9</ele>
        <time>2015-07-18T12:36:07Z</time>
      </trkpt>
      <trkpt lat="50.37827" lon="3.07496">
        <ele>38.9</ele>
        <time>2015-07-18T12:36:11Z</time>
      </trkpt>
      <trkpt lat="50.3783" lon="3.07511">
        <ele>38.8</ele>
        <time>2015-07-18T12:36:14Z</time>
      </trkpt>
      <trkpt lat="50.37832" lon="3.0753">
        <ele>38.8</ele>
        <time>2015-07-18T12:36:17Z</time>
      </trkpt>
      <trkpt lat="50.37837" lon="3.07548">
        <ele>38.6</ele>
        <time>2015-07-18T12:36:20Z</time>
      </trkpt>
      <trkpt lat="50.37844" lon="3.07563">
        <ele>38.4</ele>
        <time>2015-07-18T12:36:24Z</time>
      </trkpt>
      <trkpt lat="50.37851" lon="3.07575">
        <ele>38.3</ele>
        <time>2015-07-18T12:36:27Z</time>
      </trkpt>
      <trkpt lat="50.37856" lon="3.07589">
        <ele>38.3</ele>
        <time>2015-07-18T12:36:30Z</time>
      </trkpt>
      <trkpt lat="50.37863" lon="3.07601">
        <ele>38.4</ele>
        <time>2015-07-18T12:36:33Z</time>
      </trkpt>
      <trkpt lat="50.37871" lon="3.07613">
        <ele>38.3</ele>
        <time>2015-07-18T12:36:36Z</time>
      </trkpt>
      <trkpt lat="50.37879" lon="3.07626">
        <ele>38.3</ele>
        <time>2015-07-18T12:36:39Z</time>
      </trkpt>
      <trkpt lat="50.37888" lon="3.0764">
        <ele>38.3</ele>
        <time>2015-07-18T12:36:42Z</time>
      </trkpt>
      <trkpt lat="50.37896" lon="3.07652">
        <ele>38.3</ele>
        <time>2015-07-18T12:36:45Z</time>
      </trkpt>
      <trkpt lat="50.37904" lon="3.07662">
        <ele>38.3</ele>
        <time>2015-07-18T12:36:48Z</time>
      </trkpt>
      <trkpt lat="50.37914" lon="3.07671">
        <ele>38.2</ele>
        <time>2015-07-18T12:36:51Z</time>
      </trkpt>
      <trkpt lat="50.37923" lon="3.07688">
        <ele>38.2</ele>
        <time>2015-07-18T12:36:54Z</time>
      </trkpt>
      <trkpt lat="50.37929" lon="3.07701">
        <ele>38.3</ele>
        <time>2015-07-18T12:36:56Z</time>
      </trkpt>
      <trkpt lat="50.37935" lon="3.07712">
        <ele>38.3</ele>
        <time>2015-07-18T12:36:58Z</time>
      </trkpt>
      <trkpt lat="50.37942" lon="3.07724">
        <ele>38.3</ele>
        <time>2015-07-18T12:37:00Z</time>
      </trkpt>
      <trkpt lat="50.37949" lon="3.07735">
        <ele>38.3</ele>
        <time>2015-07-18T12:37:02Z</time>
      </trkpt>
      <trkpt lat="50.37956" lon="3.07745">
        <ele>38.3</ele>
        <time>2015-07-18T12:37:04Z</time>
      </trkpt>
      <trkpt lat="50.37963" lon="3.07755">
        <ele>38.3</ele>
        <time>2015-07-18T12:37:06Z</time>
      </trkpt>
      <trkpt lat="50.37971" lon="3.07763">
        <ele>38.4</ele>
        <time>2015-07-18T12:37:08Z</time>
      </trkpt>
      <trkpt lat="50.37979" lon="3.07771">
        <ele>38.4</ele>
        <time>2015-07-18T12:37:10Z</time>
      </trkpt>
      <trkpt lat="50.37986" lon="3.07782">
        <ele>38.4</ele>
        <time>2015-07-18T12:37:12Z</time>
      </trkpt>
      <trkpt lat="50.37994" lon="3.07792">
        <ele>38.5</ele>
        <time>2015-07-18T12:37:14Z</time>
      </trkpt>
      <trkpt lat="50.38002" lon="3.07803">
        <ele>38.5</ele>
        <time>2015-07-18T12:37:16Z</time>
      </trkpt>
      <trkpt lat="50.38009" lon="3.07814">
        <ele>38.4</ele>
        <time>2015-07-18T12:37:18Z</time>
      </trkpt>
      <trkpt lat="50.38015" lon="3.07826">
        <ele>38.4</ele>
        <time>2015-07-18T12:37:20Z</time>
      </trkpt>
      <trkpt lat="50.38022" lon="3.07839">
        <ele>38.4</ele>
        <time>2015-07-18T12:37:22Z</time>
      </trkpt>
      <trkpt lat="50.38029" lon="3.0785">
        <ele>38.4</ele>
        <time>2015-07-18T12:37:24Z</time>
      </trkpt>
      <trkpt lat="50.38036" lon="3.0786">
        <ele>38.4</ele>
        <time>2015-07-18T12:37:26Z</time>
      </trkpt>
      <trkpt lat="50.38044" lon="3.07871">
        <ele>38.5</ele>
        <time>2015-07-18T12:37:28Z</time>
      </trkpt>
      <trkpt lat="50.38051" lon="3.07881">
        <ele>38.5</ele>
        <time>2015-07-18T12:37:30Z</time>
      </trkpt>
      <trkpt lat="50.38059" lon="3.07891">
        <ele>38.6</ele>
        <time>2015-07-18T12:37:32Z</time>
      </trkpt>
      <trkpt lat="50.38068" lon="3.07901">
        <ele>38.6</ele>
        <time>2015-07-18T12:37:34Z</time>
      </trkpt>
      <trkpt lat="50.38077" lon="3.0791">
        <ele>38.7</ele>
        <time>2015-07-18T12:37:36Z</time>
      </trkpt>
      <trkpt lat="50.38086" lon="3.0792">
        <ele>38.7</ele>
        <time>2015-07-18T12:37:38Z</time>
      </trkpt>
      <trkpt lat="50.38096" lon="3.0793">
        <ele>38.7</ele>
        <time>2015-07-18T12:37:40Z</time>
      </trkpt>
      <trkpt lat="50.38106" lon="3.07941">
        <ele>38.7</ele>
        <time>2015-07-18T12:37:43Z</time>
      </trkpt>
      <trkpt lat="50.38115" lon="3.07948">
        <ele>38.7</ele>
        <time>2015-07-18T12:37:46Z</time>
      </trkpt>
      <trkpt lat="50.38124" lon="3.07958">
        <ele>38.7</ele>
        <time>2015-07-18T12:37:51Z</time>
      </trkpt>
      <trkpt lat="50.38134" lon="3.07969">
        <ele>38.7</ele>
        <time>2015-07-18T12:37:54Z</time>
      </trkpt>
      <trkpt lat="50.38144" lon="3.07978">
        <ele>38.5</ele>
        <time>2015-07-18T12:37:56Z</time>
      </trkpt>
      <trkpt lat="50.38155" lon="3.07986">
        <ele>38.3</ele>
        <time>2015-07-18T12:37:58Z</time>
      </trkpt>
      <trkpt lat="50.38168" lon="3.07995">
        <ele>38.1</ele>
        <time>2015-07-18T12:38:00Z</time>
      </trkpt>
      <trkpt lat="50.38181" lon="3.08005">
        <ele>37.8</ele>
        <time>2015-07-18T12:38:02Z</time>
      </trkpt>
      <trkpt lat="50.38195" lon="3.08014">
        <ele>37.3</ele>
        <time>2015-07-18T12:38:04Z</time>
      </trkpt>
      <trkpt lat="50.38209" lon="3.08023">
        <ele>36.8</ele>
        <time>2015-07-18T12:38:06Z</time>
      </trkpt>
      <trkpt lat="50.38222" lon="3.08032">
        <ele>36.4</ele>
        <time>2015-07-18T12:38:08Z</time>
      </trkpt>
      <trkpt lat="50.38235" lon="3.08039">
        <ele>36.1</ele>
        <time>2015-07-18T12:38:10Z</time>
      </trkpt>
      <trkpt lat="50.38248" lon="3.08046">
        <ele>36</ele>
        <time>2015-07-18T12:38:12Z</time>
      </trkpt>
      <trkpt lat="50.38261" lon="3.08054">
        <ele>35.7</ele>
        <time>2015-07-18T12:38:14Z</time>
      </trkpt>
      <trkpt lat="50.38273" lon="3.08063">
        <ele>35.6</ele>
        <time>2015-07-18T12:38:16Z</time>
      </trkpt>
      <trkpt lat="50.38286" lon="3.08071">
        <ele>35.5</ele>
        <time>2015-07-18T12:38:18Z</time>
      </trkpt>
      <trkpt lat="50.38299" lon="3.08078">
        <ele>35.4</ele>
        <time>2015-07-18T12:38:20Z</time>
      </trkpt>
      <trkpt lat="50.38312" lon="3.08085">
        <ele>35.3</ele>
        <time>2015-07-18T12:38:22Z</time>
      </trkpt>
      <trkpt lat="50.38325" lon="3.08092">
        <ele>35.2</ele>
        <time>2015-07-18T12:38:24Z</time>
      </trkpt>
      <trkpt lat="50.38339" lon="3.08099">
        <ele>35.2</ele>
        <time>2015-07-18T12:38:26Z</time>
      </trkpt>
      <trkpt lat="50.38351" lon="3.08104">
        <ele>35.1</ele>
        <time>2015-07-18T12:38:28Z</time>
      </trkpt>
      <trkpt lat="50.38364" lon="3.08109">
        <ele>35.1</ele>
        <time>2015-07-18T12:38:30Z</time>
      </trkpt>
      <trkpt lat="50.38378" lon="3.08114">
        <ele>35</ele>
        <time>2015-07-18T12:38:32Z</time>
      </trkpt>
      <trkpt lat="50.38391" lon="3.08118">
        <ele>35</ele>
        <time>2015-07-18T12:38:34Z</time>
      </trkpt>
      <trkpt lat="50.38405" lon="3.08122">
        <ele>34.9</ele>
        <time>2015-07-18T12:38:36Z</time>
      </trkpt>
      <trkpt lat="50.38418" lon="3.08125">
        <ele>35</ele>
        <time>2015-07-18T12:38:38Z</time>
      </trkpt>
      <trkpt lat="50.38431" lon="3.08126">
        <ele>35.1</ele>
        <time>2015-07-18T12:38:40Z</time>
      </trkpt>
      <trkpt lat="50.38444" lon="3.08128">
        <ele>35.2</ele>
        <time>2015-07-18T12:38:42Z</time>
      </trkpt>
      <trkpt lat="50.38457" lon="3.08129">
        <ele>35.3</ele>
        <time>2015-07-18T12:38:44Z</time>
      </trkpt>
      <trkpt lat="50.38468" lon="3.08131">
        <ele>35.5</ele>
        <time>2015-07-18T12:38:46Z</time>
      </trkpt>
      <trkpt lat="50.38479" lon="3.08133">
        <ele>35.6</ele>
        <time>2015-07-18T12:38:48Z</time>
      </trkpt>
      <trkpt lat="50.38491" lon="3.08136">
        <ele>35.6</ele>
        <time>2015-07-18T12:38:50Z</time>
      </trkpt>
      <trkpt lat="50.38506" lon="3.08137">
        <ele>35.6</ele>
        <time>2015-07-18T12:38:52Z</time>
      </trkpt>
      <trkpt lat="50.38523" lon="3.08137">
        <ele>35.5</ele>
        <time>2015-07-18T12:38:54Z</time>
      </trkpt>
      <trkpt lat="50.38539" lon="3.08136">
        <ele>35.4</ele>
        <time>2015-07-18T12:38:56Z</time>
      </trkpt>
      <trkpt lat="50.38553" lon="3.08135">
        <ele>35.4</ele>
        <time>2015-07-18T12:38:58Z</time>
      </trkpt>
      <trkpt lat="50.38567" lon="3.08134">
        <ele>35.5</ele>
        <time>2015-07-18T12:39:00Z</time>
      </trkpt>
      <trkpt lat="50.38579" lon="3.08133">
        <ele>35.6</ele>
        <time>2015-07-18T12:39:02Z</time>
      </trkpt>
      <trkpt lat="50.38592" lon="3.08132">
        <ele>35.7</ele>
        <time>2015-07-18T12:39:04Z</time>
      </trkpt>
      <trkpt lat="50.38604" lon="3.08132">
        <ele>35.7</ele>
        <time>2015-07-18T12:39:06Z</time>
      </trkpt>
      <trkpt lat="50.38618" lon="3.0813">
        <ele>35.8</ele>
        <time>2015-07-18T12:39:08Z</time>
      </trkpt>
      <trkpt lat="50.38633" lon="3.08128">
        <ele>35.7</ele>
        <time>2015-07-18T12:39:10Z</time>
      </trkpt>
      <trkpt lat="50.38646" lon="3.08126">
        <ele>35.6</ele>
        <time>2015-07-18T12:39:12Z</time>
      </trkpt>
      <trkpt lat="50.38658" lon="3.08124">
        <ele>35.6</ele>
        <time>2015-07-18T12:39:14Z</time>
      </trkpt>
      <trkpt lat="50.38671" lon="3.08121">
        <ele>35.6</ele>
        <time>2015-07-18T12:39:16Z</time>
      </trkpt>
      <trkpt lat="50.38684" lon="3.08118">
        <ele>35.5</ele>
        <time>2015-07-18T12:39:18Z</time>
      </trkpt>
      <trkpt lat="50.38697" lon="3.08115">
        <ele>35.4</ele>
        <time>2015-07-18T12:39:20Z</time>
      </trkpt>
      <trkpt lat="50.3871" lon="3.08113">
        <ele>35.4</ele>
        <time>2015-07-18T12:39:22Z</time>
      </trkpt>
      <trkpt lat="50.38723" lon="3.0811">
        <ele>35.3</ele>
        <time>2015-07-18T12:39:24Z</time>
      </trkpt>
      <trkpt lat="50.38736" lon="3.08103">
        <ele>35.3</ele>
        <time>2015-07-18T12:39:26Z</time>
      </trkpt>
      <trkpt lat="50.38748" lon="3.08097">
        <ele>35.3</ele>
        <time>2015-07-18T12:39:28Z</time>
      </trkpt>
      <trkpt lat="50.38759" lon="3.08094">
        <ele>35.3</ele>
        <time>2015-07-18T12:39:30Z</time>
      </trkpt>
      <trkpt lat="50.3877" lon="3.08087">
        <ele>35.3</ele>
        <time>2015-07-18T12:39:32Z</time>
      </trkpt>
      <trkpt lat="50.38781" lon="3.08079">
        <ele>35.3</ele>
        <time>2015-07-18T12:39:34Z</time>
      </trkpt>
      <trkpt lat="50.38793" lon="3.08071">
        <ele>35.3</ele>
        <time>2015-07-18T12:39:36Z</time>
      </trkpt>
      <trkpt lat="50.38804" lon="3.08065">
        <ele>35.3</ele>
        <time>2015-07-18T12:39:38Z</time>
      </trkpt>
      <trkpt lat="50.38815" lon="3.0806">
        <ele>35.2</ele>
        <time>2015-07-18T12:39:40Z</time>
      </trkpt>
      <trkpt lat="50.38825" lon="3.08054">
        <ele>35.2</ele>
        <time>2015-07-18T12:39:42Z</time>
      </trkpt>
      <trkpt lat="50.38835" lon="3.08049">
        <ele>35.2</ele>
        <time>2015-07-18T12:39:44Z</time>
      </trkpt>
      <trkpt lat="50.38847" lon="3.08043">
        <ele>35.2</ele>
        <time>2015-07-18T12:39:46Z</time>
      </trkpt>
      <trkpt lat="50.38858" lon="3.08038">
        <ele>35.1</ele>
        <time>2015-07-18T12:39:48Z</time>
      </trkpt>
      <trkpt lat="50.38869" lon="3.08032">
        <ele>35</ele>
        <time>2015-07-18T12:39:50Z</time>
      </trkpt>
      <trkpt lat="50.38881" lon="3.08026">
        <ele>35</ele>
        <time>2015-07-18T12:39:52Z</time>
      </trkpt>
      <trkpt lat="50.38892" lon="3.08021">
        <ele>35</ele>
        <time>2015-07-18T12:39:54Z</time>
      </trkpt>
      <trkpt lat="50.38903" lon="3.08014">
        <ele>34.9</ele>
        <time>2015-07-18T12:39:56Z</time>
      </trkpt>
      <trkpt lat="50.38914" lon="3.08009">
        <ele>34.9</ele>
        <time>2015-07-18T12:39:58Z</time>
      </trkpt>
      <trkpt lat="50.38923" lon="3.08004">
        <ele>34.9</ele>
        <time>2015-07-18T12:40:00Z</time>
      </trkpt>
      <trkpt lat="50.38932" lon="3.08">
        <ele>34.9</ele>
        <time>2015-07-18T12:40:02Z</time>
      </trkpt>
      <trkpt lat="50.38945" lon="3.07994">
        <ele>34.8</ele>
        <time>2015-07-18T12:40:05Z</time>
      </trkpt>
      <trkpt lat="50.38956" lon="3.07988">
        <ele>34.8</ele>
        <time>2015-07-18T12:40:08Z</time>
      </trkpt>
      <trkpt lat="50.38967" lon="3.07983">
        <ele>34.8</ele>
        <time>2015-07-18T12:40:11Z</time>
      </trkpt>
      <trkpt lat="50.38979" lon="3.07978">
        <ele>34.8</ele>
        <time>2015-07-18T12:40:14Z</time>
      </trkpt>
      <trkpt lat="50.38988" lon="3.07973">
        <ele>34.8</ele>
        <time>2015-07-18T12:40:17Z</time>
      </trkpt>
      <trkpt lat="50.38997" lon="3.07968">
        <ele>34.8</ele>
        <time>2015-07-18T12:40:20Z</time>
      </trkpt>
      <trkpt lat="50.39007" lon="3.07962">
        <ele>34.9</ele>
        <time>2015-07-18T12:40:23Z</time>
      </trkpt>
      <trkpt lat="50.39018" lon="3.07956">
        <ele>35</ele>
        <time>2015-07-18T12:40:26Z</time>
      </trkpt>
      <trkpt lat="50.39027" lon="3.07957">
        <ele>35.2</ele>
        <time>2015-07-18T12:40:29Z</time>
      </trkpt>
      <trkpt lat="50.39037" lon="3.07965">
        <ele>35.4</ele>
        <time>2015-07-18T12:40:32Z</time>
      </trkpt>
      <trkpt lat="50.39042" lon="3.07979">
        <ele>35.7</ele>
        <time>2015-07-18T12:40:35Z</time>
      </trkpt>
      <trkpt lat="50.39046" lon="3.07996">
        <ele>36.1</ele>
        <time>2015-07-18T12:40:38Z</time>
      </trkpt>
      <trkpt lat="50.39051" lon="3.08013">
        <ele>36.5</ele>
        <time>2015-07-18T12:40:41Z</time>
      </trkpt>
      <trkpt lat="50.39055" lon="3.08027">
        <ele>36.8</ele>
        <time>2015-07-18T12:40:43Z</time>
      </trkpt>
      <trkpt lat="50.39059" lon="3.08041">
        <ele>37</ele>
        <time>2015-07-18T12:40:45Z</time>
      </trkpt>
      <trkpt lat="50.39062" lon="3.08056">
        <ele>37.3</ele>
        <time>2015-07-18T12:40:47Z</time>
      </trkpt>
      <trkpt lat="50.39064" lon="3.0807">
        <ele>37.5</ele>
        <time>2015-07-18T12:40:49Z</time>
      </trkpt>
      <trkpt lat="50.39067" lon="3.08083">
        <ele>37.6</ele>
        <time>2015-07-18T12:40:51Z</time>
      </trkpt>
      <trkpt lat="50.39071" lon="3.081">
        <ele>37.8</ele>
        <time>2015-07-18T12:40:54Z</time>
      </trkpt>
      <trkpt lat="50.39065" lon="3.08111">
        <ele>38</ele>
        <time>2015-07-18T12:40:57Z</time>
      </trkpt>
      <trkpt lat="50.39055" lon="3.08117">
        <ele>38.2</ele>
        <time>2015-07-18T12:41:00Z</time>
      </trkpt>
      <trkpt lat="50.39047" lon="3.08123">
        <ele>38.3</ele>
        <time>2015-07-18T12:41:02Z</time>
      </trkpt>
      <trkpt lat="50.39038" lon="3.08131">
        <ele>38.3</ele>
        <time>2015-07-18T12:41:04Z</time>
      </trkpt>
      <trkpt lat="50.39028" lon="3.08138">
        <ele>38.3</ele>
        <time>2015-07-18T12:41:06Z</time>
      </trkpt>
      <trkpt lat="50.39018" lon="3.08145">
        <ele>38.4</ele>
        <time>2015-07-18T12:41:08Z</time>
      </trkpt>
      <trkpt lat="50.39008" lon="3.08152">
        <ele>38.4</ele>
        <time>2015-07-18T12:41:10Z</time>
      </trkpt>
      <trkpt lat="50.38997" lon="3.08159">
        <ele>38.4</ele>
        <time>2015-07-18T12:41:12Z</time>
      </trkpt>
      <trkpt lat="50.38987" lon="3.08166">
        <ele>38.4</ele>
        <time>2015-07-18T12:41:14Z</time>
      </trkpt>
      <trkpt lat="50.38978" lon="3.08175">
        <ele>38.4</ele>
        <time>2015-07-18T12:41:17Z</time>
      </trkpt>
      <trkpt lat="50.38979" lon="3.08192">
        <ele>38.5</ele>
        <time>2015-07-18T12:41:20Z</time>
      </trkpt>
      <trkpt lat="50.38982" lon="3.08207">
        <ele>38.5</ele>
        <time>2015-07-18T12:41:22Z</time>
      </trkpt>
      <trkpt lat="50.38984" lon="3.08225">
        <ele>38.4</ele>
        <time>2015-07-18T12:41:24Z</time>
      </trkpt>
      <trkpt lat="50.38985" lon="3.08247">
        <ele>38.2</ele>
        <time>2015-07-18T12:41:26Z</time>
      </trkpt>
      <trkpt lat="50.38988" lon="3.08271">
        <ele>37.9</ele>
        <time>2015-07-18T12:41:28Z</time>
      </trkpt>
      <trkpt lat="50.38989" lon="3.08285">
        <ele>37.8</ele>
        <time>2015-07-18T12:41:29Z</time>
      </trkpt>
      <trkpt lat="50.3899" lon="3.083">
        <ele>37.7</ele>
        <time>2015-07-18T12:41:30Z</time>
      </trkpt>
      <trkpt lat="50.3899" lon="3.08326">
        <ele>37.4</ele>
        <time>2015-07-18T12:41:32Z</time>
      </trkpt>
      <trkpt lat="50.38988" lon="3.08351">
        <ele>37.1</ele>
        <time>2015-07-18T12:41:34Z</time>
      </trkpt>
      <trkpt lat="50.38985" lon="3.08375">
        <ele>36.9</ele>
        <time>2015-07-18T12:41:36Z</time>
      </trkpt>
      <trkpt lat="50.38979" lon="3.08394">
        <ele>36.6</ele>
        <time>2015-07-18T12:41:38Z</time>
      </trkpt>
      <trkpt lat="50.3897" lon="3.08408">
        <ele>36.3</ele>
        <time>2015-07-18T12:41:40Z</time>
      </trkpt>
      <trkpt lat="50.3896" lon="3.08417">
        <ele>36.1</ele>
        <time>2015-07-18T12:41:42Z</time>
      </trkpt>
      <trkpt lat="50.38948" lon="3.08425">
        <ele>35.9</ele>
        <time>2015-07-18T12:41:44Z</time>
      </trkpt>
      <trkpt lat="50.38936" lon="3.08431">
        <ele>35.7</ele>
        <time>2015-07-18T12:41:46Z</time>
      </trkpt>
      <trkpt lat="50.38924" lon="3.08438">
        <ele>35.6</ele>
        <time>2015-07-18T12:41:48Z</time>
      </trkpt>
      <trkpt lat="50.38912" lon="3.08445">
        <ele>35.4</ele>
        <time>2015-07-18T12:41:50Z</time>
      </trkpt>
      <trkpt lat="50.38901" lon="3.08453">
        <ele>35.3</ele>
        <time>2015-07-18T12:41:52Z</time>
      </trkpt>
      <trkpt lat="50.38889" lon="3.0846">
        <ele>35.2</ele>
        <time>2015-07-18T12:41:54Z</time>
      </trkpt>
      <trkpt lat="50.38878" lon="3.08466">
        <ele>35.1</ele>
        <time>2015-07-18T12:41:56Z</time>
      </trkpt>
      <trkpt lat="50.38867" lon="3.08473">
        <ele>35</ele>
        <time>2015-07-18T12:41:58Z</time>
      </trkpt>
      <trkpt lat="50.38855" lon="3.0848">
        <ele>34.9</ele>
        <time>2015-07-18T12:42:00Z</time>
      </trkpt>
      <trkpt lat="50.38844" lon="3.08486">
        <ele>34.8</ele>
        <time>2015-07-18T12:42:02Z</time>
      </trkpt>
      <trkpt lat="50.38833" lon="3.08494">
        <ele>34.7</ele>
        <time>2015-07-18T12:42:04Z</time>
      </trkpt>
      <trkpt lat="50.38822" lon="3.08501">
        <ele>34.6</ele>
        <time>2015-07-18T12:42:06Z</time>
      </trkpt>
      <trkpt lat="50.38811" lon="3.08509">
        <ele>34.5</ele>
        <time>2015-07-18T12:42:08Z</time>
      </trkpt>
      <trkpt lat="50.38799" lon="3.08517">
        <ele>34.4</ele>
        <time>2015-07-18T12:42:10Z</time>
      </trkpt>
      <trkpt lat="50.38788" lon="3.08524">
        <ele>34.4</ele>
        <time>2015-07-18T12:42:12Z</time>
      </trkpt>
      <trkpt lat="50.38776" lon="3.08531">
        <ele>34.5</ele>
        <time>2015-07-18T12:42:14Z</time>
      </trkpt>
      <trkpt lat="50.38765" lon="3.08538">
        <ele>34.5</ele>
        <time>2015-07-18T12:42:16Z</time>
      </trkpt>
      <trkpt lat="50.38753" lon="3.08546">
        <ele>34.4</ele>
        <time>2015-07-18T12:42:18Z</time>
      </trkpt>
      <trkpt lat="50.38742" lon="3.08553">
        <ele>34.4</ele>
        <time>2015-07-18T12:42:20Z</time>
      </trkpt>
      <trkpt lat="50.3873" lon="3.0856">
        <ele>34.4</ele>
        <time>2015-07-18T12:42:22Z</time>
      </trkpt>
      <trkpt lat="50.38719" lon="3.08568">
        <ele>34.4</ele>
        <time>2015-07-18T12:42:24Z</time>
      </trkpt>
      <trkpt lat="50.38707" lon="3.08576">
        <ele>34.5</ele>
        <time>2015-07-18T12:42:26Z</time>
      </trkpt>
      <trkpt lat="50.38696" lon="3.08583">
        <ele>34.6</ele>
        <time>2015-07-18T12:42:28Z</time>
      </trkpt>
      <trkpt lat="50.38685" lon="3.0859">
        <ele>34.6</ele>
        <time>2015-07-18T12:42:30Z</time>
      </trkpt>
      <trkpt lat="50.38674" lon="3.08596">
        <ele>34.6</ele>
        <time>2015-07-18T12:42:32Z</time>
      </trkpt>
      <trkpt lat="50.38663" lon="3.08604">
        <ele>34.6</ele>
        <time>2015-07-18T12:42:34Z</time>
      </trkpt>
      <trkpt lat="50.38653" lon="3.08611">
        <ele>34.7</ele>
        <time>2015-07-18T12:42:36Z</time>
      </trkpt>
      <trkpt lat="50.38642" lon="3.08619">
        <ele>34.7</ele>
        <time>2015-07-18T12:42:38Z</time>
      </trkpt>
      <trkpt lat="50.38631" lon="3.08626">
        <ele>34.7</ele>
        <time>2015-07-18T12:42:40Z</time>
      </trkpt>
      <trkpt lat="50.3862" lon="3.08634">
        <ele>34.7</ele>
        <time>2015-07-18T12:42:42Z</time>
      </trkpt>
      <trkpt lat="50.3861" lon="3.08642">
        <ele>34.7</ele>
        <time>2015-07-18T12:42:44Z</time>
      </trkpt>
      <trkpt lat="50.386" lon="3.08651">
        <ele>34.7</ele>
        <time>2015-07-18T12:42:46Z</time>
      </trkpt>
      <trkpt lat="50.3859" lon="3.08659">
        <ele>34.7</ele>
        <time>2015-07-18T12:42:48Z</time>
      </trkpt>
      <trkpt lat="50.38579" lon="3.08668">
        <ele>34.7</ele>
        <time>2015-07-18T12:42:50Z</time>
      </trkpt>
      <trkpt lat="50.38568" lon="3.08679">
        <ele>34.6</ele>
        <time>2015-07-18T12:42:52Z</time>
      </trkpt>
      <trkpt lat="50.38558" lon="3.0869">
        <ele>34.6</ele>
        <time>2015-07-18T12:42:54Z</time>
      </trkpt>
      <trkpt lat="50.38548" lon="3.08701">
        <ele>34.5</ele>
        <time>2015-07-18T12:42:56Z</time>
      </trkpt>
      <trkpt lat="50.38538" lon="3.08714">
        <ele>34.5</ele>
        <time>2015-07-18T12:42:58Z</time>
      </trkpt>
      <trkpt lat="50.38531" lon="3.0873">
        <ele>34.5</ele>
        <time>2015-07-18T12:43:00Z</time>
      </trkpt>
      <trkpt lat="50.38524" lon="3.08747">
        <ele>34.4</ele>
        <time>2015-07-18T12:43:02Z</time>
      </trkpt>
      <trkpt lat="50.3852" lon="3.08765">
        <ele>34.4</ele>
        <time>2015-07-18T12:43:04Z</time>
      </trkpt>
      <trkpt lat="50.38517" lon="3.08782">
        <ele>34.5</ele>
        <time>2015-07-18T12:43:06Z</time>
      </trkpt>
      <trkpt lat="50.38516" lon="3.08799">
        <ele>34.5</ele>
        <time>2015-07-18T12:43:08Z</time>
      </trkpt>
      <trkpt lat="50.38515" lon="3.08814">
        <ele>34.6</ele>
        <time>2015-07-18T12:43:10Z</time>
      </trkpt>
      <trkpt lat="50.38516" lon="3.08832">
        <ele>34.6</ele>
        <time>2015-07-18T12:43:13Z</time>
      </trkpt>
      <trkpt lat="50.38515" lon="3.08852">
        <ele>34.6</ele>
        <time>2015-07-18T12:43:16Z</time>
      </trkpt>
      <trkpt lat="50.38515" lon="3.08872">
        <ele>34.6</ele>
        <time>2015-07-18T12:43:19Z</time>
      </trkpt>
      <trkpt lat="50.38515" lon="3.0889">
        <ele>34.7</ele>
        <time>2015-07-18T12:43:22Z</time>
      </trkpt>
      <trkpt lat="50.38519" lon="3.08904">
        <ele>34.8</ele>
        <time>2015-07-18T12:43:24Z</time>
      </trkpt>
      <trkpt lat="50.38525" lon="3.08924">
        <ele>34.8</ele>
        <time>2015-07-18T12:43:26Z</time>
      </trkpt>
      <trkpt lat="50.3853" lon="3.08945">
        <ele>34.8</ele>
        <time>2015-07-18T12:43:28Z</time>
      </trkpt>
      <trkpt lat="50.38533" lon="3.08965">
        <ele>34.9</ele>
        <time>2015-07-18T12:43:30Z</time>
      </trkpt>
      <trkpt lat="50.38535" lon="3.08985">
        <ele>34.9</ele>
        <time>2015-07-18T12:43:32Z</time>
      </trkpt>
      <trkpt lat="50.38537" lon="3.09005">
        <ele>34.9</ele>
        <time>2015-07-18T12:43:34Z</time>
      </trkpt>
      <trkpt lat="50.38539" lon="3.09023">
        <ele>34.8</ele>
        <time>2015-07-18T12:43:36Z</time>
      </trkpt>
      <trkpt lat="50.38541" lon="3.09039">
        <ele>34.6</ele>
        <time>2015-07-18T12:43:38Z</time>
      </trkpt>
      <trkpt lat="50.38542" lon="3.09055">
        <ele>34.5</ele>
        <time>2015-07-18T12:43:40Z</time>
      </trkpt>
      <trkpt lat="50.38545" lon="3.09071">
        <ele>34.6</ele>
        <time>2015-07-18T12:43:42Z</time>
      </trkpt>
      <trkpt lat="50.38548" lon="3.09087">
        <ele>34.7</ele>
        <time>2015-07-18T12:43:44Z</time>
      </trkpt>
      <trkpt lat="50.38552" lon="3.09102">
        <ele>34.7</ele>
        <time>2015-07-18T12:43:46Z</time>
      </trkpt>
      <trkpt lat="50.38557" lon="3.09117">
        <ele>34.7</ele>
        <time>2015-07-18T12:43:48Z</time>
      </trkpt>
      <trkpt lat="50.38561" lon="3.09134">
        <ele>34.7</ele>
        <time>2015-07-18T12:43:50Z</time>
      </trkpt>
      <trkpt lat="50.38563" lon="3.09151">
        <ele>34.8</ele>
        <time>2015-07-18T12:43:52Z</time>
      </trkpt>
      <trkpt lat="50.38566" lon="3.09168">
        <ele>34.7</ele>
        <time>2015-07-18T12:43:54Z</time>
      </trkpt>
      <trkpt lat="50.38568" lon="3.09184">
        <ele>34.7</ele>
        <time>2015-07-18T12:43:56Z</time>
      </trkpt>
      <trkpt lat="50.3857" lon="3.09199">
        <ele>34.6</ele>
        <time>2015-07-18T12:43:58Z</time>
      </trkpt>
      <trkpt lat="50.38572" lon="3.09214">
        <ele>34.6</ele>
        <time>2015-07-18T12:44:00Z</time>
      </trkpt>
      <trkpt lat="50.38574" lon="3.09229">
        <ele>34.6</ele>
        <time>2015-07-18T12:44:02Z</time>
      </trkpt>
      <trkpt lat="50.38577" lon="3.09243">
        <ele>34.4</ele>
        <time>2015-07-18T12:44:04Z</time>
      </trkpt>
      <trkpt lat="50.38579" lon="3.09258">
        <ele>34.3</ele>
        <time>2015-07-18T12:44:06Z</time>
      </trkpt>
      <trkpt lat="50.38582" lon="3.09273">
        <ele>34.2</ele>
        <time>2015-07-18T12:44:08Z</time>
      </trkpt>
      <trkpt lat="50.38584" lon="3.09289">
        <ele>34.2</ele>
        <time>2015-07-18T12:44:10Z</time>
      </trkpt>
      <trkpt lat="50.38587" lon="3.09304">
        <ele>34.2</ele>
        <time>2015-07-18T12:44:12Z</time>
      </trkpt>
      <trkpt lat="50.3859" lon="3.09319">
        <ele>34.1</ele>
        <time>2015-07-18T12:44:14Z</time>
      </trkpt>
      <trkpt lat="50.38593" lon="3.09335">
        <ele>34.1</ele>
        <time>2015-07-18T12:44:16Z</time>
      </trkpt>
      <trkpt lat="50.38598" lon="3.09352">
        <ele>34</ele>
        <time>2015-07-18T12:44:18Z</time>
      </trkpt>
      <trkpt lat="50.38603" lon="3.09369">
        <ele>34</ele>
        <time>2015-07-18T12:44:20Z</time>
      </trkpt>
      <trkpt lat="50.38608" lon="3.09384">
        <ele>34</ele>
        <time>2015-07-18T12:44:22Z</time>
      </trkpt>
      <trkpt lat="50.38614" lon="3.09401">
        <ele>34</ele>
        <time>2015-07-18T12:44:24Z</time>
      </trkpt>
      <trkpt lat="50.3862" lon="3.09415">
        <ele>33.9</ele>
        <time>2015-07-18T12:44:26Z</time>
      </trkpt>
      <trkpt lat="50.38627" lon="3.0943">
        <ele>33.9</ele>
        <time>2015-07-18T12:44:28Z</time>
      </trkpt>
      <trkpt lat="50.38634" lon="3.09444">
        <ele>33.8</ele>
        <time>2015-07-18T12:44:30Z</time>
      </trkpt>
      <trkpt lat="50.38642" lon="3.09458">
        <ele>33.7</ele>
        <time>2015-07-18T12:44:32Z</time>
      </trkpt>
      <trkpt lat="50.3865" lon="3.09471">
        <ele>33.8</ele>
        <time>2015-07-18T12:44:34Z</time>
      </trkpt>
      <trkpt lat="50.38658" lon="3.09483">
        <ele>33.8</ele>
        <time>2015-07-18T12:44:36Z</time>
      </trkpt>
      <trkpt lat="50.38666" lon="3.09495">
        <ele>33.8</ele>
        <time>2015-07-18T12:44:38Z</time>
      </trkpt>
      <trkpt lat="50.38674" lon="3.09507">
        <ele>33.8</ele>
        <time>2015-07-18T12:44:40Z</time>
      </trkpt>
      <trkpt lat="50.38682" lon="3.09518">
        <ele>33.8</ele>
        <time>2015-07-18T12:44:42Z</time>
      </trkpt>
      <trkpt lat="50.38691" lon="3.0953">
        <ele>33.8</ele>
        <time>2015-07-18T12:44:44Z</time>
      </trkpt>
      <trkpt lat="50.38699" lon="3.09541">
        <ele>33.8</ele>
        <time>2015-07-18T12:44:46Z</time>
      </trkpt>
      <trkpt lat="50.38708" lon="3.09552">
        <ele>33.8</ele>
        <time>2015-07-18T12:44:48Z</time>
      </trkpt>
      <trkpt lat="50.38717" lon="3.09565">
        <ele>33.8</ele>
        <time>2015-07-18T12:44:50Z</time>
      </trkpt>
      <trkpt lat="50.38726" lon="3.09577">
        <ele>33.8</ele>
        <time>2015-07-18T12:44:52Z</time>
      </trkpt>
      <trkpt lat="50.38735" lon="3.0959">
        <ele>34</ele>
        <time>2015-07-18T12:44:54Z</time>
      </trkpt>
      <trkpt lat="50.38744" lon="3.09602">
        <ele>34.1</ele>
        <time>2015-07-18T12:44:56Z</time>
      </trkpt>
      <trkpt lat="50.38753" lon="3.09614">
        <ele>34.2</ele>
        <time>2015-07-18T12:44:58Z</time>
      </trkpt>
      <trkpt lat="50.38762" lon="3.09625">
        <ele>34.3</ele>
        <time>2015-07-18T12:45:00Z</time>
      </trkpt>
      <trkpt lat="50.38771" lon="3.09637">
        <ele>34.3</ele>
        <time>2015-07-18T12:45:02Z</time>
      </trkpt>
      <trkpt lat="50.3878" lon="3.09649">
        <ele>34.3</ele>
        <time>2015-07-18T12:45:04Z</time>
      </trkpt>
      <trkpt lat="50.38789" lon="3.09662">
        <ele>34.3</ele>
        <time>2015-07-18T12:45:06Z</time>
      </trkpt>
      <trkpt lat="50.38798" lon="3.09673">
        <ele>34.2</ele>
        <time>2015-07-18T12:45:08Z</time>
      </trkpt>
      <trkpt lat="50.38807" lon="3.09685">
        <ele>34.1</ele>
        <time>2015-07-18T12:45:10Z</time>
      </trkpt>
      <trkpt lat="50.38816" lon="3.09697">
        <ele>34</ele>
        <time>2015-07-18T12:45:12Z</time>
      </trkpt>
      <trkpt lat="50.38825" lon="3.09709">
        <ele>33.9</ele>
        <time>2015-07-18T12:45:14Z</time>
      </trkpt>
      <trkpt lat="50.38834" lon="3.09721">
        <ele>33.8</ele>
        <time>2015-07-18T12:45:16Z</time>
      </trkpt>
      <trkpt lat="50.38843" lon="3.09733">
        <ele>33.8</ele>
        <time>2015-07-18T12:45:18Z</time>
      </trkpt>
      <trkpt lat="50.38853" lon="3.09746">
        <ele>33.7</ele>
        <time>2015-07-18T12:45:20Z</time>
      </trkpt>
      <trkpt lat="50.38862" lon="3.09757">
        <ele>33.7</ele>
        <time>2015-07-18T12:45:22Z</time>
      </trkpt>
      <trkpt lat="50.38872" lon="3.09769">
        <ele>33.7</ele>
        <time>2015-07-18T12:45:24Z</time>
      </trkpt>
      <trkpt lat="50.3888" lon="3.0978">
        <ele>33.7</ele>
        <time>2015-07-18T12:45:26Z</time>
      </trkpt>
      <trkpt lat="50.38888" lon="3.09788">
        <ele>33.7</ele>
        <time>2015-07-18T12:45:28Z</time>
      </trkpt>
      <trkpt lat="50.38896" lon="3.09794">
        <ele>33.8</ele>
        <time>2015-07-18T12:45:30Z</time>
      </trkpt>
      <trkpt lat="50.38904" lon="3.09804">
        <ele>33.8</ele>
        <time>2015-07-18T12:45:32Z</time>
      </trkpt>
      <trkpt lat="50.38912" lon="3.09812">
        <ele>33.8</ele>
        <time>2015-07-18T12:45:34Z</time>
      </trkpt>
      <trkpt lat="50.38922" lon="3.09825">
        <ele>33.8</ele>
        <time>2015-07-18T12:45:37Z</time>
      </trkpt>
      <trkpt lat="50.38932" lon="3.09836">
        <ele>33.8</ele>
        <time>2015-07-18T12:45:40Z</time>
      </trkpt>
      <trkpt lat="50.3894" lon="3.09848">
        <ele>33.8</ele>
        <time>2015-07-18T12:45:43Z</time>
      </trkpt>
      <trkpt lat="50.38947" lon="3.09859">
        <ele>33.8</ele>
        <time>2015-07-18T12:45:46Z</time>
      </trkpt>
      <trkpt lat="50.38955" lon="3.0987">
        <ele>33.7</ele>
        <time>2015-07-18T12:45:49Z</time>
      </trkpt>
      <trkpt lat="50.38961" lon="3.0988">
        <ele>33.7</ele>
        <time>2015-07-18T12:45:52Z</time>
      </trkpt>
      <trkpt lat="50.38969" lon="3.09891">
        <ele>33.7</ele>
        <time>2015-07-18T12:45:56Z</time>
      </trkpt>
      <trkpt lat="50.3898" lon="3.09894">
        <ele>33.7</ele>
        <time>2015-07-18T12:46:00Z</time>
      </trkpt>
      <trkpt lat="50.3899" lon="3.09884">
        <ele>33.7</ele>
        <time>2015-07-18T12:46:03Z</time>
      </trkpt>
      <trkpt lat="50.38999" lon="3.09872">
        <ele>33.7</ele>
        <time>2015-07-18T12:46:06Z</time>
      </trkpt>
      <trkpt lat="50.39009" lon="3.09863">
        <ele>33.6</ele>
        <time>2015-07-18T12:46:09Z</time>
      </trkpt>
      <trkpt lat="50.39021" lon="3.09858">
        <ele>33.7</ele>
        <time>2015-07-18T12:46:12Z</time>
      </trkpt>
      <trkpt lat="50.39034" lon="3.09853">
        <ele>33.8</ele>
        <time>2015-07-18T12:46:15Z</time>
      </trkpt>
      <trkpt lat="50.39047" lon="3.09847">
        <ele>34</ele>
        <time>2015-07-18T12:46:18Z</time>
      </trkpt>
      <trkpt lat="50.39057" lon="3.09837">
        <ele>34.1</ele>
        <time>2015-07-18T12:46:21Z</time>
      </trkpt>
      <trkpt lat="50.39065" lon="3.09822">
        <ele>34.2</ele>
        <time>2015-07-18T12:46:24Z</time>
      </trkpt>
      <trkpt lat="50.39072" lon="3.09807">
        <ele>34.4</ele>
        <time>2015-07-18T12:46:27Z</time>
      </trkpt>
      <trkpt lat="50.39083" lon="3.09799">
        <ele>34.5</ele>
        <time>2015-07-18T12:46:30Z</time>
      </trkpt>
      <trkpt lat="50.39092" lon="3.09803">
        <ele>34.5</ele>
        <time>2015-07-18T12:46:32Z</time>
      </trkpt>
      <trkpt lat="50.391" lon="3.09811">
        <ele>34.6</ele>
        <time>2015-07-18T12:46:34Z</time>
      </trkpt>
      <trkpt lat="50.39108" lon="3.09822">
        <ele>34.6</ele>
        <time>2015-07-18T12:46:36Z</time>
      </trkpt>
      <trkpt lat="50.39115" lon="3.09832">
        <ele>34.6</ele>
        <time>2015-07-18T12:46:38Z</time>
      </trkpt>
      <trkpt lat="50.39122" lon="3.09841">
        <ele>34.7</ele>
        <time>2015-07-18T12:46:40Z</time>
      </trkpt>
      <trkpt lat="50.39131" lon="3.09854">
        <ele>34.7</ele>
        <time>2015-07-18T12:46:43Z</time>
      </trkpt>
      <trkpt lat="50.39136" lon="3.0987">
        <ele>34.7</ele>
        <time>2015-07-18T12:46:46Z</time>
      </trkpt>
      <trkpt lat="50.39134" lon="3.0989">
        <ele>34.7</ele>
        <time>2015-07-18T12:46:49Z</time>
      </trkpt>
      <trkpt lat="50.39136" lon="3.09909">
        <ele>34.7</ele>
        <time>2015-07-18T12:46:52Z</time>
      </trkpt>
      <trkpt lat="50.39141" lon="3.09927">
        <ele>34.7</ele>
        <time>2015-07-18T12:46:55Z</time>
      </trkpt>
      <trkpt lat="50.39148" lon="3.0994">
        <ele>34.7</ele>
        <time>2015-07-18T12:46:58Z</time>
      </trkpt>
      <trkpt lat="50.39155" lon="3.09952">
        <ele>34.7</ele>
        <time>2015-07-18T12:47:03Z</time>
      </trkpt>
      <trkpt lat="50.39162" lon="3.09962">
        <ele>34.2</ele>
        <time>2015-07-18T12:47:34Z</time>
      </trkpt>
      <trkpt lat="50.3917" lon="3.09973">
        <ele>34.1</ele>
        <time>2015-07-18T12:47:38Z</time>
      </trkpt>
      <trkpt lat="50.39178" lon="3.09984">
        <ele>34.1</ele>
        <time>2015-07-18T12:47:41Z</time>
      </trkpt>
      <trkpt lat="50.39187" lon="3.09996">
        <ele>34</ele>
        <time>2015-07-18T12:47:44Z</time>
      </trkpt>
      <trkpt lat="50.39195" lon="3.10009">
        <ele>34</ele>
        <time>2015-07-18T12:47:47Z</time>
      </trkpt>
      <trkpt lat="50.39204" lon="3.10022">
        <ele>33.9</ele>
        <time>2015-07-18T12:47:50Z</time>
      </trkpt>
      <trkpt lat="50.39213" lon="3.10034">
        <ele>33.8</ele>
        <time>2015-07-18T12:47:53Z</time>
      </trkpt>
      <trkpt lat="50.3922" lon="3.10044">
        <ele>33.8</ele>
        <time>2015-07-18T12:47:55Z</time>
      </trkpt>
      <trkpt lat="50.39227" lon="3.10054">
        <ele>33.7</ele>
        <time>2015-07-18T12:47:57Z</time>
      </trkpt>
      <trkpt lat="50.39234" lon="3.10063">
        <ele>33.7</ele>
        <time>2015-07-18T12:47:59Z</time>
      </trkpt>
      <trkpt lat="50.39241" lon="3.10072">
        <ele>33.6</ele>
        <time>2015-07-18T12:48:01Z</time>
      </trkpt>
      <trkpt lat="50.39248" lon="3.10082">
        <ele>33.6</ele>
        <time>2015-07-18T12:48:03Z</time>
      </trkpt>
      <trkpt lat="50.39255" lon="3.10092">
        <ele>33.5</ele>
        <time>2015-07-18T12:48:05Z</time>
      </trkpt>
      <trkpt lat="50.39263" lon="3.101">
        <ele>33.4</ele>
        <time>2015-07-18T12:48:07Z</time>
      </trkpt>
      <trkpt lat="50.39271" lon="3.10108">
        <ele>33.4</ele>
        <time>2015-07-18T12:48:09Z</time>
      </trkpt>
      <trkpt lat="50.39282" lon="3.1012">
        <ele>33.3</ele>
        <time>2015-07-18T12:48:12Z</time>
      </trkpt>
      <trkpt lat="50.39291" lon="3.10126">
        <ele>33.3</ele>
        <time>2015-07-18T12:48:14Z</time>
      </trkpt>
      <trkpt lat="50.393" lon="3.10135">
        <ele>33.2</ele>
        <time>2015-07-18T12:48:16Z</time>
      </trkpt>
      <trkpt lat="50.39309" lon="3.10144">
        <ele>33.2</ele>
        <time>2015-07-18T12:48:18Z</time>
      </trkpt>
      <trkpt lat="50.39318" lon="3.10153">
        <ele>33.1</ele>
        <time>2015-07-18T12:48:20Z</time>
      </trkpt>
      <trkpt lat="50.39327" lon="3.10162">
        <ele>33.1</ele>
        <time>2015-07-18T12:48:22Z</time>
      </trkpt>
      <trkpt lat="50.39336" lon="3.10171">
        <ele>33</ele>
        <time>2015-07-18T12:48:24Z</time>
      </trkpt>
      <trkpt lat="50.39346" lon="3.10179">
        <ele>33</ele>
        <time>2015-07-18T12:48:26Z</time>
      </trkpt>
      <trkpt lat="50.39355" lon="3.10188">
        <ele>33</ele>
        <time>2015-07-18T12:48:28Z</time>
      </trkpt>
      <trkpt lat="50.39364" lon="3.10198">
        <ele>32.9</ele>
        <time>2015-07-18T12:48:30Z</time>
      </trkpt>
      <trkpt lat="50.39374" lon="3.10207">
        <ele>32.9</ele>
        <time>2015-07-18T12:48:32Z</time>
      </trkpt>
      <trkpt lat="50.39383" lon="3.10215">
        <ele>32.9</ele>
        <time>2015-07-18T12:48:34Z</time>
      </trkpt>
      <trkpt lat="50.39393" lon="3.10224">
        <ele>32.9</ele>
        <time>2015-07-18T12:48:36Z</time>
      </trkpt>
      <trkpt lat="50.39402" lon="3.10235">
        <ele>32.8</ele>
        <time>2015-07-18T12:48:38Z</time>
      </trkpt>
      <trkpt lat="50.3941" lon="3.10246">
        <ele>32.8</ele>
        <time>2015-07-18T12:48:40Z</time>
      </trkpt>
      <trkpt lat="50.39417" lon="3.10258">
        <ele>32.8</ele>
        <time>2015-07-18T12:48:42Z</time>
      </trkpt>
      <trkpt lat="50.39421" lon="3.10271">
        <ele>32.7</ele>
        <time>2015-07-18T12:48:45Z</time>
      </trkpt>
      <trkpt lat="50.39418" lon="3.10257">
        <ele>28.6</ele>
        <time>2015-07-18T12:56:48Z</time>
      </trkpt>
      <trkpt lat="50.39411" lon="3.10245">
        <ele>28.6</ele>
        <time>2015-07-18T12:56:52Z</time>
      </trkpt>
      <trkpt lat="50.39403" lon="3.10235">
        <ele>28.5</ele>
        <time>2015-07-18T12:56:55Z</time>
      </trkpt>
      <trkpt lat="50.39394" lon="3.10228">
        <ele>28.5</ele>
        <time>2015-07-18T12:56:59Z</time>
      </trkpt>
      <trkpt lat="50.39385" lon="3.10217">
        <ele>28.4</ele>
        <time>2015-07-18T12:57:04Z</time>
      </trkpt>
      <trkpt lat="50.39378" lon="3.10206">
        <ele>28.2</ele>
        <time>2015-07-18T12:57:08Z</time>
      </trkpt>
      <trkpt lat="50.39371" lon="3.10197">
        <ele>28.1</ele>
        <time>2015-07-18T12:57:14Z</time>
      </trkpt>
      <trkpt lat="50.39379" lon="3.10208">
        <ele>23.7</ele>
        <time>2015-07-18T13:06:28Z</time>
      </trkpt>
      <trkpt lat="50.39386" lon="3.10216">
        <ele>23.6</ele>
        <time>2015-07-18T13:06:31Z</time>
      </trkpt>
      <trkpt lat="50.39395" lon="3.10224">
        <ele>23.6</ele>
        <time>2015-07-18T13:06:34Z</time>
      </trkpt>
      <trkpt lat="50.39404" lon="3.10236">
        <ele>23.6</ele>
        <time>2015-07-18T13:06:37Z</time>
      </trkpt>
      <trkpt lat="50.39413" lon="3.10251">
        <ele>23.5</ele>
        <time>2015-07-18T13:06:40Z</time>
      </trkpt>
      <trkpt lat="50.39418" lon="3.10262">
        <ele>23.5</ele>
        <time>2015-07-18T13:06:42Z</time>
      </trkpt>
      <trkpt lat="50.3942" lon="3.10277">
        <ele>23.5</ele>
        <time>2015-07-18T13:06:44Z</time>
      </trkpt>
      <trkpt lat="50.39421" lon="3.10294">
        <ele>23.5</ele>
        <time>2015-07-18T13:06:46Z</time>
      </trkpt>
      <trkpt lat="50.39424" lon="3.10308">
        <ele>23.5</ele>
        <time>2015-07-18T13:06:48Z</time>
      </trkpt>
      <trkpt lat="50.39433" lon="3.10316">
        <ele>23.5</ele>
        <time>2015-07-18T13:06:50Z</time>
      </trkpt>
      <trkpt lat="50.39442" lon="3.1031">
        <ele>23.5</ele>
        <time>2015-07-18T13:06:52Z</time>
      </trkpt>
      <trkpt lat="50.39449" lon="3.10296">
        <ele>23.5</ele>
        <time>2015-07-18T13:06:54Z</time>
      </trkpt>
      <trkpt lat="50.3946" lon="3.10286">
        <ele>23.5</ele>
        <time>2015-07-18T13:06:56Z</time>
      </trkpt>
      <trkpt lat="50.39472" lon="3.10285">
        <ele>23.5</ele>
        <time>2015-07-18T13:06:58Z</time>
      </trkpt>
      <trkpt lat="50.39485" lon="3.10286">
        <ele>23.4</ele>
        <time>2015-07-18T13:07:00Z</time>
      </trkpt>
      <trkpt lat="50.39498" lon="3.10288">
        <ele>23.3</ele>
        <time>2015-07-18T13:07:02Z</time>
      </trkpt>
      <trkpt lat="50.39512" lon="3.10292">
        <ele>23.2</ele>
        <time>2015-07-18T13:07:04Z</time>
      </trkpt>
      <trkpt lat="50.39527" lon="3.10298">
        <ele>23.1</ele>
        <time>2015-07-18T13:07:06Z</time>
      </trkpt>
      <trkpt lat="50.39543" lon="3.10303">
        <ele>22.9</ele>
        <time>2015-07-18T13:07:08Z</time>
      </trkpt>
      <trkpt lat="50.39558" lon="3.10309">
        <ele>22.7</ele>
        <time>2015-07-18T13:07:10Z</time>
      </trkpt>
      <trkpt lat="50.39574" lon="3.10314">
        <ele>22.6</ele>
        <time>2015-07-18T13:07:12Z</time>
      </trkpt>
      <trkpt lat="50.39589" lon="3.10319">
        <ele>22.4</ele>
        <time>2015-07-18T13:07:14Z</time>
      </trkpt>
      <trkpt lat="50.39604" lon="3.10324">
        <ele>22.3</ele>
        <time>2015-07-18T13:07:16Z</time>
      </trkpt>
      <trkpt lat="50.39616" lon="3.10329">
        <ele>22.1</ele>
        <time>2015-07-18T13:07:18Z</time>
      </trkpt>
      <trkpt lat="50.3963" lon="3.10335">
        <ele>21.9</ele>
        <time>2015-07-18T13:07:20Z</time>
      </trkpt>
      <trkpt lat="50.39644" lon="3.1034">
        <ele>21.8</ele>
        <time>2015-07-18T13:07:22Z</time>
      </trkpt>
      <trkpt lat="50.39659" lon="3.10344">
        <ele>21.6</ele>
        <time>2015-07-18T13:07:24Z</time>
      </trkpt>
      <trkpt lat="50.39675" lon="3.1035">
        <ele>21.4</ele>
        <time>2015-07-18T13:07:26Z</time>
      </trkpt>
      <trkpt lat="50.39687" lon="3.10357">
        <ele>21.3</ele>
        <time>2015-07-18T13:07:28Z</time>
      </trkpt>
      <trkpt lat="50.397" lon="3.10362">
        <ele>21.2</ele>
        <time>2015-07-18T13:07:30Z</time>
      </trkpt>
      <trkpt lat="50.39711" lon="3.10366">
        <ele>21.1</ele>
        <time>2015-07-18T13:07:32Z</time>
      </trkpt>
      <trkpt lat="50.3972" lon="3.10376">
        <ele>21</ele>
        <time>2015-07-18T13:07:35Z</time>
      </trkpt>
      <trkpt lat="50.39725" lon="3.1039">
        <ele>20.9</ele>
        <time>2015-07-18T13:07:37Z</time>
      </trkpt>
      <trkpt lat="50.39735" lon="3.10396">
        <ele>20.8</ele>
        <time>2015-07-18T13:07:39Z</time>
      </trkpt>
      <trkpt lat="50.39745" lon="3.10393">
        <ele>20.7</ele>
        <time>2015-07-18T13:07:41Z</time>
      </trkpt>
      <trkpt lat="50.39753" lon="3.10386">
        <ele>20.7</ele>
        <time>2015-07-18T13:07:43Z</time>
      </trkpt>
      <trkpt lat="50.39764" lon="3.10385">
        <ele>20.6</ele>
        <time>2015-07-18T13:07:45Z</time>
      </trkpt>
      <trkpt lat="50.39777" lon="3.10388">
        <ele>20.6</ele>
        <time>2015-07-18T13:07:47Z</time>
      </trkpt>
      <trkpt lat="50.39791" lon="3.10391">
        <ele>20.5</ele>
        <time>2015-07-18T13:07:49Z</time>
      </trkpt>
      <trkpt lat="50.39807" lon="3.10395">
        <ele>20.5</ele>
        <time>2015-07-18T13:07:51Z</time>
      </trkpt>
      <trkpt lat="50.39824" lon="3.10399">
        <ele>20.4</ele>
        <time>2015-07-18T13:07:53Z</time>
      </trkpt>
      <trkpt lat="50.39841" lon="3.10403">
        <ele>20.4</ele>
        <time>2015-07-18T13:07:55Z</time>
      </trkpt>
      <trkpt lat="50.39857" lon="3.10406">
        <ele>20.3</ele>
        <time>2015-07-18T13:07:57Z</time>
      </trkpt>
      <trkpt lat="50.39871" lon="3.10409">
        <ele>20.3</ele>
        <time>2015-07-18T13:07:59Z</time>
      </trkpt>
      <trkpt lat="50.39884" lon="3.10412">
        <ele>20.2</ele>
        <time>2015-07-18T13:08:01Z</time>
      </trkpt>
      <trkpt lat="50.39896" lon="3.10414">
        <ele>20.2</ele>
        <time>2015-07-18T13:08:03Z</time>
      </trkpt>
      <trkpt lat="50.39911" lon="3.10415">
        <ele>20.2</ele>
        <time>2015-07-18T13:08:05Z</time>
      </trkpt>
      <trkpt lat="50.3992" lon="3.10416">
        <ele>20.1</ele>
        <time>2015-07-18T13:08:07Z</time>
      </trkpt>
      <trkpt lat="50.39936" lon="3.10419">
        <ele>20.1</ele>
        <time>2015-07-18T13:08:09Z</time>
      </trkpt>
      <trkpt lat="50.39947" lon="3.10424">
        <ele>20.1</ele>
        <time>2015-07-18T13:08:10Z</time>
      </trkpt>
      <trkpt lat="50.39959" lon="3.10429">
        <ele>20.1</ele>
        <time>2015-07-18T13:08:12Z</time>
      </trkpt>
      <trkpt lat="50.39971" lon="3.10433">
        <ele>20</ele>
        <time>2015-07-18T13:08:14Z</time>
      </trkpt>
      <trkpt lat="50.39983" lon="3.1044">
        <ele>20</ele>
        <time>2015-07-18T13:08:16Z</time>
      </trkpt>
      <trkpt lat="50.39993" lon="3.10447">
        <ele>20</ele>
        <time>2015-07-18T13:08:18Z</time>
      </trkpt>
      <trkpt lat="50.40004" lon="3.10453">
        <ele>20</ele>
        <time>2015-07-18T13:08:20Z</time>
      </trkpt>
      <trkpt lat="50.40015" lon="3.10458">
        <ele>19.9</ele>
        <time>2015-07-18T13:08:22Z</time>
      </trkpt>
      <trkpt lat="50.40027" lon="3.10463">
        <ele>19.9</ele>
        <time>2015-07-18T13:08:24Z</time>
      </trkpt>
      <trkpt lat="50.40038" lon="3.10468">
        <ele>19.9</ele>
        <time>2015-07-18T13:08:26Z</time>
      </trkpt>
      <trkpt lat="50.4005" lon="3.10473">
        <ele>19.9</ele>
        <time>2015-07-18T13:08:28Z</time>
      </trkpt>
      <trkpt lat="50.40062" lon="3.10477">
        <ele>19.9</ele>
        <time>2015-07-18T13:08:30Z</time>
      </trkpt>
      <trkpt lat="50.40073" lon="3.10482">
        <ele>19.8</ele>
        <time>2015-07-18T13:08:32Z</time>
      </trkpt>
      <trkpt lat="50.40085" lon="3.10488">
        <ele>19.8</ele>
        <time>2015-07-18T13:08:34Z</time>
      </trkpt>
      <trkpt lat="50.40098" lon="3.10494">
        <ele>19.8</ele>
        <time>2015-07-18T13:08:36Z</time>
      </trkpt>
      <trkpt lat="50.40112" lon="3.10498">
        <ele>19.8</ele>
        <time>2015-07-18T13:08:38Z</time>
      </trkpt>
      <trkpt lat="50.40125" lon="3.10503">
        <ele>19.8</ele>
        <time>2015-07-18T13:08:40Z</time>
      </trkpt>
      <trkpt lat="50.40135" lon="3.10509">
        <ele>19.7</ele>
        <time>2015-07-18T13:08:42Z</time>
      </trkpt>
      <trkpt lat="50.40147" lon="3.10516">
        <ele>19.7</ele>
        <time>2015-07-18T13:08:44Z</time>
      </trkpt>
      <trkpt lat="50.40156" lon="3.10522">
        <ele>19.7</ele>
        <time>2015-07-18T13:08:46Z</time>
      </trkpt>
      <trkpt lat="50.40165" lon="3.10527">
        <ele>19.7</ele>
        <time>2015-07-18T13:08:48Z</time>
      </trkpt>
      <trkpt lat="50.40177" lon="3.10533">
        <ele>19.7</ele>
        <time>2015-07-18T13:08:50Z</time>
      </trkpt>
      <trkpt lat="50.40187" lon="3.10538">
        <ele>19.6</ele>
        <time>2015-07-18T13:08:52Z</time>
      </trkpt>
      <trkpt lat="50.40199" lon="3.10543">
        <ele>19.6</ele>
        <time>2015-07-18T13:08:54Z</time>
      </trkpt>
      <trkpt lat="50.40212" lon="3.1055">
        <ele>19.6</ele>
        <time>2015-07-18T13:08:56Z</time>
      </trkpt>
      <trkpt lat="50.40224" lon="3.10556">
        <ele>19.6</ele>
        <time>2015-07-18T13:08:58Z</time>
      </trkpt>
      <trkpt lat="50.40236" lon="3.10561">
        <ele>19.6</ele>
        <time>2015-07-18T13:09:00Z</time>
      </trkpt>
      <trkpt lat="50.40247" lon="3.10567">
        <ele>19.6</ele>
        <time>2015-07-18T13:09:02Z</time>
      </trkpt>
      <trkpt lat="50.40259" lon="3.10572">
        <ele>19.6</ele>
        <time>2015-07-18T13:09:04Z</time>
      </trkpt>
      <trkpt lat="50.40272" lon="3.10577">
        <ele>19.5</ele>
        <time>2015-07-18T13:09:06Z</time>
      </trkpt>
      <trkpt lat="50.40283" lon="3.10583">
        <ele>19.5</ele>
        <time>2015-07-18T13:09:08Z</time>
      </trkpt>
      <trkpt lat="50.40292" lon="3.1059">
        <ele>19.5</ele>
        <time>2015-07-18T13:09:10Z</time>
      </trkpt>
      <trkpt lat="50.403" lon="3.10597">
        <ele>19.5</ele>
        <time>2015-07-18T13:09:12Z</time>
      </trkpt>
      <trkpt lat="50.40309" lon="3.10612">
        <ele>19.4</ele>
        <time>2015-07-18T13:09:15Z</time>
      </trkpt>
      <trkpt lat="50.40314" lon="3.10626">
        <ele>19.4</ele>
        <time>2015-07-18T13:09:18Z</time>
      </trkpt>
      <trkpt lat="50.40323" lon="3.10636">
        <ele>19.3</ele>
        <time>2015-07-18T13:09:22Z</time>
      </trkpt>
      <trkpt lat="50.40335" lon="3.10633">
        <ele>19.3</ele>
        <time>2015-07-18T13:09:25Z</time>
      </trkpt>
      <trkpt lat="50.40343" lon="3.10626">
        <ele>19.3</ele>
        <time>2015-07-18T13:09:27Z</time>
      </trkpt>
      <trkpt lat="50.40352" lon="3.10621">
        <ele>19.2</ele>
        <time>2015-07-18T13:09:29Z</time>
      </trkpt>
      <trkpt lat="50.40363" lon="3.1062">
        <ele>19.2</ele>
        <time>2015-07-18T13:09:31Z</time>
      </trkpt>
      <trkpt lat="50.40374" lon="3.10622">
        <ele>19.2</ele>
        <time>2015-07-18T13:09:33Z</time>
      </trkpt>
      <trkpt lat="50.40387" lon="3.1063">
        <ele>19.2</ele>
        <time>2015-07-18T13:09:35Z</time>
      </trkpt>
      <trkpt lat="50.40399" lon="3.10637">
        <ele>19.2</ele>
        <time>2015-07-18T13:09:37Z</time>
      </trkpt>
      <trkpt lat="50.40411" lon="3.10644">
        <ele>19.2</ele>
        <time>2015-07-18T13:09:39Z</time>
      </trkpt>
      <trkpt lat="50.40425" lon="3.10651">
        <ele>19.2</ele>
        <time>2015-07-18T13:09:41Z</time>
      </trkpt>
      <trkpt lat="50.40437" lon="3.10656">
        <ele>19.2</ele>
        <time>2015-07-18T13:09:43Z</time>
      </trkpt>
      <trkpt lat="50.40448" lon="3.10661">
        <ele>19.2</ele>
        <time>2015-07-18T13:09:45Z</time>
      </trkpt>
      <trkpt lat="50.40459" lon="3.10666">
        <ele>19.2</ele>
        <time>2015-07-18T13:09:47Z</time>
      </trkpt>
      <trkpt lat="50.4047" lon="3.10671">
        <ele>19.2</ele>
        <time>2015-07-18T13:09:49Z</time>
      </trkpt>
      <trkpt lat="50.40481" lon="3.10677">
        <ele>19.2</ele>
        <time>2015-07-18T13:09:51Z</time>
      </trkpt>
      <trkpt lat="50.40492" lon="3.10683">
        <ele>19.2</ele>
        <time>2015-07-18T13:09:53Z</time>
      </trkpt>
      <trkpt lat="50.40503" lon="3.10689">
        <ele>19.2</ele>
        <time>2015-07-18T13:09:55Z</time>
      </trkpt>
      <trkpt lat="50.40515" lon="3.10694">
        <ele>19.2</ele>
        <time>2015-07-18T13:09:57Z</time>
      </trkpt>
      <trkpt lat="50.40526" lon="3.10699">
        <ele>19.3</ele>
        <time>2015-07-18T13:09:59Z</time>
      </trkpt>
      <trkpt lat="50.40538" lon="3.10705">
        <ele>19.3</ele>
        <time>2015-07-18T13:10:01Z</time>
      </trkpt>
      <trkpt lat="50.4055" lon="3.10711">
        <ele>19.2</ele>
        <time>2015-07-18T13:10:03Z</time>
      </trkpt>
      <trkpt lat="50.40564" lon="3.10716">
        <ele>19.2</ele>
        <time>2015-07-18T13:10:05Z</time>
      </trkpt>
      <trkpt lat="50.40575" lon="3.10722">
        <ele>19.2</ele>
        <time>2015-07-18T13:10:07Z</time>
      </trkpt>
      <trkpt lat="50.40588" lon="3.10728">
        <ele>19.2</ele>
        <time>2015-07-18T13:10:09Z</time>
      </trkpt>
      <trkpt lat="50.406" lon="3.10735">
        <ele>19.2</ele>
        <time>2015-07-18T13:10:11Z</time>
      </trkpt>
      <trkpt lat="50.40611" lon="3.1074">
        <ele>19.2</ele>
        <time>2015-07-18T13:10:13Z</time>
      </trkpt>
      <trkpt lat="50.40623" lon="3.10746">
        <ele>19.2</ele>
        <time>2015-07-18T13:10:15Z</time>
      </trkpt>
      <trkpt lat="50.40635" lon="3.10752">
        <ele>19.2</ele>
        <time>2015-07-18T13:10:17Z</time>
      </trkpt>
      <trkpt lat="50.40646" lon="3.10758">
        <ele>19.2</ele>
        <time>2015-07-18T13:10:19Z</time>
      </trkpt>
      <trkpt lat="50.40657" lon="3.10763">
        <ele>19.2</ele>
        <time>2015-07-18T13:10:21Z</time>
      </trkpt>
      <trkpt lat="50.40669" lon="3.10771">
        <ele>19.1</ele>
        <time>2015-07-18T13:10:24Z</time>
      </trkpt>
      <trkpt lat="50.40682" lon="3.10777">
        <ele>19.1</ele>
        <time>2015-07-18T13:10:26Z</time>
      </trkpt>
      <trkpt lat="50.40694" lon="3.10782">
        <ele>19.1</ele>
        <time>2015-07-18T13:10:28Z</time>
      </trkpt>
      <trkpt lat="50.40706" lon="3.10788">
        <ele>19.1</ele>
        <time>2015-07-18T13:10:30Z</time>
      </trkpt>
      <trkpt lat="50.40718" lon="3.10794">
        <ele>19</ele>
        <time>2015-07-18T13:10:32Z</time>
      </trkpt>
      <trkpt lat="50.4073" lon="3.108">
        <ele>19</ele>
        <time>2015-07-18T13:10:34Z</time>
      </trkpt>
      <trkpt lat="50.40743" lon="3.10806">
        <ele>19</ele>
        <time>2015-07-18T13:10:36Z</time>
      </trkpt>
      <trkpt lat="50.40756" lon="3.10812">
        <ele>18.9</ele>
        <time>2015-07-18T13:10:38Z</time>
      </trkpt>
      <trkpt lat="50.40768" lon="3.10817">
        <ele>18.9</ele>
        <time>2015-07-18T13:10:40Z</time>
      </trkpt>
      <trkpt lat="50.40781" lon="3.10823">
        <ele>18.8</ele>
        <time>2015-07-18T13:10:42Z</time>
      </trkpt>
      <trkpt lat="50.40795" lon="3.10828">
        <ele>18.8</ele>
        <time>2015-07-18T13:10:44Z</time>
      </trkpt>
      <trkpt lat="50.40808" lon="3.10834">
        <ele>18.7</ele>
        <time>2015-07-18T13:10:46Z</time>
      </trkpt>
      <trkpt lat="50.40818" lon="3.10841">
        <ele>18.6</ele>
        <time>2015-07-18T13:10:48Z</time>
      </trkpt>
      <trkpt lat="50.40829" lon="3.10848">
        <ele>18.5</ele>
        <time>2015-07-18T13:10:50Z</time>
      </trkpt>
      <trkpt lat="50.40841" lon="3.10853">
        <ele>18.4</ele>
        <time>2015-07-18T13:10:52Z</time>
      </trkpt>
      <trkpt lat="50.4085" lon="3.10859">
        <ele>18.2</ele>
        <time>2015-07-18T13:10:55Z</time>
      </trkpt>
      <trkpt lat="50.4085" lon="3.10876">
        <ele>18</ele>
        <time>2015-07-18T13:10:58Z</time>
      </trkpt>
      <trkpt lat="50.40844" lon="3.10891">
        <ele>17.9</ele>
        <time>2015-07-18T13:11:00Z</time>
      </trkpt>
      <trkpt lat="50.40838" lon="3.10908">
        <ele>17.8</ele>
        <time>2015-07-18T13:11:02Z</time>
      </trkpt>
      <trkpt lat="50.40832" lon="3.10926">
        <ele>17.7</ele>
        <time>2015-07-18T13:11:04Z</time>
      </trkpt>
      <trkpt lat="50.40827" lon="3.10943">
        <ele>17.6</ele>
        <time>2015-07-18T13:11:06Z</time>
      </trkpt>
      <trkpt lat="50.40822" lon="3.1096">
        <ele>17.5</ele>
        <time>2015-07-18T13:11:08Z</time>
      </trkpt>
      <trkpt lat="50.40817" lon="3.10978">
        <ele>17</ele>
        <time>2015-07-18T13:11:10Z</time>
      </trkpt>
      <trkpt lat="50.40812" lon="3.10995">
        <ele>16.9</ele>
        <time>2015-07-18T13:11:12Z</time>
      </trkpt>
      <trkpt lat="50.40807" lon="3.11011">
        <ele>16.8</ele>
        <time>2015-07-18T13:11:14Z</time>
      </trkpt>
      <trkpt lat="50.40803" lon="3.11026">
        <ele>16.7</ele>
        <time>2015-07-18T13:11:16Z</time>
      </trkpt>
      <trkpt lat="50.40798" lon="3.1104">
        <ele>16.6</ele>
        <time>2015-07-18T13:11:18Z</time>
      </trkpt>
      <trkpt lat="50.40793" lon="3.11056">
        <ele>16.5</ele>
        <time>2015-07-18T13:11:20Z</time>
      </trkpt>
      <trkpt lat="50.40788" lon="3.11071">
        <ele>16.5</ele>
        <time>2015-07-18T13:11:22Z</time>
      </trkpt>
      <trkpt lat="50.40784" lon="3.11086">
        <ele>16.4</ele>
        <time>2015-07-18T13:11:24Z</time>
      </trkpt>
      <trkpt lat="50.4078" lon="3.11101">
        <ele>16.4</ele>
        <time>2015-07-18T13:11:26Z</time>
      </trkpt>
      <trkpt lat="50.40775" lon="3.11115">
        <ele>16.4</ele>
        <time>2015-07-18T13:11:28Z</time>
      </trkpt>
      <trkpt lat="50.4077" lon="3.11128">
        <ele>16.4</ele>
        <time>2015-07-18T13:11:30Z</time>
      </trkpt>
      <trkpt lat="50.40763" lon="3.1114">
        <ele>16.3</ele>
        <time>2015-07-18T13:11:32Z</time>
      </trkpt>
      <trkpt lat="50.40754" lon="3.11148">
        <ele>16.4</ele>
        <time>2015-07-18T13:11:34Z</time>
      </trkpt>
      <trkpt lat="50.40746" lon="3.11153">
        <ele>16.4</ele>
        <time>2015-07-18T13:11:36Z</time>
      </trkpt>
      <trkpt lat="50.40734" lon="3.11158">
        <ele>16.5</ele>
        <time>2015-07-18T13:11:39Z</time>
      </trkpt>
      <trkpt lat="50.40725" lon="3.11163">
        <ele>16.5</ele>
        <time>2015-07-18T13:11:41Z</time>
      </trkpt>
      <trkpt lat="50.40715" lon="3.11167">
        <ele>16.6</ele>
        <time>2015-07-18T13:11:43Z</time>
      </trkpt>
      <trkpt lat="50.40706" lon="3.11171">
        <ele>16.7</ele>
        <time>2015-07-18T13:11:45Z</time>
      </trkpt>
      <trkpt lat="50.40697" lon="3.11176">
        <ele>16.8</ele>
        <time>2015-07-18T13:11:47Z</time>
      </trkpt>
      <trkpt lat="50.40686" lon="3.11185">
        <ele>16.9</ele>
        <time>2015-07-18T13:11:50Z</time>
      </trkpt>
      <trkpt lat="50.40685" lon="3.11204">
        <ele>17</ele>
        <time>2015-07-18T13:11:53Z</time>
      </trkpt>
      <trkpt lat="50.40688" lon="3.11219">
        <ele>17.1</ele>
        <time>2015-07-18T13:11:55Z</time>
      </trkpt>
      <trkpt lat="50.40689" lon="3.11237">
        <ele>17.2</ele>
        <time>2015-07-18T13:11:57Z</time>
      </trkpt>
      <trkpt lat="50.40689" lon="3.11255">
        <ele>17.3</ele>
        <time>2015-07-18T13:11:59Z</time>
      </trkpt>
      <trkpt lat="50.40687" lon="3.11274">
        <ele>17.3</ele>
        <time>2015-07-18T13:12:01Z</time>
      </trkpt>
      <trkpt lat="50.40685" lon="3.11293">
        <ele>17.4</ele>
        <time>2015-07-18T13:12:03Z</time>
      </trkpt>
      <trkpt lat="50.40683" lon="3.11312">
        <ele>17.4</ele>
        <time>2015-07-18T13:12:05Z</time>
      </trkpt>
      <trkpt lat="50.4068" lon="3.11332">
        <ele>17.5</ele>
        <time>2015-07-18T13:12:07Z</time>
      </trkpt>
      <trkpt lat="50.40677" lon="3.11351">
        <ele>17.5</ele>
        <time>2015-07-18T13:12:09Z</time>
      </trkpt>
      <trkpt lat="50.40674" lon="3.1137">
        <ele>17.5</ele>
        <time>2015-07-18T13:12:11Z</time>
      </trkpt>
      <trkpt lat="50.40675" lon="3.11389">
        <ele>17.5</ele>
        <time>2015-07-18T13:12:13Z</time>
      </trkpt>
      <trkpt lat="50.40682" lon="3.11406">
        <ele>17.5</ele>
        <time>2015-07-18T13:12:15Z</time>
      </trkpt>
      <trkpt lat="50.40689" lon="3.11422">
        <ele>17.5</ele>
        <time>2015-07-18T13:12:17Z</time>
      </trkpt>
      <trkpt lat="50.40696" lon="3.11439">
        <ele>17.6</ele>
        <time>2015-07-18T13:12:19Z</time>
      </trkpt>
      <trkpt lat="50.40704" lon="3.11454">
        <ele>17.6</ele>
        <time>2015-07-18T13:12:21Z</time>
      </trkpt>
      <trkpt lat="50.40712" lon="3.1147">
        <ele>17.6</ele>
        <time>2015-07-18T13:12:23Z</time>
      </trkpt>
      <trkpt lat="50.4072" lon="3.11486">
        <ele>17.6</ele>
        <time>2015-07-18T13:12:25Z</time>
      </trkpt>
      <trkpt lat="50.40728" lon="3.11502">
        <ele>17.6</ele>
        <time>2015-07-18T13:12:27Z</time>
      </trkpt>
      <trkpt lat="50.40735" lon="3.11517">
        <ele>17.6</ele>
        <time>2015-07-18T13:12:29Z</time>
      </trkpt>
      <trkpt lat="50.40743" lon="3.11531">
        <ele>17.6</ele>
        <time>2015-07-18T13:12:31Z</time>
      </trkpt>
      <trkpt lat="50.40751" lon="3.11546">
        <ele>17.6</ele>
        <time>2015-07-18T13:12:33Z</time>
      </trkpt>
      <trkpt lat="50.40758" lon="3.11561">
        <ele>17.6</ele>
        <time>2015-07-18T13:12:35Z</time>
      </trkpt>
      <trkpt lat="50.40765" lon="3.11575">
        <ele>17.6</ele>
        <time>2015-07-18T13:12:37Z</time>
      </trkpt>
      <trkpt lat="50.40772" lon="3.11589">
        <ele>17.6</ele>
        <time>2015-07-18T13:12:39Z</time>
      </trkpt>
      <trkpt lat="50.40779" lon="3.11603">
        <ele>17.6</ele>
        <time>2015-07-18T13:12:41Z</time>
      </trkpt>
      <trkpt lat="50.40785" lon="3.11616">
        <ele>17.6</ele>
        <time>2015-07-18T13:12:43Z</time>
      </trkpt>
      <trkpt lat="50.40792" lon="3.1163">
        <ele>17.6</ele>
        <time>2015-07-18T13:12:45Z</time>
      </trkpt>
      <trkpt lat="50.40799" lon="3.11645">
        <ele>17.6</ele>
        <time>2015-07-18T13:12:47Z</time>
      </trkpt>
      <trkpt lat="50.40806" lon="3.11659">
        <ele>17.6</ele>
        <time>2015-07-18T13:12:49Z</time>
      </trkpt>
      <trkpt lat="50.40814" lon="3.11673">
        <ele>17.5</ele>
        <time>2015-07-18T13:12:51Z</time>
      </trkpt>
      <trkpt lat="50.40823" lon="3.11686">
        <ele>17.5</ele>
        <time>2015-07-18T13:12:53Z</time>
      </trkpt>
      <trkpt lat="50.4083" lon="3.11699">
        <ele>17.5</ele>
        <time>2015-07-18T13:12:55Z</time>
      </trkpt>
      <trkpt lat="50.40838" lon="3.11712">
        <ele>17.5</ele>
        <time>2015-07-18T13:12:57Z</time>
      </trkpt>
      <trkpt lat="50.40845" lon="3.11725">
        <ele>17.5</ele>
        <time>2015-07-18T13:12:59Z</time>
      </trkpt>
      <trkpt lat="50.40852" lon="3.11738">
        <ele>17.5</ele>
        <time>2015-07-18T13:13:01Z</time>
      </trkpt>
      <trkpt lat="50.4086" lon="3.1175">
        <ele>17.5</ele>
        <time>2015-07-18T13:13:03Z</time>
      </trkpt>
      <trkpt lat="50.4087" lon="3.11763">
        <ele>17.5</ele>
        <time>2015-07-18T13:13:05Z</time>
      </trkpt>
      <trkpt lat="50.40878" lon="3.11777">
        <ele>17.5</ele>
        <time>2015-07-18T13:13:07Z</time>
      </trkpt>
      <trkpt lat="50.40887" lon="3.11784">
        <ele>17.5</ele>
        <time>2015-07-18T13:13:08Z</time>
      </trkpt>
      <trkpt lat="50.40896" lon="3.11797">
        <ele>17.5</ele>
        <time>2015-07-18T13:13:10Z</time>
      </trkpt>
      <trkpt lat="50.40905" lon="3.11811">
        <ele>17.5</ele>
        <time>2015-07-18T13:13:12Z</time>
      </trkpt>
      <trkpt lat="50.40913" lon="3.11825">
        <ele>17.4</ele>
        <time>2015-07-18T13:13:14Z</time>
      </trkpt>
      <trkpt lat="50.40921" lon="3.11839">
        <ele>17.4</ele>
        <time>2015-07-18T13:13:16Z</time>
      </trkpt>
      <trkpt lat="50.40929" lon="3.11854">
        <ele>17.4</ele>
        <time>2015-07-18T13:13:18Z</time>
      </trkpt>
      <trkpt lat="50.40936" lon="3.11869">
        <ele>17.4</ele>
        <time>2015-07-18T13:13:20Z</time>
      </trkpt>
      <trkpt lat="50.40943" lon="3.11884">
        <ele>17.4</ele>
        <time>2015-07-18T13:13:22Z</time>
      </trkpt>
      <trkpt lat="50.4095" lon="3.11899">
        <ele>17.4</ele>
        <time>2015-07-18T13:13:24Z</time>
      </trkpt>
      <trkpt lat="50.40957" lon="3.11914">
        <ele>17.4</ele>
        <time>2015-07-18T13:13:26Z</time>
      </trkpt>
      <trkpt lat="50.40964" lon="3.11928">
        <ele>17.4</ele>
        <time>2015-07-18T13:13:28Z</time>
      </trkpt>
      <trkpt lat="50.40971" lon="3.11941">
        <ele>17.4</ele>
        <time>2015-07-18T13:13:30Z</time>
      </trkpt>
      <trkpt lat="50.40976" lon="3.11954">
        <ele>17.3</ele>
        <time>2015-07-18T13:13:32Z</time>
      </trkpt>
      <trkpt lat="50.40982" lon="3.11972">
        <ele>17.3</ele>
        <time>2015-07-18T13:13:35Z</time>
      </trkpt>
      <trkpt lat="50.40983" lon="3.11987">
        <ele>17.3</ele>
        <time>2015-07-18T13:13:40Z</time>
      </trkpt>
      <trkpt lat="50.4098" lon="3.12003">
        <ele>17</ele>
        <time>2015-07-18T13:14:18Z</time>
      </trkpt>
      <trkpt lat="50.40983" lon="3.12017">
        <ele>16.9</ele>
        <time>2015-07-18T13:14:21Z</time>
      </trkpt>
      <trkpt lat="50.40988" lon="3.12032">
        <ele>16.9</ele>
        <time>2015-07-18T13:14:24Z</time>
      </trkpt>
      <trkpt lat="50.40994" lon="3.12046">
        <ele>16.9</ele>
        <time>2015-07-18T13:14:27Z</time>
      </trkpt>
      <trkpt lat="50.40998" lon="3.12058">
        <ele>16.9</ele>
        <time>2015-07-18T13:14:30Z</time>
      </trkpt>
      <trkpt lat="50.41003" lon="3.12073">
        <ele>16.8</ele>
        <time>2015-07-18T13:14:34Z</time>
      </trkpt>
      <trkpt lat="50.41008" lon="3.1209">
        <ele>16.7</ele>
        <time>2015-07-18T13:14:38Z</time>
      </trkpt>
      <trkpt lat="50.41009" lon="3.12104">
        <ele>16.7</ele>
        <time>2015-07-18T13:14:43Z</time>
      </trkpt>
      <trkpt lat="50.41007" lon="3.12118">
        <ele>16.6</ele>
        <time>2015-07-18T13:14:47Z</time>
      </trkpt>
      <trkpt lat="50.41002" lon="3.12133">
        <ele>16.5</ele>
        <time>2015-07-18T13:14:53Z</time>
      </trkpt>
      <trkpt lat="50.41004" lon="3.12151">
        <ele>16.4</ele>
        <time>2015-07-18T13:14:58Z</time>
      </trkpt>
      <trkpt lat="50.41003" lon="3.12165">
        <ele>16.4</ele>
        <time>2015-07-18T13:15:02Z</time>
      </trkpt>
      <trkpt lat="50.41006" lon="3.12179">
        <ele>16.4</ele>
        <time>2015-07-18T13:15:06Z</time>
      </trkpt>
      <trkpt lat="50.41004" lon="3.12194">
        <ele>16.3</ele>
        <time>2015-07-18T13:15:11Z</time>
      </trkpt>
      <trkpt lat="50.40999" lon="3.12207">
        <ele>16.3</ele>
        <time>2015-07-18T13:15:16Z</time>
      </trkpt>
      <trkpt lat="50.41" lon="3.12222">
        <ele>16.3</ele>
        <time>2015-07-18T13:15:31Z</time>
      </trkpt>
      <trkpt lat="50.41001" lon="3.12239">
        <ele>16.3</ele>
        <time>2015-07-18T13:15:36Z</time>
      </trkpt>
      <trkpt lat="50.41" lon="3.12254">
        <ele>16.3</ele>
        <time>2015-07-18T13:15:40Z</time>
      </trkpt>
      <trkpt lat="50.41" lon="3.12268">
        <ele>16.3</ele>
        <time>2015-07-18T13:15:46Z</time>
      </trkpt>
      <trkpt lat="50.41001" lon="3.12283">
        <ele>16.3</ele>
        <time>2015-07-18T13:15:51Z</time>
      </trkpt>
      <trkpt lat="50.40997" lon="3.12299">
        <ele>16.3</ele>
        <time>2015-07-18T13:15:55Z</time>
      </trkpt>
      <trkpt lat="50.40995" lon="3.12313">
        <ele>16.3</ele>
        <time>2015-07-18T13:15:58Z</time>
      </trkpt>
      <trkpt lat="50.40991" lon="3.12326">
        <ele>16.3</ele>
        <time>2015-07-18T13:16:01Z</time>
      </trkpt>
      <trkpt lat="50.40985" lon="3.12341">
        <ele>16.3</ele>
        <time>2015-07-18T13:16:04Z</time>
      </trkpt>
      <trkpt lat="50.40983" lon="3.12359">
        <ele>16.3</ele>
        <time>2015-07-18T13:16:07Z</time>
      </trkpt>
      <trkpt lat="50.40982" lon="3.12376">
        <ele>16.3</ele>
        <time>2015-07-18T13:16:10Z</time>
      </trkpt>
      <trkpt lat="50.40979" lon="3.12392">
        <ele>16.4</ele>
        <time>2015-07-18T13:16:13Z</time>
      </trkpt>
      <trkpt lat="50.40972" lon="3.12403">
        <ele>16.6</ele>
        <time>2015-07-18T13:16:16Z</time>
      </trkpt>
      <trkpt lat="50.40966" lon="3.12418">
        <ele>16.8</ele>
        <time>2015-07-18T13:16:20Z</time>
      </trkpt>
      <trkpt lat="50.40967" lon="3.12437">
        <ele>17</ele>
        <time>2015-07-18T13:16:24Z</time>
      </trkpt>
      <trkpt lat="50.40973" lon="3.12452">
        <ele>17.1</ele>
        <time>2015-07-18T13:16:28Z</time>
      </trkpt>
      <trkpt lat="50.40983" lon="3.12457">
        <ele>17.1</ele>
        <time>2015-07-18T13:16:58Z</time>
      </trkpt>
      <trkpt lat="50.40992" lon="3.12457">
        <ele>17.1</ele>
        <time>2015-07-18T13:17:10Z</time>
      </trkpt>
      <trkpt lat="50.40983" lon="3.12454">
        <ele>17.1</ele>
        <time>2015-07-18T13:17:21Z</time>
      </trkpt>
      <trkpt lat="50.40974" lon="3.1246">
        <ele>17</ele>
        <time>2015-07-18T13:17:41Z</time>
      </trkpt>
      <trkpt lat="50.40964" lon="3.12463">
        <ele>17.8</ele>
        <time>2015-07-18T13:19:26Z</time>
      </trkpt>
      <trkpt lat="50.40955" lon="3.12462">
        <ele>20.7</ele>
        <time>2015-07-18T13:19:44Z</time>
      </trkpt>
      <trkpt lat="50.40953" lon="3.12476">
        <ele>27.5</ele>
        <time>2015-07-18T13:23:11Z</time>
      </trkpt>
      <trkpt lat="50.40956" lon="3.12491">
        <ele>27.5</ele>
        <time>2015-07-18T13:23:15Z</time>
      </trkpt>
      <trkpt lat="50.40954" lon="3.12508">
        <ele>27.5</ele>
        <time>2015-07-18T13:23:19Z</time>
      </trkpt>
      <trkpt lat="50.40955" lon="3.12524">
        <ele>27.6</ele>
        <time>2015-07-18T13:23:22Z</time>
      </trkpt>
      <trkpt lat="50.40953" lon="3.1254">
        <ele>27.6</ele>
        <time>2015-07-18T13:23:25Z</time>
      </trkpt>
      <trkpt lat="50.40951" lon="3.12556">
        <ele>27.7</ele>
        <time>2015-07-18T13:23:28Z</time>
      </trkpt>
      <trkpt lat="50.40949" lon="3.12573">
        <ele>27.9</ele>
        <time>2015-07-18T13:23:31Z</time>
      </trkpt>
      <trkpt lat="50.40946" lon="3.12588">
        <ele>27.9</ele>
        <time>2015-07-18T13:23:34Z</time>
      </trkpt>
      <trkpt lat="50.4094" lon="3.126">
        <ele>27.9</ele>
        <time>2015-07-18T13:23:37Z</time>
      </trkpt>
      <trkpt lat="50.40932" lon="3.12609">
        <ele>28</ele>
        <time>2015-07-18T13:23:43Z</time>
      </trkpt>
      <trkpt lat="50.40922" lon="3.12618">
        <ele>28.2</ele>
        <time>2015-07-18T13:23:49Z</time>
      </trkpt>
      <trkpt lat="50.40921" lon="3.12634">
        <ele>28.4</ele>
        <time>2015-07-18T13:23:53Z</time>
      </trkpt>
      <trkpt lat="50.40916" lon="3.1265">
        <ele>28.6</ele>
        <time>2015-07-18T13:23:57Z</time>
      </trkpt>
      <trkpt lat="50.4091" lon="3.12663">
        <ele>28.8</ele>
        <time>2015-07-18T13:24:01Z</time>
      </trkpt>
      <trkpt lat="50.40905" lon="3.12675">
        <ele>29</ele>
        <time>2015-07-18T13:24:05Z</time>
      </trkpt>
      <trkpt lat="50.40898" lon="3.12686">
        <ele>29.1</ele>
        <time>2015-07-18T13:24:09Z</time>
      </trkpt>
      <trkpt lat="50.40892" lon="3.12703">
        <ele>29.2</ele>
        <time>2015-07-18T13:24:13Z</time>
      </trkpt>
      <trkpt lat="50.40886" lon="3.12719">
        <ele>29.2</ele>
        <time>2015-07-18T13:24:17Z</time>
      </trkpt>
      <trkpt lat="50.4088" lon="3.12731">
        <ele>29.3</ele>
        <time>2015-07-18T13:24:20Z</time>
      </trkpt>
      <trkpt lat="50.40871" lon="3.12732">
        <ele>29.4</ele>
        <time>2015-07-18T13:24:24Z</time>
      </trkpt>
      <trkpt lat="50.40861" lon="3.12731">
        <ele>29.5</ele>
        <time>2015-07-18T13:24:27Z</time>
      </trkpt>
      <trkpt lat="50.40854" lon="3.1272">
        <ele>29.3</ele>
        <time>2015-07-18T13:24:41Z</time>
      </trkpt>
      <trkpt lat="50.40848" lon="3.12707">
        <ele>29.2</ele>
        <time>2015-07-18T13:24:53Z</time>
      </trkpt>
      <trkpt lat="50.40846" lon="3.12689">
        <ele>29.2</ele>
        <time>2015-07-18T13:24:58Z</time>
      </trkpt>
      <trkpt lat="50.4084" lon="3.12679">
        <ele>29.1</ele>
        <time>2015-07-18T13:25:01Z</time>
      </trkpt>
      <trkpt lat="50.40834" lon="3.12668">
        <ele>29</ele>
        <time>2015-07-18T13:25:05Z</time>
      </trkpt>
      <trkpt lat="50.40827" lon="3.12653">
        <ele>29</ele>
        <time>2015-07-18T13:25:09Z</time>
      </trkpt>
      <trkpt lat="50.40819" lon="3.12641">
        <ele>29</ele>
        <time>2015-07-18T13:25:12Z</time>
      </trkpt>
      <trkpt lat="50.40812" lon="3.12627">
        <ele>28.9</ele>
        <time>2015-07-18T13:25:16Z</time>
      </trkpt>
      <trkpt lat="50.40811" lon="3.12608">
        <ele>28.9</ele>
        <time>2015-07-18T13:25:20Z</time>
      </trkpt>
      <trkpt lat="50.40802" lon="3.12597">
        <ele>28.9</ele>
        <time>2015-07-18T13:25:24Z</time>
      </trkpt>
      <trkpt lat="50.40793" lon="3.12591">
        <ele>28.9</ele>
        <time>2015-07-18T13:25:27Z</time>
      </trkpt>
      <trkpt lat="50.40785" lon="3.12581">
        <ele>28.9</ele>
        <time>2015-07-18T13:25:30Z</time>
      </trkpt>
      <trkpt lat="50.40779" lon="3.12565">
        <ele>28.9</ele>
        <time>2015-07-18T13:25:34Z</time>
      </trkpt>
      <trkpt lat="50.40773" lon="3.12552">
        <ele>28.8</ele>
        <time>2015-07-18T13:25:38Z</time>
      </trkpt>
      <trkpt lat="50.40765" lon="3.1254">
        <ele>28.7</ele>
        <time>2015-07-18T13:25:42Z</time>
      </trkpt>
      <trkpt lat="50.40758" lon="3.1253">
        <ele>28.5</ele>
        <time>2015-07-18T13:25:54Z</time>
      </trkpt>
      <trkpt lat="50.40754" lon="3.12517">
        <ele>28.5</ele>
        <time>2015-07-18T13:26:06Z</time>
      </trkpt>
      <trkpt lat="50.40745" lon="3.12504">
        <ele>28.2</ele>
        <time>2015-07-18T13:27:05Z</time>
      </trkpt>
      <trkpt lat="50.40735" lon="3.12492">
        <ele>28</ele>
        <time>2015-07-18T13:27:08Z</time>
      </trkpt>
      <trkpt lat="50.40728" lon="3.12476">
        <ele>27.9</ele>
        <time>2015-07-18T13:27:11Z</time>
      </trkpt>
      <trkpt lat="50.40722" lon="3.12462">
        <ele>27.8</ele>
        <time>2015-07-18T13:27:14Z</time>
      </trkpt>
      <trkpt lat="50.40714" lon="3.12449">
        <ele>27.7</ele>
        <time>2015-07-18T13:27:17Z</time>
      </trkpt>
      <trkpt lat="50.40708" lon="3.12435">
        <ele>27.5</ele>
        <time>2015-07-18T13:27:20Z</time>
      </trkpt>
      <trkpt lat="50.40703" lon="3.12423">
        <ele>27.4</ele>
        <time>2015-07-18T13:27:23Z</time>
      </trkpt>
      <trkpt lat="50.40702" lon="3.12406">
        <ele>27.5</ele>
        <time>2015-07-18T13:27:27Z</time>
      </trkpt>
      <trkpt lat="50.40696" lon="3.1239">
        <ele>27.4</ele>
        <time>2015-07-18T13:27:31Z</time>
      </trkpt>
      <trkpt lat="50.40691" lon="3.12375">
        <ele>27.4</ele>
        <time>2015-07-18T13:27:34Z</time>
      </trkpt>
      <trkpt lat="50.40684" lon="3.12361">
        <ele>27.3</ele>
        <time>2015-07-18T13:27:36Z</time>
      </trkpt>
      <trkpt lat="50.40678" lon="3.1235">
        <ele>27.3</ele>
        <time>2015-07-18T13:27:38Z</time>
      </trkpt>
      <trkpt lat="50.4067" lon="3.12335">
        <ele>26.9</ele>
        <time>2015-07-18T13:27:41Z</time>
      </trkpt>
      <trkpt lat="50.40664" lon="3.1232">
        <ele>26.6</ele>
        <time>2015-07-18T13:27:44Z</time>
      </trkpt>
      <trkpt lat="50.40658" lon="3.12309">
        <ele>26.5</ele>
        <time>2015-07-18T13:27:46Z</time>
      </trkpt>
      <trkpt lat="50.40652" lon="3.12293">
        <ele>26.4</ele>
        <time>2015-07-18T13:27:49Z</time>
      </trkpt>
      <trkpt lat="50.40648" lon="3.12277">
        <ele>26.4</ele>
        <time>2015-07-18T13:27:53Z</time>
      </trkpt>
      <trkpt lat="50.40637" lon="3.12274">
        <ele>26.3</ele>
        <time>2015-07-18T13:27:56Z</time>
      </trkpt>
      <trkpt lat="50.40628" lon="3.12264">
        <ele>26.5</ele>
        <time>2015-07-18T13:27:59Z</time>
      </trkpt>
      <trkpt lat="50.4062" lon="3.1225">
        <ele>26.6</ele>
        <time>2015-07-18T13:28:02Z</time>
      </trkpt>
      <trkpt lat="50.4061" lon="3.12238">
        <ele>26.6</ele>
        <time>2015-07-18T13:28:05Z</time>
      </trkpt>
      <trkpt lat="50.40602" lon="3.12227">
        <ele>26.5</ele>
        <time>2015-07-18T13:28:07Z</time>
      </trkpt>
      <trkpt lat="50.4059" lon="3.1222">
        <ele>26.4</ele>
        <time>2015-07-18T13:28:10Z</time>
      </trkpt>
      <trkpt lat="50.40581" lon="3.12205">
        <ele>26.4</ele>
        <time>2015-07-18T13:28:13Z</time>
      </trkpt>
      <trkpt lat="50.40573" lon="3.1219">
        <ele>26.3</ele>
        <time>2015-07-18T13:28:16Z</time>
      </trkpt>
      <trkpt lat="50.40564" lon="3.12176">
        <ele>26.3</ele>
        <time>2015-07-18T13:28:19Z</time>
      </trkpt>
      <trkpt lat="50.40553" lon="3.12165">
        <ele>26.3</ele>
        <time>2015-07-18T13:28:22Z</time>
      </trkpt>
      <trkpt lat="50.40542" lon="3.12153">
        <ele>26.2</ele>
        <time>2015-07-18T13:28:25Z</time>
      </trkpt>
      <trkpt lat="50.40536" lon="3.12142">
        <ele>26.2</ele>
        <time>2015-07-18T13:28:27Z</time>
      </trkpt>
      <trkpt lat="50.40528" lon="3.12126">
        <ele>26.1</ele>
        <time>2015-07-18T13:28:30Z</time>
      </trkpt>
      <trkpt lat="50.40521" lon="3.12115">
        <ele>26</ele>
        <time>2015-07-18T13:28:32Z</time>
      </trkpt>
      <trkpt lat="50.40515" lon="3.12104">
        <ele>25.9</ele>
        <time>2015-07-18T13:28:34Z</time>
      </trkpt>
      <trkpt lat="50.40508" lon="3.1209">
        <ele>25.5</ele>
        <time>2015-07-18T13:28:37Z</time>
      </trkpt>
      <trkpt lat="50.40499" lon="3.12077">
        <ele>25.1</ele>
        <time>2015-07-18T13:28:41Z</time>
      </trkpt>
      <trkpt lat="50.40492" lon="3.12064">
        <ele>24.9</ele>
        <time>2015-07-18T13:28:44Z</time>
      </trkpt>
      <trkpt lat="50.40482" lon="3.1205">
        <ele>24.7</ele>
        <time>2015-07-18T13:28:47Z</time>
      </trkpt>
      <trkpt lat="50.40476" lon="3.12039">
        <ele>24.6</ele>
        <time>2015-07-18T13:28:49Z</time>
      </trkpt>
      <trkpt lat="50.40467" lon="3.1203">
        <ele>24.5</ele>
        <time>2015-07-18T13:28:51Z</time>
      </trkpt>
      <trkpt lat="50.40459" lon="3.12021">
        <ele>24.4</ele>
        <time>2015-07-18T13:28:53Z</time>
      </trkpt>
      <trkpt lat="50.40451" lon="3.12012">
        <ele>24.4</ele>
        <time>2015-07-18T13:28:55Z</time>
      </trkpt>
      <trkpt lat="50.40442" lon="3.12004">
        <ele>24.4</ele>
        <time>2015-07-18T13:28:57Z</time>
      </trkpt>
      <trkpt lat="50.40433" lon="3.12">
        <ele>24.3</ele>
        <time>2015-07-18T13:28:59Z</time>
      </trkpt>
      <trkpt lat="50.40422" lon="3.11991">
        <ele>24.3</ele>
        <time>2015-07-18T13:29:02Z</time>
      </trkpt>
      <trkpt lat="50.40413" lon="3.11985">
        <ele>24.3</ele>
        <time>2015-07-18T13:29:04Z</time>
      </trkpt>
      <trkpt lat="50.40402" lon="3.11975">
        <ele>24.2</ele>
        <time>2015-07-18T13:29:07Z</time>
      </trkpt>
      <trkpt lat="50.40395" lon="3.11966">
        <ele>24.1</ele>
        <time>2015-07-18T13:29:09Z</time>
      </trkpt>
      <trkpt lat="50.40384" lon="3.11955">
        <ele>23.9</ele>
        <time>2015-07-18T13:29:12Z</time>
      </trkpt>
      <trkpt lat="50.40374" lon="3.11945">
        <ele>23.8</ele>
        <time>2015-07-18T13:29:15Z</time>
      </trkpt>
      <trkpt lat="50.40364" lon="3.11935">
        <ele>23.6</ele>
        <time>2015-07-18T13:29:18Z</time>
      </trkpt>
      <trkpt lat="50.40355" lon="3.11923">
        <ele>23.5</ele>
        <time>2015-07-18T13:29:21Z</time>
      </trkpt>
      <trkpt lat="50.40349" lon="3.1191">
        <ele>23.5</ele>
        <time>2015-07-18T13:29:24Z</time>
      </trkpt>
      <trkpt lat="50.40342" lon="3.11897">
        <ele>23.4</ele>
        <time>2015-07-18T13:29:27Z</time>
      </trkpt>
      <trkpt lat="50.40333" lon="3.11884">
        <ele>23.4</ele>
        <time>2015-07-18T13:29:30Z</time>
      </trkpt>
      <trkpt lat="50.40328" lon="3.11871">
        <ele>23.3</ele>
        <time>2015-07-18T13:29:33Z</time>
      </trkpt>
      <trkpt lat="50.40328" lon="3.11853">
        <ele>23.4</ele>
        <time>2015-07-18T13:29:37Z</time>
      </trkpt>
      <trkpt lat="50.40326" lon="3.11838">
        <ele>23.5</ele>
        <time>2015-07-18T13:29:40Z</time>
      </trkpt>
      <trkpt lat="50.4032" lon="3.11822">
        <ele>23.5</ele>
        <time>2015-07-18T13:29:43Z</time>
      </trkpt>
      <trkpt lat="50.40314" lon="3.11805">
        <ele>23.5</ele>
        <time>2015-07-18T13:29:46Z</time>
      </trkpt>
      <trkpt lat="50.40308" lon="3.11789">
        <ele>23.4</ele>
        <time>2015-07-18T13:29:49Z</time>
      </trkpt>
      <trkpt lat="50.40302" lon="3.11771">
        <ele>23.4</ele>
        <time>2015-07-18T13:29:52Z</time>
      </trkpt>
      <trkpt lat="50.40297" lon="3.11759">
        <ele>23.3</ele>
        <time>2015-07-18T13:29:54Z</time>
      </trkpt>
      <trkpt lat="50.40292" lon="3.1174">
        <ele>23.3</ele>
        <time>2015-07-18T13:29:57Z</time>
      </trkpt>
      <trkpt lat="50.40288" lon="3.11726">
        <ele>23.3</ele>
        <time>2015-07-18T13:29:59Z</time>
      </trkpt>
      <trkpt lat="50.40284" lon="3.11712">
        <ele>23.3</ele>
        <time>2015-07-18T13:30:01Z</time>
      </trkpt>
      <trkpt lat="50.4028" lon="3.11699">
        <ele>23.3</ele>
        <time>2015-07-18T13:30:03Z</time>
      </trkpt>
      <trkpt lat="50.40274" lon="3.11687">
        <ele>23.3</ele>
        <time>2015-07-18T13:30:05Z</time>
      </trkpt>
      <trkpt lat="50.40267" lon="3.11677">
        <ele>23.3</ele>
        <time>2015-07-18T13:30:07Z</time>
      </trkpt>
      <trkpt lat="50.40261" lon="3.11663">
        <ele>23.2</ele>
        <time>2015-07-18T13:30:09Z</time>
      </trkpt>
      <trkpt lat="50.40254" lon="3.11648">
        <ele>23.2</ele>
        <time>2015-07-18T13:30:11Z</time>
      </trkpt>
      <trkpt lat="50.40248" lon="3.11634">
        <ele>23.2</ele>
        <time>2015-07-18T13:30:13Z</time>
      </trkpt>
      <trkpt lat="50.40242" lon="3.11619">
        <ele>23.2</ele>
        <time>2015-07-18T13:30:15Z</time>
      </trkpt>
      <trkpt lat="50.40237" lon="3.11605">
        <ele>23.1</ele>
        <time>2015-07-18T13:30:17Z</time>
      </trkpt>
      <trkpt lat="50.40232" lon="3.11592">
        <ele>23.2</ele>
        <time>2015-07-18T13:30:19Z</time>
      </trkpt>
      <trkpt lat="50.40225" lon="3.1158">
        <ele>23.2</ele>
        <time>2015-07-18T13:30:21Z</time>
      </trkpt>
      <trkpt lat="50.4022" lon="3.11569">
        <ele>23.2</ele>
        <time>2015-07-18T13:30:23Z</time>
      </trkpt>
      <trkpt lat="50.40214" lon="3.11557">
        <ele>23.2</ele>
        <time>2015-07-18T13:30:25Z</time>
      </trkpt>
      <trkpt lat="50.40209" lon="3.11545">
        <ele>23.2</ele>
        <time>2015-07-18T13:30:27Z</time>
      </trkpt>
      <trkpt lat="50.40201" lon="3.11529">
        <ele>23.2</ele>
        <time>2015-07-18T13:30:30Z</time>
      </trkpt>
      <trkpt lat="50.40195" lon="3.11515">
        <ele>23.2</ele>
        <time>2015-07-18T13:30:33Z</time>
      </trkpt>
      <trkpt lat="50.40193" lon="3.11499">
        <ele>23.2</ele>
        <time>2015-07-18T13:30:37Z</time>
      </trkpt>
      <trkpt lat="50.40193" lon="3.11483">
        <ele>23.3</ele>
        <time>2015-07-18T13:30:42Z</time>
      </trkpt>
      <trkpt lat="50.40192" lon="3.11469">
        <ele>24.3</ele>
        <time>2015-07-18T13:30:46Z</time>
      </trkpt>
      <trkpt lat="50.40196" lon="3.11456">
        <ele>27.6</ele>
        <time>2015-07-18T13:31:09Z</time>
      </trkpt>
      <trkpt lat="50.40203" lon="3.11444">
        <ele>29.3</ele>
        <time>2015-07-18T13:31:19Z</time>
      </trkpt>
      <trkpt lat="50.40211" lon="3.11437">
        <ele>30.8</ele>
        <time>2015-07-18T13:31:27Z</time>
      </trkpt>
      <trkpt lat="50.40221" lon="3.11429">
        <ele>32.2</ele>
        <time>2015-07-18T13:31:35Z</time>
      </trkpt>
      <trkpt lat="50.40231" lon="3.11423">
        <ele>32.7</ele>
        <time>2015-07-18T13:31:39Z</time>
      </trkpt>
      <trkpt lat="50.40242" lon="3.11417">
        <ele>33.2</ele>
        <time>2015-07-18T13:31:43Z</time>
      </trkpt>
      <trkpt lat="50.40253" lon="3.11412">
        <ele>33.5</ele>
        <time>2015-07-18T13:31:46Z</time>
      </trkpt>
      <trkpt lat="50.40262" lon="3.11408">
        <ele>33.8</ele>
        <time>2015-07-18T13:31:48Z</time>
      </trkpt>
      <trkpt lat="50.40272" lon="3.11402">
        <ele>34</ele>
        <time>2015-07-18T13:31:50Z</time>
      </trkpt>
      <trkpt lat="50.40283" lon="3.11396">
        <ele>34.1</ele>
        <time>2015-07-18T13:31:52Z</time>
      </trkpt>
      <trkpt lat="50.40292" lon="3.1139">
        <ele>34.3</ele>
        <time>2015-07-18T13:31:54Z</time>
      </trkpt>
      <trkpt lat="50.40303" lon="3.11382">
        <ele>34.4</ele>
        <time>2015-07-18T13:31:56Z</time>
      </trkpt>
      <trkpt lat="50.40313" lon="3.11375">
        <ele>34.5</ele>
        <time>2015-07-18T13:31:58Z</time>
      </trkpt>
      <trkpt lat="50.40323" lon="3.11369">
        <ele>34.7</ele>
        <time>2015-07-18T13:32:00Z</time>
      </trkpt>
      <trkpt lat="50.40333" lon="3.11364">
        <ele>34.9</ele>
        <time>2015-07-18T13:32:02Z</time>
      </trkpt>
      <trkpt lat="50.40342" lon="3.1136">
        <ele>35.1</ele>
        <time>2015-07-18T13:32:04Z</time>
      </trkpt>
      <trkpt lat="50.40352" lon="3.11354">
        <ele>35.4</ele>
        <time>2015-07-18T13:32:06Z</time>
      </trkpt>
      <trkpt lat="50.40362" lon="3.11348">
        <ele>35.7</ele>
        <time>2015-07-18T13:32:08Z</time>
      </trkpt>
      <trkpt lat="50.40373" lon="3.11339">
        <ele>36.1</ele>
        <time>2015-07-18T13:32:10Z</time>
      </trkpt>
      <trkpt lat="50.40384" lon="3.11331">
        <ele>36.6</ele>
        <time>2015-07-18T13:32:12Z</time>
      </trkpt>
      <trkpt lat="50.40394" lon="3.11322">
        <ele>37.1</ele>
        <time>2015-07-18T13:32:14Z</time>
      </trkpt>
      <trkpt lat="50.40403" lon="3.11314">
        <ele>37.5</ele>
        <time>2015-07-18T13:32:16Z</time>
      </trkpt>
      <trkpt lat="50.40411" lon="3.11305">
        <ele>38</ele>
        <time>2015-07-18T13:32:18Z</time>
      </trkpt>
      <trkpt lat="50.40419" lon="3.11297">
        <ele>38.6</ele>
        <time>2015-07-18T13:32:20Z</time>
      </trkpt>
      <trkpt lat="50.40428" lon="3.11292">
        <ele>39</ele>
        <time>2015-07-18T13:32:22Z</time>
      </trkpt>
      <trkpt lat="50.40438" lon="3.11284">
        <ele>39.4</ele>
        <time>2015-07-18T13:32:24Z</time>
      </trkpt>
      <trkpt lat="50.40449" lon="3.11275">
        <ele>39.7</ele>
        <time>2015-07-18T13:32:26Z</time>
      </trkpt>
      <trkpt lat="50.40462" lon="3.11271">
        <ele>40</ele>
        <time>2015-07-18T13:32:28Z</time>
      </trkpt>
      <trkpt lat="50.40474" lon="3.11265">
        <ele>40.2</ele>
        <time>2015-07-18T13:32:30Z</time>
      </trkpt>
      <trkpt lat="50.40486" lon="3.11257">
        <ele>40.3</ele>
        <time>2015-07-18T13:32:32Z</time>
      </trkpt>
      <trkpt lat="50.40498" lon="3.1125">
        <ele>40.3</ele>
        <time>2015-07-18T13:32:34Z</time>
      </trkpt>
      <trkpt lat="50.40509" lon="3.11243">
        <ele>40.4</ele>
        <time>2015-07-18T13:32:36Z</time>
      </trkpt>
      <trkpt lat="50.40519" lon="3.11236">
        <ele>40.3</ele>
        <time>2015-07-18T13:32:38Z</time>
      </trkpt>
      <trkpt lat="50.40527" lon="3.11224">
        <ele>40.3</ele>
        <time>2015-07-18T13:32:40Z</time>
      </trkpt>
      <trkpt lat="50.40531" lon="3.11209">
        <ele>40.3</ele>
        <time>2015-07-18T13:32:42Z</time>
      </trkpt>
      <trkpt lat="50.40532" lon="3.11191">
        <ele>40.3</ele>
        <time>2015-07-18T13:32:44Z</time>
      </trkpt>
      <trkpt lat="50.40536" lon="3.11174">
        <ele>40.3</ele>
        <time>2015-07-18T13:32:46Z</time>
      </trkpt>
      <trkpt lat="50.40543" lon="3.1116">
        <ele>40.2</ele>
        <time>2015-07-18T13:32:48Z</time>
      </trkpt>
      <trkpt lat="50.40553" lon="3.11146">
        <ele>40.1</ele>
        <time>2015-07-18T13:32:50Z</time>
      </trkpt>
      <trkpt lat="50.40556" lon="3.11126">
        <ele>39.9</ele>
        <time>2015-07-18T13:32:52Z</time>
      </trkpt>
      <trkpt lat="50.40559" lon="3.11103">
        <ele>39.8</ele>
        <time>2015-07-18T13:32:54Z</time>
      </trkpt>
      <trkpt lat="50.40563" lon="3.11077">
        <ele>39.5</ele>
        <time>2015-07-18T13:32:56Z</time>
      </trkpt>
      <trkpt lat="50.40568" lon="3.11056">
        <ele>39.4</ele>
        <time>2015-07-18T13:32:58Z</time>
      </trkpt>
      <trkpt lat="50.40575" lon="3.11039">
        <ele>39.3</ele>
        <time>2015-07-18T13:33:00Z</time>
      </trkpt>
      <trkpt lat="50.40582" lon="3.11025">
        <ele>39.2</ele>
        <time>2015-07-18T13:33:02Z</time>
      </trkpt>
      <trkpt lat="50.40587" lon="3.11012">
        <ele>39.9</ele>
        <time>2015-07-18T13:33:19Z</time>
      </trkpt>
      <trkpt lat="50.40588" lon="3.10998">
        <ele>40.2</ele>
        <time>2015-07-18T13:33:31Z</time>
      </trkpt>
      <trkpt lat="50.4059" lon="3.10983">
        <ele>40.6</ele>
        <time>2015-07-18T13:33:37Z</time>
      </trkpt>
      <trkpt lat="50.40589" lon="3.10965">
        <ele>41.1</ele>
        <time>2015-07-18T13:33:45Z</time>
      </trkpt>
      <trkpt lat="50.40585" lon="3.10949">
        <ele>41.3</ele>
        <time>2015-07-18T13:33:48Z</time>
      </trkpt>
      <trkpt lat="50.40578" lon="3.10932">
        <ele>41.5</ele>
        <time>2015-07-18T13:33:51Z</time>
      </trkpt>
      <trkpt lat="50.40573" lon="3.10917">
        <ele>41.5</ele>
        <time>2015-07-18T13:33:53Z</time>
      </trkpt>
      <trkpt lat="50.40565" lon="3.10898">
        <ele>41.3</ele>
        <time>2015-07-18T13:33:55Z</time>
      </trkpt>
      <trkpt lat="50.40557" lon="3.10877">
        <ele>41</ele>
        <time>2015-07-18T13:33:57Z</time>
      </trkpt>
      <trkpt lat="50.40547" lon="3.10857">
        <ele>40.7</ele>
        <time>2015-07-18T13:33:59Z</time>
      </trkpt>
      <trkpt lat="50.40536" lon="3.10847">
        <ele>40.5</ele>
        <time>2015-07-18T13:34:01Z</time>
      </trkpt>
      <trkpt lat="50.40526" lon="3.10842">
        <ele>40.3</ele>
        <time>2015-07-18T13:34:03Z</time>
      </trkpt>
      <trkpt lat="50.40517" lon="3.1083">
        <ele>39.7</ele>
        <time>2015-07-18T13:34:06Z</time>
      </trkpt>
      <trkpt lat="50.4051" lon="3.1082">
        <ele>39.4</ele>
        <time>2015-07-18T13:34:09Z</time>
      </trkpt>
      <trkpt lat="50.40502" lon="3.10811">
        <ele>39.1</ele>
        <time>2015-07-18T13:34:12Z</time>
      </trkpt>
      <trkpt lat="50.40492" lon="3.10794">
        <ele>38.5</ele>
        <time>2015-07-18T13:34:15Z</time>
      </trkpt>
      <trkpt lat="50.40483" lon="3.10781">
        <ele>38.1</ele>
        <time>2015-07-18T13:34:17Z</time>
      </trkpt>
      <trkpt lat="50.40471" lon="3.10767">
        <ele>37.4</ele>
        <time>2015-07-18T13:34:19Z</time>
      </trkpt>
      <trkpt lat="50.40456" lon="3.10754">
        <ele>36.4</ele>
        <time>2015-07-18T13:34:21Z</time>
      </trkpt>
      <trkpt lat="50.40447" lon="3.10747">
        <ele>35.8</ele>
        <time>2015-07-18T13:34:22Z</time>
      </trkpt>
      <trkpt lat="50.40438" lon="3.10741">
        <ele>35.1</ele>
        <time>2015-07-18T13:34:23Z</time>
      </trkpt>
      <trkpt lat="50.40429" lon="3.10735">
        <ele>34.5</ele>
        <time>2015-07-18T13:34:24Z</time>
      </trkpt>
      <trkpt lat="50.40413" lon="3.10726">
        <ele>33.4</ele>
        <time>2015-07-18T13:34:26Z</time>
      </trkpt>
      <trkpt lat="50.40398" lon="3.10723">
        <ele>32.7</ele>
        <time>2015-07-18T13:34:28Z</time>
      </trkpt>
      <trkpt lat="50.40385" lon="3.10723">
        <ele>32</ele>
        <time>2015-07-18T13:34:30Z</time>
      </trkpt>
      <trkpt lat="50.40374" lon="3.10721">
        <ele>31.4</ele>
        <time>2015-07-18T13:34:32Z</time>
      </trkpt>
      <trkpt lat="50.40361" lon="3.10719">
        <ele>30.9</ele>
        <time>2015-07-18T13:34:34Z</time>
      </trkpt>
      <trkpt lat="50.4035" lon="3.10722">
        <ele>30.4</ele>
        <time>2015-07-18T13:34:36Z</time>
      </trkpt>
      <trkpt lat="50.40337" lon="3.10729">
        <ele>30.3</ele>
        <time>2015-07-18T13:34:38Z</time>
      </trkpt>
      <trkpt lat="50.40326" lon="3.10736">
        <ele>30.2</ele>
        <time>2015-07-18T13:34:40Z</time>
      </trkpt>
      <trkpt lat="50.40314" lon="3.10739">
        <ele>30.2</ele>
        <time>2015-07-18T13:34:42Z</time>
      </trkpt>
      <trkpt lat="50.40302" lon="3.10739">
        <ele>30.2</ele>
        <time>2015-07-18T13:34:44Z</time>
      </trkpt>
      <trkpt lat="50.4029" lon="3.10745">
        <ele>30.1</ele>
        <time>2015-07-18T13:34:46Z</time>
      </trkpt>
      <trkpt lat="50.40279" lon="3.1076">
        <ele>29.8</ele>
        <time>2015-07-18T13:34:48Z</time>
      </trkpt>
      <trkpt lat="50.40267" lon="3.10775">
        <ele>29.7</ele>
        <time>2015-07-18T13:34:50Z</time>
      </trkpt>
      <trkpt lat="50.40255" lon="3.10786">
        <ele>29.6</ele>
        <time>2015-07-18T13:34:52Z</time>
      </trkpt>
      <trkpt lat="50.40245" lon="3.10792">
        <ele>29.3</ele>
        <time>2015-07-18T13:34:54Z</time>
      </trkpt>
      <trkpt lat="50.40231" lon="3.10796">
        <ele>28.3</ele>
        <time>2015-07-18T13:34:57Z</time>
      </trkpt>
      <trkpt lat="50.4022" lon="3.10799">
        <ele>27.9</ele>
        <time>2015-07-18T13:34:59Z</time>
      </trkpt>
      <trkpt lat="50.4021" lon="3.10806">
        <ele>27.3</ele>
        <time>2015-07-18T13:35:02Z</time>
      </trkpt>
      <trkpt lat="50.402" lon="3.10811">
        <ele>27</ele>
        <time>2015-07-18T13:35:04Z</time>
      </trkpt>
      <trkpt lat="50.40188" lon="3.10812">
        <ele>26.5</ele>
        <time>2015-07-18T13:35:06Z</time>
      </trkpt>
      <trkpt lat="50.4018" lon="3.10818">
        <ele>26.1</ele>
        <time>2015-07-18T13:35:08Z</time>
      </trkpt>
      <trkpt lat="50.4018" lon="3.10835">
        <ele>25.5</ele>
        <time>2015-07-18T13:35:11Z</time>
      </trkpt>
      <trkpt lat="50.40177" lon="3.10849">
        <ele>25.2</ele>
        <time>2015-07-18T13:35:14Z</time>
      </trkpt>
      <trkpt lat="50.40168" lon="3.10861">
        <ele>25</ele>
        <time>2015-07-18T13:35:17Z</time>
      </trkpt>
      <trkpt lat="50.40157" lon="3.10866">
        <ele>24.8</ele>
        <time>2015-07-18T13:35:20Z</time>
      </trkpt>
      <trkpt lat="50.40148" lon="3.1087">
        <ele>24.6</ele>
        <time>2015-07-18T13:35:23Z</time>
      </trkpt>
      <trkpt lat="50.40137" lon="3.10874">
        <ele>24.4</ele>
        <time>2015-07-18T13:35:26Z</time>
      </trkpt>
      <trkpt lat="50.40126" lon="3.10883">
        <ele>24.2</ele>
        <time>2015-07-18T13:35:29Z</time>
      </trkpt>
      <trkpt lat="50.40118" lon="3.1089">
        <ele>24.1</ele>
        <time>2015-07-18T13:35:31Z</time>
      </trkpt>
      <trkpt lat="50.40109" lon="3.10895">
        <ele>23.8</ele>
        <time>2015-07-18T13:35:34Z</time>
      </trkpt>
      <trkpt lat="50.40098" lon="3.10899">
        <ele>23.3</ele>
        <time>2015-07-18T13:35:38Z</time>
      </trkpt>
      <trkpt lat="50.40098" lon="3.10913">
        <ele>23</ele>
        <time>2015-07-18T13:35:41Z</time>
      </trkpt>
      <trkpt lat="50.40101" lon="3.10928">
        <ele>21.9</ele>
        <time>2015-07-18T13:36:28Z</time>
      </trkpt>
      <trkpt lat="50.40109" lon="3.10943">
        <ele>22.2</ele>
        <time>2015-07-18T13:36:32Z</time>
      </trkpt>
      <trkpt lat="50.40118" lon="3.10952">
        <ele>22.9</ele>
        <time>2015-07-18T13:36:36Z</time>
      </trkpt>
      <trkpt lat="50.40126" lon="3.10959">
        <ele>23.9</ele>
        <time>2015-07-18T13:36:40Z</time>
      </trkpt>
      <trkpt lat="50.40134" lon="3.10966">
        <ele>25.4</ele>
        <time>2015-07-18T13:36:45Z</time>
      </trkpt>
      <trkpt lat="50.40144" lon="3.10974">
        <ele>27.1</ele>
        <time>2015-07-18T13:36:50Z</time>
      </trkpt>
      <trkpt lat="50.40152" lon="3.10982">
        <ele>29</ele>
        <time>2015-07-18T13:36:56Z</time>
      </trkpt>
      <trkpt lat="50.40162" lon="3.10982">
        <ele>30.7</ele>
        <time>2015-07-18T13:37:02Z</time>
      </trkpt>
      <trkpt lat="50.40171" lon="3.10976">
        <ele>32.5</ele>
        <time>2015-07-18T13:37:08Z</time>
      </trkpt>
      <trkpt lat="50.40178" lon="3.10965">
        <ele>34</ele>
        <time>2015-07-18T13:37:13Z</time>
      </trkpt>
      <trkpt lat="50.40185" lon="3.10953">
        <ele>35.6</ele>
        <time>2015-07-18T13:37:18Z</time>
      </trkpt>
      <trkpt lat="50.40193" lon="3.10942">
        <ele>37.1</ele>
        <time>2015-07-18T13:37:23Z</time>
      </trkpt>
      <trkpt lat="50.402" lon="3.10934">
        <ele>38.5</ele>
        <time>2015-07-18T13:37:28Z</time>
      </trkpt>
      <trkpt lat="50.40209" lon="3.10924">
        <ele>40.1</ele>
        <time>2015-07-18T13:37:34Z</time>
      </trkpt>
      <trkpt lat="50.40217" lon="3.10914">
        <ele>41.5</ele>
        <time>2015-07-18T13:37:39Z</time>
      </trkpt>
      <trkpt lat="50.40225" lon="3.10905">
        <ele>43</ele>
        <time>2015-07-18T13:37:44Z</time>
      </trkpt>
      <trkpt lat="50.40232" lon="3.10897">
        <ele>44.4</ele>
        <time>2015-07-18T13:37:49Z</time>
      </trkpt>
      <trkpt lat="50.40239" lon="3.10887">
        <ele>45.9</ele>
        <time>2015-07-18T13:37:54Z</time>
      </trkpt>
      <trkpt lat="50.40248" lon="3.10883">
        <ele>47.2</ele>
        <time>2015-07-18T13:37:59Z</time>
      </trkpt>
      <trkpt lat="50.40258" lon="3.10885">
        <ele>48.7</ele>
        <time>2015-07-18T13:38:05Z</time>
      </trkpt>
      <trkpt lat="50.40268" lon="3.10888">
        <ele>50</ele>
        <time>2015-07-18T13:38:10Z</time>
      </trkpt>
      <trkpt lat="50.40278" lon="3.1089">
        <ele>51.3</ele>
        <time>2015-07-18T13:38:15Z</time>
      </trkpt>
      <trkpt lat="50.40288" lon="3.10892">
        <ele>52.8</ele>
        <time>2015-07-18T13:38:20Z</time>
      </trkpt>
      <trkpt lat="50.40298" lon="3.10896">
        <ele>54.7</ele>
        <time>2015-07-18T13:38:27Z</time>
      </trkpt>
      <trkpt lat="50.40306" lon="3.10902">
        <ele>56.7</ele>
        <time>2015-07-18T13:38:34Z</time>
      </trkpt>
      <trkpt lat="50.40309" lon="3.10918">
        <ele>58.2</ele>
        <time>2015-07-18T13:38:40Z</time>
      </trkpt>
      <trkpt lat="50.40302" lon="3.10929">
        <ele>60</ele>
        <time>2015-07-18T13:38:47Z</time>
      </trkpt>
      <trkpt lat="50.40294" lon="3.10939">
        <ele>61.5</ele>
        <time>2015-07-18T13:38:53Z</time>
      </trkpt>
      <trkpt lat="50.40286" lon="3.10948">
        <ele>62.9</ele>
        <time>2015-07-18T13:38:59Z</time>
      </trkpt>
      <trkpt lat="50.40278" lon="3.10957">
        <ele>64.4</ele>
        <time>2015-07-18T13:39:05Z</time>
      </trkpt>
      <trkpt lat="50.40269" lon="3.10965">
        <ele>65.8</ele>
        <time>2015-07-18T13:39:11Z</time>
      </trkpt>
      <trkpt lat="50.40261" lon="3.10973">
        <ele>67</ele>
        <time>2015-07-18T13:39:17Z</time>
      </trkpt>
      <trkpt lat="50.40266" lon="3.10987">
        <ele>68.3</ele>
        <time>2015-07-18T13:39:23Z</time>
      </trkpt>
      <trkpt lat="50.40275" lon="3.10984">
        <ele>69.4</ele>
        <time>2015-07-18T13:39:29Z</time>
      </trkpt>
      <trkpt lat="50.40285" lon="3.10982">
        <ele>70.8</ele>
        <time>2015-07-18T13:39:35Z</time>
      </trkpt>
      <trkpt lat="50.40295" lon="3.10986">
        <ele>72.5</ele>
        <time>2015-07-18T13:39:42Z</time>
      </trkpt>
      <trkpt lat="50.40305" lon="3.10985">
        <ele>73.5</ele>
        <time>2015-07-18T13:39:47Z</time>
      </trkpt>
      <trkpt lat="50.40316" lon="3.10982">
        <ele>74.6</ele>
        <time>2015-07-18T13:39:52Z</time>
      </trkpt>
      <trkpt lat="50.40326" lon="3.10985">
        <ele>75.8</ele>
        <time>2015-07-18T13:39:57Z</time>
      </trkpt>
      <trkpt lat="50.40335" lon="3.10987">
        <ele>77.1</ele>
        <time>2015-07-18T13:40:03Z</time>
      </trkpt>
      <trkpt lat="50.40345" lon="3.10989">
        <ele>78.2</ele>
        <time>2015-07-18T13:40:08Z</time>
      </trkpt>
      <trkpt lat="50.40354" lon="3.1099">
        <ele>79.2</ele>
        <time>2015-07-18T13:40:13Z</time>
      </trkpt>
      <trkpt lat="50.40363" lon="3.10989">
        <ele>79.9</ele>
        <time>2015-07-18T13:40:17Z</time>
      </trkpt>
      <trkpt lat="50.40375" lon="3.10992">
        <ele>80.5</ele>
        <time>2015-07-18T13:40:21Z</time>
      </trkpt>
      <trkpt lat="50.40384" lon="3.10992">
        <ele>81</ele>
        <time>2015-07-18T13:40:24Z</time>
      </trkpt>
      <trkpt lat="50.40394" lon="3.10995">
        <ele>81.4</ele>
        <time>2015-07-18T13:40:27Z</time>
      </trkpt>
      <trkpt lat="50.40403" lon="3.10995">
        <ele>81.8</ele>
        <time>2015-07-18T13:40:30Z</time>
      </trkpt>
      <trkpt lat="50.40414" lon="3.10998">
        <ele>82.3</ele>
        <time>2015-07-18T13:40:34Z</time>
      </trkpt>
      <trkpt lat="50.40423" lon="3.11">
        <ele>82.7</ele>
        <time>2015-07-18T13:40:38Z</time>
      </trkpt>
      <trkpt lat="50.40425" lon="3.11016">
        <ele>83.6</ele>
        <time>2015-07-18T13:40:50Z</time>
      </trkpt>
      <trkpt lat="50.40435" lon="3.11011">
        <ele>83.9</ele>
        <time>2015-07-18T13:40:57Z</time>
      </trkpt>
      <trkpt lat="50.40435" lon="3.10994">
        <ele>84</ele>
        <time>2015-07-18T13:41:02Z</time>
      </trkpt>
      <trkpt lat="50.40426" lon="3.10992">
        <ele>84.1</ele>
        <time>2015-07-18T13:41:07Z</time>
      </trkpt>
      <trkpt lat="50.40436" lon="3.10995">
        <ele>84.3</ele>
        <time>2015-07-18T13:41:19Z</time>
      </trkpt>
      <trkpt lat="50.40427" lon="3.10987">
        <ele>84.3</ele>
        <time>2015-07-18T13:41:29Z</time>
      </trkpt>
      <trkpt lat="50.40419" lon="3.10995">
        <ele>84.3</ele>
        <time>2015-07-18T13:41:34Z</time>
      </trkpt>
      <trkpt lat="50.40428" lon="3.10986">
        <ele>84.3</ele>
        <time>2015-07-18T13:41:43Z</time>
      </trkpt>
      <trkpt lat="50.40433" lon="3.10999">
        <ele>84.2</ele>
        <time>2015-07-18T13:41:49Z</time>
      </trkpt>
      <trkpt lat="50.40424" lon="3.11001">
        <ele>84.1</ele>
        <time>2015-07-18T13:41:54Z</time>
      </trkpt>
      <trkpt lat="50.40428" lon="3.10987">
        <ele>84.1</ele>
        <time>2015-07-18T13:42:01Z</time>
      </trkpt>
      <trkpt lat="50.40434" lon="3.10998">
        <ele>84.2</ele>
        <time>2015-07-18T13:42:08Z</time>
      </trkpt>
      <trkpt lat="50.40424" lon="3.11">
        <ele>84.2</ele>
        <time>2015-07-18T13:42:13Z</time>
      </trkpt>
      <trkpt lat="50.40415" lon="3.10997">
        <ele>84.2</ele>
        <time>2015-07-18T13:42:17Z</time>
      </trkpt>
      <trkpt lat="50.40403" lon="3.10995">
        <ele>84.2</ele>
        <time>2015-07-18T13:42:22Z</time>
      </trkpt>
      <trkpt lat="50.40394" lon="3.10993">
        <ele>84.2</ele>
        <time>2015-07-18T13:42:25Z</time>
      </trkpt>
      <trkpt lat="50.40403" lon="3.10994">
        <ele>84.3</ele>
        <time>2015-07-18T13:42:46Z</time>
      </trkpt>
      <trkpt lat="50.40413" lon="3.10992">
        <ele>84.3</ele>
        <time>2015-07-18T13:42:52Z</time>
      </trkpt>
      <trkpt lat="50.40423" lon="3.11">
        <ele>84.4</ele>
        <time>2015-07-18T13:43:00Z</time>
      </trkpt>
      <trkpt lat="50.4043" lon="3.10991">
        <ele>84.5</ele>
        <time>2015-07-18T13:43:35Z</time>
      </trkpt>
      <trkpt lat="50.40432" lon="3.10974">
        <ele>84.5</ele>
        <time>2015-07-18T13:43:50Z</time>
      </trkpt>
      <trkpt lat="50.40435" lon="3.10956">
        <ele>84.5</ele>
        <time>2015-07-18T13:43:54Z</time>
      </trkpt>
      <trkpt lat="50.40438" lon="3.10942">
        <ele>84.5</ele>
        <time>2015-07-18T13:43:57Z</time>
      </trkpt>
      <trkpt lat="50.4044" lon="3.10928">
        <ele>84.4</ele>
        <time>2015-07-18T13:44:00Z</time>
      </trkpt>
      <trkpt lat="50.40444" lon="3.10914">
        <ele>84.2</ele>
        <time>2015-07-18T13:44:04Z</time>
      </trkpt>
      <trkpt lat="50.40449" lon="3.109">
        <ele>83.5</ele>
        <time>2015-07-18T13:44:10Z</time>
      </trkpt>
      <trkpt lat="50.40441" lon="3.10911">
        <ele>80.9</ele>
        <time>2015-07-18T13:46:28Z</time>
      </trkpt>
      <trkpt lat="50.40438" lon="3.10926">
        <ele>81.4</ele>
        <time>2015-07-18T13:46:33Z</time>
      </trkpt>
      <trkpt lat="50.40433" lon="3.1094">
        <ele>81.9</ele>
        <time>2015-07-18T13:46:38Z</time>
      </trkpt>
      <trkpt lat="50.40431" lon="3.10955">
        <ele>82.3</ele>
        <time>2015-07-18T13:46:42Z</time>
      </trkpt>
      <trkpt lat="50.4043" lon="3.10969">
        <ele>82.7</ele>
        <time>2015-07-18T13:46:47Z</time>
      </trkpt>
      <trkpt lat="50.40428" lon="3.10986">
        <ele>83.3</ele>
        <time>2015-07-18T13:46:53Z</time>
      </trkpt>
      <trkpt lat="50.40422" lon="3.10998">
        <ele>83.8</ele>
        <time>2015-07-18T13:47:00Z</time>
      </trkpt>
      <trkpt lat="50.40424" lon="3.11012">
        <ele>86.1</ele>
        <time>2015-07-18T13:51:59Z</time>
      </trkpt>
      <trkpt lat="50.40427" lon="3.11029">
        <ele>86.1</ele>
        <time>2015-07-18T13:52:04Z</time>
      </trkpt>
      <trkpt lat="50.4043" lon="3.11045">
        <ele>86.1</ele>
        <time>2015-07-18T13:52:08Z</time>
      </trkpt>
      <trkpt lat="50.40434" lon="3.11063">
        <ele>86.2</ele>
        <time>2015-07-18T13:52:12Z</time>
      </trkpt>
      <trkpt lat="50.40437" lon="3.11077">
        <ele>86.2</ele>
        <time>2015-07-18T13:52:16Z</time>
      </trkpt>
      <trkpt lat="50.40435" lon="3.11091">
        <ele>86.5</ele>
        <time>2015-07-18T13:52:36Z</time>
      </trkpt>
      <trkpt lat="50.40436" lon="3.1111">
        <ele>86.6</ele>
        <time>2015-07-18T13:52:43Z</time>
      </trkpt>
      <trkpt lat="50.40446" lon="3.11125">
        <ele>86.4</ele>
        <time>2015-07-18T13:52:46Z</time>
      </trkpt>
      <trkpt lat="50.40456" lon="3.11129">
        <ele>86</ele>
        <time>2015-07-18T13:52:49Z</time>
      </trkpt>
      <trkpt lat="50.40466" lon="3.11127">
        <ele>85.3</ele>
        <time>2015-07-18T13:52:55Z</time>
      </trkpt>
      <trkpt lat="50.40474" lon="3.1112">
        <ele>84.7</ele>
        <time>2015-07-18T13:52:59Z</time>
      </trkpt>
      <trkpt lat="50.40484" lon="3.11112">
        <ele>84.2</ele>
        <time>2015-07-18T13:53:07Z</time>
      </trkpt>
      <trkpt lat="50.40491" lon="3.11104">
        <ele>83.9</ele>
        <time>2015-07-18T13:53:13Z</time>
      </trkpt>
      <trkpt lat="50.40497" lon="3.11091">
        <ele>84</ele>
        <time>2015-07-18T13:53:21Z</time>
      </trkpt>
      <trkpt lat="50.40503" lon="3.11076">
        <ele>84.1</ele>
        <time>2015-07-18T13:53:25Z</time>
      </trkpt>
      <trkpt lat="50.40505" lon="3.1106">
        <ele>84.1</ele>
        <time>2015-07-18T13:53:29Z</time>
      </trkpt>
      <trkpt lat="50.40503" lon="3.11045">
        <ele>83.9</ele>
        <time>2015-07-18T13:53:42Z</time>
      </trkpt>
      <trkpt lat="50.40497" lon="3.11031">
        <ele>83.9</ele>
        <time>2015-07-18T13:53:49Z</time>
      </trkpt>
      <trkpt lat="50.40489" lon="3.11022">
        <ele>83.9</ele>
        <time>2015-07-18T13:53:53Z</time>
      </trkpt>
      <trkpt lat="50.40478" lon="3.11014">
        <ele>84</ele>
        <time>2015-07-18T13:53:57Z</time>
      </trkpt>
      <trkpt lat="50.40468" lon="3.11009">
        <ele>84</ele>
        <time>2015-07-18T13:54:00Z</time>
      </trkpt>
      <trkpt lat="50.40459" lon="3.11006">
        <ele>84.1</ele>
        <time>2015-07-18T13:54:03Z</time>
      </trkpt>
      <trkpt lat="50.4045" lon="3.11002">
        <ele>84.2</ele>
        <time>2015-07-18T13:54:06Z</time>
      </trkpt>
      <trkpt lat="50.40441" lon="3.11001">
        <ele>84.4</ele>
        <time>2015-07-18T13:54:09Z</time>
      </trkpt>
      <trkpt lat="50.40431" lon="3.11002">
        <ele>84.6</ele>
        <time>2015-07-18T13:54:12Z</time>
      </trkpt>
      <trkpt lat="50.40421" lon="3.11">
        <ele>84.9</ele>
        <time>2015-07-18T13:54:15Z</time>
      </trkpt>
      <trkpt lat="50.40411" lon="3.10999">
        <ele>85.1</ele>
        <time>2015-07-18T13:54:18Z</time>
      </trkpt>
      <trkpt lat="50.404" lon="3.10998">
        <ele>85.2</ele>
        <time>2015-07-18T13:54:21Z</time>
      </trkpt>
      <trkpt lat="50.40387" lon="3.10995">
        <ele>85.2</ele>
        <time>2015-07-18T13:54:24Z</time>
      </trkpt>
      <trkpt lat="50.40378" lon="3.10997">
        <ele>85.2</ele>
        <time>2015-07-18T13:54:27Z</time>
      </trkpt>
      <trkpt lat="50.40368" lon="3.10996">
        <ele>85.2</ele>
        <time>2015-07-18T13:54:31Z</time>
      </trkpt>
      <trkpt lat="50.40359" lon="3.10995">
        <ele>85.2</ele>
        <time>2015-07-18T13:54:35Z</time>
      </trkpt>
      <trkpt lat="50.40349" lon="3.10993">
        <ele>85.3</ele>
        <time>2015-07-18T13:54:40Z</time>
      </trkpt>
      <trkpt lat="50.40337" lon="3.10991">
        <ele>85.1</ele>
        <time>2015-07-18T13:54:43Z</time>
      </trkpt>
      <trkpt lat="50.40328" lon="3.10989">
        <ele>84.8</ele>
        <time>2015-07-18T13:54:45Z</time>
      </trkpt>
      <trkpt lat="50.40316" lon="3.10985">
        <ele>84.3</ele>
        <time>2015-07-18T13:54:48Z</time>
      </trkpt>
      <trkpt lat="50.40306" lon="3.10984">
        <ele>83.7</ele>
        <time>2015-07-18T13:54:51Z</time>
      </trkpt>
      <trkpt lat="50.40294" lon="3.10985">
        <ele>82.7</ele>
        <time>2015-07-18T13:54:55Z</time>
      </trkpt>
      <trkpt lat="50.40284" lon="3.10985">
        <ele>81.6</ele>
        <time>2015-07-18T13:54:59Z</time>
      </trkpt>
      <trkpt lat="50.40275" lon="3.10988">
        <ele>80.6</ele>
        <time>2015-07-18T13:55:02Z</time>
      </trkpt>
      <trkpt lat="50.40265" lon="3.10992">
        <ele>79.6</ele>
        <time>2015-07-18T13:55:05Z</time>
      </trkpt>
      <trkpt lat="50.40264" lon="3.10975">
        <ele>78.5</ele>
        <time>2015-07-18T13:55:09Z</time>
      </trkpt>
      <trkpt lat="50.40274" lon="3.10963">
        <ele>77.6</ele>
        <time>2015-07-18T13:55:12Z</time>
      </trkpt>
      <trkpt lat="50.40284" lon="3.10953">
        <ele>76.5</ele>
        <time>2015-07-18T13:55:15Z</time>
      </trkpt>
      <trkpt lat="50.40292" lon="3.10944">
        <ele>75.7</ele>
        <time>2015-07-18T13:55:17Z</time>
      </trkpt>
      <trkpt lat="50.40301" lon="3.10934">
        <ele>74.5</ele>
        <time>2015-07-18T13:55:20Z</time>
      </trkpt>
      <trkpt lat="50.4031" lon="3.10922">
        <ele>72.5</ele>
        <time>2015-07-18T13:55:24Z</time>
      </trkpt>
      <trkpt lat="50.40307" lon="3.10904">
        <ele>70.4</ele>
        <time>2015-07-18T13:55:28Z</time>
      </trkpt>
      <trkpt lat="50.40296" lon="3.10899">
        <ele>69.4</ele>
        <time>2015-07-18T13:55:30Z</time>
      </trkpt>
      <trkpt lat="50.40286" lon="3.10896">
        <ele>68.3</ele>
        <time>2015-07-18T13:55:32Z</time>
      </trkpt>
      <trkpt lat="50.40275" lon="3.10893">
        <ele>67</ele>
        <time>2015-07-18T13:55:34Z</time>
      </trkpt>
      <trkpt lat="50.40265" lon="3.1089">
        <ele>65.6</ele>
        <time>2015-07-18T13:55:36Z</time>
      </trkpt>
      <trkpt lat="50.40255" lon="3.10888">
        <ele>64.2</ele>
        <time>2015-07-18T13:55:38Z</time>
      </trkpt>
      <trkpt lat="50.40243" lon="3.1089">
        <ele>62.5</ele>
        <time>2015-07-18T13:55:41Z</time>
      </trkpt>
      <trkpt lat="50.40231" lon="3.10898">
        <ele>60.8</ele>
        <time>2015-07-18T13:55:44Z</time>
      </trkpt>
      <trkpt lat="50.40222" lon="3.10907">
        <ele>59.7</ele>
        <time>2015-07-18T13:55:46Z</time>
      </trkpt>
      <trkpt lat="50.40214" lon="3.10917">
        <ele>58.6</ele>
        <time>2015-07-18T13:55:48Z</time>
      </trkpt>
      <trkpt lat="50.40206" lon="3.10926">
        <ele>57.4</ele>
        <time>2015-07-18T13:55:50Z</time>
      </trkpt>
      <trkpt lat="50.40196" lon="3.10938">
        <ele>55.1</ele>
        <time>2015-07-18T13:55:53Z</time>
      </trkpt>
      <trkpt lat="50.40186" lon="3.10951">
        <ele>53</ele>
        <time>2015-07-18T13:55:56Z</time>
      </trkpt>
      <trkpt lat="50.40178" lon="3.10966">
        <ele>50.9</ele>
        <time>2015-07-18T13:55:59Z</time>
      </trkpt>
      <trkpt lat="50.40167" lon="3.10976">
        <ele>48.8</ele>
        <time>2015-07-18T13:56:02Z</time>
      </trkpt>
      <trkpt lat="50.40156" lon="3.1098">
        <ele>47</ele>
        <time>2015-07-18T13:56:05Z</time>
      </trkpt>
      <trkpt lat="50.40146" lon="3.10972">
        <ele>44.5</ele>
        <time>2015-07-18T13:56:09Z</time>
      </trkpt>
      <trkpt lat="50.40137" lon="3.1096">
        <ele>42.8</ele>
        <time>2015-07-18T13:56:12Z</time>
      </trkpt>
      <trkpt lat="50.40128" lon="3.10955">
        <ele>41.5</ele>
        <time>2015-07-18T13:56:14Z</time>
      </trkpt>
      <trkpt lat="50.40117" lon="3.10945">
        <ele>39.4</ele>
        <time>2015-07-18T13:56:17Z</time>
      </trkpt>
      <trkpt lat="50.40109" lon="3.10936">
        <ele>37.4</ele>
        <time>2015-07-18T13:56:20Z</time>
      </trkpt>
      <trkpt lat="50.40104" lon="3.10922">
        <ele>34.9</ele>
        <time>2015-07-18T13:56:24Z</time>
      </trkpt>
      <trkpt lat="50.40094" lon="3.10911">
        <ele>26.5</ele>
        <time>2015-07-18T13:56:49Z</time>
      </trkpt>
      <trkpt lat="50.40083" lon="3.10916">
        <ele>25.9</ele>
        <time>2015-07-18T13:56:52Z</time>
      </trkpt>
      <trkpt lat="50.40075" lon="3.10934">
        <ele>25.2</ele>
        <time>2015-07-18T13:56:55Z</time>
      </trkpt>
      <trkpt lat="50.40072" lon="3.10951">
        <ele>24.9</ele>
        <time>2015-07-18T13:56:57Z</time>
      </trkpt>
      <trkpt lat="50.40073" lon="3.10967">
        <ele>24.7</ele>
        <time>2015-07-18T13:56:59Z</time>
      </trkpt>
      <trkpt lat="50.4007" lon="3.10987">
        <ele>24.5</ele>
        <time>2015-07-18T13:57:02Z</time>
      </trkpt>
      <trkpt lat="50.40063" lon="3.11002">
        <ele>24.5</ele>
        <time>2015-07-18T13:57:05Z</time>
      </trkpt>
      <trkpt lat="50.40064" lon="3.11018">
        <ele>24.5</ele>
        <time>2015-07-18T13:57:07Z</time>
      </trkpt>
      <trkpt lat="50.40067" lon="3.11035">
        <ele>24.6</ele>
        <time>2015-07-18T13:57:09Z</time>
      </trkpt>
      <trkpt lat="50.4007" lon="3.11051">
        <ele>24.7</ele>
        <time>2015-07-18T13:57:11Z</time>
      </trkpt>
      <trkpt lat="50.40073" lon="3.11068">
        <ele>24.8</ele>
        <time>2015-07-18T13:57:13Z</time>
      </trkpt>
      <trkpt lat="50.40077" lon="3.11084">
        <ele>24.8</ele>
        <time>2015-07-18T13:57:15Z</time>
      </trkpt>
      <trkpt lat="50.40081" lon="3.111">
        <ele>24.9</ele>
        <time>2015-07-18T13:57:17Z</time>
      </trkpt>
      <trkpt lat="50.40085" lon="3.11117">
        <ele>24.9</ele>
        <time>2015-07-18T13:57:19Z</time>
      </trkpt>
      <trkpt lat="50.40088" lon="3.11134">
        <ele>25</ele>
        <time>2015-07-18T13:57:21Z</time>
      </trkpt>
      <trkpt lat="50.40092" lon="3.1115">
        <ele>25.1</ele>
        <time>2015-07-18T13:57:23Z</time>
      </trkpt>
      <trkpt lat="50.40096" lon="3.11167">
        <ele>25.2</ele>
        <time>2015-07-18T13:57:25Z</time>
      </trkpt>
      <trkpt lat="50.40101" lon="3.11183">
        <ele>25.3</ele>
        <time>2015-07-18T13:57:27Z</time>
      </trkpt>
      <trkpt lat="50.40104" lon="3.112">
        <ele>25.4</ele>
        <time>2015-07-18T13:57:29Z</time>
      </trkpt>
      <trkpt lat="50.40108" lon="3.11215">
        <ele>25.5</ele>
        <time>2015-07-18T13:57:31Z</time>
      </trkpt>
      <trkpt lat="50.40115" lon="3.11231">
        <ele>25.6</ele>
        <time>2015-07-18T13:57:34Z</time>
      </trkpt>
      <trkpt lat="50.40119" lon="3.11244">
        <ele>25.5</ele>
        <time>2015-07-18T13:57:36Z</time>
      </trkpt>
      <trkpt lat="50.4012" lon="3.11262">
        <ele>25.6</ele>
        <time>2015-07-18T13:57:39Z</time>
      </trkpt>
      <trkpt lat="50.40124" lon="3.11281">
        <ele>25.7</ele>
        <time>2015-07-18T13:57:42Z</time>
      </trkpt>
      <trkpt lat="50.40127" lon="3.11295">
        <ele>26.1</ele>
        <time>2015-07-18T13:57:44Z</time>
      </trkpt>
      <trkpt lat="50.40131" lon="3.11309">
        <ele>26.3</ele>
        <time>2015-07-18T13:57:46Z</time>
      </trkpt>
      <trkpt lat="50.40134" lon="3.11323">
        <ele>26.4</ele>
        <time>2015-07-18T13:57:48Z</time>
      </trkpt>
      <trkpt lat="50.40137" lon="3.11343">
        <ele>26.5</ele>
        <time>2015-07-18T13:57:51Z</time>
      </trkpt>
      <trkpt lat="50.4014" lon="3.11358">
        <ele>26.5</ele>
        <time>2015-07-18T13:57:53Z</time>
      </trkpt>
      <trkpt lat="50.40146" lon="3.11377">
        <ele>26.6</ele>
        <time>2015-07-18T13:57:56Z</time>
      </trkpt>
      <trkpt lat="50.40151" lon="3.11391">
        <ele>26.6</ele>
        <time>2015-07-18T13:57:58Z</time>
      </trkpt>
      <trkpt lat="50.40155" lon="3.11405">
        <ele>26.6</ele>
        <time>2015-07-18T13:58:00Z</time>
      </trkpt>
      <trkpt lat="50.40159" lon="3.11419">
        <ele>26.6</ele>
        <time>2015-07-18T13:58:02Z</time>
      </trkpt>
      <trkpt lat="50.40163" lon="3.11432">
        <ele>26.6</ele>
        <time>2015-07-18T13:58:04Z</time>
      </trkpt>
      <trkpt lat="50.40168" lon="3.11444">
        <ele>26.6</ele>
        <time>2015-07-18T13:58:06Z</time>
      </trkpt>
      <trkpt lat="50.40174" lon="3.11462">
        <ele>26.7</ele>
        <time>2015-07-18T13:58:09Z</time>
      </trkpt>
      <trkpt lat="50.40178" lon="3.11476">
        <ele>26.7</ele>
        <time>2015-07-18T13:58:11Z</time>
      </trkpt>
      <trkpt lat="50.40184" lon="3.11494">
        <ele>26.7</ele>
        <time>2015-07-18T13:58:14Z</time>
      </trkpt>
      <trkpt lat="50.40188" lon="3.11507">
        <ele>26.7</ele>
        <time>2015-07-18T13:58:16Z</time>
      </trkpt>
      <trkpt lat="50.40193" lon="3.11525">
        <ele>26.7</ele>
        <time>2015-07-18T13:58:19Z</time>
      </trkpt>
      <trkpt lat="50.40199" lon="3.11537">
        <ele>26.8</ele>
        <time>2015-07-18T13:58:21Z</time>
      </trkpt>
      <trkpt lat="50.40205" lon="3.11548">
        <ele>26.8</ele>
        <time>2015-07-18T13:58:23Z</time>
      </trkpt>
      <trkpt lat="50.40212" lon="3.11561">
        <ele>26.8</ele>
        <time>2015-07-18T13:58:25Z</time>
      </trkpt>
      <trkpt lat="50.40218" lon="3.11575">
        <ele>26.8</ele>
        <time>2015-07-18T13:58:27Z</time>
      </trkpt>
      <trkpt lat="50.40227" lon="3.11588">
        <ele>26.8</ele>
        <time>2015-07-18T13:58:29Z</time>
      </trkpt>
      <trkpt lat="50.40235" lon="3.11603">
        <ele>26.8</ele>
        <time>2015-07-18T13:58:31Z</time>
      </trkpt>
      <trkpt lat="50.4024" lon="3.11619">
        <ele>26.7</ele>
        <time>2015-07-18T13:58:33Z</time>
      </trkpt>
      <trkpt lat="50.40245" lon="3.11633">
        <ele>26.7</ele>
        <time>2015-07-18T13:58:35Z</time>
      </trkpt>
      <trkpt lat="50.4025" lon="3.11648">
        <ele>26.8</ele>
        <time>2015-07-18T13:58:37Z</time>
      </trkpt>
      <trkpt lat="50.40257" lon="3.11662">
        <ele>26.7</ele>
        <time>2015-07-18T13:58:39Z</time>
      </trkpt>
      <trkpt lat="50.40264" lon="3.11675">
        <ele>26.7</ele>
        <time>2015-07-18T13:58:41Z</time>
      </trkpt>
      <trkpt lat="50.40272" lon="3.11687">
        <ele>26.7</ele>
        <time>2015-07-18T13:58:43Z</time>
      </trkpt>
      <trkpt lat="50.40281" lon="3.11698">
        <ele>26.6</ele>
        <time>2015-07-18T13:58:45Z</time>
      </trkpt>
      <trkpt lat="50.40291" lon="3.11708">
        <ele>26.6</ele>
        <time>2015-07-18T13:58:47Z</time>
      </trkpt>
      <trkpt lat="50.40299" lon="3.11717">
        <ele>26.6</ele>
        <time>2015-07-18T13:58:49Z</time>
      </trkpt>
      <trkpt lat="50.40308" lon="3.11726">
        <ele>26.6</ele>
        <time>2015-07-18T13:58:51Z</time>
      </trkpt>
      <trkpt lat="50.40318" lon="3.11735">
        <ele>26.6</ele>
        <time>2015-07-18T13:58:53Z</time>
      </trkpt>
      <trkpt lat="50.4033" lon="3.11741">
        <ele>26.5</ele>
        <time>2015-07-18T13:58:55Z</time>
      </trkpt>
      <trkpt lat="50.40339" lon="3.11746">
        <ele>26.6</ele>
        <time>2015-07-18T13:58:57Z</time>
      </trkpt>
      <trkpt lat="50.40348" lon="3.11753">
        <ele>26.7</ele>
        <time>2015-07-18T13:58:59Z</time>
      </trkpt>
      <trkpt lat="50.40356" lon="3.11761">
        <ele>26.9</ele>
        <time>2015-07-18T13:59:01Z</time>
      </trkpt>
      <trkpt lat="50.40365" lon="3.11768">
        <ele>27.1</ele>
        <time>2015-07-18T13:59:03Z</time>
      </trkpt>
      <trkpt lat="50.40375" lon="3.11773">
        <ele>27.2</ele>
        <time>2015-07-18T13:59:05Z</time>
      </trkpt>
      <trkpt lat="50.40385" lon="3.11778">
        <ele>27.3</ele>
        <time>2015-07-18T13:59:07Z</time>
      </trkpt>
      <trkpt lat="50.40394" lon="3.11782">
        <ele>27.4</ele>
        <time>2015-07-18T13:59:09Z</time>
      </trkpt>
      <trkpt lat="50.40405" lon="3.11786">
        <ele>27.5</ele>
        <time>2015-07-18T13:59:11Z</time>
      </trkpt>
      <trkpt lat="50.40416" lon="3.11791">
        <ele>27.6</ele>
        <time>2015-07-18T13:59:13Z</time>
      </trkpt>
      <trkpt lat="50.40428" lon="3.11797">
        <ele>27.8</ele>
        <time>2015-07-18T13:59:15Z</time>
      </trkpt>
      <trkpt lat="50.4044" lon="3.11803">
        <ele>27.9</ele>
        <time>2015-07-18T13:59:17Z</time>
      </trkpt>
      <trkpt lat="50.40452" lon="3.11808">
        <ele>27.9</ele>
        <time>2015-07-18T13:59:19Z</time>
      </trkpt>
      <trkpt lat="50.40464" lon="3.11813">
        <ele>27.9</ele>
        <time>2015-07-18T13:59:21Z</time>
      </trkpt>
      <trkpt lat="50.40476" lon="3.11817">
        <ele>27.9</ele>
        <time>2015-07-18T13:59:23Z</time>
      </trkpt>
      <trkpt lat="50.40488" lon="3.11821">
        <ele>28</ele>
        <time>2015-07-18T13:59:25Z</time>
      </trkpt>
      <trkpt lat="50.40497" lon="3.11823">
        <ele>28</ele>
        <time>2015-07-18T13:59:27Z</time>
      </trkpt>
      <trkpt lat="50.4051" lon="3.11823">
        <ele>28.1</ele>
        <time>2015-07-18T13:59:30Z</time>
      </trkpt>
      <trkpt lat="50.40521" lon="3.11824">
        <ele>28.2</ele>
        <time>2015-07-18T13:59:32Z</time>
      </trkpt>
      <trkpt lat="50.40532" lon="3.11828">
        <ele>28.3</ele>
        <time>2015-07-18T13:59:34Z</time>
      </trkpt>
      <trkpt lat="50.40544" lon="3.1183">
        <ele>28.3</ele>
        <time>2015-07-18T13:59:36Z</time>
      </trkpt>
      <trkpt lat="50.40555" lon="3.11833">
        <ele>28.4</ele>
        <time>2015-07-18T13:59:38Z</time>
      </trkpt>
      <trkpt lat="50.40567" lon="3.11837">
        <ele>28.5</ele>
        <time>2015-07-18T13:59:40Z</time>
      </trkpt>
      <trkpt lat="50.40579" lon="3.11841">
        <ele>28.5</ele>
        <time>2015-07-18T13:59:42Z</time>
      </trkpt>
      <trkpt lat="50.4059" lon="3.11846">
        <ele>28.6</ele>
        <time>2015-07-18T13:59:44Z</time>
      </trkpt>
      <trkpt lat="50.40602" lon="3.11851">
        <ele>28.7</ele>
        <time>2015-07-18T13:59:46Z</time>
      </trkpt>
      <trkpt lat="50.40614" lon="3.11857">
        <ele>29</ele>
        <time>2015-07-18T13:59:48Z</time>
      </trkpt>
      <trkpt lat="50.40627" lon="3.11862">
        <ele>29.1</ele>
        <time>2015-07-18T13:59:50Z</time>
      </trkpt>
      <trkpt lat="50.40642" lon="3.11868">
        <ele>29.3</ele>
        <time>2015-07-18T13:59:52Z</time>
      </trkpt>
      <trkpt lat="50.40658" lon="3.11874">
        <ele>29.5</ele>
        <time>2015-07-18T13:59:54Z</time>
      </trkpt>
      <trkpt lat="50.40674" lon="3.11882">
        <ele>29.6</ele>
        <time>2015-07-18T13:59:56Z</time>
      </trkpt>
      <trkpt lat="50.4069" lon="3.11892">
        <ele>29.7</ele>
        <time>2015-07-18T13:59:58Z</time>
      </trkpt>
      <trkpt lat="50.40706" lon="3.11903">
        <ele>29.9</ele>
        <time>2015-07-18T14:00:00Z</time>
      </trkpt>
      <trkpt lat="50.4072" lon="3.11912">
        <ele>30</ele>
        <time>2015-07-18T14:00:02Z</time>
      </trkpt>
      <trkpt lat="50.40729" lon="3.11907">
        <ele>30.2</ele>
        <time>2015-07-18T14:00:06Z</time>
      </trkpt>
      <trkpt lat="50.40739" lon="3.11914">
        <ele>30.6</ele>
        <time>2015-07-18T14:00:17Z</time>
      </trkpt>
      <trkpt lat="50.40751" lon="3.11913">
        <ele>30.7</ele>
        <time>2015-07-18T14:00:20Z</time>
      </trkpt>
      <trkpt lat="50.40763" lon="3.11922">
        <ele>30.7</ele>
        <time>2015-07-18T14:00:23Z</time>
      </trkpt>
      <trkpt lat="50.40772" lon="3.11929">
        <ele>30.8</ele>
        <time>2015-07-18T14:00:25Z</time>
      </trkpt>
      <trkpt lat="50.40781" lon="3.11932">
        <ele>30.8</ele>
        <time>2015-07-18T14:00:27Z</time>
      </trkpt>
      <trkpt lat="50.40792" lon="3.11935">
        <ele>30.8</ele>
        <time>2015-07-18T14:00:29Z</time>
      </trkpt>
      <trkpt lat="50.40802" lon="3.11937">
        <ele>30.8</ele>
        <time>2015-07-18T14:00:31Z</time>
      </trkpt>
      <trkpt lat="50.40811" lon="3.1194">
        <ele>31</ele>
        <time>2015-07-18T14:00:33Z</time>
      </trkpt>
      <trkpt lat="50.40823" lon="3.11945">
        <ele>31.1</ele>
        <time>2015-07-18T14:00:35Z</time>
      </trkpt>
      <trkpt lat="50.40833" lon="3.1195">
        <ele>31.2</ele>
        <time>2015-07-18T14:00:37Z</time>
      </trkpt>
      <trkpt lat="50.40841" lon="3.11958">
        <ele>31.2</ele>
        <time>2015-07-18T14:00:39Z</time>
      </trkpt>
      <trkpt lat="50.40853" lon="3.11965">
        <ele>31.4</ele>
        <time>2015-07-18T14:00:42Z</time>
      </trkpt>
      <trkpt lat="50.40866" lon="3.11962">
        <ele>31.4</ele>
        <time>2015-07-18T14:00:45Z</time>
      </trkpt>
      <trkpt lat="50.40878" lon="3.11968">
        <ele>31.5</ele>
        <time>2015-07-18T14:00:48Z</time>
      </trkpt>
      <trkpt lat="50.40886" lon="3.11971">
        <ele>31.5</ele>
        <time>2015-07-18T14:00:50Z</time>
      </trkpt>
      <trkpt lat="50.40899" lon="3.11975">
        <ele>31.5</ele>
        <time>2015-07-18T14:00:53Z</time>
      </trkpt>
      <trkpt lat="50.4091" lon="3.11976">
        <ele>31.5</ele>
        <time>2015-07-18T14:00:56Z</time>
      </trkpt>
      <trkpt lat="50.40919" lon="3.11978">
        <ele>31.4</ele>
        <time>2015-07-18T14:00:59Z</time>
      </trkpt>
      <trkpt lat="50.40928" lon="3.11981">
        <ele>31</ele>
        <time>2015-07-18T14:01:03Z</time>
      </trkpt>
      <trkpt lat="50.40937" lon="3.11983">
        <ele>30.7</ele>
        <time>2015-07-18T14:01:06Z</time>
      </trkpt>
      <trkpt lat="50.40948" lon="3.11984">
        <ele>30.2</ele>
        <time>2015-07-18T14:01:09Z</time>
      </trkpt>
      <trkpt lat="50.40958" lon="3.11984">
        <ele>29.4</ele>
        <time>2015-07-18T14:01:12Z</time>
      </trkpt>
      <trkpt lat="50.40967" lon="3.11984">
        <ele>28.4</ele>
        <time>2015-07-18T14:01:15Z</time>
      </trkpt>
      <trkpt lat="50.40976" lon="3.1198">
        <ele>26.9</ele>
        <time>2015-07-18T14:01:20Z</time>
      </trkpt>
      <trkpt lat="50.40985" lon="3.11975">
        <ele>22.2</ele>
        <time>2015-07-18T14:02:01Z</time>
      </trkpt>
      <trkpt lat="50.40991" lon="3.11991">
        <ele>21.7</ele>
        <time>2015-07-18T14:05:06Z</time>
      </trkpt>
      <trkpt lat="50.40997" lon="3.12008">
        <ele>21.7</ele>
        <time>2015-07-18T14:05:10Z</time>
      </trkpt>
      <trkpt lat="50.41002" lon="3.12026">
        <ele>21.7</ele>
        <time>2015-07-18T14:05:13Z</time>
      </trkpt>
      <trkpt lat="50.41007" lon="3.12041">
        <ele>21.7</ele>
        <time>2015-07-18T14:05:15Z</time>
      </trkpt>
      <trkpt lat="50.41012" lon="3.12056">
        <ele>21.8</ele>
        <time>2015-07-18T14:05:17Z</time>
      </trkpt>
      <trkpt lat="50.41017" lon="3.12073">
        <ele>21.8</ele>
        <time>2015-07-18T14:05:19Z</time>
      </trkpt>
      <trkpt lat="50.41022" lon="3.1209">
        <ele>21.8</ele>
        <time>2015-07-18T14:05:21Z</time>
      </trkpt>
      <trkpt lat="50.41028" lon="3.12108">
        <ele>21.8</ele>
        <time>2015-07-18T14:05:23Z</time>
      </trkpt>
      <trkpt lat="50.41034" lon="3.12128">
        <ele>21.8</ele>
        <time>2015-07-18T14:05:25Z</time>
      </trkpt>
      <trkpt lat="50.4104" lon="3.12148">
        <ele>21.8</ele>
        <time>2015-07-18T14:05:27Z</time>
      </trkpt>
      <trkpt lat="50.41046" lon="3.12169">
        <ele>21.8</ele>
        <time>2015-07-18T14:05:29Z</time>
      </trkpt>
      <trkpt lat="50.41052" lon="3.12189">
        <ele>21.9</ele>
        <time>2015-07-18T14:05:31Z</time>
      </trkpt>
      <trkpt lat="50.41058" lon="3.12208">
        <ele>21.9</ele>
        <time>2015-07-18T14:05:33Z</time>
      </trkpt>
      <trkpt lat="50.41065" lon="3.12228">
        <ele>21.9</ele>
        <time>2015-07-18T14:05:35Z</time>
      </trkpt>
      <trkpt lat="50.41071" lon="3.12249">
        <ele>21.9</ele>
        <time>2015-07-18T14:05:37Z</time>
      </trkpt>
      <trkpt lat="50.41077" lon="3.1227">
        <ele>22</ele>
        <time>2015-07-18T14:05:39Z</time>
      </trkpt>
      <trkpt lat="50.41083" lon="3.1229">
        <ele>22.1</ele>
        <time>2015-07-18T14:05:41Z</time>
      </trkpt>
      <trkpt lat="50.4109" lon="3.1231">
        <ele>22.1</ele>
        <time>2015-07-18T14:05:43Z</time>
      </trkpt>
      <trkpt lat="50.41096" lon="3.12329">
        <ele>22.2</ele>
        <time>2015-07-18T14:05:45Z</time>
      </trkpt>
      <trkpt lat="50.41101" lon="3.12349">
        <ele>22.2</ele>
        <time>2015-07-18T14:05:47Z</time>
      </trkpt>
      <trkpt lat="50.41107" lon="3.12368">
        <ele>22.3</ele>
        <time>2015-07-18T14:05:49Z</time>
      </trkpt>
      <trkpt lat="50.41113" lon="3.12387">
        <ele>22.3</ele>
        <time>2015-07-18T14:05:51Z</time>
      </trkpt>
      <trkpt lat="50.41119" lon="3.12406">
        <ele>22.4</ele>
        <time>2015-07-18T14:05:53Z</time>
      </trkpt>
      <trkpt lat="50.41126" lon="3.12425">
        <ele>22.4</ele>
        <time>2015-07-18T14:05:55Z</time>
      </trkpt>
      <trkpt lat="50.41132" lon="3.12443">
        <ele>22.4</ele>
        <time>2015-07-18T14:05:57Z</time>
      </trkpt>
      <trkpt lat="50.41139" lon="3.12461">
        <ele>22.4</ele>
        <time>2015-07-18T14:05:59Z</time>
      </trkpt>
      <trkpt lat="50.41145" lon="3.12479">
        <ele>22.4</ele>
        <time>2015-07-18T14:06:01Z</time>
      </trkpt>
      <trkpt lat="50.41151" lon="3.12497">
        <ele>22.4</ele>
        <time>2015-07-18T14:06:03Z</time>
      </trkpt>
      <trkpt lat="50.41158" lon="3.12516">
        <ele>22.3</ele>
        <time>2015-07-18T14:06:05Z</time>
      </trkpt>
      <trkpt lat="50.41164" lon="3.12535">
        <ele>22.1</ele>
        <time>2015-07-18T14:06:07Z</time>
      </trkpt>
      <trkpt lat="50.41171" lon="3.12554">
        <ele>22</ele>
        <time>2015-07-18T14:06:09Z</time>
      </trkpt>
      <trkpt lat="50.41177" lon="3.12572">
        <ele>21.9</ele>
        <time>2015-07-18T14:06:11Z</time>
      </trkpt>
      <trkpt lat="50.41184" lon="3.12591">
        <ele>21.9</ele>
        <time>2015-07-18T14:06:13Z</time>
      </trkpt>
      <trkpt lat="50.4119" lon="3.12609">
        <ele>21.8</ele>
        <time>2015-07-18T14:06:15Z</time>
      </trkpt>
      <trkpt lat="50.41196" lon="3.12628">
        <ele>21.8</ele>
        <time>2015-07-18T14:06:17Z</time>
      </trkpt>
      <trkpt lat="50.41203" lon="3.12647">
        <ele>21.7</ele>
        <time>2015-07-18T14:06:19Z</time>
      </trkpt>
      <trkpt lat="50.4121" lon="3.12666">
        <ele>21.7</ele>
        <time>2015-07-18T14:06:21Z</time>
      </trkpt>
      <trkpt lat="50.41216" lon="3.12686">
        <ele>21.7</ele>
        <time>2015-07-18T14:06:23Z</time>
      </trkpt>
      <trkpt lat="50.41223" lon="3.12705">
        <ele>21.6</ele>
        <time>2015-07-18T14:06:25Z</time>
      </trkpt>
      <trkpt lat="50.41229" lon="3.12724">
        <ele>21.6</ele>
        <time>2015-07-18T14:06:27Z</time>
      </trkpt>
      <trkpt lat="50.41236" lon="3.12743">
        <ele>21.6</ele>
        <time>2015-07-18T14:06:29Z</time>
      </trkpt>
      <trkpt lat="50.41244" lon="3.12762">
        <ele>21.6</ele>
        <time>2015-07-18T14:06:31Z</time>
      </trkpt>
      <trkpt lat="50.41252" lon="3.12781">
        <ele>21.6</ele>
        <time>2015-07-18T14:06:33Z</time>
      </trkpt>
      <trkpt lat="50.4126" lon="3.128">
        <ele>21.5</ele>
        <time>2015-07-18T14:06:35Z</time>
      </trkpt>
      <trkpt lat="50.41268" lon="3.12818">
        <ele>21.6</ele>
        <time>2015-07-18T14:06:37Z</time>
      </trkpt>
      <trkpt lat="50.41277" lon="3.12835">
        <ele>21.6</ele>
        <time>2015-07-18T14:06:39Z</time>
      </trkpt>
      <trkpt lat="50.41286" lon="3.12853">
        <ele>21.6</ele>
        <time>2015-07-18T14:06:41Z</time>
      </trkpt>
      <trkpt lat="50.41294" lon="3.1287">
        <ele>21.6</ele>
        <time>2015-07-18T14:06:43Z</time>
      </trkpt>
      <trkpt lat="50.41304" lon="3.12888">
        <ele>21.6</ele>
        <time>2015-07-18T14:06:45Z</time>
      </trkpt>
      <trkpt lat="50.41312" lon="3.12906">
        <ele>21.7</ele>
        <time>2015-07-18T14:06:47Z</time>
      </trkpt>
      <trkpt lat="50.4132" lon="3.12924">
        <ele>21.7</ele>
        <time>2015-07-18T14:06:49Z</time>
      </trkpt>
      <trkpt lat="50.41324" lon="3.12944">
        <ele>21.7</ele>
        <time>2015-07-18T14:06:51Z</time>
      </trkpt>
      <trkpt lat="50.41326" lon="3.12965">
        <ele>21.7</ele>
        <time>2015-07-18T14:06:53Z</time>
      </trkpt>
      <trkpt lat="50.41327" lon="3.12986">
        <ele>21.8</ele>
        <time>2015-07-18T14:06:55Z</time>
      </trkpt>
      <trkpt lat="50.41327" lon="3.13008">
        <ele>21.9</ele>
        <time>2015-07-18T14:06:57Z</time>
      </trkpt>
      <trkpt lat="50.41326" lon="3.13029">
        <ele>21.9</ele>
        <time>2015-07-18T14:06:59Z</time>
      </trkpt>
      <trkpt lat="50.41326" lon="3.1305">
        <ele>22</ele>
        <time>2015-07-18T14:07:01Z</time>
      </trkpt>
      <trkpt lat="50.41331" lon="3.13069">
        <ele>22</ele>
        <time>2015-07-18T14:07:03Z</time>
      </trkpt>
      <trkpt lat="50.4134" lon="3.13085">
        <ele>22.1</ele>
        <time>2015-07-18T14:07:05Z</time>
      </trkpt>
      <trkpt lat="50.41351" lon="3.13096">
        <ele>22.1</ele>
        <time>2015-07-18T14:07:07Z</time>
      </trkpt>
      <trkpt lat="50.41362" lon="3.13107">
        <ele>22.2</ele>
        <time>2015-07-18T14:07:09Z</time>
      </trkpt>
      <trkpt lat="50.41373" lon="3.13118">
        <ele>22.2</ele>
        <time>2015-07-18T14:07:11Z</time>
      </trkpt>
      <trkpt lat="50.41384" lon="3.13128">
        <ele>22.2</ele>
        <time>2015-07-18T14:07:13Z</time>
      </trkpt>
      <trkpt lat="50.41392" lon="3.13137">
        <ele>22.3</ele>
        <time>2015-07-18T14:07:15Z</time>
      </trkpt>
      <trkpt lat="50.41397" lon="3.1315">
        <ele>22.3</ele>
        <time>2015-07-18T14:07:17Z</time>
      </trkpt>
      <trkpt lat="50.41393" lon="3.13166">
        <ele>22.3</ele>
        <time>2015-07-18T14:07:19Z</time>
      </trkpt>
      <trkpt lat="50.41386" lon="3.13183">
        <ele>22.3</ele>
        <time>2015-07-18T14:07:21Z</time>
      </trkpt>
      <trkpt lat="50.41378" lon="3.132">
        <ele>22.4</ele>
        <time>2015-07-18T14:07:23Z</time>
      </trkpt>
      <trkpt lat="50.41372" lon="3.13218">
        <ele>22.4</ele>
        <time>2015-07-18T14:07:25Z</time>
      </trkpt>
      <trkpt lat="50.41366" lon="3.13235">
        <ele>22.4</ele>
        <time>2015-07-18T14:07:27Z</time>
      </trkpt>
      <trkpt lat="50.4136" lon="3.13254">
        <ele>22.4</ele>
        <time>2015-07-18T14:07:29Z</time>
      </trkpt>
      <trkpt lat="50.41355" lon="3.13273">
        <ele>22.4</ele>
        <time>2015-07-18T14:07:31Z</time>
      </trkpt>
      <trkpt lat="50.41352" lon="3.13293">
        <ele>22.4</ele>
        <time>2015-07-18T14:07:33Z</time>
      </trkpt>
      <trkpt lat="50.41348" lon="3.13313">
        <ele>22.4</ele>
        <time>2015-07-18T14:07:35Z</time>
      </trkpt>
      <trkpt lat="50.41345" lon="3.13333">
        <ele>22.3</ele>
        <time>2015-07-18T14:07:37Z</time>
      </trkpt>
      <trkpt lat="50.41343" lon="3.13352">
        <ele>22.3</ele>
        <time>2015-07-18T14:07:39Z</time>
      </trkpt>
      <trkpt lat="50.41342" lon="3.13372">
        <ele>22.3</ele>
        <time>2015-07-18T14:07:41Z</time>
      </trkpt>
      <trkpt lat="50.4134" lon="3.13392">
        <ele>22.3</ele>
        <time>2015-07-18T14:07:43Z</time>
      </trkpt>
      <trkpt lat="50.41337" lon="3.13411">
        <ele>22.4</ele>
        <time>2015-07-18T14:07:45Z</time>
      </trkpt>
      <trkpt lat="50.41336" lon="3.13429">
        <ele>22.5</ele>
        <time>2015-07-18T14:07:47Z</time>
      </trkpt>
      <trkpt lat="50.41334" lon="3.13448">
        <ele>22.6</ele>
        <time>2015-07-18T14:07:49Z</time>
      </trkpt>
      <trkpt lat="50.41333" lon="3.13466">
        <ele>22.7</ele>
        <time>2015-07-18T14:07:51Z</time>
      </trkpt>
      <trkpt lat="50.41332" lon="3.13482">
        <ele>22.7</ele>
        <time>2015-07-18T14:07:53Z</time>
      </trkpt>
      <trkpt lat="50.4133" lon="3.13498">
        <ele>22.8</ele>
        <time>2015-07-18T14:07:55Z</time>
      </trkpt>
      <trkpt lat="50.41328" lon="3.13512">
        <ele>22.8</ele>
        <time>2015-07-18T14:07:57Z</time>
      </trkpt>
      <trkpt lat="50.41326" lon="3.1353">
        <ele>22.9</ele>
        <time>2015-07-18T14:08:00Z</time>
      </trkpt>
      <trkpt lat="50.41321" lon="3.13543">
        <ele>22.9</ele>
        <time>2015-07-18T14:08:04Z</time>
      </trkpt>
      <trkpt lat="50.41328" lon="3.13552">
        <ele>23</ele>
        <time>2015-07-18T14:08:18Z</time>
      </trkpt>
      <trkpt lat="50.41338" lon="3.1356">
        <ele>23</ele>
        <time>2015-07-18T14:08:22Z</time>
      </trkpt>
      <trkpt lat="50.41346" lon="3.13574">
        <ele>23</ele>
        <time>2015-07-18T14:09:26Z</time>
      </trkpt>
      <trkpt lat="50.41354" lon="3.13581">
        <ele>23</ele>
        <time>2015-07-18T14:09:29Z</time>
      </trkpt>
      <trkpt lat="50.41366" lon="3.13579">
        <ele>22.9</ele>
        <time>2015-07-18T14:09:31Z</time>
      </trkpt>
      <trkpt lat="50.41379" lon="3.13584">
        <ele>22.9</ele>
        <time>2015-07-18T14:09:33Z</time>
      </trkpt>
      <trkpt lat="50.4139" lon="3.13586">
        <ele>22.9</ele>
        <time>2015-07-18T14:09:35Z</time>
      </trkpt>
      <trkpt lat="50.41401" lon="3.13589">
        <ele>22.9</ele>
        <time>2015-07-18T14:09:37Z</time>
      </trkpt>
      <trkpt lat="50.41412" lon="3.13592">
        <ele>22.9</ele>
        <time>2015-07-18T14:09:39Z</time>
      </trkpt>
      <trkpt lat="50.41423" lon="3.13596">
        <ele>22.9</ele>
        <time>2015-07-18T14:09:41Z</time>
      </trkpt>
      <trkpt lat="50.41435" lon="3.13589">
        <ele>22.8</ele>
        <time>2015-07-18T14:09:44Z</time>
      </trkpt>
      <trkpt lat="50.41447" lon="3.1359">
        <ele>22.9</ele>
        <time>2015-07-18T14:09:47Z</time>
      </trkpt>
      <trkpt lat="50.41459" lon="3.13594">
        <ele>22.9</ele>
        <time>2015-07-18T14:09:50Z</time>
      </trkpt>
      <trkpt lat="50.41468" lon="3.13595">
        <ele>23.2</ele>
        <time>2015-07-18T14:09:56Z</time>
      </trkpt>
      <trkpt lat="50.41462" lon="3.13584">
        <ele>23.3</ele>
        <time>2015-07-18T14:10:01Z</time>
      </trkpt>
      <trkpt lat="50.41462" lon="3.13566">
        <ele>23.4</ele>
        <time>2015-07-18T14:10:05Z</time>
      </trkpt>
      <trkpt lat="50.41464" lon="3.13549">
        <ele>23.5</ele>
        <time>2015-07-18T14:10:08Z</time>
      </trkpt>
      <trkpt lat="50.41467" lon="3.13529">
        <ele>23.5</ele>
        <time>2015-07-18T14:10:11Z</time>
      </trkpt>
      <trkpt lat="50.41469" lon="3.13515">
        <ele>23.6</ele>
        <time>2015-07-18T14:10:13Z</time>
      </trkpt>
      <trkpt lat="50.41471" lon="3.135">
        <ele>23.6</ele>
        <time>2015-07-18T14:10:15Z</time>
      </trkpt>
      <trkpt lat="50.41473" lon="3.13485">
        <ele>23.6</ele>
        <time>2015-07-18T14:10:17Z</time>
      </trkpt>
      <trkpt lat="50.41474" lon="3.13471">
        <ele>23.6</ele>
        <time>2015-07-18T14:10:19Z</time>
      </trkpt>
      <trkpt lat="50.41475" lon="3.1345">
        <ele>23.7</ele>
        <time>2015-07-18T14:10:22Z</time>
      </trkpt>
      <trkpt lat="50.41476" lon="3.13432">
        <ele>23.7</ele>
        <time>2015-07-18T14:10:25Z</time>
      </trkpt>
      <trkpt lat="50.41477" lon="3.13418">
        <ele>23.7</ele>
        <time>2015-07-18T14:10:28Z</time>
      </trkpt>
      <trkpt lat="50.41478" lon="3.13404">
        <ele>23.7</ele>
        <time>2015-07-18T14:10:33Z</time>
      </trkpt>
      <trkpt lat="50.41472" lon="3.13419">
        <ele>23.9</ele>
        <time>2015-07-18T14:13:09Z</time>
      </trkpt>
      <trkpt lat="50.41475" lon="3.13434">
        <ele>23.9</ele>
        <time>2015-07-18T14:13:12Z</time>
      </trkpt>
      <trkpt lat="50.41474" lon="3.13451">
        <ele>23.9</ele>
        <time>2015-07-18T14:13:15Z</time>
      </trkpt>
      <trkpt lat="50.41473" lon="3.1347">
        <ele>23.9</ele>
        <time>2015-07-18T14:13:18Z</time>
      </trkpt>
      <trkpt lat="50.41472" lon="3.13491">
        <ele>23.9</ele>
        <time>2015-07-18T14:13:21Z</time>
      </trkpt>
      <trkpt lat="50.41469" lon="3.13511">
        <ele>23.9</ele>
        <time>2015-07-18T14:13:24Z</time>
      </trkpt>
      <trkpt lat="50.41467" lon="3.1353">
        <ele>23.9</ele>
        <time>2015-07-18T14:13:27Z</time>
      </trkpt>
      <trkpt lat="50.41465" lon="3.13548">
        <ele>23.9</ele>
        <time>2015-07-18T14:13:30Z</time>
      </trkpt>
      <trkpt lat="50.41464" lon="3.13563">
        <ele>23.9</ele>
        <time>2015-07-18T14:13:33Z</time>
      </trkpt>
      <trkpt lat="50.41461" lon="3.13579">
        <ele>23.9</ele>
        <time>2015-07-18T14:13:39Z</time>
      </trkpt>
      <trkpt lat="50.41465" lon="3.13592">
        <ele>23.9</ele>
        <time>2015-07-18T14:13:43Z</time>
      </trkpt>
      <trkpt lat="50.41477" lon="3.136">
        <ele>23.9</ele>
        <time>2015-07-18T14:13:47Z</time>
      </trkpt>
      <trkpt lat="50.41484" lon="3.13615">
        <ele>23.9</ele>
        <time>2015-07-18T14:13:50Z</time>
      </trkpt>
      <trkpt lat="50.41488" lon="3.13628">
        <ele>23.9</ele>
        <time>2015-07-18T14:13:52Z</time>
      </trkpt>
      <trkpt lat="50.41496" lon="3.13637">
        <ele>23.9</ele>
        <time>2015-07-18T14:13:54Z</time>
      </trkpt>
      <trkpt lat="50.41507" lon="3.13639">
        <ele>23.9</ele>
        <time>2015-07-18T14:13:56Z</time>
      </trkpt>
      <trkpt lat="50.4152" lon="3.1364">
        <ele>23.9</ele>
        <time>2015-07-18T14:13:58Z</time>
      </trkpt>
      <trkpt lat="50.41534" lon="3.13646">
        <ele>24</ele>
        <time>2015-07-18T14:14:00Z</time>
      </trkpt>
      <trkpt lat="50.41547" lon="3.13654">
        <ele>24.1</ele>
        <time>2015-07-18T14:14:02Z</time>
      </trkpt>
      <trkpt lat="50.4156" lon="3.13663">
        <ele>24.1</ele>
        <time>2015-07-18T14:14:04Z</time>
      </trkpt>
      <trkpt lat="50.41575" lon="3.13669">
        <ele>24.2</ele>
        <time>2015-07-18T14:14:06Z</time>
      </trkpt>
      <trkpt lat="50.4159" lon="3.13673">
        <ele>24.2</ele>
        <time>2015-07-18T14:14:08Z</time>
      </trkpt>
      <trkpt lat="50.41604" lon="3.13678">
        <ele>24.3</ele>
        <time>2015-07-18T14:14:10Z</time>
      </trkpt>
      <trkpt lat="50.41618" lon="3.13681">
        <ele>24.3</ele>
        <time>2015-07-18T14:14:12Z</time>
      </trkpt>
      <trkpt lat="50.41632" lon="3.13686">
        <ele>24.3</ele>
        <time>2015-07-18T14:14:14Z</time>
      </trkpt>
      <trkpt lat="50.41638" lon="3.13703">
        <ele>24.4</ele>
        <time>2015-07-18T14:14:16Z</time>
      </trkpt>
      <trkpt lat="50.41636" lon="3.13723">
        <ele>24.4</ele>
        <time>2015-07-18T14:14:18Z</time>
      </trkpt>
      <trkpt lat="50.41634" lon="3.13744">
        <ele>24.4</ele>
        <time>2015-07-18T14:14:20Z</time>
      </trkpt>
      <trkpt lat="50.41632" lon="3.13761">
        <ele>24.5</ele>
        <time>2015-07-18T14:14:23Z</time>
      </trkpt>
      <trkpt lat="50.41638" lon="3.13775">
        <ele>24.5</ele>
        <time>2015-07-18T14:14:27Z</time>
      </trkpt>
      <trkpt lat="50.41636" lon="3.13794">
        <ele>24.5</ele>
        <time>2015-07-18T14:14:30Z</time>
      </trkpt>
      <trkpt lat="50.41634" lon="3.1381">
        <ele>24.4</ele>
        <time>2015-07-18T14:14:32Z</time>
      </trkpt>
      <trkpt lat="50.41632" lon="3.13829">
        <ele>24.4</ele>
        <time>2015-07-18T14:14:34Z</time>
      </trkpt>
      <trkpt lat="50.4163" lon="3.13849">
        <ele>24.4</ele>
        <time>2015-07-18T14:14:36Z</time>
      </trkpt>
      <trkpt lat="50.41629" lon="3.1387">
        <ele>24.4</ele>
        <time>2015-07-18T14:14:38Z</time>
      </trkpt>
      <trkpt lat="50.41628" lon="3.13893">
        <ele>24.4</ele>
        <time>2015-07-18T14:14:40Z</time>
      </trkpt>
      <trkpt lat="50.41629" lon="3.13918">
        <ele>24.4</ele>
        <time>2015-07-18T14:14:42Z</time>
      </trkpt>
      <trkpt lat="50.4163" lon="3.13942">
        <ele>24.4</ele>
        <time>2015-07-18T14:14:44Z</time>
      </trkpt>
      <trkpt lat="50.41633" lon="3.13967">
        <ele>24.4</ele>
        <time>2015-07-18T14:14:46Z</time>
      </trkpt>
      <trkpt lat="50.41637" lon="3.13991">
        <ele>24.4</ele>
        <time>2015-07-18T14:14:48Z</time>
      </trkpt>
      <trkpt lat="50.41641" lon="3.14013">
        <ele>24.4</ele>
        <time>2015-07-18T14:14:50Z</time>
      </trkpt>
      <trkpt lat="50.41645" lon="3.14036">
        <ele>24.4</ele>
        <time>2015-07-18T14:14:52Z</time>
      </trkpt>
      <trkpt lat="50.41648" lon="3.14057">
        <ele>24.3</ele>
        <time>2015-07-18T14:14:54Z</time>
      </trkpt>
      <trkpt lat="50.4165" lon="3.14078">
        <ele>24.3</ele>
        <time>2015-07-18T14:14:56Z</time>
      </trkpt>
      <trkpt lat="50.41651" lon="3.141">
        <ele>24.2</ele>
        <time>2015-07-18T14:14:58Z</time>
      </trkpt>
      <trkpt lat="50.41651" lon="3.14124">
        <ele>24.2</ele>
        <time>2015-07-18T14:15:00Z</time>
      </trkpt>
      <trkpt lat="50.41651" lon="3.14151">
        <ele>24.2</ele>
        <time>2015-07-18T14:15:02Z</time>
      </trkpt>
      <trkpt lat="50.4165" lon="3.14179">
        <ele>24.1</ele>
        <time>2015-07-18T14:15:04Z</time>
      </trkpt>
      <trkpt lat="50.4165" lon="3.14193">
        <ele>24.1</ele>
        <time>2015-07-18T14:15:05Z</time>
      </trkpt>
      <trkpt lat="50.41649" lon="3.14208">
        <ele>24.1</ele>
        <time>2015-07-18T14:15:06Z</time>
      </trkpt>
      <trkpt lat="50.41649" lon="3.14223">
        <ele>24.1</ele>
        <time>2015-07-18T14:15:07Z</time>
      </trkpt>
      <trkpt lat="50.41648" lon="3.14237">
        <ele>24.1</ele>
        <time>2015-07-18T14:15:08Z</time>
      </trkpt>
      <trkpt lat="50.41647" lon="3.14265">
        <ele>24.1</ele>
        <time>2015-07-18T14:15:10Z</time>
      </trkpt>
      <trkpt lat="50.41647" lon="3.14291">
        <ele>24.1</ele>
        <time>2015-07-18T14:15:12Z</time>
      </trkpt>
      <trkpt lat="50.41647" lon="3.14316">
        <ele>24.1</ele>
        <time>2015-07-18T14:15:14Z</time>
      </trkpt>
      <trkpt lat="50.41645" lon="3.14341">
        <ele>24.1</ele>
        <time>2015-07-18T14:15:16Z</time>
      </trkpt>
      <trkpt lat="50.41644" lon="3.14367">
        <ele>24.1</ele>
        <time>2015-07-18T14:15:18Z</time>
      </trkpt>
      <trkpt lat="50.41644" lon="3.14393">
        <ele>24.2</ele>
        <time>2015-07-18T14:15:20Z</time>
      </trkpt>
      <trkpt lat="50.41645" lon="3.14419">
        <ele>24.3</ele>
        <time>2015-07-18T14:15:22Z</time>
      </trkpt>
      <trkpt lat="50.41647" lon="3.14444">
        <ele>24.3</ele>
        <time>2015-07-18T14:15:24Z</time>
      </trkpt>
      <trkpt lat="50.41649" lon="3.14466">
        <ele>24.3</ele>
        <time>2015-07-18T14:15:26Z</time>
      </trkpt>
      <trkpt lat="50.41652" lon="3.14489">
        <ele>24.2</ele>
        <time>2015-07-18T14:15:28Z</time>
      </trkpt>
      <trkpt lat="50.41656" lon="3.14513">
        <ele>24.2</ele>
        <time>2015-07-18T14:15:30Z</time>
      </trkpt>
      <trkpt lat="50.41658" lon="3.14538">
        <ele>24</ele>
        <time>2015-07-18T14:15:32Z</time>
      </trkpt>
      <trkpt lat="50.41657" lon="3.14563">
        <ele>23.9</ele>
        <time>2015-07-18T14:15:34Z</time>
      </trkpt>
      <trkpt lat="50.41656" lon="3.14587">
        <ele>23.7</ele>
        <time>2015-07-18T14:15:36Z</time>
      </trkpt>
      <trkpt lat="50.41652" lon="3.14609">
        <ele>23.6</ele>
        <time>2015-07-18T14:15:38Z</time>
      </trkpt>
      <trkpt lat="50.41647" lon="3.14631">
        <ele>23.5</ele>
        <time>2015-07-18T14:15:40Z</time>
      </trkpt>
      <trkpt lat="50.41639" lon="3.14651">
        <ele>23.4</ele>
        <time>2015-07-18T14:15:42Z</time>
      </trkpt>
      <trkpt lat="50.41631" lon="3.14672">
        <ele>23.3</ele>
        <time>2015-07-18T14:15:44Z</time>
      </trkpt>
      <trkpt lat="50.41624" lon="3.14692">
        <ele>23.2</ele>
        <time>2015-07-18T14:15:46Z</time>
      </trkpt>
      <trkpt lat="50.41618" lon="3.14712">
        <ele>23.2</ele>
        <time>2015-07-18T14:15:48Z</time>
      </trkpt>
      <trkpt lat="50.41611" lon="3.14732">
        <ele>23.1</ele>
        <time>2015-07-18T14:15:50Z</time>
      </trkpt>
      <trkpt lat="50.41604" lon="3.14753">
        <ele>23.1</ele>
        <time>2015-07-18T14:15:52Z</time>
      </trkpt>
      <trkpt lat="50.41596" lon="3.14773">
        <ele>23.1</ele>
        <time>2015-07-18T14:15:54Z</time>
      </trkpt>
      <trkpt lat="50.4159" lon="3.14794">
        <ele>23</ele>
        <time>2015-07-18T14:15:56Z</time>
      </trkpt>
      <trkpt lat="50.41583" lon="3.14814">
        <ele>23</ele>
        <time>2015-07-18T14:15:58Z</time>
      </trkpt>
      <trkpt lat="50.41576" lon="3.14833">
        <ele>23</ele>
        <time>2015-07-18T14:16:00Z</time>
      </trkpt>
      <trkpt lat="50.4157" lon="3.14848">
        <ele>23</ele>
        <time>2015-07-18T14:16:02Z</time>
      </trkpt>
      <trkpt lat="50.41565" lon="3.14861">
        <ele>23.1</ele>
        <time>2015-07-18T14:16:04Z</time>
      </trkpt>
      <trkpt lat="50.41561" lon="3.14876">
        <ele>23.1</ele>
        <time>2015-07-18T14:16:06Z</time>
      </trkpt>
      <trkpt lat="50.41557" lon="3.14894">
        <ele>23.2</ele>
        <time>2015-07-18T14:16:08Z</time>
      </trkpt>
      <trkpt lat="50.41552" lon="3.14913">
        <ele>23.2</ele>
        <time>2015-07-18T14:16:10Z</time>
      </trkpt>
      <trkpt lat="50.41546" lon="3.14933">
        <ele>23.3</ele>
        <time>2015-07-18T14:16:12Z</time>
      </trkpt>
      <trkpt lat="50.41538" lon="3.14953">
        <ele>23.3</ele>
        <time>2015-07-18T14:16:14Z</time>
      </trkpt>
      <trkpt lat="50.4153" lon="3.14974">
        <ele>23.3</ele>
        <time>2015-07-18T14:16:16Z</time>
      </trkpt>
      <trkpt lat="50.41521" lon="3.14995">
        <ele>23.3</ele>
        <time>2015-07-18T14:16:18Z</time>
      </trkpt>
      <trkpt lat="50.41513" lon="3.15016">
        <ele>23.4</ele>
        <time>2015-07-18T14:16:20Z</time>
      </trkpt>
      <trkpt lat="50.41505" lon="3.15038">
        <ele>23.4</ele>
        <time>2015-07-18T14:16:22Z</time>
      </trkpt>
      <trkpt lat="50.41497" lon="3.1506">
        <ele>23.5</ele>
        <time>2015-07-18T14:16:24Z</time>
      </trkpt>
      <trkpt lat="50.4149" lon="3.15083">
        <ele>23.5</ele>
        <time>2015-07-18T14:16:26Z</time>
      </trkpt>
      <trkpt lat="50.41482" lon="3.15105">
        <ele>23.5</ele>
        <time>2015-07-18T14:16:28Z</time>
      </trkpt>
      <trkpt lat="50.41474" lon="3.15127">
        <ele>23.4</ele>
        <time>2015-07-18T14:16:30Z</time>
      </trkpt>
      <trkpt lat="50.41466" lon="3.1515">
        <ele>23.4</ele>
        <time>2015-07-18T14:16:32Z</time>
      </trkpt>
      <trkpt lat="50.41458" lon="3.15172">
        <ele>23.4</ele>
        <time>2015-07-18T14:16:34Z</time>
      </trkpt>
      <trkpt lat="50.41451" lon="3.15194">
        <ele>23.4</ele>
        <time>2015-07-18T14:16:36Z</time>
      </trkpt>
      <trkpt lat="50.41443" lon="3.15215">
        <ele>23.4</ele>
        <time>2015-07-18T14:16:38Z</time>
      </trkpt>
      <trkpt lat="50.41436" lon="3.15237">
        <ele>23.4</ele>
        <time>2015-07-18T14:16:40Z</time>
      </trkpt>
      <trkpt lat="50.41428" lon="3.15259">
        <ele>23.3</ele>
        <time>2015-07-18T14:16:42Z</time>
      </trkpt>
      <trkpt lat="50.41421" lon="3.1528">
        <ele>23.3</ele>
        <time>2015-07-18T14:16:44Z</time>
      </trkpt>
      <trkpt lat="50.41414" lon="3.15301">
        <ele>23.3</ele>
        <time>2015-07-18T14:16:46Z</time>
      </trkpt>
      <trkpt lat="50.41406" lon="3.15322">
        <ele>23.3</ele>
        <time>2015-07-18T14:16:48Z</time>
      </trkpt>
      <trkpt lat="50.41399" lon="3.15342">
        <ele>23.3</ele>
        <time>2015-07-18T14:16:50Z</time>
      </trkpt>
      <trkpt lat="50.41392" lon="3.15361">
        <ele>23.3</ele>
        <time>2015-07-18T14:16:52Z</time>
      </trkpt>
      <trkpt lat="50.41386" lon="3.15381">
        <ele>23.3</ele>
        <time>2015-07-18T14:16:54Z</time>
      </trkpt>
      <trkpt lat="50.41379" lon="3.154">
        <ele>23.3</ele>
        <time>2015-07-18T14:16:56Z</time>
      </trkpt>
      <trkpt lat="50.4137" lon="3.15419">
        <ele>23.3</ele>
        <time>2015-07-18T14:16:58Z</time>
      </trkpt>
      <trkpt lat="50.41362" lon="3.15437">
        <ele>23.3</ele>
        <time>2015-07-18T14:17:00Z</time>
      </trkpt>
      <trkpt lat="50.41352" lon="3.15454">
        <ele>23.3</ele>
        <time>2015-07-18T14:17:02Z</time>
      </trkpt>
      <trkpt lat="50.41342" lon="3.15469">
        <ele>23.3</ele>
        <time>2015-07-18T14:17:04Z</time>
      </trkpt>
      <trkpt lat="50.41332" lon="3.15484">
        <ele>23.3</ele>
        <time>2015-07-18T14:17:06Z</time>
      </trkpt>
      <trkpt lat="50.41322" lon="3.15497">
        <ele>23.3</ele>
        <time>2015-07-18T14:17:08Z</time>
      </trkpt>
      <trkpt lat="50.41312" lon="3.15509">
        <ele>23.3</ele>
        <time>2015-07-18T14:17:10Z</time>
      </trkpt>
      <trkpt lat="50.41301" lon="3.15519">
        <ele>23.3</ele>
        <time>2015-07-18T14:17:12Z</time>
      </trkpt>
      <trkpt lat="50.41291" lon="3.15528">
        <ele>23.3</ele>
        <time>2015-07-18T14:17:14Z</time>
      </trkpt>
      <trkpt lat="50.41282" lon="3.15537">
        <ele>23.3</ele>
        <time>2015-07-18T14:17:16Z</time>
      </trkpt>
      <trkpt lat="50.41272" lon="3.15544">
        <ele>23.3</ele>
        <time>2015-07-18T14:17:18Z</time>
      </trkpt>
      <trkpt lat="50.41263" lon="3.1555">
        <ele>23.3</ele>
        <time>2015-07-18T14:17:20Z</time>
      </trkpt>
      <trkpt lat="50.41254" lon="3.15555">
        <ele>23.3</ele>
        <time>2015-07-18T14:17:22Z</time>
      </trkpt>
      <trkpt lat="50.41242" lon="3.15564">
        <ele>23.3</ele>
        <time>2015-07-18T14:17:25Z</time>
      </trkpt>
      <trkpt lat="50.41236" lon="3.15578">
        <ele>23.3</ele>
        <time>2015-07-18T14:17:29Z</time>
      </trkpt>
      <trkpt lat="50.41225" lon="3.15576">
        <ele>23.2</ele>
        <time>2015-07-18T14:17:34Z</time>
      </trkpt>
      <trkpt lat="50.41215" lon="3.15568">
        <ele>23.2</ele>
        <time>2015-07-18T14:17:37Z</time>
      </trkpt>
      <trkpt lat="50.41202" lon="3.15567">
        <ele>23.2</ele>
        <time>2015-07-18T14:17:40Z</time>
      </trkpt>
      <trkpt lat="50.41191" lon="3.15569">
        <ele>23.2</ele>
        <time>2015-07-18T14:17:42Z</time>
      </trkpt>
      <trkpt lat="50.41181" lon="3.1557">
        <ele>23.2</ele>
        <time>2015-07-18T14:17:44Z</time>
      </trkpt>
      <trkpt lat="50.4117" lon="3.15571">
        <ele>23.2</ele>
        <time>2015-07-18T14:17:46Z</time>
      </trkpt>
      <trkpt lat="50.41159" lon="3.1557">
        <ele>23.2</ele>
        <time>2015-07-18T14:17:48Z</time>
      </trkpt>
      <trkpt lat="50.41148" lon="3.1557">
        <ele>23.2</ele>
        <time>2015-07-18T14:17:50Z</time>
      </trkpt>
      <trkpt lat="50.41136" lon="3.15569">
        <ele>23.2</ele>
        <time>2015-07-18T14:17:52Z</time>
      </trkpt>
      <trkpt lat="50.41123" lon="3.15568">
        <ele>23.2</ele>
        <time>2015-07-18T14:17:54Z</time>
      </trkpt>
      <trkpt lat="50.41111" lon="3.15567">
        <ele>23.2</ele>
        <time>2015-07-18T14:17:56Z</time>
      </trkpt>
      <trkpt lat="50.411" lon="3.15566">
        <ele>23.2</ele>
        <time>2015-07-18T14:17:58Z</time>
      </trkpt>
      <trkpt lat="50.41088" lon="3.15565">
        <ele>23.2</ele>
        <time>2015-07-18T14:18:00Z</time>
      </trkpt>
      <trkpt lat="50.41077" lon="3.15564">
        <ele>23.2</ele>
        <time>2015-07-18T14:18:02Z</time>
      </trkpt>
      <trkpt lat="50.41065" lon="3.15563">
        <ele>23.2</ele>
        <time>2015-07-18T14:18:04Z</time>
      </trkpt>
      <trkpt lat="50.41052" lon="3.15561">
        <ele>23.2</ele>
        <time>2015-07-18T14:18:06Z</time>
      </trkpt>
      <trkpt lat="50.4104" lon="3.15557">
        <ele>23.2</ele>
        <time>2015-07-18T14:18:08Z</time>
      </trkpt>
      <trkpt lat="50.41027" lon="3.15554">
        <ele>23.2</ele>
        <time>2015-07-18T14:18:10Z</time>
      </trkpt>
      <trkpt lat="50.41015" lon="3.1555">
        <ele>23.3</ele>
        <time>2015-07-18T14:18:12Z</time>
      </trkpt>
      <trkpt lat="50.41002" lon="3.15546">
        <ele>23.3</ele>
        <time>2015-07-18T14:18:14Z</time>
      </trkpt>
      <trkpt lat="50.40989" lon="3.15541">
        <ele>23.3</ele>
        <time>2015-07-18T14:18:16Z</time>
      </trkpt>
      <trkpt lat="50.40977" lon="3.15536">
        <ele>23.3</ele>
        <time>2015-07-18T14:18:18Z</time>
      </trkpt>
      <trkpt lat="50.40964" lon="3.15531">
        <ele>23.3</ele>
        <time>2015-07-18T14:18:20Z</time>
      </trkpt>
      <trkpt lat="50.40951" lon="3.15528">
        <ele>23.3</ele>
        <time>2015-07-18T14:18:22Z</time>
      </trkpt>
      <trkpt lat="50.40939" lon="3.15526">
        <ele>23.3</ele>
        <time>2015-07-18T14:18:24Z</time>
      </trkpt>
      <trkpt lat="50.40926" lon="3.15525">
        <ele>23.3</ele>
        <time>2015-07-18T14:18:26Z</time>
      </trkpt>
      <trkpt lat="50.40913" lon="3.15524">
        <ele>23.3</ele>
        <time>2015-07-18T14:18:28Z</time>
      </trkpt>
      <trkpt lat="50.40901" lon="3.15523">
        <ele>23.3</ele>
        <time>2015-07-18T14:18:30Z</time>
      </trkpt>
      <trkpt lat="50.40888" lon="3.15522">
        <ele>23.3</ele>
        <time>2015-07-18T14:18:32Z</time>
      </trkpt>
      <trkpt lat="50.40876" lon="3.15521">
        <ele>23.3</ele>
        <time>2015-07-18T14:18:34Z</time>
      </trkpt>
      <trkpt lat="50.40863" lon="3.15521">
        <ele>23.3</ele>
        <time>2015-07-18T14:18:36Z</time>
      </trkpt>
      <trkpt lat="50.4085" lon="3.1552">
        <ele>23.3</ele>
        <time>2015-07-18T14:18:38Z</time>
      </trkpt>
      <trkpt lat="50.40837" lon="3.15518">
        <ele>23.4</ele>
        <time>2015-07-18T14:18:40Z</time>
      </trkpt>
      <trkpt lat="50.40823" lon="3.1552">
        <ele>23.5</ele>
        <time>2015-07-18T14:18:42Z</time>
      </trkpt>
      <trkpt lat="50.40809" lon="3.15523">
        <ele>23.5</ele>
        <time>2015-07-18T14:18:44Z</time>
      </trkpt>
      <trkpt lat="50.40796" lon="3.15527">
        <ele>23.6</ele>
        <time>2015-07-18T14:18:46Z</time>
      </trkpt>
      <trkpt lat="50.40783" lon="3.15531">
        <ele>23.6</ele>
        <time>2015-07-18T14:18:48Z</time>
      </trkpt>
      <trkpt lat="50.4077" lon="3.15535">
        <ele>23.7</ele>
        <time>2015-07-18T14:18:50Z</time>
      </trkpt>
      <trkpt lat="50.40757" lon="3.15539">
        <ele>23.7</ele>
        <time>2015-07-18T14:18:52Z</time>
      </trkpt>
      <trkpt lat="50.40745" lon="3.15542">
        <ele>23.7</ele>
        <time>2015-07-18T14:18:54Z</time>
      </trkpt>
      <trkpt lat="50.40732" lon="3.15545">
        <ele>23.8</ele>
        <time>2015-07-18T14:18:56Z</time>
      </trkpt>
      <trkpt lat="50.40719" lon="3.15549">
        <ele>23.9</ele>
        <time>2015-07-18T14:18:58Z</time>
      </trkpt>
      <trkpt lat="50.40705" lon="3.15553">
        <ele>24</ele>
        <time>2015-07-18T14:19:00Z</time>
      </trkpt>
      <trkpt lat="50.40692" lon="3.15558">
        <ele>24.1</ele>
        <time>2015-07-18T14:19:02Z</time>
      </trkpt>
      <trkpt lat="50.40678" lon="3.15561">
        <ele>24.2</ele>
        <time>2015-07-18T14:19:04Z</time>
      </trkpt>
      <trkpt lat="50.40663" lon="3.15564">
        <ele>24.3</ele>
        <time>2015-07-18T14:19:06Z</time>
      </trkpt>
      <trkpt lat="50.40649" lon="3.15567">
        <ele>24.4</ele>
        <time>2015-07-18T14:19:08Z</time>
      </trkpt>
      <trkpt lat="50.40634" lon="3.15569">
        <ele>24.5</ele>
        <time>2015-07-18T14:19:10Z</time>
      </trkpt>
      <trkpt lat="50.4062" lon="3.15571">
        <ele>24.5</ele>
        <time>2015-07-18T14:19:12Z</time>
      </trkpt>
      <trkpt lat="50.40605" lon="3.15573">
        <ele>24.6</ele>
        <time>2015-07-18T14:19:14Z</time>
      </trkpt>
      <trkpt lat="50.40589" lon="3.15575">
        <ele>24.6</ele>
        <time>2015-07-18T14:19:16Z</time>
      </trkpt>
      <trkpt lat="50.40574" lon="3.15577">
        <ele>24.6</ele>
        <time>2015-07-18T14:19:18Z</time>
      </trkpt>
      <trkpt lat="50.40559" lon="3.15578">
        <ele>24.6</ele>
        <time>2015-07-18T14:19:20Z</time>
      </trkpt>
      <trkpt lat="50.40545" lon="3.15575">
        <ele>24.5</ele>
        <time>2015-07-18T14:19:22Z</time>
      </trkpt>
      <trkpt lat="50.40532" lon="3.15565">
        <ele>24.5</ele>
        <time>2015-07-18T14:19:24Z</time>
      </trkpt>
      <trkpt lat="50.40518" lon="3.15554">
        <ele>24.5</ele>
        <time>2015-07-18T14:19:26Z</time>
      </trkpt>
      <trkpt lat="50.40504" lon="3.15543">
        <ele>24.4</ele>
        <time>2015-07-18T14:19:28Z</time>
      </trkpt>
      <trkpt lat="50.40491" lon="3.15532">
        <ele>24.4</ele>
        <time>2015-07-18T14:19:30Z</time>
      </trkpt>
      <trkpt lat="50.40478" lon="3.15525">
        <ele>24.4</ele>
        <time>2015-07-18T14:19:32Z</time>
      </trkpt>
      <trkpt lat="50.40464" lon="3.15518">
        <ele>24.4</ele>
        <time>2015-07-18T14:19:34Z</time>
      </trkpt>
      <trkpt lat="50.40451" lon="3.15514">
        <ele>24.4</ele>
        <time>2015-07-18T14:19:36Z</time>
      </trkpt>
      <trkpt lat="50.40436" lon="3.1551">
        <ele>24.4</ele>
        <time>2015-07-18T14:19:38Z</time>
      </trkpt>
      <trkpt lat="50.40422" lon="3.15507">
        <ele>24.3</ele>
        <time>2015-07-18T14:19:40Z</time>
      </trkpt>
      <trkpt lat="50.40407" lon="3.15503">
        <ele>24.3</ele>
        <time>2015-07-18T14:19:42Z</time>
      </trkpt>
      <trkpt lat="50.40393" lon="3.155">
        <ele>24.3</ele>
        <time>2015-07-18T14:19:44Z</time>
      </trkpt>
      <trkpt lat="50.40377" lon="3.15496">
        <ele>24.3</ele>
        <time>2015-07-18T14:19:46Z</time>
      </trkpt>
      <trkpt lat="50.40363" lon="3.15493">
        <ele>24.3</ele>
        <time>2015-07-18T14:19:48Z</time>
      </trkpt>
      <trkpt lat="50.40349" lon="3.15489">
        <ele>24.3</ele>
        <time>2015-07-18T14:19:50Z</time>
      </trkpt>
      <trkpt lat="50.40337" lon="3.15486">
        <ele>24.3</ele>
        <time>2015-07-18T14:19:52Z</time>
      </trkpt>
      <trkpt lat="50.40325" lon="3.15481">
        <ele>24.3</ele>
        <time>2015-07-18T14:19:54Z</time>
      </trkpt>
      <trkpt lat="50.40312" lon="3.15479">
        <ele>24.3</ele>
        <time>2015-07-18T14:19:56Z</time>
      </trkpt>
      <trkpt lat="50.40299" lon="3.15485">
        <ele>24.3</ele>
        <time>2015-07-18T14:19:58Z</time>
      </trkpt>
      <trkpt lat="50.40287" lon="3.15498">
        <ele>24.3</ele>
        <time>2015-07-18T14:20:00Z</time>
      </trkpt>
      <trkpt lat="50.40276" lon="3.15511">
        <ele>24.3</ele>
        <time>2015-07-18T14:20:02Z</time>
      </trkpt>
      <trkpt lat="50.40264" lon="3.15522">
        <ele>24.3</ele>
        <time>2015-07-18T14:20:04Z</time>
      </trkpt>
      <trkpt lat="50.40251" lon="3.15531">
        <ele>24.3</ele>
        <time>2015-07-18T14:20:06Z</time>
      </trkpt>
      <trkpt lat="50.40237" lon="3.15538">
        <ele>24.3</ele>
        <time>2015-07-18T14:20:08Z</time>
      </trkpt>
      <trkpt lat="50.40223" lon="3.15545">
        <ele>24.3</ele>
        <time>2015-07-18T14:20:10Z</time>
      </trkpt>
      <trkpt lat="50.4021" lon="3.15555">
        <ele>24.3</ele>
        <time>2015-07-18T14:20:12Z</time>
      </trkpt>
      <trkpt lat="50.40199" lon="3.15569">
        <ele>24.3</ele>
        <time>2015-07-18T14:20:14Z</time>
      </trkpt>
      <trkpt lat="50.40187" lon="3.15584">
        <ele>24.3</ele>
        <time>2015-07-18T14:20:16Z</time>
      </trkpt>
      <trkpt lat="50.40176" lon="3.15599">
        <ele>24.3</ele>
        <time>2015-07-18T14:20:18Z</time>
      </trkpt>
      <trkpt lat="50.40164" lon="3.15614">
        <ele>24.3</ele>
        <time>2015-07-18T14:20:20Z</time>
      </trkpt>
      <trkpt lat="50.40153" lon="3.1563">
        <ele>24.3</ele>
        <time>2015-07-18T14:20:22Z</time>
      </trkpt>
      <trkpt lat="50.40141" lon="3.15644">
        <ele>24.3</ele>
        <time>2015-07-18T14:20:24Z</time>
      </trkpt>
      <trkpt lat="50.40128" lon="3.1566">
        <ele>24.3</ele>
        <time>2015-07-18T14:20:26Z</time>
      </trkpt>
      <trkpt lat="50.40114" lon="3.15672">
        <ele>24.3</ele>
        <time>2015-07-18T14:20:28Z</time>
      </trkpt>
      <trkpt lat="50.40101" lon="3.15681">
        <ele>24.3</ele>
        <time>2015-07-18T14:20:30Z</time>
      </trkpt>
      <trkpt lat="50.40087" lon="3.15691">
        <ele>24.3</ele>
        <time>2015-07-18T14:20:32Z</time>
      </trkpt>
      <trkpt lat="50.40073" lon="3.157">
        <ele>24.3</ele>
        <time>2015-07-18T14:20:34Z</time>
      </trkpt>
      <trkpt lat="50.40059" lon="3.15709">
        <ele>24.3</ele>
        <time>2015-07-18T14:20:36Z</time>
      </trkpt>
      <trkpt lat="50.40045" lon="3.15718">
        <ele>24.3</ele>
        <time>2015-07-18T14:20:38Z</time>
      </trkpt>
      <trkpt lat="50.40031" lon="3.15726">
        <ele>24.3</ele>
        <time>2015-07-18T14:20:40Z</time>
      </trkpt>
      <trkpt lat="50.40016" lon="3.15734">
        <ele>24.3</ele>
        <time>2015-07-18T14:20:42Z</time>
      </trkpt>
      <trkpt lat="50.40003" lon="3.15744">
        <ele>24.3</ele>
        <time>2015-07-18T14:20:44Z</time>
      </trkpt>
      <trkpt lat="50.39992" lon="3.1576">
        <ele>24.3</ele>
        <time>2015-07-18T14:20:46Z</time>
      </trkpt>
      <trkpt lat="50.39983" lon="3.15779">
        <ele>24.3</ele>
        <time>2015-07-18T14:20:48Z</time>
      </trkpt>
      <trkpt lat="50.39975" lon="3.15799">
        <ele>24.3</ele>
        <time>2015-07-18T14:20:50Z</time>
      </trkpt>
      <trkpt lat="50.39967" lon="3.15819">
        <ele>24.3</ele>
        <time>2015-07-18T14:20:52Z</time>
      </trkpt>
      <trkpt lat="50.39959" lon="3.1584">
        <ele>24.4</ele>
        <time>2015-07-18T14:20:54Z</time>
      </trkpt>
      <trkpt lat="50.3995" lon="3.1586">
        <ele>24.5</ele>
        <time>2015-07-18T14:20:56Z</time>
      </trkpt>
      <trkpt lat="50.39941" lon="3.15881">
        <ele>24.5</ele>
        <time>2015-07-18T14:20:58Z</time>
      </trkpt>
      <trkpt lat="50.39932" lon="3.15902">
        <ele>24.6</ele>
        <time>2015-07-18T14:21:00Z</time>
      </trkpt>
      <trkpt lat="50.39924" lon="3.15922">
        <ele>24.7</ele>
        <time>2015-07-18T14:21:02Z</time>
      </trkpt>
      <trkpt lat="50.39915" lon="3.15943">
        <ele>24.9</ele>
        <time>2015-07-18T14:21:04Z</time>
      </trkpt>
      <trkpt lat="50.39906" lon="3.15964">
        <ele>25</ele>
        <time>2015-07-18T14:21:06Z</time>
      </trkpt>
      <trkpt lat="50.39898" lon="3.15985">
        <ele>25.1</ele>
        <time>2015-07-18T14:21:08Z</time>
      </trkpt>
      <trkpt lat="50.39889" lon="3.16007">
        <ele>25.2</ele>
        <time>2015-07-18T14:21:10Z</time>
      </trkpt>
      <trkpt lat="50.3988" lon="3.16029">
        <ele>25.3</ele>
        <time>2015-07-18T14:21:12Z</time>
      </trkpt>
      <trkpt lat="50.39871" lon="3.16051">
        <ele>25.4</ele>
        <time>2015-07-18T14:21:14Z</time>
      </trkpt>
      <trkpt lat="50.39862" lon="3.16072">
        <ele>25.5</ele>
        <time>2015-07-18T14:21:16Z</time>
      </trkpt>
      <trkpt lat="50.39853" lon="3.16095">
        <ele>25.6</ele>
        <time>2015-07-18T14:21:18Z</time>
      </trkpt>
      <trkpt lat="50.39844" lon="3.16117">
        <ele>25.6</ele>
        <time>2015-07-18T14:21:20Z</time>
      </trkpt>
      <trkpt lat="50.39834" lon="3.16139">
        <ele>25.7</ele>
        <time>2015-07-18T14:21:22Z</time>
      </trkpt>
      <trkpt lat="50.39824" lon="3.16161">
        <ele>25.7</ele>
        <time>2015-07-18T14:21:24Z</time>
      </trkpt>
      <trkpt lat="50.39814" lon="3.16181">
        <ele>25.6</ele>
        <time>2015-07-18T14:21:26Z</time>
      </trkpt>
      <trkpt lat="50.39803" lon="3.16199">
        <ele>25.6</ele>
        <time>2015-07-18T14:21:28Z</time>
      </trkpt>
      <trkpt lat="50.39793" lon="3.16217">
        <ele>25.4</ele>
        <time>2015-07-18T14:21:30Z</time>
      </trkpt>
      <trkpt lat="50.39783" lon="3.16235">
        <ele>25.3</ele>
        <time>2015-07-18T14:21:32Z</time>
      </trkpt>
      <trkpt lat="50.39773" lon="3.16253">
        <ele>25.2</ele>
        <time>2015-07-18T14:21:34Z</time>
      </trkpt>
      <trkpt lat="50.39764" lon="3.16271">
        <ele>25</ele>
        <time>2015-07-18T14:21:36Z</time>
      </trkpt>
      <trkpt lat="50.39755" lon="3.16287">
        <ele>24.9</ele>
        <time>2015-07-18T14:21:38Z</time>
      </trkpt>
      <trkpt lat="50.39745" lon="3.16304">
        <ele>24.8</ele>
        <time>2015-07-18T14:21:40Z</time>
      </trkpt>
      <trkpt lat="50.39736" lon="3.16321">
        <ele>24.6</ele>
        <time>2015-07-18T14:21:42Z</time>
      </trkpt>
      <trkpt lat="50.39726" lon="3.16338">
        <ele>24.5</ele>
        <time>2015-07-18T14:21:44Z</time>
      </trkpt>
      <trkpt lat="50.39716" lon="3.16355">
        <ele>24.4</ele>
        <time>2015-07-18T14:21:46Z</time>
      </trkpt>
      <trkpt lat="50.39706" lon="3.16373">
        <ele>24.3</ele>
        <time>2015-07-18T14:21:48Z</time>
      </trkpt>
      <trkpt lat="50.39696" lon="3.1639">
        <ele>24.3</ele>
        <time>2015-07-18T14:21:50Z</time>
      </trkpt>
      <trkpt lat="50.39686" lon="3.16405">
        <ele>24.2</ele>
        <time>2015-07-18T14:21:52Z</time>
      </trkpt>
      <trkpt lat="50.39676" lon="3.16421">
        <ele>24.2</ele>
        <time>2015-07-18T14:21:54Z</time>
      </trkpt>
      <trkpt lat="50.39666" lon="3.16437">
        <ele>24.1</ele>
        <time>2015-07-18T14:21:56Z</time>
      </trkpt>
      <trkpt lat="50.39656" lon="3.16453">
        <ele>24.1</ele>
        <time>2015-07-18T14:21:58Z</time>
      </trkpt>
      <trkpt lat="50.39645" lon="3.16468">
        <ele>24.1</ele>
        <time>2015-07-18T14:22:00Z</time>
      </trkpt>
      <trkpt lat="50.39634" lon="3.16486">
        <ele>24</ele>
        <time>2015-07-18T14:22:02Z</time>
      </trkpt>
      <trkpt lat="50.39624" lon="3.16503">
        <ele>24</ele>
        <time>2015-07-18T14:22:04Z</time>
      </trkpt>
      <trkpt lat="50.39613" lon="3.16516">
        <ele>24</ele>
        <time>2015-07-18T14:22:06Z</time>
      </trkpt>
      <trkpt lat="50.39601" lon="3.16527">
        <ele>24</ele>
        <time>2015-07-18T14:22:08Z</time>
      </trkpt>
      <trkpt lat="50.39591" lon="3.16534">
        <ele>24</ele>
        <time>2015-07-18T14:22:10Z</time>
      </trkpt>
      <trkpt lat="50.39582" lon="3.16538">
        <ele>24</ele>
        <time>2015-07-18T14:22:12Z</time>
      </trkpt>
      <trkpt lat="50.39572" lon="3.16538">
        <ele>23.9</ele>
        <time>2015-07-18T14:22:14Z</time>
      </trkpt>
      <trkpt lat="50.39562" lon="3.16532">
        <ele>24</ele>
        <time>2015-07-18T14:22:16Z</time>
      </trkpt>
      <trkpt lat="50.39552" lon="3.16523">
        <ele>24</ele>
        <time>2015-07-18T14:22:18Z</time>
      </trkpt>
      <trkpt lat="50.39541" lon="3.16518">
        <ele>24</ele>
        <time>2015-07-18T14:22:20Z</time>
      </trkpt>
      <trkpt lat="50.39529" lon="3.16517">
        <ele>24.1</ele>
        <time>2015-07-18T14:22:22Z</time>
      </trkpt>
      <trkpt lat="50.39518" lon="3.16517">
        <ele>24.2</ele>
        <time>2015-07-18T14:22:24Z</time>
      </trkpt>
      <trkpt lat="50.39507" lon="3.16516">
        <ele>24.3</ele>
        <time>2015-07-18T14:22:27Z</time>
      </trkpt>
      <trkpt lat="50.39497" lon="3.16517">
        <ele>24.4</ele>
        <time>2015-07-18T14:22:31Z</time>
      </trkpt>
      <trkpt lat="50.39496" lon="3.16533">
        <ele>24.9</ele>
        <time>2015-07-18T14:24:41Z</time>
      </trkpt>
      <trkpt lat="50.39497" lon="3.1655">
        <ele>24.9</ele>
        <time>2015-07-18T14:24:44Z</time>
      </trkpt>
      <trkpt lat="50.39497" lon="3.16568">
        <ele>24.9</ele>
        <time>2015-07-18T14:24:47Z</time>
      </trkpt>
      <trkpt lat="50.39498" lon="3.16585">
        <ele>24.9</ele>
        <time>2015-07-18T14:24:51Z</time>
      </trkpt>
      <trkpt lat="50.39498" lon="3.166">
        <ele>24.8</ele>
        <time>2015-07-18T14:24:55Z</time>
      </trkpt>
      <trkpt lat="50.39499" lon="3.16614">
        <ele>24.8</ele>
        <time>2015-07-18T14:24:58Z</time>
      </trkpt>
      <trkpt lat="50.395" lon="3.16634">
        <ele>24.8</ele>
        <time>2015-07-18T14:25:01Z</time>
      </trkpt>
      <trkpt lat="50.39502" lon="3.16653">
        <ele>24.7</ele>
        <time>2015-07-18T14:25:04Z</time>
      </trkpt>
      <trkpt lat="50.39502" lon="3.16673">
        <ele>24.7</ele>
        <time>2015-07-18T14:25:07Z</time>
      </trkpt>
      <trkpt lat="50.39503" lon="3.16693">
        <ele>24.7</ele>
        <time>2015-07-18T14:25:10Z</time>
      </trkpt>
      <trkpt lat="50.39503" lon="3.16713">
        <ele>24.7</ele>
        <time>2015-07-18T14:25:13Z</time>
      </trkpt>
      <trkpt lat="50.39503" lon="3.16734">
        <ele>24.7</ele>
        <time>2015-07-18T14:25:16Z</time>
      </trkpt>
      <trkpt lat="50.39503" lon="3.16748">
        <ele>24.7</ele>
        <time>2015-07-18T14:25:18Z</time>
      </trkpt>
      <trkpt lat="50.39503" lon="3.16763">
        <ele>24.7</ele>
        <time>2015-07-18T14:25:20Z</time>
      </trkpt>
      <trkpt lat="50.39503" lon="3.16779">
        <ele>24.6</ele>
        <time>2015-07-18T14:25:22Z</time>
      </trkpt>
      <trkpt lat="50.39502" lon="3.16794">
        <ele>24.6</ele>
        <time>2015-07-18T14:25:24Z</time>
      </trkpt>
      <trkpt lat="50.39501" lon="3.1681">
        <ele>24.6</ele>
        <time>2015-07-18T14:25:26Z</time>
      </trkpt>
      <trkpt lat="50.395" lon="3.16826">
        <ele>24.6</ele>
        <time>2015-07-18T14:25:28Z</time>
      </trkpt>
      <trkpt lat="50.39499" lon="3.16841">
        <ele>24.6</ele>
        <time>2015-07-18T14:25:30Z</time>
      </trkpt>
      <trkpt lat="50.39498" lon="3.16857">
        <ele>24.6</ele>
        <time>2015-07-18T14:25:32Z</time>
      </trkpt>
      <trkpt lat="50.39496" lon="3.16873">
        <ele>24.6</ele>
        <time>2015-07-18T14:25:34Z</time>
      </trkpt>
      <trkpt lat="50.39495" lon="3.16888">
        <ele>24.6</ele>
        <time>2015-07-18T14:25:36Z</time>
      </trkpt>
      <trkpt lat="50.39492" lon="3.16903">
        <ele>24.6</ele>
        <time>2015-07-18T14:25:38Z</time>
      </trkpt>
      <trkpt lat="50.3949" lon="3.16918">
        <ele>24.6</ele>
        <time>2015-07-18T14:25:40Z</time>
      </trkpt>
      <trkpt lat="50.39486" lon="3.16933">
        <ele>24.6</ele>
        <time>2015-07-18T14:25:42Z</time>
      </trkpt>
      <trkpt lat="50.39483" lon="3.16948">
        <ele>24.6</ele>
        <time>2015-07-18T14:25:44Z</time>
      </trkpt>
      <trkpt lat="50.3948" lon="3.16962">
        <ele>24.6</ele>
        <time>2015-07-18T14:25:46Z</time>
      </trkpt>
      <trkpt lat="50.39475" lon="3.16981">
        <ele>24.6</ele>
        <time>2015-07-18T14:25:49Z</time>
      </trkpt>
      <trkpt lat="50.39471" lon="3.16995">
        <ele>24.6</ele>
        <time>2015-07-18T14:25:52Z</time>
      </trkpt>
      <trkpt lat="50.39467" lon="3.17011">
        <ele>24.6</ele>
        <time>2015-07-18T14:26:01Z</time>
      </trkpt>
      <trkpt lat="50.39463" lon="3.17024">
        <ele>24.6</ele>
        <time>2015-07-18T14:26:04Z</time>
      </trkpt>
      <trkpt lat="50.39459" lon="3.1704">
        <ele>24.6</ele>
        <time>2015-07-18T14:26:07Z</time>
      </trkpt>
      <trkpt lat="50.39454" lon="3.17059">
        <ele>24.6</ele>
        <time>2015-07-18T14:26:10Z</time>
      </trkpt>
      <trkpt lat="50.39449" lon="3.17072">
        <ele>24.6</ele>
        <time>2015-07-18T14:26:12Z</time>
      </trkpt>
      <trkpt lat="50.39443" lon="3.17084">
        <ele>24.6</ele>
        <time>2015-07-18T14:26:14Z</time>
      </trkpt>
      <trkpt lat="50.39437" lon="3.17097">
        <ele>24.6</ele>
        <time>2015-07-18T14:26:16Z</time>
      </trkpt>
      <trkpt lat="50.39432" lon="3.17112">
        <ele>24.6</ele>
        <time>2015-07-18T14:26:18Z</time>
      </trkpt>
      <trkpt lat="50.39428" lon="3.17127">
        <ele>24.5</ele>
        <time>2015-07-18T14:26:20Z</time>
      </trkpt>
      <trkpt lat="50.39424" lon="3.17142">
        <ele>24.5</ele>
        <time>2015-07-18T14:26:22Z</time>
      </trkpt>
      <trkpt lat="50.3942" lon="3.17157">
        <ele>24.5</ele>
        <time>2015-07-18T14:26:24Z</time>
      </trkpt>
      <trkpt lat="50.39417" lon="3.17172">
        <ele>24.5</ele>
        <time>2015-07-18T14:26:26Z</time>
      </trkpt>
      <trkpt lat="50.39414" lon="3.17188">
        <ele>24.5</ele>
        <time>2015-07-18T14:26:28Z</time>
      </trkpt>
      <trkpt lat="50.39411" lon="3.17205">
        <ele>24.5</ele>
        <time>2015-07-18T14:26:30Z</time>
      </trkpt>
      <trkpt lat="50.39406" lon="3.17223">
        <ele>24.5</ele>
        <time>2015-07-18T14:26:32Z</time>
      </trkpt>
      <trkpt lat="50.39401" lon="3.17241">
        <ele>24.5</ele>
        <time>2015-07-18T14:26:34Z</time>
      </trkpt>
      <trkpt lat="50.39397" lon="3.17259">
        <ele>24.3</ele>
        <time>2015-07-18T14:26:36Z</time>
      </trkpt>
      <trkpt lat="50.39393" lon="3.17277">
        <ele>24.1</ele>
        <time>2015-07-18T14:26:38Z</time>
      </trkpt>
      <trkpt lat="50.39389" lon="3.17295">
        <ele>24</ele>
        <time>2015-07-18T14:26:40Z</time>
      </trkpt>
      <trkpt lat="50.39384" lon="3.17313">
        <ele>24</ele>
        <time>2015-07-18T14:26:42Z</time>
      </trkpt>
      <trkpt lat="50.3938" lon="3.17331">
        <ele>23.9</ele>
        <time>2015-07-18T14:26:44Z</time>
      </trkpt>
      <trkpt lat="50.39375" lon="3.17347">
        <ele>23.8</ele>
        <time>2015-07-18T14:26:46Z</time>
      </trkpt>
      <trkpt lat="50.3937" lon="3.17362">
        <ele>23.8</ele>
        <time>2015-07-18T14:26:48Z</time>
      </trkpt>
      <trkpt lat="50.39365" lon="3.17376">
        <ele>23.7</ele>
        <time>2015-07-18T14:26:50Z</time>
      </trkpt>
      <trkpt lat="50.3936" lon="3.17391">
        <ele>23.7</ele>
        <time>2015-07-18T14:26:52Z</time>
      </trkpt>
      <trkpt lat="50.39355" lon="3.17407">
        <ele>23.6</ele>
        <time>2015-07-18T14:26:54Z</time>
      </trkpt>
      <trkpt lat="50.39351" lon="3.17426">
        <ele>23.5</ele>
        <time>2015-07-18T14:26:56Z</time>
      </trkpt>
      <trkpt lat="50.39349" lon="3.17444">
        <ele>23.3</ele>
        <time>2015-07-18T14:26:58Z</time>
      </trkpt>
      <trkpt lat="50.39346" lon="3.17462">
        <ele>23.2</ele>
        <time>2015-07-18T14:27:00Z</time>
      </trkpt>
      <trkpt lat="50.39341" lon="3.17481">
        <ele>23.1</ele>
        <time>2015-07-18T14:27:02Z</time>
      </trkpt>
      <trkpt lat="50.39336" lon="3.175">
        <ele>23.1</ele>
        <time>2015-07-18T14:27:04Z</time>
      </trkpt>
      <trkpt lat="50.39331" lon="3.17519">
        <ele>23</ele>
        <time>2015-07-18T14:27:06Z</time>
      </trkpt>
      <trkpt lat="50.39326" lon="3.17538">
        <ele>23</ele>
        <time>2015-07-18T14:27:08Z</time>
      </trkpt>
      <trkpt lat="50.39321" lon="3.17556">
        <ele>23</ele>
        <time>2015-07-18T14:27:10Z</time>
      </trkpt>
      <trkpt lat="50.39317" lon="3.17574">
        <ele>23</ele>
        <time>2015-07-18T14:27:12Z</time>
      </trkpt>
      <trkpt lat="50.39312" lon="3.17592">
        <ele>22.9</ele>
        <time>2015-07-18T14:27:14Z</time>
      </trkpt>
      <trkpt lat="50.39308" lon="3.17608">
        <ele>23</ele>
        <time>2015-07-18T14:27:16Z</time>
      </trkpt>
      <trkpt lat="50.39303" lon="3.17625">
        <ele>23</ele>
        <time>2015-07-18T14:27:18Z</time>
      </trkpt>
      <trkpt lat="50.39298" lon="3.17642">
        <ele>23.1</ele>
        <time>2015-07-18T14:27:20Z</time>
      </trkpt>
      <trkpt lat="50.39293" lon="3.17659">
        <ele>23.1</ele>
        <time>2015-07-18T14:27:22Z</time>
      </trkpt>
      <trkpt lat="50.39289" lon="3.17676">
        <ele>23.2</ele>
        <time>2015-07-18T14:27:24Z</time>
      </trkpt>
      <trkpt lat="50.39285" lon="3.17693">
        <ele>23.2</ele>
        <time>2015-07-18T14:27:26Z</time>
      </trkpt>
      <trkpt lat="50.3928" lon="3.17711">
        <ele>23.3</ele>
        <time>2015-07-18T14:27:28Z</time>
      </trkpt>
      <trkpt lat="50.39276" lon="3.17729">
        <ele>23.3</ele>
        <time>2015-07-18T14:27:30Z</time>
      </trkpt>
      <trkpt lat="50.39271" lon="3.17747">
        <ele>23.3</ele>
        <time>2015-07-18T14:27:32Z</time>
      </trkpt>
      <trkpt lat="50.39267" lon="3.17765">
        <ele>23.3</ele>
        <time>2015-07-18T14:27:34Z</time>
      </trkpt>
      <trkpt lat="50.39262" lon="3.17782">
        <ele>23.4</ele>
        <time>2015-07-18T14:27:36Z</time>
      </trkpt>
      <trkpt lat="50.39257" lon="3.178">
        <ele>23.4</ele>
        <time>2015-07-18T14:27:38Z</time>
      </trkpt>
      <trkpt lat="50.39253" lon="3.17817">
        <ele>23.4</ele>
        <time>2015-07-18T14:27:40Z</time>
      </trkpt>
      <trkpt lat="50.39249" lon="3.17833">
        <ele>23.4</ele>
        <time>2015-07-18T14:27:42Z</time>
      </trkpt>
      <trkpt lat="50.39245" lon="3.17848">
        <ele>23.5</ele>
        <time>2015-07-18T14:27:44Z</time>
      </trkpt>
      <trkpt lat="50.39242" lon="3.17864">
        <ele>23.5</ele>
        <time>2015-07-18T14:27:46Z</time>
      </trkpt>
      <trkpt lat="50.39238" lon="3.17879">
        <ele>23.6</ele>
        <time>2015-07-18T14:27:48Z</time>
      </trkpt>
      <trkpt lat="50.39234" lon="3.17893">
        <ele>23.6</ele>
        <time>2015-07-18T14:27:50Z</time>
      </trkpt>
      <trkpt lat="50.3923" lon="3.17909">
        <ele>23.6</ele>
        <time>2015-07-18T14:27:52Z</time>
      </trkpt>
      <trkpt lat="50.39226" lon="3.17925">
        <ele>23.6</ele>
        <time>2015-07-18T14:27:54Z</time>
      </trkpt>
      <trkpt lat="50.39222" lon="3.1794">
        <ele>23.7</ele>
        <time>2015-07-18T14:27:56Z</time>
      </trkpt>
      <trkpt lat="50.39217" lon="3.17955">
        <ele>23.7</ele>
        <time>2015-07-18T14:27:58Z</time>
      </trkpt>
      <trkpt lat="50.39213" lon="3.17971">
        <ele>23.7</ele>
        <time>2015-07-18T14:28:00Z</time>
      </trkpt>
      <trkpt lat="50.39209" lon="3.17986">
        <ele>23.7</ele>
        <time>2015-07-18T14:28:02Z</time>
      </trkpt>
      <trkpt lat="50.39205" lon="3.18002">
        <ele>23.7</ele>
        <time>2015-07-18T14:28:04Z</time>
      </trkpt>
      <trkpt lat="50.392" lon="3.18018">
        <ele>23.7</ele>
        <time>2015-07-18T14:28:06Z</time>
      </trkpt>
      <trkpt lat="50.39196" lon="3.18034">
        <ele>23.7</ele>
        <time>2015-07-18T14:28:08Z</time>
      </trkpt>
      <trkpt lat="50.39191" lon="3.18052">
        <ele>23.7</ele>
        <time>2015-07-18T14:28:10Z</time>
      </trkpt>
      <trkpt lat="50.39186" lon="3.18072">
        <ele>23.7</ele>
        <time>2015-07-18T14:28:12Z</time>
      </trkpt>
      <trkpt lat="50.3918" lon="3.18095">
        <ele>23.7</ele>
        <time>2015-07-18T14:28:14Z</time>
      </trkpt>
      <trkpt lat="50.39174" lon="3.18119">
        <ele>23.7</ele>
        <time>2015-07-18T14:28:16Z</time>
      </trkpt>
      <trkpt lat="50.3917" lon="3.18132">
        <ele>23.7</ele>
        <time>2015-07-18T14:28:17Z</time>
      </trkpt>
      <trkpt lat="50.39167" lon="3.18145">
        <ele>23.7</ele>
        <time>2015-07-18T14:28:18Z</time>
      </trkpt>
      <trkpt lat="50.39163" lon="3.18159">
        <ele>23.7</ele>
        <time>2015-07-18T14:28:19Z</time>
      </trkpt>
      <trkpt lat="50.39159" lon="3.18173">
        <ele>23.7</ele>
        <time>2015-07-18T14:28:20Z</time>
      </trkpt>
      <trkpt lat="50.39156" lon="3.18187">
        <ele>23.8</ele>
        <time>2015-07-18T14:28:21Z</time>
      </trkpt>
      <trkpt lat="50.39152" lon="3.18201">
        <ele>23.9</ele>
        <time>2015-07-18T14:28:22Z</time>
      </trkpt>
      <trkpt lat="50.39148" lon="3.18216">
        <ele>23.9</ele>
        <time>2015-07-18T14:28:23Z</time>
      </trkpt>
      <trkpt lat="50.39144" lon="3.1823">
        <ele>24</ele>
        <time>2015-07-18T14:28:24Z</time>
      </trkpt>
      <trkpt lat="50.3914" lon="3.18245">
        <ele>24</ele>
        <time>2015-07-18T14:28:25Z</time>
      </trkpt>
      <trkpt lat="50.39136" lon="3.1826">
        <ele>24.1</ele>
        <time>2015-07-18T14:28:26Z</time>
      </trkpt>
      <trkpt lat="50.39132" lon="3.18275">
        <ele>24.1</ele>
        <time>2015-07-18T14:28:27Z</time>
      </trkpt>
      <trkpt lat="50.39128" lon="3.1829">
        <ele>24.2</ele>
        <time>2015-07-18T14:28:28Z</time>
      </trkpt>
      <trkpt lat="50.39124" lon="3.18305">
        <ele>24.2</ele>
        <time>2015-07-18T14:28:29Z</time>
      </trkpt>
      <trkpt lat="50.3912" lon="3.18319">
        <ele>24.3</ele>
        <time>2015-07-18T14:28:30Z</time>
      </trkpt>
      <trkpt lat="50.39116" lon="3.18334">
        <ele>24.3</ele>
        <time>2015-07-18T14:28:31Z</time>
      </trkpt>
      <trkpt lat="50.39113" lon="3.18348">
        <ele>24.3</ele>
        <time>2015-07-18T14:28:32Z</time>
      </trkpt>
      <trkpt lat="50.39109" lon="3.18362">
        <ele>24.4</ele>
        <time>2015-07-18T14:28:33Z</time>
      </trkpt>
      <trkpt lat="50.39105" lon="3.18376">
        <ele>24.4</ele>
        <time>2015-07-18T14:28:34Z</time>
      </trkpt>
      <trkpt lat="50.39101" lon="3.1839">
        <ele>24.4</ele>
        <time>2015-07-18T14:28:35Z</time>
      </trkpt>
      <trkpt lat="50.39098" lon="3.18403">
        <ele>24.5</ele>
        <time>2015-07-18T14:28:36Z</time>
      </trkpt>
      <trkpt lat="50.39094" lon="3.18416">
        <ele>24.5</ele>
        <time>2015-07-18T14:28:37Z</time>
      </trkpt>
      <trkpt lat="50.39088" lon="3.18441">
        <ele>24.5</ele>
        <time>2015-07-18T14:28:39Z</time>
      </trkpt>
      <trkpt lat="50.39081" lon="3.18463">
        <ele>24.6</ele>
        <time>2015-07-18T14:28:41Z</time>
      </trkpt>
      <trkpt lat="50.39077" lon="3.18478">
        <ele>24.6</ele>
        <time>2015-07-18T14:28:43Z</time>
      </trkpt>
      <trkpt lat="50.39073" lon="3.18495">
        <ele>24.6</ele>
        <time>2015-07-18T14:28:48Z</time>
      </trkpt>
      <trkpt lat="50.39068" lon="3.1851">
        <ele>24.5</ele>
        <time>2015-07-18T14:28:51Z</time>
      </trkpt>
      <trkpt lat="50.39064" lon="3.18529">
        <ele>24.4</ele>
        <time>2015-07-18T14:28:54Z</time>
      </trkpt>
      <trkpt lat="50.3906" lon="3.18545">
        <ele>24.4</ele>
        <time>2015-07-18T14:28:56Z</time>
      </trkpt>
      <trkpt lat="50.39057" lon="3.18563">
        <ele>24.4</ele>
        <time>2015-07-18T14:28:58Z</time>
      </trkpt>
      <trkpt lat="50.39053" lon="3.18582">
        <ele>24.3</ele>
        <time>2015-07-18T14:29:00Z</time>
      </trkpt>
      <trkpt lat="50.39049" lon="3.18599">
        <ele>24.3</ele>
        <time>2015-07-18T14:29:02Z</time>
      </trkpt>
      <trkpt lat="50.39044" lon="3.18613">
        <ele>24.2</ele>
        <time>2015-07-18T14:29:04Z</time>
      </trkpt>
      <trkpt lat="50.39041" lon="3.1863">
        <ele>24.2</ele>
        <time>2015-07-18T14:29:08Z</time>
      </trkpt>
      <trkpt lat="50.39035" lon="3.18648">
        <ele>24.2</ele>
        <time>2015-07-18T14:29:11Z</time>
      </trkpt>
      <trkpt lat="50.3903" lon="3.18665">
        <ele>24.1</ele>
        <time>2015-07-18T14:29:13Z</time>
      </trkpt>
      <trkpt lat="50.39025" lon="3.18686">
        <ele>24.1</ele>
        <time>2015-07-18T14:29:15Z</time>
      </trkpt>
      <trkpt lat="50.3902" lon="3.18708">
        <ele>24.1</ele>
        <time>2015-07-18T14:29:17Z</time>
      </trkpt>
      <trkpt lat="50.39014" lon="3.18731">
        <ele>24.1</ele>
        <time>2015-07-18T14:29:19Z</time>
      </trkpt>
      <trkpt lat="50.39008" lon="3.18755">
        <ele>24.1</ele>
        <time>2015-07-18T14:29:21Z</time>
      </trkpt>
      <trkpt lat="50.39001" lon="3.18779">
        <ele>24.1</ele>
        <time>2015-07-18T14:29:23Z</time>
      </trkpt>
      <trkpt lat="50.38995" lon="3.18804">
        <ele>24.1</ele>
        <time>2015-07-18T14:29:25Z</time>
      </trkpt>
      <trkpt lat="50.38988" lon="3.18828">
        <ele>24.1</ele>
        <time>2015-07-18T14:29:27Z</time>
      </trkpt>
      <trkpt lat="50.38981" lon="3.18853">
        <ele>24.1</ele>
        <time>2015-07-18T14:29:29Z</time>
      </trkpt>
      <trkpt lat="50.38975" lon="3.18876">
        <ele>24.1</ele>
        <time>2015-07-18T14:29:31Z</time>
      </trkpt>
      <trkpt lat="50.38969" lon="3.189">
        <ele>24.2</ele>
        <time>2015-07-18T14:29:33Z</time>
      </trkpt>
      <trkpt lat="50.38962" lon="3.18924">
        <ele>24.3</ele>
        <time>2015-07-18T14:29:35Z</time>
      </trkpt>
      <trkpt lat="50.38955" lon="3.18948">
        <ele>24.3</ele>
        <time>2015-07-18T14:29:37Z</time>
      </trkpt>
      <trkpt lat="50.38949" lon="3.18971">
        <ele>24.4</ele>
        <time>2015-07-18T14:29:39Z</time>
      </trkpt>
      <trkpt lat="50.38943" lon="3.18994">
        <ele>24.4</ele>
        <time>2015-07-18T14:29:41Z</time>
      </trkpt>
      <trkpt lat="50.38937" lon="3.19017">
        <ele>24.4</ele>
        <time>2015-07-18T14:29:43Z</time>
      </trkpt>
      <trkpt lat="50.38931" lon="3.19041">
        <ele>24.5</ele>
        <time>2015-07-18T14:29:45Z</time>
      </trkpt>
      <trkpt lat="50.38925" lon="3.19064">
        <ele>24.5</ele>
        <time>2015-07-18T14:29:47Z</time>
      </trkpt>
      <trkpt lat="50.38919" lon="3.19087">
        <ele>24.5</ele>
        <time>2015-07-18T14:29:49Z</time>
      </trkpt>
      <trkpt lat="50.38912" lon="3.1911">
        <ele>24.5</ele>
        <time>2015-07-18T14:29:51Z</time>
      </trkpt>
      <trkpt lat="50.38906" lon="3.19134">
        <ele>24.6</ele>
        <time>2015-07-18T14:29:53Z</time>
      </trkpt>
      <trkpt lat="50.389" lon="3.19158">
        <ele>24.6</ele>
        <time>2015-07-18T14:29:55Z</time>
      </trkpt>
      <trkpt lat="50.38894" lon="3.19182">
        <ele>24.6</ele>
        <time>2015-07-18T14:29:57Z</time>
      </trkpt>
      <trkpt lat="50.38888" lon="3.19205">
        <ele>24.6</ele>
        <time>2015-07-18T14:29:59Z</time>
      </trkpt>
      <trkpt lat="50.38882" lon="3.19228">
        <ele>24.6</ele>
        <time>2015-07-18T14:30:01Z</time>
      </trkpt>
      <trkpt lat="50.38876" lon="3.19252">
        <ele>24.6</ele>
        <time>2015-07-18T14:30:03Z</time>
      </trkpt>
      <trkpt lat="50.3887" lon="3.19275">
        <ele>24</ele>
        <time>2015-07-18T14:30:05Z</time>
      </trkpt>
      <trkpt lat="50.38864" lon="3.19299">
        <ele>24</ele>
        <time>2015-07-18T14:30:07Z</time>
      </trkpt>
      <trkpt lat="50.38858" lon="3.19322">
        <ele>24</ele>
        <time>2015-07-18T14:30:09Z</time>
      </trkpt>
      <trkpt lat="50.38851" lon="3.19345">
        <ele>24</ele>
        <time>2015-07-18T14:30:11Z</time>
      </trkpt>
      <trkpt lat="50.38846" lon="3.19368">
        <ele>24</ele>
        <time>2015-07-18T14:30:13Z</time>
      </trkpt>
      <trkpt lat="50.3884" lon="3.1939">
        <ele>24</ele>
        <time>2015-07-18T14:30:15Z</time>
      </trkpt>
      <trkpt lat="50.38834" lon="3.19412">
        <ele>24.1</ele>
        <time>2015-07-18T14:30:17Z</time>
      </trkpt>
      <trkpt lat="50.38829" lon="3.19433">
        <ele>24.1</ele>
        <time>2015-07-18T14:30:19Z</time>
      </trkpt>
      <trkpt lat="50.38824" lon="3.19454">
        <ele>24.1</ele>
        <time>2015-07-18T14:30:21Z</time>
      </trkpt>
      <trkpt lat="50.38819" lon="3.19475">
        <ele>24.1</ele>
        <time>2015-07-18T14:30:23Z</time>
      </trkpt>
      <trkpt lat="50.38813" lon="3.19496">
        <ele>24.1</ele>
        <time>2015-07-18T14:30:25Z</time>
      </trkpt>
      <trkpt lat="50.38807" lon="3.19517">
        <ele>24.1</ele>
        <time>2015-07-18T14:30:27Z</time>
      </trkpt>
      <trkpt lat="50.38802" lon="3.19538">
        <ele>24.1</ele>
        <time>2015-07-18T14:30:29Z</time>
      </trkpt>
      <trkpt lat="50.38797" lon="3.1956">
        <ele>24.1</ele>
        <time>2015-07-18T14:30:31Z</time>
      </trkpt>
      <trkpt lat="50.38791" lon="3.1958">
        <ele>24.1</ele>
        <time>2015-07-18T14:30:33Z</time>
      </trkpt>
      <trkpt lat="50.38786" lon="3.196">
        <ele>24.1</ele>
        <time>2015-07-18T14:30:35Z</time>
      </trkpt>
      <trkpt lat="50.38781" lon="3.19619">
        <ele>24.2</ele>
        <time>2015-07-18T14:30:37Z</time>
      </trkpt>
      <trkpt lat="50.38775" lon="3.19637">
        <ele>24.2</ele>
        <time>2015-07-18T14:30:39Z</time>
      </trkpt>
      <trkpt lat="50.3877" lon="3.19655">
        <ele>24.2</ele>
        <time>2015-07-18T14:30:41Z</time>
      </trkpt>
      <trkpt lat="50.38766" lon="3.19674">
        <ele>24.3</ele>
        <time>2015-07-18T14:30:43Z</time>
      </trkpt>
      <trkpt lat="50.38762" lon="3.19695">
        <ele>24.3</ele>
        <time>2015-07-18T14:30:45Z</time>
      </trkpt>
      <trkpt lat="50.38761" lon="3.19717">
        <ele>24.4</ele>
        <time>2015-07-18T14:30:47Z</time>
      </trkpt>
      <trkpt lat="50.38762" lon="3.1974">
        <ele>24.4</ele>
        <time>2015-07-18T14:30:49Z</time>
      </trkpt>
      <trkpt lat="50.38764" lon="3.19764">
        <ele>24.4</ele>
        <time>2015-07-18T14:30:51Z</time>
      </trkpt>
      <trkpt lat="50.38766" lon="3.19788">
        <ele>24.5</ele>
        <time>2015-07-18T14:30:53Z</time>
      </trkpt>
      <trkpt lat="50.38768" lon="3.19811">
        <ele>24.5</ele>
        <time>2015-07-18T14:30:55Z</time>
      </trkpt>
      <trkpt lat="50.3877" lon="3.19835">
        <ele>24.5</ele>
        <time>2015-07-18T14:30:57Z</time>
      </trkpt>
      <trkpt lat="50.38772" lon="3.19859">
        <ele>24.5</ele>
        <time>2015-07-18T14:30:59Z</time>
      </trkpt>
      <trkpt lat="50.38774" lon="3.19883">
        <ele>24.6</ele>
        <time>2015-07-18T14:31:01Z</time>
      </trkpt>
      <trkpt lat="50.38775" lon="3.19906">
        <ele>24.6</ele>
        <time>2015-07-18T14:31:03Z</time>
      </trkpt>
      <trkpt lat="50.38776" lon="3.1993">
        <ele>24.6</ele>
        <time>2015-07-18T14:31:05Z</time>
      </trkpt>
      <trkpt lat="50.38775" lon="3.19954">
        <ele>24.6</ele>
        <time>2015-07-18T14:31:07Z</time>
      </trkpt>
      <trkpt lat="50.38775" lon="3.19978">
        <ele>24.6</ele>
        <time>2015-07-18T14:31:09Z</time>
      </trkpt>
      <trkpt lat="50.38774" lon="3.20002">
        <ele>24.6</ele>
        <time>2015-07-18T14:31:11Z</time>
      </trkpt>
      <trkpt lat="50.38772" lon="3.20026">
        <ele>24.6</ele>
        <time>2015-07-18T14:31:13Z</time>
      </trkpt>
      <trkpt lat="50.38771" lon="3.2005">
        <ele>24.6</ele>
        <time>2015-07-18T14:31:15Z</time>
      </trkpt>
      <trkpt lat="50.38769" lon="3.20074">
        <ele>24.6</ele>
        <time>2015-07-18T14:31:17Z</time>
      </trkpt>
      <trkpt lat="50.38766" lon="3.20097">
        <ele>24.6</ele>
        <time>2015-07-18T14:31:19Z</time>
      </trkpt>
      <trkpt lat="50.38762" lon="3.20119">
        <ele>24.7</ele>
        <time>2015-07-18T14:31:21Z</time>
      </trkpt>
      <trkpt lat="50.38759" lon="3.20141">
        <ele>24.7</ele>
        <time>2015-07-18T14:31:23Z</time>
      </trkpt>
      <trkpt lat="50.38757" lon="3.20163">
        <ele>24.7</ele>
        <time>2015-07-18T14:31:25Z</time>
      </trkpt>
      <trkpt lat="50.38756" lon="3.20186">
        <ele>24.7</ele>
        <time>2015-07-18T14:31:27Z</time>
      </trkpt>
      <trkpt lat="50.38756" lon="3.2021">
        <ele>24.7</ele>
        <time>2015-07-18T14:31:29Z</time>
      </trkpt>
      <trkpt lat="50.38758" lon="3.20233">
        <ele>24.7</ele>
        <time>2015-07-18T14:31:31Z</time>
      </trkpt>
      <trkpt lat="50.3876" lon="3.20257">
        <ele>24.7</ele>
        <time>2015-07-18T14:31:33Z</time>
      </trkpt>
      <trkpt lat="50.38765" lon="3.20281">
        <ele>24.7</ele>
        <time>2015-07-18T14:31:35Z</time>
      </trkpt>
      <trkpt lat="50.38769" lon="3.20305">
        <ele>24.7</ele>
        <time>2015-07-18T14:31:37Z</time>
      </trkpt>
      <trkpt lat="50.38773" lon="3.20328">
        <ele>24.7</ele>
        <time>2015-07-18T14:31:39Z</time>
      </trkpt>
      <trkpt lat="50.38778" lon="3.20351">
        <ele>24.7</ele>
        <time>2015-07-18T14:31:41Z</time>
      </trkpt>
      <trkpt lat="50.38782" lon="3.20374">
        <ele>24.7</ele>
        <time>2015-07-18T14:31:43Z</time>
      </trkpt>
      <trkpt lat="50.38786" lon="3.20396">
        <ele>24.7</ele>
        <time>2015-07-18T14:31:45Z</time>
      </trkpt>
      <trkpt lat="50.3879" lon="3.20418">
        <ele>24.7</ele>
        <time>2015-07-18T14:31:47Z</time>
      </trkpt>
      <trkpt lat="50.38794" lon="3.2044">
        <ele>24.7</ele>
        <time>2015-07-18T14:31:49Z</time>
      </trkpt>
      <trkpt lat="50.38798" lon="3.20462">
        <ele>24.6</ele>
        <time>2015-07-18T14:31:51Z</time>
      </trkpt>
      <trkpt lat="50.38802" lon="3.20483">
        <ele>24.6</ele>
        <time>2015-07-18T14:31:53Z</time>
      </trkpt>
      <trkpt lat="50.38808" lon="3.20504">
        <ele>24.6</ele>
        <time>2015-07-18T14:31:55Z</time>
      </trkpt>
      <trkpt lat="50.38815" lon="3.20525">
        <ele>24.6</ele>
        <time>2015-07-18T14:31:57Z</time>
      </trkpt>
      <trkpt lat="50.38822" lon="3.20545">
        <ele>24.6</ele>
        <time>2015-07-18T14:31:59Z</time>
      </trkpt>
      <trkpt lat="50.38829" lon="3.20566">
        <ele>24.6</ele>
        <time>2015-07-18T14:32:01Z</time>
      </trkpt>
      <trkpt lat="50.38836" lon="3.20587">
        <ele>24.6</ele>
        <time>2015-07-18T14:32:03Z</time>
      </trkpt>
      <trkpt lat="50.38844" lon="3.20608">
        <ele>24.6</ele>
        <time>2015-07-18T14:32:05Z</time>
      </trkpt>
      <trkpt lat="50.38851" lon="3.20629">
        <ele>24.6</ele>
        <time>2015-07-18T14:32:07Z</time>
      </trkpt>
      <trkpt lat="50.38858" lon="3.20649">
        <ele>24.5</ele>
        <time>2015-07-18T14:32:09Z</time>
      </trkpt>
      <trkpt lat="50.38866" lon="3.2067">
        <ele>24.5</ele>
        <time>2015-07-18T14:32:11Z</time>
      </trkpt>
      <trkpt lat="50.38873" lon="3.2069">
        <ele>24.5</ele>
        <time>2015-07-18T14:32:13Z</time>
      </trkpt>
      <trkpt lat="50.38881" lon="3.2071">
        <ele>24.5</ele>
        <time>2015-07-18T14:32:15Z</time>
      </trkpt>
      <trkpt lat="50.38888" lon="3.20731">
        <ele>24.4</ele>
        <time>2015-07-18T14:32:17Z</time>
      </trkpt>
      <trkpt lat="50.38895" lon="3.20751">
        <ele>24.4</ele>
        <time>2015-07-18T14:32:19Z</time>
      </trkpt>
      <trkpt lat="50.38903" lon="3.20771">
        <ele>24.4</ele>
        <time>2015-07-18T14:32:21Z</time>
      </trkpt>
      <trkpt lat="50.3891" lon="3.20791">
        <ele>24.4</ele>
        <time>2015-07-18T14:32:23Z</time>
      </trkpt>
      <trkpt lat="50.38918" lon="3.20811">
        <ele>24.4</ele>
        <time>2015-07-18T14:32:25Z</time>
      </trkpt>
      <trkpt lat="50.38925" lon="3.20831">
        <ele>24.4</ele>
        <time>2015-07-18T14:32:27Z</time>
      </trkpt>
      <trkpt lat="50.38933" lon="3.20851">
        <ele>24.3</ele>
        <time>2015-07-18T14:32:29Z</time>
      </trkpt>
      <trkpt lat="50.3894" lon="3.20871">
        <ele>24.3</ele>
        <time>2015-07-18T14:32:31Z</time>
      </trkpt>
      <trkpt lat="50.38947" lon="3.20893">
        <ele>24.3</ele>
        <time>2015-07-18T14:32:33Z</time>
      </trkpt>
      <trkpt lat="50.38953" lon="3.20915">
        <ele>24.3</ele>
        <time>2015-07-18T14:32:35Z</time>
      </trkpt>
      <trkpt lat="50.38959" lon="3.20938">
        <ele>24.3</ele>
        <time>2015-07-18T14:32:37Z</time>
      </trkpt>
      <trkpt lat="50.38964" lon="3.20962">
        <ele>24.3</ele>
        <time>2015-07-18T14:32:39Z</time>
      </trkpt>
      <trkpt lat="50.38968" lon="3.20987">
        <ele>24.3</ele>
        <time>2015-07-18T14:32:41Z</time>
      </trkpt>
      <trkpt lat="50.38972" lon="3.21012">
        <ele>24.3</ele>
        <time>2015-07-18T14:32:43Z</time>
      </trkpt>
      <trkpt lat="50.38976" lon="3.21036">
        <ele>24.3</ele>
        <time>2015-07-18T14:32:45Z</time>
      </trkpt>
      <trkpt lat="50.38979" lon="3.21061">
        <ele>24.3</ele>
        <time>2015-07-18T14:32:47Z</time>
      </trkpt>
      <trkpt lat="50.38981" lon="3.21086">
        <ele>24.3</ele>
        <time>2015-07-18T14:32:49Z</time>
      </trkpt>
      <trkpt lat="50.38984" lon="3.21111">
        <ele>24.3</ele>
        <time>2015-07-18T14:32:51Z</time>
      </trkpt>
      <trkpt lat="50.38986" lon="3.21136">
        <ele>24.3</ele>
        <time>2015-07-18T14:32:53Z</time>
      </trkpt>
      <trkpt lat="50.38987" lon="3.21161">
        <ele>24.3</ele>
        <time>2015-07-18T14:32:55Z</time>
      </trkpt>
      <trkpt lat="50.38989" lon="3.21186">
        <ele>24.3</ele>
        <time>2015-07-18T14:32:57Z</time>
      </trkpt>
      <trkpt lat="50.38989" lon="3.2121">
        <ele>24.3</ele>
        <time>2015-07-18T14:32:59Z</time>
      </trkpt>
      <trkpt lat="50.38989" lon="3.21234">
        <ele>24.3</ele>
        <time>2015-07-18T14:33:01Z</time>
      </trkpt>
      <trkpt lat="50.38989" lon="3.21258">
        <ele>24.3</ele>
        <time>2015-07-18T14:33:03Z</time>
      </trkpt>
      <trkpt lat="50.38989" lon="3.21281">
        <ele>24.3</ele>
        <time>2015-07-18T14:33:05Z</time>
      </trkpt>
      <trkpt lat="50.38989" lon="3.21304">
        <ele>24.3</ele>
        <time>2015-07-18T14:33:07Z</time>
      </trkpt>
      <trkpt lat="50.38989" lon="3.21327">
        <ele>24.3</ele>
        <time>2015-07-18T14:33:09Z</time>
      </trkpt>
      <trkpt lat="50.38989" lon="3.2135">
        <ele>24.3</ele>
        <time>2015-07-18T14:33:11Z</time>
      </trkpt>
      <trkpt lat="50.38989" lon="3.21373">
        <ele>24.3</ele>
        <time>2015-07-18T14:33:13Z</time>
      </trkpt>
      <trkpt lat="50.38989" lon="3.21394">
        <ele>24.2</ele>
        <time>2015-07-18T14:33:15Z</time>
      </trkpt>
      <trkpt lat="50.3899" lon="3.21415">
        <ele>24.2</ele>
        <time>2015-07-18T14:33:17Z</time>
      </trkpt>
      <trkpt lat="50.38988" lon="3.21433">
        <ele>24.1</ele>
        <time>2015-07-18T14:33:19Z</time>
      </trkpt>
      <trkpt lat="50.38988" lon="3.21448">
        <ele>24.1</ele>
        <time>2015-07-18T14:33:21Z</time>
      </trkpt>
      <trkpt lat="50.38988" lon="3.21463">
        <ele>24</ele>
        <time>2015-07-18T14:33:25Z</time>
      </trkpt>
      <trkpt lat="50.38984" lon="3.21479">
        <ele>23.8</ele>
        <time>2015-07-18T14:33:34Z</time>
      </trkpt>
      <trkpt lat="50.38987" lon="3.21493">
        <ele>23.8</ele>
        <time>2015-07-18T14:33:37Z</time>
      </trkpt>
      <trkpt lat="50.3899" lon="3.21513">
        <ele>23.8</ele>
        <time>2015-07-18T14:33:40Z</time>
      </trkpt>
      <trkpt lat="50.3899" lon="3.21529">
        <ele>23.8</ele>
        <time>2015-07-18T14:33:42Z</time>
      </trkpt>
      <trkpt lat="50.3899" lon="3.21548">
        <ele>23.8</ele>
        <time>2015-07-18T14:33:44Z</time>
      </trkpt>
      <trkpt lat="50.3899" lon="3.21567">
        <ele>23.8</ele>
        <time>2015-07-18T14:33:46Z</time>
      </trkpt>
      <trkpt lat="50.3899" lon="3.21588">
        <ele>23.8</ele>
        <time>2015-07-18T14:33:48Z</time>
      </trkpt>
      <trkpt lat="50.3899" lon="3.2161">
        <ele>23.8</ele>
        <time>2015-07-18T14:33:50Z</time>
      </trkpt>
      <trkpt lat="50.3899" lon="3.21633">
        <ele>23.8</ele>
        <time>2015-07-18T14:33:52Z</time>
      </trkpt>
      <trkpt lat="50.3899" lon="3.21655">
        <ele>23.8</ele>
        <time>2015-07-18T14:33:54Z</time>
      </trkpt>
      <trkpt lat="50.3899" lon="3.21677">
        <ele>23.8</ele>
        <time>2015-07-18T14:33:56Z</time>
      </trkpt>
      <trkpt lat="50.38989" lon="3.217">
        <ele>23.8</ele>
        <time>2015-07-18T14:33:58Z</time>
      </trkpt>
      <trkpt lat="50.38989" lon="3.21721">
        <ele>23.8</ele>
        <time>2015-07-18T14:34:00Z</time>
      </trkpt>
      <trkpt lat="50.38989" lon="3.21742">
        <ele>23.9</ele>
        <time>2015-07-18T14:34:02Z</time>
      </trkpt>
      <trkpt lat="50.38988" lon="3.21763">
        <ele>23.9</ele>
        <time>2015-07-18T14:34:04Z</time>
      </trkpt>
      <trkpt lat="50.38988" lon="3.21783">
        <ele>23.9</ele>
        <time>2015-07-18T14:34:06Z</time>
      </trkpt>
      <trkpt lat="50.38989" lon="3.21802">
        <ele>23.9</ele>
        <time>2015-07-18T14:34:08Z</time>
      </trkpt>
      <trkpt lat="50.38989" lon="3.21819">
        <ele>23.9</ele>
        <time>2015-07-18T14:34:10Z</time>
      </trkpt>
      <trkpt lat="50.38987" lon="3.21834">
        <ele>23.9</ele>
        <time>2015-07-18T14:34:13Z</time>
      </trkpt>
      <trkpt lat="50.38988" lon="3.21854">
        <ele>23.9</ele>
        <time>2015-07-18T14:34:17Z</time>
      </trkpt>
      <trkpt lat="50.38988" lon="3.21868">
        <ele>23.9</ele>
        <time>2015-07-18T14:34:19Z</time>
      </trkpt>
      <trkpt lat="50.38989" lon="3.21884">
        <ele>23.8</ele>
        <time>2015-07-18T14:34:21Z</time>
      </trkpt>
      <trkpt lat="50.38989" lon="3.21903">
        <ele>23.8</ele>
        <time>2015-07-18T14:34:23Z</time>
      </trkpt>
      <trkpt lat="50.38989" lon="3.21924">
        <ele>23.8</ele>
        <time>2015-07-18T14:34:25Z</time>
      </trkpt>
      <trkpt lat="50.38988" lon="3.21944">
        <ele>23.8</ele>
        <time>2015-07-18T14:34:27Z</time>
      </trkpt>
      <trkpt lat="50.38989" lon="3.21966">
        <ele>23.8</ele>
        <time>2015-07-18T14:34:29Z</time>
      </trkpt>
      <trkpt lat="50.38991" lon="3.21988">
        <ele>23.8</ele>
        <time>2015-07-18T14:34:31Z</time>
      </trkpt>
      <trkpt lat="50.38992" lon="3.2201">
        <ele>23.8</ele>
        <time>2015-07-18T14:34:33Z</time>
      </trkpt>
      <trkpt lat="50.38993" lon="3.22032">
        <ele>23.8</ele>
        <time>2015-07-18T14:34:35Z</time>
      </trkpt>
      <trkpt lat="50.38992" lon="3.22055">
        <ele>23.9</ele>
        <time>2015-07-18T14:34:37Z</time>
      </trkpt>
      <trkpt lat="50.38992" lon="3.22078">
        <ele>23.9</ele>
        <time>2015-07-18T14:34:39Z</time>
      </trkpt>
      <trkpt lat="50.38993" lon="3.22102">
        <ele>23.9</ele>
        <time>2015-07-18T14:34:41Z</time>
      </trkpt>
      <trkpt lat="50.38992" lon="3.22126">
        <ele>23.9</ele>
        <time>2015-07-18T14:34:43Z</time>
      </trkpt>
      <trkpt lat="50.38993" lon="3.22151">
        <ele>23.8</ele>
        <time>2015-07-18T14:34:45Z</time>
      </trkpt>
      <trkpt lat="50.38992" lon="3.22175">
        <ele>23.7</ele>
        <time>2015-07-18T14:34:47Z</time>
      </trkpt>
      <trkpt lat="50.38992" lon="3.222">
        <ele>23.7</ele>
        <time>2015-07-18T14:34:49Z</time>
      </trkpt>
      <trkpt lat="50.38993" lon="3.22224">
        <ele>23.6</ele>
        <time>2015-07-18T14:34:51Z</time>
      </trkpt>
      <trkpt lat="50.38991" lon="3.22246">
        <ele>23.7</ele>
        <time>2015-07-18T14:34:53Z</time>
      </trkpt>
      <trkpt lat="50.3899" lon="3.2227">
        <ele>23.8</ele>
        <time>2015-07-18T14:34:55Z</time>
      </trkpt>
      <trkpt lat="50.3899" lon="3.22295">
        <ele>23.8</ele>
        <time>2015-07-18T14:34:57Z</time>
      </trkpt>
      <trkpt lat="50.38989" lon="3.22318">
        <ele>23.9</ele>
        <time>2015-07-18T14:34:59Z</time>
      </trkpt>
      <trkpt lat="50.38986" lon="3.22342">
        <ele>23.9</ele>
        <time>2015-07-18T14:35:01Z</time>
      </trkpt>
      <trkpt lat="50.38983" lon="3.22364">
        <ele>23.9</ele>
        <time>2015-07-18T14:35:03Z</time>
      </trkpt>
      <trkpt lat="50.38978" lon="3.22387">
        <ele>24</ele>
        <time>2015-07-18T14:35:05Z</time>
      </trkpt>
      <trkpt lat="50.38977" lon="3.2241">
        <ele>24</ele>
        <time>2015-07-18T14:35:07Z</time>
      </trkpt>
      <trkpt lat="50.38974" lon="3.22433">
        <ele>24</ele>
        <time>2015-07-18T14:35:08Z</time>
      </trkpt>
      <trkpt lat="50.38972" lon="3.22456">
        <ele>24</ele>
        <time>2015-07-18T14:35:11Z</time>
      </trkpt>
      <trkpt lat="50.3897" lon="3.22479">
        <ele>24.1</ele>
        <time>2015-07-18T14:35:13Z</time>
      </trkpt>
      <trkpt lat="50.38966" lon="3.22501">
        <ele>24.1</ele>
        <time>2015-07-18T14:35:15Z</time>
      </trkpt>
      <trkpt lat="50.38963" lon="3.22524">
        <ele>24.1</ele>
        <time>2015-07-18T14:35:17Z</time>
      </trkpt>
      <trkpt lat="50.3896" lon="3.22548">
        <ele>24.1</ele>
        <time>2015-07-18T14:35:19Z</time>
      </trkpt>
      <trkpt lat="50.38957" lon="3.22571">
        <ele>24.1</ele>
        <time>2015-07-18T14:35:21Z</time>
      </trkpt>
      <trkpt lat="50.38955" lon="3.22595">
        <ele>24.1</ele>
        <time>2015-07-18T14:35:23Z</time>
      </trkpt>
      <trkpt lat="50.38952" lon="3.22618">
        <ele>24.1</ele>
        <time>2015-07-18T14:35:25Z</time>
      </trkpt>
      <trkpt lat="50.38951" lon="3.22641">
        <ele>24.1</ele>
        <time>2015-07-18T14:35:27Z</time>
      </trkpt>
      <trkpt lat="50.38951" lon="3.22665">
        <ele>24.1</ele>
        <time>2015-07-18T14:35:29Z</time>
      </trkpt>
      <trkpt lat="50.38953" lon="3.22688">
        <ele>24.1</ele>
        <time>2015-07-18T14:35:31Z</time>
      </trkpt>
      <trkpt lat="50.38954" lon="3.22712">
        <ele>24.2</ele>
        <time>2015-07-18T14:35:33Z</time>
      </trkpt>
      <trkpt lat="50.38956" lon="3.22735">
        <ele>24.2</ele>
        <time>2015-07-18T14:35:35Z</time>
      </trkpt>
      <trkpt lat="50.38958" lon="3.22758">
        <ele>24.2</ele>
        <time>2015-07-18T14:35:37Z</time>
      </trkpt>
      <trkpt lat="50.38958" lon="3.2278">
        <ele>24.2</ele>
        <time>2015-07-18T14:35:39Z</time>
      </trkpt>
      <trkpt lat="50.38959" lon="3.22802">
        <ele>24.2</ele>
        <time>2015-07-18T14:35:41Z</time>
      </trkpt>
      <trkpt lat="50.3896" lon="3.22824">
        <ele>24.2</ele>
        <time>2015-07-18T14:35:43Z</time>
      </trkpt>
      <trkpt lat="50.3896" lon="3.22846">
        <ele>24.2</ele>
        <time>2015-07-18T14:35:45Z</time>
      </trkpt>
      <trkpt lat="50.3896" lon="3.22868">
        <ele>24.2</ele>
        <time>2015-07-18T14:35:47Z</time>
      </trkpt>
      <trkpt lat="50.3896" lon="3.22889">
        <ele>24.2</ele>
        <time>2015-07-18T14:35:49Z</time>
      </trkpt>
      <trkpt lat="50.38959" lon="3.22912">
        <ele>24.2</ele>
        <time>2015-07-18T14:35:51Z</time>
      </trkpt>
      <trkpt lat="50.38958" lon="3.22934">
        <ele>24.2</ele>
        <time>2015-07-18T14:35:53Z</time>
      </trkpt>
      <trkpt lat="50.38956" lon="3.22956">
        <ele>24.2</ele>
        <time>2015-07-18T14:35:55Z</time>
      </trkpt>
      <trkpt lat="50.38956" lon="3.22978">
        <ele>24.1</ele>
        <time>2015-07-18T14:35:57Z</time>
      </trkpt>
      <trkpt lat="50.38955" lon="3.23001">
        <ele>24.2</ele>
        <time>2015-07-18T14:35:59Z</time>
      </trkpt>
      <trkpt lat="50.38954" lon="3.23023">
        <ele>24.2</ele>
        <time>2015-07-18T14:36:01Z</time>
      </trkpt>
      <trkpt lat="50.38952" lon="3.23042">
        <ele>24.2</ele>
        <time>2015-07-18T14:36:03Z</time>
      </trkpt>
      <trkpt lat="50.38951" lon="3.23061">
        <ele>24.2</ele>
        <time>2015-07-18T14:36:05Z</time>
      </trkpt>
      <trkpt lat="50.38949" lon="3.23081">
        <ele>24.2</ele>
        <time>2015-07-18T14:36:07Z</time>
      </trkpt>
      <trkpt lat="50.38945" lon="3.23101">
        <ele>24.2</ele>
        <time>2015-07-18T14:36:09Z</time>
      </trkpt>
      <trkpt lat="50.38939" lon="3.2312">
        <ele>24.2</ele>
        <time>2015-07-18T14:36:11Z</time>
      </trkpt>
      <trkpt lat="50.38932" lon="3.2314">
        <ele>24.2</ele>
        <time>2015-07-18T14:36:13Z</time>
      </trkpt>
      <trkpt lat="50.38923" lon="3.23157">
        <ele>24.2</ele>
        <time>2015-07-18T14:36:15Z</time>
      </trkpt>
      <trkpt lat="50.38915" lon="3.23173">
        <ele>24.2</ele>
        <time>2015-07-18T14:36:17Z</time>
      </trkpt>
      <trkpt lat="50.38907" lon="3.23188">
        <ele>24.2</ele>
        <time>2015-07-18T14:36:19Z</time>
      </trkpt>
      <trkpt lat="50.389" lon="3.232">
        <ele>24.2</ele>
        <time>2015-07-18T14:36:21Z</time>
      </trkpt>
      <trkpt lat="50.38893" lon="3.23209">
        <ele>24.2</ele>
        <time>2015-07-18T14:36:24Z</time>
      </trkpt>
      <trkpt lat="50.38889" lon="3.23226">
        <ele>24.3</ele>
        <time>2015-07-18T14:36:29Z</time>
      </trkpt>
      <trkpt lat="50.38883" lon="3.23244">
        <ele>24.3</ele>
        <time>2015-07-18T14:36:32Z</time>
      </trkpt>
      <trkpt lat="50.3888" lon="3.23259">
        <ele>24.3</ele>
        <time>2015-07-18T14:36:34Z</time>
      </trkpt>
      <trkpt lat="50.38878" lon="3.23276">
        <ele>24.2</ele>
        <time>2015-07-18T14:36:36Z</time>
      </trkpt>
      <trkpt lat="50.38876" lon="3.23295">
        <ele>24.2</ele>
        <time>2015-07-18T14:36:38Z</time>
      </trkpt>
      <trkpt lat="50.38874" lon="3.23314">
        <ele>24.2</ele>
        <time>2015-07-18T14:36:40Z</time>
      </trkpt>
      <trkpt lat="50.38872" lon="3.23332">
        <ele>24.2</ele>
        <time>2015-07-18T14:36:42Z</time>
      </trkpt>
      <trkpt lat="50.38871" lon="3.23351">
        <ele>24.2</ele>
        <time>2015-07-18T14:36:44Z</time>
      </trkpt>
      <trkpt lat="50.3887" lon="3.2337">
        <ele>24.1</ele>
        <time>2015-07-18T14:36:46Z</time>
      </trkpt>
      <trkpt lat="50.38868" lon="3.23389">
        <ele>24.1</ele>
        <time>2015-07-18T14:36:48Z</time>
      </trkpt>
      <trkpt lat="50.38867" lon="3.23409">
        <ele>24.1</ele>
        <time>2015-07-18T14:36:50Z</time>
      </trkpt>
      <trkpt lat="50.38865" lon="3.23427">
        <ele>24.1</ele>
        <time>2015-07-18T14:36:52Z</time>
      </trkpt>
      <trkpt lat="50.38864" lon="3.23445">
        <ele>24.1</ele>
        <time>2015-07-18T14:36:54Z</time>
      </trkpt>
      <trkpt lat="50.38862" lon="3.23461">
        <ele>24.1</ele>
        <time>2015-07-18T14:36:56Z</time>
      </trkpt>
      <trkpt lat="50.3886" lon="3.23477">
        <ele>24.1</ele>
        <time>2015-07-18T14:36:58Z</time>
      </trkpt>
      <trkpt lat="50.38856" lon="3.23493">
        <ele>24.1</ele>
        <time>2015-07-18T14:37:00Z</time>
      </trkpt>
      <trkpt lat="50.38852" lon="3.23508">
        <ele>24.1</ele>
        <time>2015-07-18T14:37:02Z</time>
      </trkpt>
      <trkpt lat="50.38849" lon="3.23522">
        <ele>24.1</ele>
        <time>2015-07-18T14:37:04Z</time>
      </trkpt>
      <trkpt lat="50.38845" lon="3.23535">
        <ele>24.1</ele>
        <time>2015-07-18T14:37:06Z</time>
      </trkpt>
      <trkpt lat="50.38841" lon="3.2355">
        <ele>24</ele>
        <time>2015-07-18T14:37:09Z</time>
      </trkpt>
      <trkpt lat="50.38838" lon="3.23564">
        <ele>24.3</ele>
        <time>2015-07-18T14:37:42Z</time>
      </trkpt>
      <trkpt lat="50.38838" lon="3.23579">
        <ele>25.3</ele>
        <time>2015-07-18T14:44:15Z</time>
      </trkpt>
      <trkpt lat="50.38834" lon="3.23593">
        <ele>25.2</ele>
        <time>2015-07-18T14:44:19Z</time>
      </trkpt>
      <trkpt lat="50.38831" lon="3.23609">
        <ele>25.1</ele>
        <time>2015-07-18T14:44:23Z</time>
      </trkpt>
      <trkpt lat="50.38828" lon="3.23625">
        <ele>25</ele>
        <time>2015-07-18T14:44:26Z</time>
      </trkpt>
      <trkpt lat="50.38825" lon="3.2364">
        <ele>24.9</ele>
        <time>2015-07-18T14:44:29Z</time>
      </trkpt>
      <trkpt lat="50.38822" lon="3.23657">
        <ele>24.8</ele>
        <time>2015-07-18T14:44:32Z</time>
      </trkpt>
      <trkpt lat="50.38818" lon="3.23674">
        <ele>24.7</ele>
        <time>2015-07-18T14:44:35Z</time>
      </trkpt>
      <trkpt lat="50.38815" lon="3.23692">
        <ele>24.6</ele>
        <time>2015-07-18T14:44:38Z</time>
      </trkpt>
      <trkpt lat="50.38811" lon="3.2371">
        <ele>24.5</ele>
        <time>2015-07-18T14:44:41Z</time>
      </trkpt>
      <trkpt lat="50.38808" lon="3.23729">
        <ele>24.5</ele>
        <time>2015-07-18T14:44:44Z</time>
      </trkpt>
      <trkpt lat="50.38805" lon="3.23748">
        <ele>24.5</ele>
        <time>2015-07-18T14:44:47Z</time>
      </trkpt>
      <trkpt lat="50.38803" lon="3.23766">
        <ele>24.4</ele>
        <time>2015-07-18T14:44:50Z</time>
      </trkpt>
      <trkpt lat="50.38801" lon="3.23784">
        <ele>24.4</ele>
        <time>2015-07-18T14:44:53Z</time>
      </trkpt>
      <trkpt lat="50.38798" lon="3.23801">
        <ele>24.4</ele>
        <time>2015-07-18T14:44:56Z</time>
      </trkpt>
      <trkpt lat="50.38795" lon="3.23817">
        <ele>24.4</ele>
        <time>2015-07-18T14:44:59Z</time>
      </trkpt>
      <trkpt lat="50.38795" lon="3.23833">
        <ele>24.4</ele>
        <time>2015-07-18T14:45:03Z</time>
      </trkpt>
      <trkpt lat="50.38794" lon="3.23852">
        <ele>24.4</ele>
        <time>2015-07-18T14:45:07Z</time>
      </trkpt>
      <trkpt lat="50.38793" lon="3.23866">
        <ele>24.4</ele>
        <time>2015-07-18T14:45:11Z</time>
      </trkpt>
      <trkpt lat="50.38792" lon="3.23881">
        <ele>24.4</ele>
        <time>2015-07-18T14:45:29Z</time>
      </trkpt>
      <trkpt lat="50.38791" lon="3.23897">
        <ele>24.4</ele>
        <time>2015-07-18T14:45:33Z</time>
      </trkpt>
      <trkpt lat="50.38791" lon="3.23916">
        <ele>24.4</ele>
        <time>2015-07-18T14:45:36Z</time>
      </trkpt>
      <trkpt lat="50.3879" lon="3.23935">
        <ele>24.4</ele>
        <time>2015-07-18T14:45:39Z</time>
      </trkpt>
      <trkpt lat="50.38789" lon="3.23955">
        <ele>24.4</ele>
        <time>2015-07-18T14:45:42Z</time>
      </trkpt>
      <trkpt lat="50.38786" lon="3.23976">
        <ele>24.4</ele>
        <time>2015-07-18T14:45:45Z</time>
      </trkpt>
      <trkpt lat="50.38784" lon="3.23991">
        <ele>24.4</ele>
        <time>2015-07-18T14:45:47Z</time>
      </trkpt>
      <trkpt lat="50.38781" lon="3.24005">
        <ele>24.4</ele>
        <time>2015-07-18T14:45:49Z</time>
      </trkpt>
      <trkpt lat="50.38777" lon="3.2402">
        <ele>24.4</ele>
        <time>2015-07-18T14:45:51Z</time>
      </trkpt>
      <trkpt lat="50.38773" lon="3.24035">
        <ele>24.4</ele>
        <time>2015-07-18T14:45:53Z</time>
      </trkpt>
      <trkpt lat="50.38769" lon="3.2405">
        <ele>24.4</ele>
        <time>2015-07-18T14:45:55Z</time>
      </trkpt>
      <trkpt lat="50.38764" lon="3.24064">
        <ele>24.4</ele>
        <time>2015-07-18T14:45:57Z</time>
      </trkpt>
      <trkpt lat="50.38759" lon="3.24079">
        <ele>24.4</ele>
        <time>2015-07-18T14:45:59Z</time>
      </trkpt>
      <trkpt lat="50.38754" lon="3.24093">
        <ele>24.4</ele>
        <time>2015-07-18T14:46:01Z</time>
      </trkpt>
      <trkpt lat="50.38749" lon="3.24107">
        <ele>24.4</ele>
        <time>2015-07-18T14:46:03Z</time>
      </trkpt>
      <trkpt lat="50.38744" lon="3.24123">
        <ele>24.4</ele>
        <time>2015-07-18T14:46:05Z</time>
      </trkpt>
      <trkpt lat="50.38739" lon="3.24138">
        <ele>24.4</ele>
        <time>2015-07-18T14:46:07Z</time>
      </trkpt>
      <trkpt lat="50.38734" lon="3.24153">
        <ele>24.4</ele>
        <time>2015-07-18T14:46:09Z</time>
      </trkpt>
      <trkpt lat="50.3873" lon="3.24169">
        <ele>24.4</ele>
        <time>2015-07-18T14:46:11Z</time>
      </trkpt>
      <trkpt lat="50.38726" lon="3.24184">
        <ele>24.4</ele>
        <time>2015-07-18T14:46:13Z</time>
      </trkpt>
      <trkpt lat="50.38722" lon="3.24198">
        <ele>24.4</ele>
        <time>2015-07-18T14:46:15Z</time>
      </trkpt>
      <trkpt lat="50.38716" lon="3.24214">
        <ele>24.4</ele>
        <time>2015-07-18T14:46:17Z</time>
      </trkpt>
      <trkpt lat="50.38711" lon="3.2423">
        <ele>24.4</ele>
        <time>2015-07-18T14:46:19Z</time>
      </trkpt>
      <trkpt lat="50.38706" lon="3.24246">
        <ele>24.4</ele>
        <time>2015-07-18T14:46:21Z</time>
      </trkpt>
      <trkpt lat="50.38702" lon="3.24263">
        <ele>24.4</ele>
        <time>2015-07-18T14:46:23Z</time>
      </trkpt>
      <trkpt lat="50.387" lon="3.24281">
        <ele>24.4</ele>
        <time>2015-07-18T14:46:25Z</time>
      </trkpt>
      <trkpt lat="50.38698" lon="3.24298">
        <ele>24.4</ele>
        <time>2015-07-18T14:46:27Z</time>
      </trkpt>
      <trkpt lat="50.38698" lon="3.24314">
        <ele>24.4</ele>
        <time>2015-07-18T14:46:29Z</time>
      </trkpt>
      <trkpt lat="50.38698" lon="3.2433">
        <ele>24.4</ele>
        <time>2015-07-18T14:46:31Z</time>
      </trkpt>
      <trkpt lat="50.38692" lon="3.24346">
        <ele>24.4</ele>
        <time>2015-07-18T14:46:34Z</time>
      </trkpt>
      <trkpt lat="50.38683" lon="3.2435">
        <ele>24.3</ele>
        <time>2015-07-18T14:46:37Z</time>
      </trkpt>
      <trkpt lat="50.38673" lon="3.24351">
        <ele>24.2</ele>
        <time>2015-07-18T14:46:42Z</time>
      </trkpt>
      <trkpt lat="50.38669" lon="3.24369">
        <ele>24.1</ele>
        <time>2015-07-18T14:46:46Z</time>
      </trkpt>
      <trkpt lat="50.38665" lon="3.24382">
        <ele>24.1</ele>
        <time>2015-07-18T14:46:48Z</time>
      </trkpt>
      <trkpt lat="50.3866" lon="3.24396">
        <ele>24.1</ele>
        <time>2015-07-18T14:46:50Z</time>
      </trkpt>
      <trkpt lat="50.38655" lon="3.24411">
        <ele>24.1</ele>
        <time>2015-07-18T14:46:52Z</time>
      </trkpt>
      <trkpt lat="50.38651" lon="3.24429">
        <ele>24.1</ele>
        <time>2015-07-18T14:46:54Z</time>
      </trkpt>
      <trkpt lat="50.38646" lon="3.2445">
        <ele>24</ele>
        <time>2015-07-18T14:46:56Z</time>
      </trkpt>
      <trkpt lat="50.38642" lon="3.24471">
        <ele>24</ele>
        <time>2015-07-18T14:46:58Z</time>
      </trkpt>
      <trkpt lat="50.38638" lon="3.24493">
        <ele>24</ele>
        <time>2015-07-18T14:47:00Z</time>
      </trkpt>
      <trkpt lat="50.38634" lon="3.24515">
        <ele>24</ele>
        <time>2015-07-18T14:47:02Z</time>
      </trkpt>
      <trkpt lat="50.3863" lon="3.24537">
        <ele>24</ele>
        <time>2015-07-18T14:47:04Z</time>
      </trkpt>
      <trkpt lat="50.38627" lon="3.24558">
        <ele>24</ele>
        <time>2015-07-18T14:47:06Z</time>
      </trkpt>
      <trkpt lat="50.38625" lon="3.24578">
        <ele>24</ele>
        <time>2015-07-18T14:47:08Z</time>
      </trkpt>
      <trkpt lat="50.38623" lon="3.24597">
        <ele>24</ele>
        <time>2015-07-18T14:47:10Z</time>
      </trkpt>
      <trkpt lat="50.3862" lon="3.24616">
        <ele>24</ele>
        <time>2015-07-18T14:47:12Z</time>
      </trkpt>
      <trkpt lat="50.38616" lon="3.24634">
        <ele>24</ele>
        <time>2015-07-18T14:47:14Z</time>
      </trkpt>
      <trkpt lat="50.38613" lon="3.24651">
        <ele>24</ele>
        <time>2015-07-18T14:47:16Z</time>
      </trkpt>
      <trkpt lat="50.38609" lon="3.24666">
        <ele>24</ele>
        <time>2015-07-18T14:47:18Z</time>
      </trkpt>
      <trkpt lat="50.38606" lon="3.2468">
        <ele>23.8</ele>
        <time>2015-07-18T14:47:20Z</time>
      </trkpt>
      <trkpt lat="50.38601" lon="3.247">
        <ele>23.7</ele>
        <time>2015-07-18T14:47:23Z</time>
      </trkpt>
      <trkpt lat="50.38597" lon="3.24714">
        <ele>23.6</ele>
        <time>2015-07-18T14:47:25Z</time>
      </trkpt>
      <trkpt lat="50.38593" lon="3.2473">
        <ele>23.6</ele>
        <time>2015-07-18T14:47:27Z</time>
      </trkpt>
      <trkpt lat="50.38589" lon="3.24746">
        <ele>23.8</ele>
        <time>2015-07-18T14:47:29Z</time>
      </trkpt>
      <trkpt lat="50.38586" lon="3.24761">
        <ele>23.8</ele>
        <time>2015-07-18T14:47:31Z</time>
      </trkpt>
      <trkpt lat="50.38582" lon="3.24777">
        <ele>23.9</ele>
        <time>2015-07-18T14:47:33Z</time>
      </trkpt>
      <trkpt lat="50.38578" lon="3.24792">
        <ele>23.9</ele>
        <time>2015-07-18T14:47:35Z</time>
      </trkpt>
      <trkpt lat="50.38575" lon="3.24806">
        <ele>23.9</ele>
        <time>2015-07-18T14:47:37Z</time>
      </trkpt>
      <trkpt lat="50.3857" lon="3.24826">
        <ele>23.9</ele>
        <time>2015-07-18T14:47:40Z</time>
      </trkpt>
      <trkpt lat="50.38567" lon="3.24845">
        <ele>24</ele>
        <time>2015-07-18T14:47:43Z</time>
      </trkpt>
      <trkpt lat="50.3856" lon="3.24856">
        <ele>24</ele>
        <time>2015-07-18T14:47:48Z</time>
      </trkpt>
      <trkpt lat="50.38551" lon="3.2486">
        <ele>24.1</ele>
        <time>2015-07-18T14:47:59Z</time>
      </trkpt>
      <trkpt lat="50.38544" lon="3.24873">
        <ele>24.2</ele>
        <time>2015-07-18T14:48:12Z</time>
      </trkpt>
      <trkpt lat="50.38539" lon="3.24887">
        <ele>24.5</ele>
        <time>2015-07-18T14:48:16Z</time>
      </trkpt>
      <trkpt lat="50.3853" lon="3.24892">
        <ele>24.8</ele>
        <time>2015-07-18T14:48:20Z</time>
      </trkpt>
      <trkpt lat="50.38524" lon="3.2488">
        <ele>25.3</ele>
        <time>2015-07-18T14:48:26Z</time>
      </trkpt>
      <trkpt lat="50.38518" lon="3.24866">
        <ele>25.9</ele>
        <time>2015-07-18T14:48:31Z</time>
      </trkpt>
      <trkpt lat="50.38512" lon="3.24851">
        <ele>26.3</ele>
        <time>2015-07-18T14:48:35Z</time>
      </trkpt>
      <trkpt lat="50.38508" lon="3.24838">
        <ele>26.7</ele>
        <time>2015-07-18T14:48:38Z</time>
      </trkpt>
      <trkpt lat="50.38503" lon="3.24822">
        <ele>27</ele>
        <time>2015-07-18T14:48:41Z</time>
      </trkpt>
      <trkpt lat="50.38499" lon="3.24805">
        <ele>27.4</ele>
        <time>2015-07-18T14:48:44Z</time>
      </trkpt>
      <trkpt lat="50.38497" lon="3.24789">
        <ele>27.8</ele>
        <time>2015-07-18T14:48:47Z</time>
      </trkpt>
      <trkpt lat="50.38495" lon="3.24772">
        <ele>28.2</ele>
        <time>2015-07-18T14:48:50Z</time>
      </trkpt>
      <trkpt lat="50.38493" lon="3.24755">
        <ele>28.6</ele>
        <time>2015-07-18T14:48:53Z</time>
      </trkpt>
      <trkpt lat="50.38491" lon="3.24737">
        <ele>29</ele>
        <time>2015-07-18T14:48:56Z</time>
      </trkpt>
      <trkpt lat="50.38489" lon="3.2472">
        <ele>29.3</ele>
        <time>2015-07-18T14:48:59Z</time>
      </trkpt>
      <trkpt lat="50.38485" lon="3.24704">
        <ele>29.6</ele>
        <time>2015-07-18T14:49:02Z</time>
      </trkpt>
      <trkpt lat="50.38481" lon="3.24687">
        <ele>30</ele>
        <time>2015-07-18T14:49:05Z</time>
      </trkpt>
      <trkpt lat="50.38473" lon="3.24672">
        <ele>30.5</ele>
        <time>2015-07-18T14:49:08Z</time>
      </trkpt>
      <trkpt lat="50.38463" lon="3.2466">
        <ele>30.9</ele>
        <time>2015-07-18T14:49:11Z</time>
      </trkpt>
      <trkpt lat="50.38454" lon="3.24648">
        <ele>31.3</ele>
        <time>2015-07-18T14:49:14Z</time>
      </trkpt>
      <trkpt lat="50.38447" lon="3.24635">
        <ele>31.7</ele>
        <time>2015-07-18T14:49:17Z</time>
      </trkpt>
      <trkpt lat="50.38448" lon="3.24618">
        <ele>32.1</ele>
        <time>2015-07-18T14:49:20Z</time>
      </trkpt>
      <trkpt lat="50.38454" lon="3.24604">
        <ele>32.6</ele>
        <time>2015-07-18T14:49:23Z</time>
      </trkpt>
      <trkpt lat="50.3846" lon="3.24593">
        <ele>33.1</ele>
        <time>2015-07-18T14:49:26Z</time>
      </trkpt>
      <trkpt lat="50.38466" lon="3.24581">
        <ele>33.5</ele>
        <time>2015-07-18T14:49:29Z</time>
      </trkpt>
      <trkpt lat="50.38471" lon="3.24568">
        <ele>33.9</ele>
        <time>2015-07-18T14:49:32Z</time>
      </trkpt>
      <trkpt lat="50.38475" lon="3.24556">
        <ele>34.3</ele>
        <time>2015-07-18T14:49:35Z</time>
      </trkpt>
      <trkpt lat="50.38478" lon="3.24541">
        <ele>34.6</ele>
        <time>2015-07-18T14:49:38Z</time>
      </trkpt>
      <trkpt lat="50.38478" lon="3.24527">
        <ele>35</ele>
        <time>2015-07-18T14:49:41Z</time>
      </trkpt>
      <trkpt lat="50.38477" lon="3.24508">
        <ele>35.4</ele>
        <time>2015-07-18T14:49:45Z</time>
      </trkpt>
      <trkpt lat="50.38473" lon="3.24494">
        <ele>35.8</ele>
        <time>2015-07-18T14:49:48Z</time>
      </trkpt>
      <trkpt lat="50.38466" lon="3.2448">
        <ele>36.2</ele>
        <time>2015-07-18T14:49:51Z</time>
      </trkpt>
      <trkpt lat="50.3846" lon="3.24462">
        <ele>36.5</ele>
        <time>2015-07-18T14:49:54Z</time>
      </trkpt>
      <trkpt lat="50.38455" lon="3.24449">
        <ele>36.6</ele>
        <time>2015-07-18T14:49:56Z</time>
      </trkpt>
      <trkpt lat="50.3845" lon="3.24436">
        <ele>36.7</ele>
        <time>2015-07-18T14:49:58Z</time>
      </trkpt>
      <trkpt lat="50.38446" lon="3.2442">
        <ele>36.8</ele>
        <time>2015-07-18T14:50:00Z</time>
      </trkpt>
      <trkpt lat="50.38442" lon="3.24405">
        <ele>36.8</ele>
        <time>2015-07-18T14:50:02Z</time>
      </trkpt>
      <trkpt lat="50.38438" lon="3.24388">
        <ele>36.8</ele>
        <time>2015-07-18T14:50:04Z</time>
      </trkpt>
      <trkpt lat="50.38433" lon="3.24372">
        <ele>36.9</ele>
        <time>2015-07-18T14:50:06Z</time>
      </trkpt>
      <trkpt lat="50.38427" lon="3.24356">
        <ele>36.9</ele>
        <time>2015-07-18T14:50:08Z</time>
      </trkpt>
      <trkpt lat="50.3842" lon="3.24342">
        <ele>36.9</ele>
        <time>2015-07-18T14:50:10Z</time>
      </trkpt>
      <trkpt lat="50.38411" lon="3.2433">
        <ele>36.9</ele>
        <time>2015-07-18T14:50:12Z</time>
      </trkpt>
      <trkpt lat="50.38403" lon="3.24318">
        <ele>36.9</ele>
        <time>2015-07-18T14:50:14Z</time>
      </trkpt>
      <trkpt lat="50.38394" lon="3.24306">
        <ele>36.9</ele>
        <time>2015-07-18T14:50:16Z</time>
      </trkpt>
      <trkpt lat="50.38384" lon="3.24293">
        <ele>37</ele>
        <time>2015-07-18T14:50:18Z</time>
      </trkpt>
      <trkpt lat="50.38375" lon="3.24279">
        <ele>37</ele>
        <time>2015-07-18T14:50:20Z</time>
      </trkpt>
      <trkpt lat="50.38366" lon="3.24266">
        <ele>37</ele>
        <time>2015-07-18T14:50:22Z</time>
      </trkpt>
      <trkpt lat="50.38358" lon="3.24254">
        <ele>37</ele>
        <time>2015-07-18T14:50:24Z</time>
      </trkpt>
      <trkpt lat="50.38349" lon="3.24241">
        <ele>37.1</ele>
        <time>2015-07-18T14:50:26Z</time>
      </trkpt>
      <trkpt lat="50.38341" lon="3.24228">
        <ele>37.2</ele>
        <time>2015-07-18T14:50:28Z</time>
      </trkpt>
      <trkpt lat="50.38332" lon="3.24216">
        <ele>37.3</ele>
        <time>2015-07-18T14:50:30Z</time>
      </trkpt>
      <trkpt lat="50.38324" lon="3.24203">
        <ele>37.5</ele>
        <time>2015-07-18T14:50:32Z</time>
      </trkpt>
      <trkpt lat="50.38316" lon="3.2419">
        <ele>37.8</ele>
        <time>2015-07-18T14:50:34Z</time>
      </trkpt>
      <trkpt lat="50.38308" lon="3.24175">
        <ele>38</ele>
        <time>2015-07-18T14:50:36Z</time>
      </trkpt>
      <trkpt lat="50.38302" lon="3.2416">
        <ele>38.3</ele>
        <time>2015-07-18T14:50:38Z</time>
      </trkpt>
      <trkpt lat="50.38297" lon="3.24145">
        <ele>38.5</ele>
        <time>2015-07-18T14:50:40Z</time>
      </trkpt>
      <trkpt lat="50.38292" lon="3.24131">
        <ele>38.6</ele>
        <time>2015-07-18T14:50:42Z</time>
      </trkpt>
      <trkpt lat="50.38287" lon="3.24116">
        <ele>38.9</ele>
        <time>2015-07-18T14:50:44Z</time>
      </trkpt>
      <trkpt lat="50.38282" lon="3.24101">
        <ele>39.1</ele>
        <time>2015-07-18T14:50:46Z</time>
      </trkpt>
      <trkpt lat="50.38273" lon="3.24092">
        <ele>39.3</ele>
        <time>2015-07-18T14:50:48Z</time>
      </trkpt>
      <trkpt lat="50.38263" lon="3.24092">
        <ele>39.6</ele>
        <time>2015-07-18T14:50:50Z</time>
      </trkpt>
      <trkpt lat="50.38257" lon="3.24103">
        <ele>39.8</ele>
        <time>2015-07-18T14:50:52Z</time>
      </trkpt>
      <trkpt lat="50.38255" lon="3.2412">
        <ele>39.9</ele>
        <time>2015-07-18T14:50:54Z</time>
      </trkpt>
      <trkpt lat="50.38256" lon="3.24138">
        <ele>40.2</ele>
        <time>2015-07-18T14:50:56Z</time>
      </trkpt>
      <trkpt lat="50.38261" lon="3.24155">
        <ele>40.4</ele>
        <time>2015-07-18T14:50:58Z</time>
      </trkpt>
      <trkpt lat="50.38269" lon="3.24168">
        <ele>40.6</ele>
        <time>2015-07-18T14:51:00Z</time>
      </trkpt>
      <trkpt lat="50.38276" lon="3.24181">
        <ele>40.8</ele>
        <time>2015-07-18T14:51:02Z</time>
      </trkpt>
      <trkpt lat="50.38281" lon="3.24194">
        <ele>41.1</ele>
        <time>2015-07-18T14:51:04Z</time>
      </trkpt>
      <trkpt lat="50.38283" lon="3.24209">
        <ele>41.3</ele>
        <time>2015-07-18T14:51:06Z</time>
      </trkpt>
      <trkpt lat="50.38282" lon="3.24224">
        <ele>41.6</ele>
        <time>2015-07-18T14:51:08Z</time>
      </trkpt>
      <trkpt lat="50.38279" lon="3.2424">
        <ele>41.8</ele>
        <time>2015-07-18T14:51:10Z</time>
      </trkpt>
      <trkpt lat="50.38277" lon="3.24258">
        <ele>42</ele>
        <time>2015-07-18T14:51:12Z</time>
      </trkpt>
      <trkpt lat="50.38276" lon="3.24277">
        <ele>42.2</ele>
        <time>2015-07-18T14:51:14Z</time>
      </trkpt>
      <trkpt lat="50.38276" lon="3.24297">
        <ele>42.3</ele>
        <time>2015-07-18T14:51:16Z</time>
      </trkpt>
      <trkpt lat="50.38277" lon="3.24317">
        <ele>42.5</ele>
        <time>2015-07-18T14:51:18Z</time>
      </trkpt>
      <trkpt lat="50.38279" lon="3.24338">
        <ele>42.7</ele>
        <time>2015-07-18T14:51:20Z</time>
      </trkpt>
      <trkpt lat="50.38281" lon="3.24358">
        <ele>42.9</ele>
        <time>2015-07-18T14:51:22Z</time>
      </trkpt>
      <trkpt lat="50.38282" lon="3.24378">
        <ele>43.1</ele>
        <time>2015-07-18T14:51:24Z</time>
      </trkpt>
      <trkpt lat="50.38282" lon="3.24398">
        <ele>43.3</ele>
        <time>2015-07-18T14:51:26Z</time>
      </trkpt>
      <trkpt lat="50.38275" lon="3.24416">
        <ele>43.4</ele>
        <time>2015-07-18T14:51:28Z</time>
      </trkpt>
      <trkpt lat="50.38263" lon="3.24425">
        <ele>43.6</ele>
        <time>2015-07-18T14:51:30Z</time>
      </trkpt>
      <trkpt lat="50.38251" lon="3.24429">
        <ele>43.8</ele>
        <time>2015-07-18T14:51:32Z</time>
      </trkpt>
      <trkpt lat="50.38239" lon="3.24434">
        <ele>44.1</ele>
        <time>2015-07-18T14:51:34Z</time>
      </trkpt>
      <trkpt lat="50.38229" lon="3.24442">
        <ele>44.3</ele>
        <time>2015-07-18T14:51:36Z</time>
      </trkpt>
      <trkpt lat="50.3822" lon="3.24447">
        <ele>44.5</ele>
        <time>2015-07-18T14:51:38Z</time>
      </trkpt>
      <trkpt lat="50.3821" lon="3.24447">
        <ele>44.7</ele>
        <time>2015-07-18T14:51:40Z</time>
      </trkpt>
      <trkpt lat="50.382" lon="3.24448">
        <ele>44.8</ele>
        <time>2015-07-18T14:51:42Z</time>
      </trkpt>
      <trkpt lat="50.3819" lon="3.24449">
        <ele>45</ele>
        <time>2015-07-18T14:51:44Z</time>
      </trkpt>
      <trkpt lat="50.3818" lon="3.24451">
        <ele>45.1</ele>
        <time>2015-07-18T14:51:46Z</time>
      </trkpt>
      <trkpt lat="50.38171" lon="3.24455">
        <ele>45.3</ele>
        <time>2015-07-18T14:51:48Z</time>
      </trkpt>
      <trkpt lat="50.38158" lon="3.24464">
        <ele>45.6</ele>
        <time>2015-07-18T14:51:51Z</time>
      </trkpt>
      <trkpt lat="50.38151" lon="3.24472">
        <ele>45.8</ele>
        <time>2015-07-18T14:51:53Z</time>
      </trkpt>
      <trkpt lat="50.38142" lon="3.24479">
        <ele>46</ele>
        <time>2015-07-18T14:51:55Z</time>
      </trkpt>
      <trkpt lat="50.38132" lon="3.24486">
        <ele>46.3</ele>
        <time>2015-07-18T14:51:57Z</time>
      </trkpt>
      <trkpt lat="50.38121" lon="3.24488">
        <ele>46.6</ele>
        <time>2015-07-18T14:51:59Z</time>
      </trkpt>
      <trkpt lat="50.3811" lon="3.24486">
        <ele>47</ele>
        <time>2015-07-18T14:52:01Z</time>
      </trkpt>
      <trkpt lat="50.38098" lon="3.24487">
        <ele>47.7</ele>
        <time>2015-07-18T14:52:04Z</time>
      </trkpt>
      <trkpt lat="50.38091" lon="3.24497">
        <ele>48.2</ele>
        <time>2015-07-18T14:52:07Z</time>
      </trkpt>
      <trkpt lat="50.3809" lon="3.24513">
        <ele>48.9</ele>
        <time>2015-07-18T14:52:11Z</time>
      </trkpt>
      <trkpt lat="50.38095" lon="3.24528">
        <ele>49.5</ele>
        <time>2015-07-18T14:52:15Z</time>
      </trkpt>
      <trkpt lat="50.38097" lon="3.24543">
        <ele>50.1</ele>
        <time>2015-07-18T14:52:19Z</time>
      </trkpt>
      <trkpt lat="50.38092" lon="3.24556">
        <ele>51.1</ele>
        <time>2015-07-18T14:52:25Z</time>
      </trkpt>
      <trkpt lat="50.38083" lon="3.24561">
        <ele>52.1</ele>
        <time>2015-07-18T14:52:30Z</time>
      </trkpt>
      <trkpt lat="50.38078" lon="3.24548">
        <ele>53.2</ele>
        <time>2015-07-18T14:52:34Z</time>
      </trkpt>
      <trkpt lat="50.38082" lon="3.24536">
        <ele>54.6</ele>
        <time>2015-07-18T14:52:39Z</time>
      </trkpt>
      <trkpt lat="50.38088" lon="3.24519">
        <ele>59</ele>
        <time>2015-07-18T15:02:49Z</time>
      </trkpt>
      <trkpt lat="50.38092" lon="3.24498">
        <ele>58.4</ele>
        <time>2015-07-18T15:02:51Z</time>
      </trkpt>
      <trkpt lat="50.38096" lon="3.24485">
        <ele>57.7</ele>
        <time>2015-07-18T15:02:54Z</time>
      </trkpt>
      <trkpt lat="50.38105" lon="3.24488">
        <ele>53.4</ele>
        <time>2015-07-18T15:03:26Z</time>
      </trkpt>
      <trkpt lat="50.38116" lon="3.2449">
        <ele>53.2</ele>
        <time>2015-07-18T15:03:30Z</time>
      </trkpt>
      <trkpt lat="50.38127" lon="3.24491">
        <ele>52.8</ele>
        <time>2015-07-18T15:03:33Z</time>
      </trkpt>
      <trkpt lat="50.38137" lon="3.24488">
        <ele>52.5</ele>
        <time>2015-07-18T15:03:35Z</time>
      </trkpt>
      <trkpt lat="50.38145" lon="3.24482">
        <ele>52.2</ele>
        <time>2015-07-18T15:03:37Z</time>
      </trkpt>
      <trkpt lat="50.38155" lon="3.24481">
        <ele>51.8</ele>
        <time>2015-07-18T15:03:40Z</time>
      </trkpt>
      <trkpt lat="50.38162" lon="3.24495">
        <ele>50.7</ele>
        <time>2015-07-18T15:03:45Z</time>
      </trkpt>
      <trkpt lat="50.38159" lon="3.24515">
        <ele>49.8</ele>
        <time>2015-07-18T15:03:48Z</time>
      </trkpt>
      <trkpt lat="50.38158" lon="3.24529">
        <ele>48.9</ele>
        <time>2015-07-18T15:03:51Z</time>
      </trkpt>
      <trkpt lat="50.38159" lon="3.24544">
        <ele>48.4</ele>
        <time>2015-07-18T15:03:54Z</time>
      </trkpt>
      <trkpt lat="50.38157" lon="3.24558">
        <ele>48.1</ele>
        <time>2015-07-18T15:03:56Z</time>
      </trkpt>
      <trkpt lat="50.38154" lon="3.24577">
        <ele>47.8</ele>
        <time>2015-07-18T15:03:58Z</time>
      </trkpt>
      <trkpt lat="50.3815" lon="3.24598">
        <ele>47.2</ele>
        <time>2015-07-18T15:04:00Z</time>
      </trkpt>
      <trkpt lat="50.38142" lon="3.24618">
        <ele>46.7</ele>
        <time>2015-07-18T15:04:02Z</time>
      </trkpt>
      <trkpt lat="50.3813" lon="3.24635">
        <ele>46.2</ele>
        <time>2015-07-18T15:04:04Z</time>
      </trkpt>
      <trkpt lat="50.38117" lon="3.24646">
        <ele>45.7</ele>
        <time>2015-07-18T15:04:06Z</time>
      </trkpt>
      <trkpt lat="50.38102" lon="3.24651">
        <ele>45.2</ele>
        <time>2015-07-18T15:04:08Z</time>
      </trkpt>
      <trkpt lat="50.38086" lon="3.2465">
        <ele>44.7</ele>
        <time>2015-07-18T15:04:10Z</time>
      </trkpt>
      <trkpt lat="50.38068" lon="3.24644">
        <ele>44.3</ele>
        <time>2015-07-18T15:04:12Z</time>
      </trkpt>
      <trkpt lat="50.38053" lon="3.24635">
        <ele>43.9</ele>
        <time>2015-07-18T15:04:14Z</time>
      </trkpt>
      <trkpt lat="50.38042" lon="3.24626">
        <ele>43.5</ele>
        <time>2015-07-18T15:04:16Z</time>
      </trkpt>
      <trkpt lat="50.38034" lon="3.24617">
        <ele>43</ele>
        <time>2015-07-18T15:04:18Z</time>
      </trkpt>
      <trkpt lat="50.38026" lon="3.24606">
        <ele>42.3</ele>
        <time>2015-07-18T15:04:21Z</time>
      </trkpt>
      <trkpt lat="50.38028" lon="3.24624">
        <ele>40.9</ele>
        <time>2015-07-18T15:04:27Z</time>
      </trkpt>
      <trkpt lat="50.38035" lon="3.24635">
        <ele>40.5</ele>
        <time>2015-07-18T15:04:29Z</time>
      </trkpt>
      <trkpt lat="50.38043" lon="3.24645">
        <ele>40.1</ele>
        <time>2015-07-18T15:04:31Z</time>
      </trkpt>
      <trkpt lat="50.38052" lon="3.24654">
        <ele>39.8</ele>
        <time>2015-07-18T15:04:33Z</time>
      </trkpt>
      <trkpt lat="50.38062" lon="3.24662">
        <ele>39.5</ele>
        <time>2015-07-18T15:04:35Z</time>
      </trkpt>
      <trkpt lat="50.38072" lon="3.24668">
        <ele>39.2</ele>
        <time>2015-07-18T15:04:37Z</time>
      </trkpt>
      <trkpt lat="50.38082" lon="3.24673">
        <ele>38.9</ele>
        <time>2015-07-18T15:04:39Z</time>
      </trkpt>
      <trkpt lat="50.38093" lon="3.24677">
        <ele>38.6</ele>
        <time>2015-07-18T15:04:41Z</time>
      </trkpt>
      <trkpt lat="50.38104" lon="3.24681">
        <ele>38.3</ele>
        <time>2015-07-18T15:04:43Z</time>
      </trkpt>
      <trkpt lat="50.38113" lon="3.24685">
        <ele>38</ele>
        <time>2015-07-18T15:04:45Z</time>
      </trkpt>
      <trkpt lat="50.38107" lon="3.24699">
        <ele>36.9</ele>
        <time>2015-07-18T15:04:52Z</time>
      </trkpt>
      <trkpt lat="50.38096" lon="3.24699">
        <ele>36.6</ele>
        <time>2015-07-18T15:04:54Z</time>
      </trkpt>
      <trkpt lat="50.38085" lon="3.24697">
        <ele>36.2</ele>
        <time>2015-07-18T15:04:56Z</time>
      </trkpt>
      <trkpt lat="50.38072" lon="3.24694">
        <ele>35.8</ele>
        <time>2015-07-18T15:04:58Z</time>
      </trkpt>
      <trkpt lat="50.38058" lon="3.24689">
        <ele>35.3</ele>
        <time>2015-07-18T15:05:00Z</time>
      </trkpt>
      <trkpt lat="50.38045" lon="3.24684">
        <ele>34.9</ele>
        <time>2015-07-18T15:05:02Z</time>
      </trkpt>
      <trkpt lat="50.38032" lon="3.24677">
        <ele>34.5</ele>
        <time>2015-07-18T15:05:04Z</time>
      </trkpt>
      <trkpt lat="50.38021" lon="3.24669">
        <ele>34.1</ele>
        <time>2015-07-18T15:05:06Z</time>
      </trkpt>
      <trkpt lat="50.38008" lon="3.24661">
        <ele>33.8</ele>
        <time>2015-07-18T15:05:08Z</time>
      </trkpt>
      <trkpt lat="50.37996" lon="3.24654">
        <ele>33.5</ele>
        <time>2015-07-18T15:05:10Z</time>
      </trkpt>
      <trkpt lat="50.37983" lon="3.24648">
        <ele>33.1</ele>
        <time>2015-07-18T15:05:12Z</time>
      </trkpt>
      <trkpt lat="50.37971" lon="3.24643">
        <ele>32.7</ele>
        <time>2015-07-18T15:05:14Z</time>
      </trkpt>
      <trkpt lat="50.37959" lon="3.2464">
        <ele>32.4</ele>
        <time>2015-07-18T15:05:16Z</time>
      </trkpt>
      <trkpt lat="50.37948" lon="3.24638">
        <ele>32</ele>
        <time>2015-07-18T15:05:18Z</time>
      </trkpt>
      <trkpt lat="50.37938" lon="3.24637">
        <ele>31.7</ele>
        <time>2015-07-18T15:05:20Z</time>
      </trkpt>
      <trkpt lat="50.37929" lon="3.24636">
        <ele>31.5</ele>
        <time>2015-07-18T15:05:22Z</time>
      </trkpt>
      <trkpt lat="50.37916" lon="3.24642">
        <ele>31.1</ele>
        <time>2015-07-18T15:05:25Z</time>
      </trkpt>
      <trkpt lat="50.37906" lon="3.24655">
        <ele>30.8</ele>
        <time>2015-07-18T15:05:28Z</time>
      </trkpt>
      <trkpt lat="50.37902" lon="3.24668">
        <ele>30.7</ele>
        <time>2015-07-18T15:05:30Z</time>
      </trkpt>
      <trkpt lat="50.37897" lon="3.24687">
        <ele>30.5</ele>
        <time>2015-07-18T15:05:33Z</time>
      </trkpt>
      <trkpt lat="50.3789" lon="3.247">
        <ele>30.3</ele>
        <time>2015-07-18T15:05:36Z</time>
      </trkpt>
      <trkpt lat="50.37881" lon="3.24712">
        <ele>30.1</ele>
        <time>2015-07-18T15:05:39Z</time>
      </trkpt>
      <trkpt lat="50.37871" lon="3.24722">
        <ele>30</ele>
        <time>2015-07-18T15:05:42Z</time>
      </trkpt>
      <trkpt lat="50.37861" lon="3.2473">
        <ele>29.9</ele>
        <time>2015-07-18T15:05:45Z</time>
      </trkpt>
      <trkpt lat="50.3785" lon="3.24735">
        <ele>29.7</ele>
        <time>2015-07-18T15:05:48Z</time>
      </trkpt>
      <trkpt lat="50.37841" lon="3.2474">
        <ele>29.5</ele>
        <time>2015-07-18T15:05:51Z</time>
      </trkpt>
      <trkpt lat="50.37838" lon="3.24756">
        <ele>29.3</ele>
        <time>2015-07-18T15:05:54Z</time>
      </trkpt>
      <trkpt lat="50.37842" lon="3.24773">
        <ele>29.1</ele>
        <time>2015-07-18T15:05:57Z</time>
      </trkpt>
      <trkpt lat="50.37847" lon="3.24784">
        <ele>28.9</ele>
        <time>2015-07-18T15:06:00Z</time>
      </trkpt>
      <trkpt lat="50.37853" lon="3.24796">
        <ele>28.6</ele>
        <time>2015-07-18T15:06:06Z</time>
      </trkpt>
      <trkpt lat="50.37857" lon="3.24809">
        <ele>28.3</ele>
        <time>2015-07-18T15:06:11Z</time>
      </trkpt>
      <trkpt lat="50.37855" lon="3.24825">
        <ele>28</ele>
        <time>2015-07-18T15:06:16Z</time>
      </trkpt>
      <trkpt lat="50.37859" lon="3.24842">
        <ele>27.8</ele>
        <time>2015-07-18T15:06:21Z</time>
      </trkpt>
      <trkpt lat="50.37862" lon="3.24858">
        <ele>27.7</ele>
        <time>2015-07-18T15:06:25Z</time>
      </trkpt>
      <trkpt lat="50.37864" lon="3.24873">
        <ele>27.6</ele>
        <time>2015-07-18T15:06:28Z</time>
      </trkpt>
      <trkpt lat="50.37863" lon="3.24891">
        <ele>27.5</ele>
        <time>2015-07-18T15:06:31Z</time>
      </trkpt>
      <trkpt lat="50.3786" lon="3.24909">
        <ele>27.3</ele>
        <time>2015-07-18T15:06:34Z</time>
      </trkpt>
      <trkpt lat="50.37857" lon="3.24928">
        <ele>27.1</ele>
        <time>2015-07-18T15:06:37Z</time>
      </trkpt>
      <trkpt lat="50.37857" lon="3.24948">
        <ele>27</ele>
        <time>2015-07-18T15:06:40Z</time>
      </trkpt>
      <trkpt lat="50.37862" lon="3.24965">
        <ele>26.9</ele>
        <time>2015-07-18T15:06:43Z</time>
      </trkpt>
      <trkpt lat="50.37869" lon="3.24981">
        <ele>26.7</ele>
        <time>2015-07-18T15:06:46Z</time>
      </trkpt>
      <trkpt lat="50.37875" lon="3.24999">
        <ele>26.7</ele>
        <time>2015-07-18T15:06:49Z</time>
      </trkpt>
      <trkpt lat="50.3788" lon="3.25018">
        <ele>26.5</ele>
        <time>2015-07-18T15:06:52Z</time>
      </trkpt>
      <trkpt lat="50.37885" lon="3.25031">
        <ele>26.4</ele>
        <time>2015-07-18T15:06:54Z</time>
      </trkpt>
      <trkpt lat="50.3789" lon="3.2505">
        <ele>26.3</ele>
        <time>2015-07-18T15:06:57Z</time>
      </trkpt>
      <trkpt lat="50.37896" lon="3.25067">
        <ele>26.2</ele>
        <time>2015-07-18T15:07:00Z</time>
      </trkpt>
      <trkpt lat="50.379" lon="3.25082">
        <ele>26.1</ele>
        <time>2015-07-18T15:07:03Z</time>
      </trkpt>
      <trkpt lat="50.37907" lon="3.25097">
        <ele>26</ele>
        <time>2015-07-18T15:07:06Z</time>
      </trkpt>
      <trkpt lat="50.37915" lon="3.2511">
        <ele>25.9</ele>
        <time>2015-07-18T15:07:09Z</time>
      </trkpt>
      <trkpt lat="50.37924" lon="3.25124">
        <ele>25.9</ele>
        <time>2015-07-18T15:07:12Z</time>
      </trkpt>
      <trkpt lat="50.37935" lon="3.25134">
        <ele>25.8</ele>
        <time>2015-07-18T15:07:15Z</time>
      </trkpt>
      <trkpt lat="50.37944" lon="3.25141">
        <ele>25.7</ele>
        <time>2015-07-18T15:07:17Z</time>
      </trkpt>
      <trkpt lat="50.37951" lon="3.25149">
        <ele>25.7</ele>
        <time>2015-07-18T15:07:19Z</time>
      </trkpt>
      <trkpt lat="50.37958" lon="3.25158">
        <ele>25.6</ele>
        <time>2015-07-18T15:07:21Z</time>
      </trkpt>
      <trkpt lat="50.37969" lon="3.25169">
        <ele>25.6</ele>
        <time>2015-07-18T15:07:24Z</time>
      </trkpt>
      <trkpt lat="50.37979" lon="3.2518">
        <ele>25.5</ele>
        <time>2015-07-18T15:07:27Z</time>
      </trkpt>
      <trkpt lat="50.37987" lon="3.25191">
        <ele>25.5</ele>
        <time>2015-07-18T15:07:30Z</time>
      </trkpt>
      <trkpt lat="50.37989" lon="3.25208">
        <ele>25.4</ele>
        <time>2015-07-18T15:07:33Z</time>
      </trkpt>
      <trkpt lat="50.37992" lon="3.25225">
        <ele>25.4</ele>
        <time>2015-07-18T15:07:36Z</time>
      </trkpt>
      <trkpt lat="50.37996" lon="3.2524">
        <ele>25.4</ele>
        <time>2015-07-18T15:07:39Z</time>
      </trkpt>
      <trkpt lat="50.38005" lon="3.2525">
        <ele>25.4</ele>
        <time>2015-07-18T15:07:42Z</time>
      </trkpt>
      <trkpt lat="50.38013" lon="3.25258">
        <ele>25.5</ele>
        <time>2015-07-18T15:07:45Z</time>
      </trkpt>
      <trkpt lat="50.3802" lon="3.25269">
        <ele>26</ele>
        <time>2015-07-18T15:07:48Z</time>
      </trkpt>
      <trkpt lat="50.38029" lon="3.25276">
        <ele>26.4</ele>
        <time>2015-07-18T15:07:51Z</time>
      </trkpt>
      <trkpt lat="50.38039" lon="3.25281">
        <ele>26.6</ele>
        <time>2015-07-18T15:07:53Z</time>
      </trkpt>
      <trkpt lat="50.38051" lon="3.25288">
        <ele>26.7</ele>
        <time>2015-07-18T15:07:55Z</time>
      </trkpt>
      <trkpt lat="50.38064" lon="3.25297">
        <ele>26.8</ele>
        <time>2015-07-18T15:07:57Z</time>
      </trkpt>
      <trkpt lat="50.38076" lon="3.25304">
        <ele>26.8</ele>
        <time>2015-07-18T15:07:59Z</time>
      </trkpt>
      <trkpt lat="50.38087" lon="3.25312">
        <ele>26.7</ele>
        <time>2015-07-18T15:08:01Z</time>
      </trkpt>
      <trkpt lat="50.38099" lon="3.25317">
        <ele>26.7</ele>
        <time>2015-07-18T15:08:03Z</time>
      </trkpt>
      <trkpt lat="50.38111" lon="3.2532">
        <ele>26.8</ele>
        <time>2015-07-18T15:08:05Z</time>
      </trkpt>
      <trkpt lat="50.38122" lon="3.25321">
        <ele>26.9</ele>
        <time>2015-07-18T15:08:07Z</time>
      </trkpt>
      <trkpt lat="50.38132" lon="3.25319">
        <ele>27.1</ele>
        <time>2015-07-18T15:08:09Z</time>
      </trkpt>
      <trkpt lat="50.38142" lon="3.25322">
        <ele>27.7</ele>
        <time>2015-07-18T15:08:12Z</time>
      </trkpt>
      <trkpt lat="50.38153" lon="3.2533">
        <ele>28.5</ele>
        <time>2015-07-18T15:08:16Z</time>
      </trkpt>
      <trkpt lat="50.38165" lon="3.25335">
        <ele>29.3</ele>
        <time>2015-07-18T15:08:20Z</time>
      </trkpt>
      <trkpt lat="50.38176" lon="3.25336">
        <ele>29.8</ele>
        <time>2015-07-18T15:08:23Z</time>
      </trkpt>
      <trkpt lat="50.38184" lon="3.25339">
        <ele>30.1</ele>
        <time>2015-07-18T15:08:25Z</time>
      </trkpt>
      <trkpt lat="50.38197" lon="3.25346">
        <ele>30.4</ele>
        <time>2015-07-18T15:08:28Z</time>
      </trkpt>
      <trkpt lat="50.38209" lon="3.25349">
        <ele>30.7</ele>
        <time>2015-07-18T15:08:31Z</time>
      </trkpt>
      <trkpt lat="50.38219" lon="3.25346">
        <ele>30.9</ele>
        <time>2015-07-18T15:08:33Z</time>
      </trkpt>
      <trkpt lat="50.38228" lon="3.25342">
        <ele>31.1</ele>
        <time>2015-07-18T15:08:35Z</time>
      </trkpt>
      <trkpt lat="50.38237" lon="3.2534">
        <ele>31.2</ele>
        <time>2015-07-18T15:08:37Z</time>
      </trkpt>
      <trkpt lat="50.38247" lon="3.25337">
        <ele>31.4</ele>
        <time>2015-07-18T15:08:39Z</time>
      </trkpt>
      <trkpt lat="50.38259" lon="3.2533">
        <ele>31.5</ele>
        <time>2015-07-18T15:08:42Z</time>
      </trkpt>
      <trkpt lat="50.38269" lon="3.25326">
        <ele>31.6</ele>
        <time>2015-07-18T15:08:44Z</time>
      </trkpt>
      <trkpt lat="50.3828" lon="3.25323">
        <ele>31.7</ele>
        <time>2015-07-18T15:08:46Z</time>
      </trkpt>
      <trkpt lat="50.3829" lon="3.25317">
        <ele>31.7</ele>
        <time>2015-07-18T15:08:48Z</time>
      </trkpt>
      <trkpt lat="50.38299" lon="3.25311">
        <ele>31.8</ele>
        <time>2015-07-18T15:08:50Z</time>
      </trkpt>
      <trkpt lat="50.38308" lon="3.25306">
        <ele>31.8</ele>
        <time>2015-07-18T15:08:52Z</time>
      </trkpt>
      <trkpt lat="50.3832" lon="3.25299">
        <ele>31.8</ele>
        <time>2015-07-18T15:08:55Z</time>
      </trkpt>
      <trkpt lat="50.3833" lon="3.25293">
        <ele>31.6</ele>
        <time>2015-07-18T15:08:58Z</time>
      </trkpt>
      <trkpt lat="50.38336" lon="3.25281">
        <ele>31.4</ele>
        <time>2015-07-18T15:09:00Z</time>
      </trkpt>
      <trkpt lat="50.38341" lon="3.25267">
        <ele>31.3</ele>
        <time>2015-07-18T15:09:02Z</time>
      </trkpt>
      <trkpt lat="50.38349" lon="3.25259">
        <ele>30.7</ele>
        <time>2015-07-18T15:09:11Z</time>
      </trkpt>
      <trkpt lat="50.38358" lon="3.2526">
        <ele>31.1</ele>
        <time>2015-07-18T15:09:20Z</time>
      </trkpt>
      <trkpt lat="50.38368" lon="3.25253">
        <ele>31.9</ele>
        <time>2015-07-18T15:09:31Z</time>
      </trkpt>
      <trkpt lat="50.38379" lon="3.25245">
        <ele>32</ele>
        <time>2015-07-18T15:09:34Z</time>
      </trkpt>
      <trkpt lat="50.38389" lon="3.25234">
        <ele>32.1</ele>
        <time>2015-07-18T15:09:37Z</time>
      </trkpt>
      <trkpt lat="50.38397" lon="3.25224">
        <ele>32.2</ele>
        <time>2015-07-18T15:09:39Z</time>
      </trkpt>
      <trkpt lat="50.38406" lon="3.25209">
        <ele>32.1</ele>
        <time>2015-07-18T15:09:41Z</time>
      </trkpt>
      <trkpt lat="50.38414" lon="3.25194">
        <ele>32.1</ele>
        <time>2015-07-18T15:09:43Z</time>
      </trkpt>
      <trkpt lat="50.38421" lon="3.25177">
        <ele>32.1</ele>
        <time>2015-07-18T15:09:45Z</time>
      </trkpt>
      <trkpt lat="50.38428" lon="3.25165">
        <ele>32.1</ele>
        <time>2015-07-18T15:09:47Z</time>
      </trkpt>
      <trkpt lat="50.38436" lon="3.25153">
        <ele>32.1</ele>
        <time>2015-07-18T15:09:49Z</time>
      </trkpt>
      <trkpt lat="50.38445" lon="3.25141">
        <ele>32.2</ele>
        <time>2015-07-18T15:09:52Z</time>
      </trkpt>
      <trkpt lat="50.38456" lon="3.25134">
        <ele>32.3</ele>
        <time>2015-07-18T15:09:55Z</time>
      </trkpt>
      <trkpt lat="50.38467" lon="3.25129">
        <ele>32.3</ele>
        <time>2015-07-18T15:09:57Z</time>
      </trkpt>
      <trkpt lat="50.38479" lon="3.25119">
        <ele>32.2</ele>
        <time>2015-07-18T15:09:59Z</time>
      </trkpt>
      <trkpt lat="50.38491" lon="3.25104">
        <ele>32</ele>
        <time>2015-07-18T15:10:01Z</time>
      </trkpt>
      <trkpt lat="50.38502" lon="3.25088">
        <ele>31.8</ele>
        <time>2015-07-18T15:10:03Z</time>
      </trkpt>
      <trkpt lat="50.38511" lon="3.25074">
        <ele>31.5</ele>
        <time>2015-07-18T15:10:05Z</time>
      </trkpt>
      <trkpt lat="50.38518" lon="3.2506">
        <ele>31.4</ele>
        <time>2015-07-18T15:10:07Z</time>
      </trkpt>
      <trkpt lat="50.38524" lon="3.2505">
        <ele>31.4</ele>
        <time>2015-07-18T15:10:09Z</time>
      </trkpt>
      <trkpt lat="50.38533" lon="3.25038">
        <ele>31.5</ele>
        <time>2015-07-18T15:10:12Z</time>
      </trkpt>
      <trkpt lat="50.38542" lon="3.25026">
        <ele>31.6</ele>
        <time>2015-07-18T15:10:15Z</time>
      </trkpt>
      <trkpt lat="50.38548" lon="3.25015">
        <ele>31.7</ele>
        <time>2015-07-18T15:10:17Z</time>
      </trkpt>
      <trkpt lat="50.38554" lon="3.25001">
        <ele>31.7</ele>
        <time>2015-07-18T15:10:19Z</time>
      </trkpt>
      <trkpt lat="50.38557" lon="3.24982">
        <ele>31.6</ele>
        <time>2015-07-18T15:10:21Z</time>
      </trkpt>
      <trkpt lat="50.38556" lon="3.2496">
        <ele>31.4</ele>
        <time>2015-07-18T15:10:23Z</time>
      </trkpt>
      <trkpt lat="50.38552" lon="3.24938">
        <ele>31.2</ele>
        <time>2015-07-18T15:10:25Z</time>
      </trkpt>
      <trkpt lat="50.38547" lon="3.24921">
        <ele>31</ele>
        <time>2015-07-18T15:10:27Z</time>
      </trkpt>
      <trkpt lat="50.3854" lon="3.24908">
        <ele>30.8</ele>
        <time>2015-07-18T15:10:29Z</time>
      </trkpt>
      <trkpt lat="50.38537" lon="3.24893">
        <ele>30.6</ele>
        <time>2015-07-18T15:10:31Z</time>
      </trkpt>
      <trkpt lat="50.3854" lon="3.24878">
        <ele>30.5</ele>
        <time>2015-07-18T15:10:33Z</time>
      </trkpt>
      <trkpt lat="50.38544" lon="3.24865">
        <ele>30.2</ele>
        <time>2015-07-18T15:10:35Z</time>
      </trkpt>
      <trkpt lat="50.38545" lon="3.2485">
        <ele>29.4</ele>
        <time>2015-07-18T15:10:41Z</time>
      </trkpt>
      <trkpt lat="50.38555" lon="3.24849">
        <ele>26.6</ele>
        <time>2015-07-18T15:11:52Z</time>
      </trkpt>
      <trkpt lat="50.38564" lon="3.24845">
        <ele>26.5</ele>
        <time>2015-07-18T15:11:58Z</time>
      </trkpt>
      <trkpt lat="50.38568" lon="3.2483">
        <ele>26.5</ele>
        <time>2015-07-18T15:12:08Z</time>
      </trkpt>
      <trkpt lat="50.38571" lon="3.24811">
        <ele>26.5</ele>
        <time>2015-07-18T15:12:12Z</time>
      </trkpt>
      <trkpt lat="50.38574" lon="3.24794">
        <ele>26.5</ele>
        <time>2015-07-18T15:12:15Z</time>
      </trkpt>
      <trkpt lat="50.38579" lon="3.24777">
        <ele>26.5</ele>
        <time>2015-07-18T15:12:18Z</time>
      </trkpt>
      <trkpt lat="50.38584" lon="3.24758">
        <ele>26.5</ele>
        <time>2015-07-18T15:12:21Z</time>
      </trkpt>
      <trkpt lat="50.38587" lon="3.24745">
        <ele>26.5</ele>
        <time>2015-07-18T15:12:23Z</time>
      </trkpt>
      <trkpt lat="50.38591" lon="3.24732">
        <ele>26.5</ele>
        <time>2015-07-18T15:12:25Z</time>
      </trkpt>
      <trkpt lat="50.38596" lon="3.24712">
        <ele>26.5</ele>
        <time>2015-07-18T15:12:28Z</time>
      </trkpt>
      <trkpt lat="50.386" lon="3.247">
        <ele>26.4</ele>
        <time>2015-07-18T15:12:30Z</time>
      </trkpt>
      <trkpt lat="50.38603" lon="3.24686">
        <ele>26.4</ele>
        <time>2015-07-18T15:12:32Z</time>
      </trkpt>
      <trkpt lat="50.38607" lon="3.24668">
        <ele>26.4</ele>
        <time>2015-07-18T15:12:35Z</time>
      </trkpt>
      <trkpt lat="50.38612" lon="3.2465">
        <ele>26.4</ele>
        <time>2015-07-18T15:12:38Z</time>
      </trkpt>
      <trkpt lat="50.38617" lon="3.24634">
        <ele>26.3</ele>
        <time>2015-07-18T15:12:41Z</time>
      </trkpt>
      <trkpt lat="50.38623" lon="3.2462">
        <ele>26.3</ele>
        <time>2015-07-18T15:12:44Z</time>
      </trkpt>
      <trkpt lat="50.38629" lon="3.24601">
        <ele>26.2</ele>
        <time>2015-07-18T15:12:47Z</time>
      </trkpt>
      <trkpt lat="50.38631" lon="3.24586">
        <ele>26.2</ele>
        <time>2015-07-18T15:12:49Z</time>
      </trkpt>
      <trkpt lat="50.38633" lon="3.24569">
        <ele>26.2</ele>
        <time>2015-07-18T15:12:51Z</time>
      </trkpt>
      <trkpt lat="50.38636" lon="3.24552">
        <ele>26.1</ele>
        <time>2015-07-18T15:12:53Z</time>
      </trkpt>
      <trkpt lat="50.38639" lon="3.24533">
        <ele>26.1</ele>
        <time>2015-07-18T15:12:55Z</time>
      </trkpt>
      <trkpt lat="50.38642" lon="3.24514">
        <ele>26.1</ele>
        <time>2015-07-18T15:12:57Z</time>
      </trkpt>
      <trkpt lat="50.38646" lon="3.24496">
        <ele>26.1</ele>
        <time>2015-07-18T15:12:59Z</time>
      </trkpt>
      <trkpt lat="50.3865" lon="3.24477">
        <ele>26</ele>
        <time>2015-07-18T15:13:01Z</time>
      </trkpt>
      <trkpt lat="50.38654" lon="3.24458">
        <ele>26</ele>
        <time>2015-07-18T15:13:03Z</time>
      </trkpt>
      <trkpt lat="50.38657" lon="3.24439">
        <ele>26</ele>
        <time>2015-07-18T15:13:05Z</time>
      </trkpt>
      <trkpt lat="50.38661" lon="3.24421">
        <ele>26</ele>
        <time>2015-07-18T15:13:07Z</time>
      </trkpt>
      <trkpt lat="50.38664" lon="3.24402">
        <ele>26</ele>
        <time>2015-07-18T15:13:09Z</time>
      </trkpt>
      <trkpt lat="50.38668" lon="3.24382">
        <ele>26</ele>
        <time>2015-07-18T15:13:11Z</time>
      </trkpt>
      <trkpt lat="50.38672" lon="3.24362">
        <ele>26</ele>
        <time>2015-07-18T15:13:13Z</time>
      </trkpt>
      <trkpt lat="50.38676" lon="3.24341">
        <ele>26</ele>
        <time>2015-07-18T15:13:15Z</time>
      </trkpt>
      <trkpt lat="50.3868" lon="3.2432">
        <ele>26</ele>
        <time>2015-07-18T15:13:17Z</time>
      </trkpt>
      <trkpt lat="50.38684" lon="3.243">
        <ele>26</ele>
        <time>2015-07-18T15:13:19Z</time>
      </trkpt>
      <trkpt lat="50.38688" lon="3.2428">
        <ele>26</ele>
        <time>2015-07-18T15:13:21Z</time>
      </trkpt>
      <trkpt lat="50.38692" lon="3.2426">
        <ele>26</ele>
        <time>2015-07-18T15:13:23Z</time>
      </trkpt>
      <trkpt lat="50.38695" lon="3.24241">
        <ele>26</ele>
        <time>2015-07-18T15:13:25Z</time>
      </trkpt>
      <trkpt lat="50.38698" lon="3.24223">
        <ele>26</ele>
        <time>2015-07-18T15:13:27Z</time>
      </trkpt>
      <trkpt lat="50.38701" lon="3.24205">
        <ele>26</ele>
        <time>2015-07-18T15:13:29Z</time>
      </trkpt>
      <trkpt lat="50.38705" lon="3.24187">
        <ele>26</ele>
        <time>2015-07-18T15:13:31Z</time>
      </trkpt>
      <trkpt lat="50.38708" lon="3.24167">
        <ele>25.9</ele>
        <time>2015-07-18T15:13:33Z</time>
      </trkpt>
      <trkpt lat="50.38711" lon="3.24147">
        <ele>25.9</ele>
        <time>2015-07-18T15:13:35Z</time>
      </trkpt>
      <trkpt lat="50.38715" lon="3.24126">
        <ele>25.9</ele>
        <time>2015-07-18T15:13:37Z</time>
      </trkpt>
      <trkpt lat="50.38718" lon="3.24106">
        <ele>25.9</ele>
        <time>2015-07-18T15:13:39Z</time>
      </trkpt>
      <trkpt lat="50.38722" lon="3.24086">
        <ele>25.9</ele>
        <time>2015-07-18T15:13:41Z</time>
      </trkpt>
      <trkpt lat="50.38726" lon="3.24066">
        <ele>25.9</ele>
        <time>2015-07-18T15:13:43Z</time>
      </trkpt>
      <trkpt lat="50.3873" lon="3.24046">
        <ele>25.9</ele>
        <time>2015-07-18T15:13:45Z</time>
      </trkpt>
      <trkpt lat="50.38734" lon="3.24026">
        <ele>25.9</ele>
        <time>2015-07-18T15:13:47Z</time>
      </trkpt>
      <trkpt lat="50.38738" lon="3.24007">
        <ele>25.9</ele>
        <time>2015-07-18T15:13:49Z</time>
      </trkpt>
      <trkpt lat="50.38741" lon="3.23988">
        <ele>25.9</ele>
        <time>2015-07-18T15:13:51Z</time>
      </trkpt>
      <trkpt lat="50.38744" lon="3.23969">
        <ele>25.9</ele>
        <time>2015-07-18T15:13:53Z</time>
      </trkpt>
      <trkpt lat="50.38747" lon="3.23951">
        <ele>25.9</ele>
        <time>2015-07-18T15:13:55Z</time>
      </trkpt>
      <trkpt lat="50.3875" lon="3.23933">
        <ele>25.9</ele>
        <time>2015-07-18T15:13:57Z</time>
      </trkpt>
      <trkpt lat="50.38752" lon="3.23915">
        <ele>25.9</ele>
        <time>2015-07-18T15:13:59Z</time>
      </trkpt>
      <trkpt lat="50.38755" lon="3.23896">
        <ele>26</ele>
        <time>2015-07-18T15:14:01Z</time>
      </trkpt>
      <trkpt lat="50.38758" lon="3.23878">
        <ele>26</ele>
        <time>2015-07-18T15:14:03Z</time>
      </trkpt>
      <trkpt lat="50.38761" lon="3.23859">
        <ele>26</ele>
        <time>2015-07-18T15:14:05Z</time>
      </trkpt>
      <trkpt lat="50.38764" lon="3.23841">
        <ele>26</ele>
        <time>2015-07-18T15:14:07Z</time>
      </trkpt>
      <trkpt lat="50.38768" lon="3.23822">
        <ele>26.1</ele>
        <time>2015-07-18T15:14:09Z</time>
      </trkpt>
      <trkpt lat="50.38771" lon="3.23804">
        <ele>26.1</ele>
        <time>2015-07-18T15:14:11Z</time>
      </trkpt>
      <trkpt lat="50.38775" lon="3.23785">
        <ele>26.1</ele>
        <time>2015-07-18T15:14:13Z</time>
      </trkpt>
      <trkpt lat="50.38778" lon="3.23767">
        <ele>26.1</ele>
        <time>2015-07-18T15:14:15Z</time>
      </trkpt>
      <trkpt lat="50.38781" lon="3.23748">
        <ele>26.1</ele>
        <time>2015-07-18T15:14:17Z</time>
      </trkpt>
      <trkpt lat="50.38785" lon="3.2373">
        <ele>26.1</ele>
        <time>2015-07-18T15:14:19Z</time>
      </trkpt>
      <trkpt lat="50.38788" lon="3.23712">
        <ele>26.1</ele>
        <time>2015-07-18T15:14:21Z</time>
      </trkpt>
      <trkpt lat="50.3879" lon="3.23695">
        <ele>26.1</ele>
        <time>2015-07-18T15:14:23Z</time>
      </trkpt>
      <trkpt lat="50.3879" lon="3.23678">
        <ele>26.1</ele>
        <time>2015-07-18T15:14:25Z</time>
      </trkpt>
      <trkpt lat="50.38789" lon="3.2366">
        <ele>26.1</ele>
        <time>2015-07-18T15:14:27Z</time>
      </trkpt>
      <trkpt lat="50.38789" lon="3.23644">
        <ele>26.1</ele>
        <time>2015-07-18T15:14:29Z</time>
      </trkpt>
      <trkpt lat="50.38787" lon="3.23628">
        <ele>26.2</ele>
        <time>2015-07-18T15:14:31Z</time>
      </trkpt>
      <trkpt lat="50.38786" lon="3.23611">
        <ele>26.2</ele>
        <time>2015-07-18T15:14:33Z</time>
      </trkpt>
      <trkpt lat="50.38788" lon="3.23594">
        <ele>26.2</ele>
        <time>2015-07-18T15:14:35Z</time>
      </trkpt>
      <trkpt lat="50.38789" lon="3.23577">
        <ele>26.2</ele>
        <time>2015-07-18T15:14:37Z</time>
      </trkpt>
      <trkpt lat="50.38784" lon="3.23563">
        <ele>26.3</ele>
        <time>2015-07-18T15:14:39Z</time>
      </trkpt>
      <trkpt lat="50.38775" lon="3.23555">
        <ele>26.4</ele>
        <time>2015-07-18T15:14:41Z</time>
      </trkpt>
      <trkpt lat="50.38766" lon="3.23546">
        <ele>26.5</ele>
        <time>2015-07-18T15:14:43Z</time>
      </trkpt>
      <trkpt lat="50.38758" lon="3.23532">
        <ele>26.6</ele>
        <time>2015-07-18T15:14:45Z</time>
      </trkpt>
      <trkpt lat="50.38753" lon="3.23513">
        <ele>26.6</ele>
        <time>2015-07-18T15:14:47Z</time>
      </trkpt>
      <trkpt lat="50.38751" lon="3.23493">
        <ele>26.7</ele>
        <time>2015-07-18T15:14:49Z</time>
      </trkpt>
      <trkpt lat="50.38748" lon="3.23471">
        <ele>26.7</ele>
        <time>2015-07-18T15:14:51Z</time>
      </trkpt>
      <trkpt lat="50.38746" lon="3.23451">
        <ele>26.7</ele>
        <time>2015-07-18T15:14:53Z</time>
      </trkpt>
      <trkpt lat="50.38744" lon="3.2343">
        <ele>26.8</ele>
        <time>2015-07-18T15:14:55Z</time>
      </trkpt>
      <trkpt lat="50.38741" lon="3.2341">
        <ele>26.8</ele>
        <time>2015-07-18T15:14:57Z</time>
      </trkpt>
      <trkpt lat="50.38737" lon="3.2339">
        <ele>26.8</ele>
        <time>2015-07-18T15:14:59Z</time>
      </trkpt>
      <trkpt lat="50.38733" lon="3.2337">
        <ele>26.9</ele>
        <time>2015-07-18T15:15:01Z</time>
      </trkpt>
      <trkpt lat="50.38729" lon="3.23349">
        <ele>26.9</ele>
        <time>2015-07-18T15:15:03Z</time>
      </trkpt>
      <trkpt lat="50.38724" lon="3.23329">
        <ele>26.9</ele>
        <time>2015-07-18T15:15:05Z</time>
      </trkpt>
      <trkpt lat="50.38719" lon="3.23309">
        <ele>26.9</ele>
        <time>2015-07-18T15:15:07Z</time>
      </trkpt>
      <trkpt lat="50.38715" lon="3.23289">
        <ele>26.9</ele>
        <time>2015-07-18T15:15:09Z</time>
      </trkpt>
      <trkpt lat="50.3871" lon="3.23268">
        <ele>26.9</ele>
        <time>2015-07-18T15:15:11Z</time>
      </trkpt>
      <trkpt lat="50.38705" lon="3.23247">
        <ele>26.9</ele>
        <time>2015-07-18T15:15:13Z</time>
      </trkpt>
      <trkpt lat="50.387" lon="3.23225">
        <ele>26.9</ele>
        <time>2015-07-18T15:15:15Z</time>
      </trkpt>
      <trkpt lat="50.38694" lon="3.23203">
        <ele>27</ele>
        <time>2015-07-18T15:15:17Z</time>
      </trkpt>
      <trkpt lat="50.38689" lon="3.23181">
        <ele>26.9</ele>
        <time>2015-07-18T15:15:19Z</time>
      </trkpt>
      <trkpt lat="50.38684" lon="3.2316">
        <ele>27</ele>
        <time>2015-07-18T15:15:21Z</time>
      </trkpt>
      <trkpt lat="50.38679" lon="3.23139">
        <ele>27</ele>
        <time>2015-07-18T15:15:23Z</time>
      </trkpt>
      <trkpt lat="50.38674" lon="3.23118">
        <ele>27</ele>
        <time>2015-07-18T15:15:25Z</time>
      </trkpt>
      <trkpt lat="50.38669" lon="3.23097">
        <ele>27.1</ele>
        <time>2015-07-18T15:15:27Z</time>
      </trkpt>
      <trkpt lat="50.38664" lon="3.23076">
        <ele>27.1</ele>
        <time>2015-07-18T15:15:29Z</time>
      </trkpt>
      <trkpt lat="50.38658" lon="3.23055">
        <ele>27.1</ele>
        <time>2015-07-18T15:15:31Z</time>
      </trkpt>
      <trkpt lat="50.38653" lon="3.23034">
        <ele>27.1</ele>
        <time>2015-07-18T15:15:33Z</time>
      </trkpt>
      <trkpt lat="50.38648" lon="3.23013">
        <ele>27.1</ele>
        <time>2015-07-18T15:15:35Z</time>
      </trkpt>
      <trkpt lat="50.38643" lon="3.22991">
        <ele>27.1</ele>
        <time>2015-07-18T15:15:37Z</time>
      </trkpt>
      <trkpt lat="50.38637" lon="3.22969">
        <ele>27.1</ele>
        <time>2015-07-18T15:15:39Z</time>
      </trkpt>
      <trkpt lat="50.38632" lon="3.22947">
        <ele>27.1</ele>
        <time>2015-07-18T15:15:41Z</time>
      </trkpt>
      <trkpt lat="50.38627" lon="3.22926">
        <ele>27.1</ele>
        <time>2015-07-18T15:15:43Z</time>
      </trkpt>
      <trkpt lat="50.38621" lon="3.22905">
        <ele>27.1</ele>
        <time>2015-07-18T15:15:45Z</time>
      </trkpt>
      <trkpt lat="50.38617" lon="3.22884">
        <ele>27.1</ele>
        <time>2015-07-18T15:15:47Z</time>
      </trkpt>
      <trkpt lat="50.38612" lon="3.22862">
        <ele>27.2</ele>
        <time>2015-07-18T15:15:49Z</time>
      </trkpt>
      <trkpt lat="50.38606" lon="3.2284">
        <ele>27.2</ele>
        <time>2015-07-18T15:15:51Z</time>
      </trkpt>
      <trkpt lat="50.38601" lon="3.22818">
        <ele>27.2</ele>
        <time>2015-07-18T15:15:53Z</time>
      </trkpt>
      <trkpt lat="50.38596" lon="3.22797">
        <ele>27.2</ele>
        <time>2015-07-18T15:15:55Z</time>
      </trkpt>
      <trkpt lat="50.38591" lon="3.22775">
        <ele>27.2</ele>
        <time>2015-07-18T15:15:57Z</time>
      </trkpt>
      <trkpt lat="50.38586" lon="3.22753">
        <ele>27.2</ele>
        <time>2015-07-18T15:15:59Z</time>
      </trkpt>
      <trkpt lat="50.3858" lon="3.22731">
        <ele>27.2</ele>
        <time>2015-07-18T15:16:01Z</time>
      </trkpt>
      <trkpt lat="50.38575" lon="3.2271">
        <ele>27.3</ele>
        <time>2015-07-18T15:16:03Z</time>
      </trkpt>
      <trkpt lat="50.3857" lon="3.2269">
        <ele>27.4</ele>
        <time>2015-07-18T15:16:05Z</time>
      </trkpt>
      <trkpt lat="50.38565" lon="3.22669">
        <ele>27.4</ele>
        <time>2015-07-18T15:16:07Z</time>
      </trkpt>
      <trkpt lat="50.3856" lon="3.22649">
        <ele>27.5</ele>
        <time>2015-07-18T15:16:09Z</time>
      </trkpt>
      <trkpt lat="50.38555" lon="3.22628">
        <ele>27.5</ele>
        <time>2015-07-18T15:16:11Z</time>
      </trkpt>
      <trkpt lat="50.3855" lon="3.22608">
        <ele>27.6</ele>
        <time>2015-07-18T15:16:13Z</time>
      </trkpt>
      <trkpt lat="50.38545" lon="3.22587">
        <ele>27.6</ele>
        <time>2015-07-18T15:16:15Z</time>
      </trkpt>
      <trkpt lat="50.3854" lon="3.22566">
        <ele>27.6</ele>
        <time>2015-07-18T15:16:17Z</time>
      </trkpt>
      <trkpt lat="50.38535" lon="3.22546">
        <ele>27.7</ele>
        <time>2015-07-18T15:16:19Z</time>
      </trkpt>
      <trkpt lat="50.3853" lon="3.22526">
        <ele>27.7</ele>
        <time>2015-07-18T15:16:21Z</time>
      </trkpt>
      <trkpt lat="50.38526" lon="3.22505">
        <ele>27.7</ele>
        <time>2015-07-18T15:16:23Z</time>
      </trkpt>
      <trkpt lat="50.38521" lon="3.22485">
        <ele>27.7</ele>
        <time>2015-07-18T15:16:25Z</time>
      </trkpt>
      <trkpt lat="50.38516" lon="3.22464">
        <ele>27.7</ele>
        <time>2015-07-18T15:16:27Z</time>
      </trkpt>
      <trkpt lat="50.38511" lon="3.22443">
        <ele>27.7</ele>
        <time>2015-07-18T15:16:29Z</time>
      </trkpt>
      <trkpt lat="50.38506" lon="3.22423">
        <ele>27.8</ele>
        <time>2015-07-18T15:16:31Z</time>
      </trkpt>
      <trkpt lat="50.385" lon="3.22403">
        <ele>27.8</ele>
        <time>2015-07-18T15:16:33Z</time>
      </trkpt>
      <trkpt lat="50.38495" lon="3.22383">
        <ele>27.8</ele>
        <time>2015-07-18T15:16:35Z</time>
      </trkpt>
      <trkpt lat="50.38489" lon="3.22363">
        <ele>27.8</ele>
        <time>2015-07-18T15:16:37Z</time>
      </trkpt>
      <trkpt lat="50.38483" lon="3.22342">
        <ele>27.8</ele>
        <time>2015-07-18T15:16:39Z</time>
      </trkpt>
      <trkpt lat="50.38478" lon="3.22322">
        <ele>27.9</ele>
        <time>2015-07-18T15:16:41Z</time>
      </trkpt>
      <trkpt lat="50.38472" lon="3.22302">
        <ele>27.9</ele>
        <time>2015-07-18T15:16:43Z</time>
      </trkpt>
      <trkpt lat="50.38466" lon="3.22283">
        <ele>27.9</ele>
        <time>2015-07-18T15:16:45Z</time>
      </trkpt>
      <trkpt lat="50.38459" lon="3.22264">
        <ele>28</ele>
        <time>2015-07-18T15:16:47Z</time>
      </trkpt>
      <trkpt lat="50.38451" lon="3.22245">
        <ele>28</ele>
        <time>2015-07-18T15:16:49Z</time>
      </trkpt>
      <trkpt lat="50.38444" lon="3.22227">
        <ele>28</ele>
        <time>2015-07-18T15:16:51Z</time>
      </trkpt>
      <trkpt lat="50.38437" lon="3.2221">
        <ele>28</ele>
        <time>2015-07-18T15:16:53Z</time>
      </trkpt>
      <trkpt lat="50.38429" lon="3.22195">
        <ele>28.1</ele>
        <time>2015-07-18T15:16:55Z</time>
      </trkpt>
      <trkpt lat="50.38422" lon="3.22181">
        <ele>28.1</ele>
        <time>2015-07-18T15:16:57Z</time>
      </trkpt>
      <trkpt lat="50.38415" lon="3.22168">
        <ele>28.1</ele>
        <time>2015-07-18T15:16:59Z</time>
      </trkpt>
      <trkpt lat="50.38409" lon="3.22157">
        <ele>28.1</ele>
        <time>2015-07-18T15:17:01Z</time>
      </trkpt>
      <trkpt lat="50.38403" lon="3.22145">
        <ele>28.1</ele>
        <time>2015-07-18T15:17:04Z</time>
      </trkpt>
      <trkpt lat="50.38397" lon="3.22131">
        <ele>28.1</ele>
        <time>2015-07-18T15:17:07Z</time>
      </trkpt>
      <trkpt lat="50.3839" lon="3.22118">
        <ele>28.2</ele>
        <time>2015-07-18T15:17:10Z</time>
      </trkpt>
      <trkpt lat="50.38384" lon="3.22102">
        <ele>28.2</ele>
        <time>2015-07-18T15:17:13Z</time>
      </trkpt>
      <trkpt lat="50.38382" lon="3.22084">
        <ele>28.3</ele>
        <time>2015-07-18T15:17:16Z</time>
      </trkpt>
      <trkpt lat="50.3838" lon="3.22067">
        <ele>28.4</ele>
        <time>2015-07-18T15:17:19Z</time>
      </trkpt>
      <trkpt lat="50.38372" lon="3.22057">
        <ele>28.5</ele>
        <time>2015-07-18T15:17:22Z</time>
      </trkpt>
      <trkpt lat="50.38363" lon="3.22056">
        <ele>28.6</ele>
        <time>2015-07-18T15:17:25Z</time>
      </trkpt>
      <trkpt lat="50.38354" lon="3.22063">
        <ele>28.7</ele>
        <time>2015-07-18T15:17:29Z</time>
      </trkpt>
      <trkpt lat="50.38344" lon="3.22066">
        <ele>28.9</ele>
        <time>2015-07-18T15:17:33Z</time>
      </trkpt>
      <trkpt lat="50.38333" lon="3.22062">
        <ele>29.1</ele>
        <time>2015-07-18T15:17:37Z</time>
      </trkpt>
      <trkpt lat="50.38322" lon="3.22056">
        <ele>29.3</ele>
        <time>2015-07-18T15:17:41Z</time>
      </trkpt>
      <trkpt lat="50.38311" lon="3.22051">
        <ele>29.6</ele>
        <time>2015-07-18T15:17:45Z</time>
      </trkpt>
      <trkpt lat="50.38302" lon="3.22047">
        <ele>29.9</ele>
        <time>2015-07-18T15:17:48Z</time>
      </trkpt>
      <trkpt lat="50.38293" lon="3.22043">
        <ele>30.2</ele>
        <time>2015-07-18T15:17:51Z</time>
      </trkpt>
      <trkpt lat="50.38282" lon="3.22038">
        <ele>30.5</ele>
        <time>2015-07-18T15:17:55Z</time>
      </trkpt>
      <trkpt lat="50.38273" lon="3.22034">
        <ele>30.8</ele>
        <time>2015-07-18T15:17:59Z</time>
      </trkpt>
      <trkpt lat="50.38262" lon="3.22029">
        <ele>31.2</ele>
        <time>2015-07-18T15:18:03Z</time>
      </trkpt>
      <trkpt lat="50.3825" lon="3.22025">
        <ele>31.5</ele>
        <time>2015-07-18T15:18:07Z</time>
      </trkpt>
      <trkpt lat="50.38241" lon="3.22022">
        <ele>31.7</ele>
        <time>2015-07-18T15:18:10Z</time>
      </trkpt>
      <trkpt lat="50.3823" lon="3.22018">
        <ele>31.9</ele>
        <time>2015-07-18T15:18:14Z</time>
      </trkpt>
      <trkpt lat="50.38219" lon="3.22013">
        <ele>32.1</ele>
        <time>2015-07-18T15:18:18Z</time>
      </trkpt>
      <trkpt lat="50.38209" lon="3.22009">
        <ele>32.3</ele>
        <time>2015-07-18T15:18:21Z</time>
      </trkpt>
      <trkpt lat="50.38198" lon="3.22006">
        <ele>32.5</ele>
        <time>2015-07-18T15:18:24Z</time>
      </trkpt>
      <trkpt lat="50.38186" lon="3.22001">
        <ele>32.6</ele>
        <time>2015-07-18T15:18:27Z</time>
      </trkpt>
      <trkpt lat="50.38174" lon="3.21996">
        <ele>32.7</ele>
        <time>2015-07-18T15:18:30Z</time>
      </trkpt>
      <trkpt lat="50.38161" lon="3.21991">
        <ele>32.8</ele>
        <time>2015-07-18T15:18:33Z</time>
      </trkpt>
      <trkpt lat="50.38152" lon="3.21988">
        <ele>32.9</ele>
        <time>2015-07-18T15:18:35Z</time>
      </trkpt>
      <trkpt lat="50.38142" lon="3.21985">
        <ele>32.9</ele>
        <time>2015-07-18T15:18:37Z</time>
      </trkpt>
      <trkpt lat="50.38132" lon="3.21982">
        <ele>32.9</ele>
        <time>2015-07-18T15:18:39Z</time>
      </trkpt>
      <trkpt lat="50.38122" lon="3.21978">
        <ele>32.9</ele>
        <time>2015-07-18T15:18:41Z</time>
      </trkpt>
      <trkpt lat="50.38112" lon="3.21975">
        <ele>32.9</ele>
        <time>2015-07-18T15:18:43Z</time>
      </trkpt>
      <trkpt lat="50.381" lon="3.21968">
        <ele>32.7</ele>
        <time>2015-07-18T15:18:46Z</time>
      </trkpt>
      <trkpt lat="50.38089" lon="3.21954">
        <ele>32.5</ele>
        <time>2015-07-18T15:18:49Z</time>
      </trkpt>
      <trkpt lat="50.38082" lon="3.21946">
        <ele>32.3</ele>
        <time>2015-07-18T15:18:51Z</time>
      </trkpt>
      <trkpt lat="50.38073" lon="3.21944">
        <ele>32.1</ele>
        <time>2015-07-18T15:18:53Z</time>
      </trkpt>
      <trkpt lat="50.38064" lon="3.21948">
        <ele>32</ele>
        <time>2015-07-18T15:18:55Z</time>
      </trkpt>
      <trkpt lat="50.38053" lon="3.21952">
        <ele>31.8</ele>
        <time>2015-07-18T15:18:57Z</time>
      </trkpt>
      <trkpt lat="50.38042" lon="3.21952">
        <ele>31.7</ele>
        <time>2015-07-18T15:18:59Z</time>
      </trkpt>
      <trkpt lat="50.38029" lon="3.21948">
        <ele>31.5</ele>
        <time>2015-07-18T15:19:01Z</time>
      </trkpt>
      <trkpt lat="50.38017" lon="3.21944">
        <ele>31.4</ele>
        <time>2015-07-18T15:19:03Z</time>
      </trkpt>
      <trkpt lat="50.38004" lon="3.21939">
        <ele>31.3</ele>
        <time>2015-07-18T15:19:05Z</time>
      </trkpt>
      <trkpt lat="50.3799" lon="3.21934">
        <ele>31</ele>
        <time>2015-07-18T15:19:07Z</time>
      </trkpt>
      <trkpt lat="50.37977" lon="3.21928">
        <ele>30.8</ele>
        <time>2015-07-18T15:19:09Z</time>
      </trkpt>
      <trkpt lat="50.37964" lon="3.21921">
        <ele>30.6</ele>
        <time>2015-07-18T15:19:11Z</time>
      </trkpt>
      <trkpt lat="50.37951" lon="3.21912">
        <ele>30.4</ele>
        <time>2015-07-18T15:19:13Z</time>
      </trkpt>
      <trkpt lat="50.37939" lon="3.21902">
        <ele>30.2</ele>
        <time>2015-07-18T15:19:15Z</time>
      </trkpt>
      <trkpt lat="50.37928" lon="3.21891">
        <ele>30.1</ele>
        <time>2015-07-18T15:19:17Z</time>
      </trkpt>
      <trkpt lat="50.37918" lon="3.21881">
        <ele>29.9</ele>
        <time>2015-07-18T15:19:19Z</time>
      </trkpt>
      <trkpt lat="50.3791" lon="3.2187">
        <ele>29.8</ele>
        <time>2015-07-18T15:19:21Z</time>
      </trkpt>
      <trkpt lat="50.37902" lon="3.21859">
        <ele>29.7</ele>
        <time>2015-07-18T15:19:23Z</time>
      </trkpt>
      <trkpt lat="50.37893" lon="3.21847">
        <ele>29.6</ele>
        <time>2015-07-18T15:19:25Z</time>
      </trkpt>
      <trkpt lat="50.37884" lon="3.21834">
        <ele>29.5</ele>
        <time>2015-07-18T15:19:27Z</time>
      </trkpt>
      <trkpt lat="50.37874" lon="3.21822">
        <ele>29.4</ele>
        <time>2015-07-18T15:19:29Z</time>
      </trkpt>
      <trkpt lat="50.37865" lon="3.2181">
        <ele>29.4</ele>
        <time>2015-07-18T15:19:31Z</time>
      </trkpt>
      <trkpt lat="50.37855" lon="3.21798">
        <ele>29.3</ele>
        <time>2015-07-18T15:19:33Z</time>
      </trkpt>
      <trkpt lat="50.37845" lon="3.21785">
        <ele>29.2</ele>
        <time>2015-07-18T15:19:35Z</time>
      </trkpt>
      <trkpt lat="50.37835" lon="3.21771">
        <ele>29.2</ele>
        <time>2015-07-18T15:19:37Z</time>
      </trkpt>
      <trkpt lat="50.37824" lon="3.21758">
        <ele>29.2</ele>
        <time>2015-07-18T15:19:39Z</time>
      </trkpt>
      <trkpt lat="50.37813" lon="3.21744">
        <ele>29.1</ele>
        <time>2015-07-18T15:19:41Z</time>
      </trkpt>
      <trkpt lat="50.37803" lon="3.21731">
        <ele>29.1</ele>
        <time>2015-07-18T15:19:43Z</time>
      </trkpt>
      <trkpt lat="50.37793" lon="3.21716">
        <ele>29</ele>
        <time>2015-07-18T15:19:45Z</time>
      </trkpt>
      <trkpt lat="50.37786" lon="3.21697">
        <ele>29</ele>
        <time>2015-07-18T15:19:47Z</time>
      </trkpt>
      <trkpt lat="50.37782" lon="3.21677">
        <ele>28.9</ele>
        <time>2015-07-18T15:19:49Z</time>
      </trkpt>
      <trkpt lat="50.37779" lon="3.21657">
        <ele>28.9</ele>
        <time>2015-07-18T15:19:51Z</time>
      </trkpt>
      <trkpt lat="50.37776" lon="3.21638">
        <ele>28.8</ele>
        <time>2015-07-18T15:19:53Z</time>
      </trkpt>
      <trkpt lat="50.37773" lon="3.21621">
        <ele>28.8</ele>
        <time>2015-07-18T15:19:55Z</time>
      </trkpt>
      <trkpt lat="50.3777" lon="3.21603">
        <ele>28.7</ele>
        <time>2015-07-18T15:19:57Z</time>
      </trkpt>
      <trkpt lat="50.37767" lon="3.21586">
        <ele>28.7</ele>
        <time>2015-07-18T15:19:59Z</time>
      </trkpt>
      <trkpt lat="50.37764" lon="3.2157">
        <ele>28.7</ele>
        <time>2015-07-18T15:20:01Z</time>
      </trkpt>
      <trkpt lat="50.3776" lon="3.21553">
        <ele>28.7</ele>
        <time>2015-07-18T15:20:04Z</time>
      </trkpt>
      <trkpt lat="50.37758" lon="3.21538">
        <ele>28.6</ele>
        <time>2015-07-18T15:20:10Z</time>
      </trkpt>
      <trkpt lat="50.37759" lon="3.2152">
        <ele>28.6</ele>
        <time>2015-07-18T15:20:15Z</time>
      </trkpt>
      <trkpt lat="50.3776" lon="3.21501">
        <ele>28.7</ele>
        <time>2015-07-18T15:20:19Z</time>
      </trkpt>
      <trkpt lat="50.3776" lon="3.21483">
        <ele>28.7</ele>
        <time>2015-07-18T15:20:22Z</time>
      </trkpt>
      <trkpt lat="50.37757" lon="3.21466">
        <ele>28.7</ele>
        <time>2015-07-18T15:20:25Z</time>
      </trkpt>
      <trkpt lat="50.37754" lon="3.21452">
        <ele>28.7</ele>
        <time>2015-07-18T15:20:27Z</time>
      </trkpt>
      <trkpt lat="50.37751" lon="3.21438">
        <ele>28.7</ele>
        <time>2015-07-18T15:20:29Z</time>
      </trkpt>
      <trkpt lat="50.37747" lon="3.21423">
        <ele>28.7</ele>
        <time>2015-07-18T15:20:31Z</time>
      </trkpt>
      <trkpt lat="50.37744" lon="3.21407">
        <ele>28.7</ele>
        <time>2015-07-18T15:20:33Z</time>
      </trkpt>
      <trkpt lat="50.3774" lon="3.21389">
        <ele>28.7</ele>
        <time>2015-07-18T15:20:35Z</time>
      </trkpt>
      <trkpt lat="50.37737" lon="3.21371">
        <ele>28.7</ele>
        <time>2015-07-18T15:20:37Z</time>
      </trkpt>
      <trkpt lat="50.37733" lon="3.21355">
        <ele>28.7</ele>
        <time>2015-07-18T15:20:39Z</time>
      </trkpt>
      <trkpt lat="50.37729" lon="3.21338">
        <ele>28.7</ele>
        <time>2015-07-18T15:20:41Z</time>
      </trkpt>
      <trkpt lat="50.37727" lon="3.2132">
        <ele>28.7</ele>
        <time>2015-07-18T15:20:43Z</time>
      </trkpt>
      <trkpt lat="50.37726" lon="3.21302">
        <ele>28.8</ele>
        <time>2015-07-18T15:20:45Z</time>
      </trkpt>
      <trkpt lat="50.37725" lon="3.21285">
        <ele>28.8</ele>
        <time>2015-07-18T15:20:47Z</time>
      </trkpt>
      <trkpt lat="50.37724" lon="3.21267">
        <ele>28.9</ele>
        <time>2015-07-18T15:20:49Z</time>
      </trkpt>
      <trkpt lat="50.37724" lon="3.2125">
        <ele>28.9</ele>
        <time>2015-07-18T15:20:51Z</time>
      </trkpt>
      <trkpt lat="50.37724" lon="3.21233">
        <ele>28.9</ele>
        <time>2015-07-18T15:20:53Z</time>
      </trkpt>
      <trkpt lat="50.37723" lon="3.21217">
        <ele>29</ele>
        <time>2015-07-18T15:20:55Z</time>
      </trkpt>
      <trkpt lat="50.37722" lon="3.21203">
        <ele>29.1</ele>
        <time>2015-07-18T15:20:57Z</time>
      </trkpt>
      <trkpt lat="50.3772" lon="3.21188">
        <ele>29.1</ele>
        <time>2015-07-18T15:20:59Z</time>
      </trkpt>
      <trkpt lat="50.37717" lon="3.21174">
        <ele>29.2</ele>
        <time>2015-07-18T15:21:01Z</time>
      </trkpt>
      <trkpt lat="50.37712" lon="3.2116">
        <ele>29.3</ele>
        <time>2015-07-18T15:21:03Z</time>
      </trkpt>
      <trkpt lat="50.37707" lon="3.21145">
        <ele>29.4</ele>
        <time>2015-07-18T15:21:05Z</time>
      </trkpt>
      <trkpt lat="50.37702" lon="3.21132">
        <ele>29.6</ele>
        <time>2015-07-18T15:21:07Z</time>
      </trkpt>
      <trkpt lat="50.37696" lon="3.21117">
        <ele>29.7</ele>
        <time>2015-07-18T15:21:09Z</time>
      </trkpt>
      <trkpt lat="50.37691" lon="3.21103">
        <ele>29.8</ele>
        <time>2015-07-18T15:21:11Z</time>
      </trkpt>
      <trkpt lat="50.37685" lon="3.21088">
        <ele>29.9</ele>
        <time>2015-07-18T15:21:13Z</time>
      </trkpt>
      <trkpt lat="50.3768" lon="3.21074">
        <ele>30</ele>
        <time>2015-07-18T15:21:15Z</time>
      </trkpt>
      <trkpt lat="50.37675" lon="3.2106">
        <ele>30.1</ele>
        <time>2015-07-18T15:21:17Z</time>
      </trkpt>
      <trkpt lat="50.3767" lon="3.21046">
        <ele>30.1</ele>
        <time>2015-07-18T15:21:19Z</time>
      </trkpt>
      <trkpt lat="50.37665" lon="3.21032">
        <ele>30.2</ele>
        <time>2015-07-18T15:21:21Z</time>
      </trkpt>
      <trkpt lat="50.37659" lon="3.21018">
        <ele>30.3</ele>
        <time>2015-07-18T15:21:23Z</time>
      </trkpt>
      <trkpt lat="50.37654" lon="3.21003">
        <ele>30.3</ele>
        <time>2015-07-18T15:21:25Z</time>
      </trkpt>
      <trkpt lat="50.37648" lon="3.20989">
        <ele>30.4</ele>
        <time>2015-07-18T15:21:27Z</time>
      </trkpt>
      <trkpt lat="50.37643" lon="3.20974">
        <ele>30.4</ele>
        <time>2015-07-18T15:21:29Z</time>
      </trkpt>
      <trkpt lat="50.37638" lon="3.20959">
        <ele>30.5</ele>
        <time>2015-07-18T15:21:31Z</time>
      </trkpt>
      <trkpt lat="50.37634" lon="3.20944">
        <ele>30.6</ele>
        <time>2015-07-18T15:21:33Z</time>
      </trkpt>
      <trkpt lat="50.3763" lon="3.20928">
        <ele>30.7</ele>
        <time>2015-07-18T15:21:35Z</time>
      </trkpt>
      <trkpt lat="50.37626" lon="3.20912">
        <ele>30.7</ele>
        <time>2015-07-18T15:21:37Z</time>
      </trkpt>
      <trkpt lat="50.37622" lon="3.20896">
        <ele>30.8</ele>
        <time>2015-07-18T15:21:39Z</time>
      </trkpt>
      <trkpt lat="50.37618" lon="3.2088">
        <ele>30.9</ele>
        <time>2015-07-18T15:21:41Z</time>
      </trkpt>
      <trkpt lat="50.37613" lon="3.20864">
        <ele>31</ele>
        <time>2015-07-18T15:21:43Z</time>
      </trkpt>
      <trkpt lat="50.37609" lon="3.20847">
        <ele>31.1</ele>
        <time>2015-07-18T15:21:45Z</time>
      </trkpt>
      <trkpt lat="50.37605" lon="3.20832">
        <ele>31.1</ele>
        <time>2015-07-18T15:21:47Z</time>
      </trkpt>
      <trkpt lat="50.37599" lon="3.20817">
        <ele>31.2</ele>
        <time>2015-07-18T15:21:49Z</time>
      </trkpt>
      <trkpt lat="50.37593" lon="3.20802">
        <ele>31.2</ele>
        <time>2015-07-18T15:21:51Z</time>
      </trkpt>
      <trkpt lat="50.37586" lon="3.20787">
        <ele>31.3</ele>
        <time>2015-07-18T15:21:53Z</time>
      </trkpt>
      <trkpt lat="50.37578" lon="3.20773">
        <ele>31.3</ele>
        <time>2015-07-18T15:21:55Z</time>
      </trkpt>
      <trkpt lat="50.37569" lon="3.2076">
        <ele>31.4</ele>
        <time>2015-07-18T15:21:57Z</time>
      </trkpt>
      <trkpt lat="50.37561" lon="3.20747">
        <ele>31.4</ele>
        <time>2015-07-18T15:21:59Z</time>
      </trkpt>
      <trkpt lat="50.37553" lon="3.20735">
        <ele>31.4</ele>
        <time>2015-07-18T15:22:01Z</time>
      </trkpt>
      <trkpt lat="50.37545" lon="3.20722">
        <ele>31.4</ele>
        <time>2015-07-18T15:22:03Z</time>
      </trkpt>
      <trkpt lat="50.37538" lon="3.20707">
        <ele>31.4</ele>
        <time>2015-07-18T15:22:05Z</time>
      </trkpt>
      <trkpt lat="50.37535" lon="3.20691">
        <ele>31.5</ele>
        <time>2015-07-18T15:22:07Z</time>
      </trkpt>
      <trkpt lat="50.3753" lon="3.20675">
        <ele>31.5</ele>
        <time>2015-07-18T15:22:09Z</time>
      </trkpt>
      <trkpt lat="50.37524" lon="3.20661">
        <ele>31.5</ele>
        <time>2015-07-18T15:22:11Z</time>
      </trkpt>
      <trkpt lat="50.37517" lon="3.20647">
        <ele>31.5</ele>
        <time>2015-07-18T15:22:14Z</time>
      </trkpt>
      <trkpt lat="50.37509" lon="3.20639">
        <ele>31.5</ele>
        <time>2015-07-18T15:22:17Z</time>
      </trkpt>
      <trkpt lat="50.37495" lon="3.20638">
        <ele>31.5</ele>
        <time>2015-07-18T15:22:20Z</time>
      </trkpt>
      <trkpt lat="50.37486" lon="3.20629">
        <ele>31.5</ele>
        <time>2015-07-18T15:22:22Z</time>
      </trkpt>
      <trkpt lat="50.37477" lon="3.20617">
        <ele>31.5</ele>
        <time>2015-07-18T15:22:24Z</time>
      </trkpt>
      <trkpt lat="50.37469" lon="3.20604">
        <ele>31.6</ele>
        <time>2015-07-18T15:22:26Z</time>
      </trkpt>
      <trkpt lat="50.3746" lon="3.20591">
        <ele>31.6</ele>
        <time>2015-07-18T15:22:28Z</time>
      </trkpt>
      <trkpt lat="50.37451" lon="3.20578">
        <ele>31.7</ele>
        <time>2015-07-18T15:22:30Z</time>
      </trkpt>
      <trkpt lat="50.37442" lon="3.20564">
        <ele>31.7</ele>
        <time>2015-07-18T15:22:32Z</time>
      </trkpt>
      <trkpt lat="50.37434" lon="3.2055">
        <ele>31.7</ele>
        <time>2015-07-18T15:22:34Z</time>
      </trkpt>
      <trkpt lat="50.37424" lon="3.20536">
        <ele>31.8</ele>
        <time>2015-07-18T15:22:36Z</time>
      </trkpt>
      <trkpt lat="50.37415" lon="3.20521">
        <ele>31.8</ele>
        <time>2015-07-18T15:22:38Z</time>
      </trkpt>
      <trkpt lat="50.37406" lon="3.20507">
        <ele>31.8</ele>
        <time>2015-07-18T15:22:40Z</time>
      </trkpt>
      <trkpt lat="50.37398" lon="3.20493">
        <ele>31.8</ele>
        <time>2015-07-18T15:22:42Z</time>
      </trkpt>
      <trkpt lat="50.37389" lon="3.20479">
        <ele>31.8</ele>
        <time>2015-07-18T15:22:44Z</time>
      </trkpt>
      <trkpt lat="50.37382" lon="3.20466">
        <ele>31.9</ele>
        <time>2015-07-18T15:22:46Z</time>
      </trkpt>
      <trkpt lat="50.37379" lon="3.2045">
        <ele>31.9</ele>
        <time>2015-07-18T15:22:48Z</time>
      </trkpt>
      <trkpt lat="50.37378" lon="3.20434">
        <ele>31.9</ele>
        <time>2015-07-18T15:22:50Z</time>
      </trkpt>
      <trkpt lat="50.37373" lon="3.20418">
        <ele>31.9</ele>
        <time>2015-07-18T15:22:53Z</time>
      </trkpt>
      <trkpt lat="50.37363" lon="3.20413">
        <ele>31.9</ele>
        <time>2015-07-18T15:22:56Z</time>
      </trkpt>
      <trkpt lat="50.37351" lon="3.2042">
        <ele>31.9</ele>
        <time>2015-07-18T15:22:59Z</time>
      </trkpt>
      <trkpt lat="50.37341" lon="3.20422">
        <ele>31.9</ele>
        <time>2015-07-18T15:23:01Z</time>
      </trkpt>
      <trkpt lat="50.37332" lon="3.20417">
        <ele>31.9</ele>
        <time>2015-07-18T15:23:03Z</time>
      </trkpt>
      <trkpt lat="50.37324" lon="3.20407">
        <ele>31.9</ele>
        <time>2015-07-18T15:23:05Z</time>
      </trkpt>
      <trkpt lat="50.37315" lon="3.20396">
        <ele>31.9</ele>
        <time>2015-07-18T15:23:07Z</time>
      </trkpt>
      <trkpt lat="50.37306" lon="3.20387">
        <ele>31.9</ele>
        <time>2015-07-18T15:23:09Z</time>
      </trkpt>
      <trkpt lat="50.37295" lon="3.2038">
        <ele>32</ele>
        <time>2015-07-18T15:23:11Z</time>
      </trkpt>
      <trkpt lat="50.37285" lon="3.20371">
        <ele>32</ele>
        <time>2015-07-18T15:23:13Z</time>
      </trkpt>
      <trkpt lat="50.37275" lon="3.20362">
        <ele>32</ele>
        <time>2015-07-18T15:23:15Z</time>
      </trkpt>
      <trkpt lat="50.37264" lon="3.20352">
        <ele>32</ele>
        <time>2015-07-18T15:23:17Z</time>
      </trkpt>
      <trkpt lat="50.37253" lon="3.20343">
        <ele>32</ele>
        <time>2015-07-18T15:23:19Z</time>
      </trkpt>
      <trkpt lat="50.37242" lon="3.20335">
        <ele>32</ele>
        <time>2015-07-18T15:23:21Z</time>
      </trkpt>
      <trkpt lat="50.37232" lon="3.20325">
        <ele>32</ele>
        <time>2015-07-18T15:23:23Z</time>
      </trkpt>
      <trkpt lat="50.37221" lon="3.20313">
        <ele>32</ele>
        <time>2015-07-18T15:23:25Z</time>
      </trkpt>
      <trkpt lat="50.3721" lon="3.20303">
        <ele>32</ele>
        <time>2015-07-18T15:23:27Z</time>
      </trkpt>
      <trkpt lat="50.37199" lon="3.20292">
        <ele>31.9</ele>
        <time>2015-07-18T15:23:29Z</time>
      </trkpt>
      <trkpt lat="50.37187" lon="3.20282">
        <ele>31.9</ele>
        <time>2015-07-18T15:23:31Z</time>
      </trkpt>
      <trkpt lat="50.37176" lon="3.20271">
        <ele>31.8</ele>
        <time>2015-07-18T15:23:33Z</time>
      </trkpt>
      <trkpt lat="50.37166" lon="3.20261">
        <ele>31.8</ele>
        <time>2015-07-18T15:23:35Z</time>
      </trkpt>
      <trkpt lat="50.37156" lon="3.2025">
        <ele>31.8</ele>
        <time>2015-07-18T15:23:37Z</time>
      </trkpt>
      <trkpt lat="50.37144" lon="3.20242">
        <ele>31.8</ele>
        <time>2015-07-18T15:23:39Z</time>
      </trkpt>
      <trkpt lat="50.37133" lon="3.20232">
        <ele>31.8</ele>
        <time>2015-07-18T15:23:41Z</time>
      </trkpt>
      <trkpt lat="50.37121" lon="3.20221">
        <ele>31.8</ele>
        <time>2015-07-18T15:23:43Z</time>
      </trkpt>
      <trkpt lat="50.3711" lon="3.20211">
        <ele>31.8</ele>
        <time>2015-07-18T15:23:45Z</time>
      </trkpt>
      <trkpt lat="50.37099" lon="3.20201">
        <ele>31.8</ele>
        <time>2015-07-18T15:23:47Z</time>
      </trkpt>
      <trkpt lat="50.37089" lon="3.20191">
        <ele>31.8</ele>
        <time>2015-07-18T15:23:49Z</time>
      </trkpt>
      <trkpt lat="50.37078" lon="3.20182">
        <ele>31.9</ele>
        <time>2015-07-18T15:23:51Z</time>
      </trkpt>
      <trkpt lat="50.37068" lon="3.20172">
        <ele>31.9</ele>
        <time>2015-07-18T15:23:53Z</time>
      </trkpt>
      <trkpt lat="50.37056" lon="3.20163">
        <ele>31.9</ele>
        <time>2015-07-18T15:23:55Z</time>
      </trkpt>
      <trkpt lat="50.37046" lon="3.20154">
        <ele>31.9</ele>
        <time>2015-07-18T15:23:57Z</time>
      </trkpt>
      <trkpt lat="50.37035" lon="3.20146">
        <ele>32</ele>
        <time>2015-07-18T15:23:59Z</time>
      </trkpt>
      <trkpt lat="50.37024" lon="3.20139">
        <ele>32</ele>
        <time>2015-07-18T15:24:01Z</time>
      </trkpt>
      <trkpt lat="50.37013" lon="3.20131">
        <ele>32</ele>
        <time>2015-07-18T15:24:03Z</time>
      </trkpt>
      <trkpt lat="50.37001" lon="3.20125">
        <ele>32</ele>
        <time>2015-07-18T15:24:05Z</time>
      </trkpt>
      <trkpt lat="50.3699" lon="3.20118">
        <ele>32</ele>
        <time>2015-07-18T15:24:07Z</time>
      </trkpt>
      <trkpt lat="50.36979" lon="3.20112">
        <ele>32.1</ele>
        <time>2015-07-18T15:24:09Z</time>
      </trkpt>
      <trkpt lat="50.36967" lon="3.20106">
        <ele>32.1</ele>
        <time>2015-07-18T15:24:11Z</time>
      </trkpt>
      <trkpt lat="50.36956" lon="3.201">
        <ele>32.1</ele>
        <time>2015-07-18T15:24:13Z</time>
      </trkpt>
      <trkpt lat="50.36945" lon="3.20092">
        <ele>32.1</ele>
        <time>2015-07-18T15:24:15Z</time>
      </trkpt>
      <trkpt lat="50.36935" lon="3.20085">
        <ele>32.1</ele>
        <time>2015-07-18T15:24:17Z</time>
      </trkpt>
      <trkpt lat="50.36925" lon="3.20077">
        <ele>32.1</ele>
        <time>2015-07-18T15:24:19Z</time>
      </trkpt>
      <trkpt lat="50.36915" lon="3.20069">
        <ele>32.1</ele>
        <time>2015-07-18T15:24:21Z</time>
      </trkpt>
      <trkpt lat="50.36905" lon="3.20061">
        <ele>32.1</ele>
        <time>2015-07-18T15:24:23Z</time>
      </trkpt>
      <trkpt lat="50.36896" lon="3.20052">
        <ele>32.1</ele>
        <time>2015-07-18T15:24:25Z</time>
      </trkpt>
      <trkpt lat="50.36888" lon="3.20041">
        <ele>32.1</ele>
        <time>2015-07-18T15:24:27Z</time>
      </trkpt>
      <trkpt lat="50.3688" lon="3.20031">
        <ele>32.1</ele>
        <time>2015-07-18T15:24:29Z</time>
      </trkpt>
      <trkpt lat="50.36871" lon="3.20021">
        <ele>32.1</ele>
        <time>2015-07-18T15:24:31Z</time>
      </trkpt>
      <trkpt lat="50.36862" lon="3.20011">
        <ele>32.2</ele>
        <time>2015-07-18T15:24:33Z</time>
      </trkpt>
      <trkpt lat="50.36852" lon="3.20001">
        <ele>32.2</ele>
        <time>2015-07-18T15:24:35Z</time>
      </trkpt>
      <trkpt lat="50.36842" lon="3.1999">
        <ele>32.2</ele>
        <time>2015-07-18T15:24:37Z</time>
      </trkpt>
      <trkpt lat="50.36832" lon="3.19979">
        <ele>32.2</ele>
        <time>2015-07-18T15:24:39Z</time>
      </trkpt>
      <trkpt lat="50.36822" lon="3.19968">
        <ele>32.2</ele>
        <time>2015-07-18T15:24:41Z</time>
      </trkpt>
      <trkpt lat="50.36812" lon="3.19957">
        <ele>32.2</ele>
        <time>2015-07-18T15:24:43Z</time>
      </trkpt>
      <trkpt lat="50.36802" lon="3.19945">
        <ele>32.2</ele>
        <time>2015-07-18T15:24:45Z</time>
      </trkpt>
      <trkpt lat="50.36791" lon="3.19934">
        <ele>32.2</ele>
        <time>2015-07-18T15:24:47Z</time>
      </trkpt>
      <trkpt lat="50.36782" lon="3.19923">
        <ele>32.2</ele>
        <time>2015-07-18T15:24:49Z</time>
      </trkpt>
      <trkpt lat="50.36772" lon="3.19913">
        <ele>32.2</ele>
        <time>2015-07-18T15:24:51Z</time>
      </trkpt>
      <trkpt lat="50.36763" lon="3.19902">
        <ele>32.2</ele>
        <time>2015-07-18T15:24:53Z</time>
      </trkpt>
      <trkpt lat="50.36754" lon="3.19891">
        <ele>32.2</ele>
        <time>2015-07-18T15:24:55Z</time>
      </trkpt>
      <trkpt lat="50.36744" lon="3.19881">
        <ele>32.2</ele>
        <time>2015-07-18T15:24:57Z</time>
      </trkpt>
      <trkpt lat="50.36735" lon="3.1987">
        <ele>32.3</ele>
        <time>2015-07-18T15:24:59Z</time>
      </trkpt>
      <trkpt lat="50.36725" lon="3.19859">
        <ele>32.3</ele>
        <time>2015-07-18T15:25:01Z</time>
      </trkpt>
      <trkpt lat="50.36715" lon="3.19848">
        <ele>32.3</ele>
        <time>2015-07-18T15:25:03Z</time>
      </trkpt>
      <trkpt lat="50.36705" lon="3.19838">
        <ele>32.3</ele>
        <time>2015-07-18T15:25:05Z</time>
      </trkpt>
      <trkpt lat="50.36696" lon="3.19827">
        <ele>32.4</ele>
        <time>2015-07-18T15:25:07Z</time>
      </trkpt>
      <trkpt lat="50.36685" lon="3.19817">
        <ele>32.5</ele>
        <time>2015-07-18T15:25:09Z</time>
      </trkpt>
      <trkpt lat="50.36676" lon="3.19807">
        <ele>32.7</ele>
        <time>2015-07-18T15:25:11Z</time>
      </trkpt>
      <trkpt lat="50.36667" lon="3.19797">
        <ele>32.8</ele>
        <time>2015-07-18T15:25:13Z</time>
      </trkpt>
      <trkpt lat="50.36658" lon="3.19787">
        <ele>32.8</ele>
        <time>2015-07-18T15:25:15Z</time>
      </trkpt>
      <trkpt lat="50.36648" lon="3.19777">
        <ele>33</ele>
        <time>2015-07-18T15:25:17Z</time>
      </trkpt>
      <trkpt lat="50.36639" lon="3.19767">
        <ele>33.1</ele>
        <time>2015-07-18T15:25:19Z</time>
      </trkpt>
      <trkpt lat="50.3663" lon="3.19756">
        <ele>33.1</ele>
        <time>2015-07-18T15:25:21Z</time>
      </trkpt>
      <trkpt lat="50.36622" lon="3.19746">
        <ele>33.2</ele>
        <time>2015-07-18T15:25:23Z</time>
      </trkpt>
      <trkpt lat="50.36613" lon="3.19735">
        <ele>33.3</ele>
        <time>2015-07-18T15:25:25Z</time>
      </trkpt>
      <trkpt lat="50.36605" lon="3.19723">
        <ele>33.4</ele>
        <time>2015-07-18T15:25:27Z</time>
      </trkpt>
      <trkpt lat="50.36596" lon="3.19711">
        <ele>33.4</ele>
        <time>2015-07-18T15:25:29Z</time>
      </trkpt>
      <trkpt lat="50.36588" lon="3.19698">
        <ele>33.5</ele>
        <time>2015-07-18T15:25:31Z</time>
      </trkpt>
      <trkpt lat="50.3658" lon="3.19685">
        <ele>33.6</ele>
        <time>2015-07-18T15:25:33Z</time>
      </trkpt>
      <trkpt lat="50.36572" lon="3.19672">
        <ele>33.6</ele>
        <time>2015-07-18T15:25:35Z</time>
      </trkpt>
      <trkpt lat="50.36565" lon="3.19658">
        <ele>33.6</ele>
        <time>2015-07-18T15:25:37Z</time>
      </trkpt>
      <trkpt lat="50.36556" lon="3.19646">
        <ele>33.6</ele>
        <time>2015-07-18T15:25:39Z</time>
      </trkpt>
      <trkpt lat="50.36549" lon="3.19631">
        <ele>33.5</ele>
        <time>2015-07-18T15:25:41Z</time>
      </trkpt>
      <trkpt lat="50.36542" lon="3.19617">
        <ele>33.5</ele>
        <time>2015-07-18T15:25:43Z</time>
      </trkpt>
      <trkpt lat="50.36534" lon="3.19602">
        <ele>33.4</ele>
        <time>2015-07-18T15:25:45Z</time>
      </trkpt>
      <trkpt lat="50.36527" lon="3.19586">
        <ele>33.3</ele>
        <time>2015-07-18T15:25:47Z</time>
      </trkpt>
      <trkpt lat="50.3652" lon="3.19569">
        <ele>33.2</ele>
        <time>2015-07-18T15:25:49Z</time>
      </trkpt>
      <trkpt lat="50.36513" lon="3.19552">
        <ele>33.1</ele>
        <time>2015-07-18T15:25:51Z</time>
      </trkpt>
      <trkpt lat="50.36506" lon="3.19534">
        <ele>33</ele>
        <time>2015-07-18T15:25:53Z</time>
      </trkpt>
      <trkpt lat="50.36499" lon="3.19517">
        <ele>32.9</ele>
        <time>2015-07-18T15:25:55Z</time>
      </trkpt>
      <trkpt lat="50.36492" lon="3.19501">
        <ele>32.8</ele>
        <time>2015-07-18T15:25:57Z</time>
      </trkpt>
      <trkpt lat="50.36486" lon="3.19485">
        <ele>32.7</ele>
        <time>2015-07-18T15:25:59Z</time>
      </trkpt>
      <trkpt lat="50.3648" lon="3.1947">
        <ele>32.7</ele>
        <time>2015-07-18T15:26:01Z</time>
      </trkpt>
      <trkpt lat="50.36474" lon="3.19456">
        <ele>32.6</ele>
        <time>2015-07-18T15:26:03Z</time>
      </trkpt>
      <trkpt lat="50.36468" lon="3.19441">
        <ele>32.5</ele>
        <time>2015-07-18T15:26:05Z</time>
      </trkpt>
      <trkpt lat="50.36462" lon="3.19426">
        <ele>32.4</ele>
        <time>2015-07-18T15:26:07Z</time>
      </trkpt>
      <trkpt lat="50.36455" lon="3.19411">
        <ele>32.3</ele>
        <time>2015-07-18T15:26:09Z</time>
      </trkpt>
      <trkpt lat="50.36448" lon="3.19396">
        <ele>32.2</ele>
        <time>2015-07-18T15:26:11Z</time>
      </trkpt>
      <trkpt lat="50.36442" lon="3.19381">
        <ele>32.2</ele>
        <time>2015-07-18T15:26:13Z</time>
      </trkpt>
      <trkpt lat="50.36438" lon="3.19367">
        <ele>32.1</ele>
        <time>2015-07-18T15:26:15Z</time>
      </trkpt>
      <trkpt lat="50.36433" lon="3.19354">
        <ele>32</ele>
        <time>2015-07-18T15:26:17Z</time>
      </trkpt>
      <trkpt lat="50.36432" lon="3.19335">
        <ele>31.9</ele>
        <time>2015-07-18T15:26:20Z</time>
      </trkpt>
      <trkpt lat="50.3644" lon="3.19324">
        <ele>31.8</ele>
        <time>2015-07-18T15:26:23Z</time>
      </trkpt>
      <trkpt lat="50.36449" lon="3.19314">
        <ele>31.7</ele>
        <time>2015-07-18T15:26:26Z</time>
      </trkpt>
      <trkpt lat="50.36457" lon="3.19306">
        <ele>31.7</ele>
        <time>2015-07-18T15:26:29Z</time>
      </trkpt>
      <trkpt lat="50.36466" lon="3.19296">
        <ele>31.6</ele>
        <time>2015-07-18T15:26:32Z</time>
      </trkpt>
      <trkpt lat="50.36476" lon="3.19286">
        <ele>31.6</ele>
        <time>2015-07-18T15:26:35Z</time>
      </trkpt>
      <trkpt lat="50.36487" lon="3.19276">
        <ele>31.6</ele>
        <time>2015-07-18T15:26:38Z</time>
      </trkpt>
      <trkpt lat="50.36498" lon="3.19267">
        <ele>31.5</ele>
        <time>2015-07-18T15:26:41Z</time>
      </trkpt>
      <trkpt lat="50.36509" lon="3.1926">
        <ele>31.5</ele>
        <time>2015-07-18T15:26:44Z</time>
      </trkpt>
      <trkpt lat="50.36519" lon="3.19257">
        <ele>31.5</ele>
        <time>2015-07-18T15:26:48Z</time>
      </trkpt>
      <trkpt lat="50.36529" lon="3.19255">
        <ele>31.5</ele>
        <time>2015-07-18T15:26:52Z</time>
      </trkpt>
      <trkpt lat="50.36539" lon="3.1925">
        <ele>31.5</ele>
        <time>2015-07-18T15:26:57Z</time>
      </trkpt>
      <trkpt lat="50.36548" lon="3.1925">
        <ele>31.5</ele>
        <time>2015-07-18T15:27:03Z</time>
      </trkpt>
      <trkpt lat="50.36539" lon="3.19242">
        <ele>31.4</ele>
        <time>2015-07-18T15:27:14Z</time>
      </trkpt>
      <trkpt lat="50.3653" lon="3.19246">
        <ele>31.4</ele>
        <time>2015-07-18T15:27:18Z</time>
      </trkpt>
      <trkpt lat="50.3652" lon="3.1925">
        <ele>31.4</ele>
        <time>2015-07-18T15:27:23Z</time>
      </trkpt>
      <trkpt lat="50.3651" lon="3.19252">
        <ele>31.4</ele>
        <time>2015-07-18T15:27:28Z</time>
      </trkpt>
      <trkpt lat="50.36518" lon="3.19245">
        <ele>31.4</ele>
        <time>2015-07-18T15:27:37Z</time>
      </trkpt>
      <trkpt lat="50.36509" lon="3.19254">
        <ele>31.4</ele>
        <time>2015-07-18T15:27:53Z</time>
      </trkpt>
      <trkpt lat="50.3652" lon="3.19254">
        <ele>31.4</ele>
        <time>2015-07-18T15:29:35Z</time>
      </trkpt>
      <trkpt lat="50.36532" lon="3.19249">
        <ele>31.4</ele>
        <time>2015-07-18T15:29:38Z</time>
      </trkpt>
      <trkpt lat="50.36544" lon="3.19244">
        <ele>31.4</ele>
        <time>2015-07-18T15:29:41Z</time>
      </trkpt>
      <trkpt lat="50.36553" lon="3.19241">
        <ele>31.4</ele>
        <time>2015-07-18T15:29:43Z</time>
      </trkpt>
      <trkpt lat="50.36563" lon="3.19237">
        <ele>31.4</ele>
        <time>2015-07-18T15:29:45Z</time>
      </trkpt>
      <trkpt lat="50.36573" lon="3.19234">
        <ele>31.4</ele>
        <time>2015-07-18T15:29:47Z</time>
      </trkpt>
      <trkpt lat="50.36583" lon="3.19229">
        <ele>31.5</ele>
        <time>2015-07-18T15:29:49Z</time>
      </trkpt>
      <trkpt lat="50.36594" lon="3.19224">
        <ele>31.5</ele>
        <time>2015-07-18T15:29:51Z</time>
      </trkpt>
      <trkpt lat="50.36604" lon="3.19218">
        <ele>31.5</ele>
        <time>2015-07-18T15:29:53Z</time>
      </trkpt>
      <trkpt lat="50.36614" lon="3.19213">
        <ele>31.5</ele>
        <time>2015-07-18T15:29:55Z</time>
      </trkpt>
      <trkpt lat="50.36624" lon="3.19206">
        <ele>31.5</ele>
        <time>2015-07-18T15:29:57Z</time>
      </trkpt>
      <trkpt lat="50.36634" lon="3.19199">
        <ele>31.5</ele>
        <time>2015-07-18T15:29:59Z</time>
      </trkpt>
      <trkpt lat="50.36644" lon="3.19191">
        <ele>31.5</ele>
        <time>2015-07-18T15:30:01Z</time>
      </trkpt>
      <trkpt lat="50.36654" lon="3.19184">
        <ele>31.5</ele>
        <time>2015-07-18T15:30:03Z</time>
      </trkpt>
      <trkpt lat="50.36664" lon="3.19175">
        <ele>31.5</ele>
        <time>2015-07-18T15:30:05Z</time>
      </trkpt>
      <trkpt lat="50.36673" lon="3.19166">
        <ele>31.6</ele>
        <time>2015-07-18T15:30:07Z</time>
      </trkpt>
      <trkpt lat="50.36682" lon="3.19156">
        <ele>31.6</ele>
        <time>2015-07-18T15:30:09Z</time>
      </trkpt>
      <trkpt lat="50.36691" lon="3.19145">
        <ele>31.6</ele>
        <time>2015-07-18T15:30:11Z</time>
      </trkpt>
      <trkpt lat="50.367" lon="3.19134">
        <ele>31.6</ele>
        <time>2015-07-18T15:30:13Z</time>
      </trkpt>
      <trkpt lat="50.36708" lon="3.19122">
        <ele>31.6</ele>
        <time>2015-07-18T15:30:15Z</time>
      </trkpt>
      <trkpt lat="50.36715" lon="3.1911">
        <ele>31.7</ele>
        <time>2015-07-18T15:30:17Z</time>
      </trkpt>
      <trkpt lat="50.36723" lon="3.19098">
        <ele>31.7</ele>
        <time>2015-07-18T15:30:19Z</time>
      </trkpt>
      <trkpt lat="50.36731" lon="3.19086">
        <ele>31.8</ele>
        <time>2015-07-18T15:30:21Z</time>
      </trkpt>
      <trkpt lat="50.36738" lon="3.19075">
        <ele>31.8</ele>
        <time>2015-07-18T15:30:23Z</time>
      </trkpt>
      <trkpt lat="50.36746" lon="3.19063">
        <ele>31.9</ele>
        <time>2015-07-18T15:30:25Z</time>
      </trkpt>
      <trkpt lat="50.36752" lon="3.1905">
        <ele>31.9</ele>
        <time>2015-07-18T15:30:27Z</time>
      </trkpt>
      <trkpt lat="50.36758" lon="3.19037">
        <ele>32</ele>
        <time>2015-07-18T15:30:29Z</time>
      </trkpt>
      <trkpt lat="50.36764" lon="3.19025">
        <ele>32.1</ele>
        <time>2015-07-18T15:30:31Z</time>
      </trkpt>
      <trkpt lat="50.3677" lon="3.19012">
        <ele>32.2</ele>
        <time>2015-07-18T15:30:33Z</time>
      </trkpt>
      <trkpt lat="50.36776" lon="3.18999">
        <ele>32.2</ele>
        <time>2015-07-18T15:30:35Z</time>
      </trkpt>
      <trkpt lat="50.36782" lon="3.18986">
        <ele>32.3</ele>
        <time>2015-07-18T15:30:37Z</time>
      </trkpt>
      <trkpt lat="50.36788" lon="3.18976">
        <ele>32.4</ele>
        <time>2015-07-18T15:30:39Z</time>
      </trkpt>
      <trkpt lat="50.36796" lon="3.18965">
        <ele>32.4</ele>
        <time>2015-07-18T15:30:41Z</time>
      </trkpt>
      <trkpt lat="50.36798" lon="3.18949">
        <ele>32.5</ele>
        <time>2015-07-18T15:30:43Z</time>
      </trkpt>
      <trkpt lat="50.36801" lon="3.18933">
        <ele>32.5</ele>
        <time>2015-07-18T15:30:45Z</time>
      </trkpt>
      <trkpt lat="50.36805" lon="3.18917">
        <ele>32.6</ele>
        <time>2015-07-18T15:30:47Z</time>
      </trkpt>
      <trkpt lat="50.36809" lon="3.18901">
        <ele>32.6</ele>
        <time>2015-07-18T15:30:49Z</time>
      </trkpt>
      <trkpt lat="50.36813" lon="3.18884">
        <ele>32.6</ele>
        <time>2015-07-18T15:30:51Z</time>
      </trkpt>
      <trkpt lat="50.36818" lon="3.18866">
        <ele>32.6</ele>
        <time>2015-07-18T15:30:53Z</time>
      </trkpt>
      <trkpt lat="50.36822" lon="3.18847">
        <ele>32.7</ele>
        <time>2015-07-18T15:30:55Z</time>
      </trkpt>
      <trkpt lat="50.36827" lon="3.18827">
        <ele>32.7</ele>
        <time>2015-07-18T15:30:57Z</time>
      </trkpt>
      <trkpt lat="50.36831" lon="3.18807">
        <ele>32.7</ele>
        <time>2015-07-18T15:30:59Z</time>
      </trkpt>
      <trkpt lat="50.36835" lon="3.18786">
        <ele>32.7</ele>
        <time>2015-07-18T15:31:01Z</time>
      </trkpt>
      <trkpt lat="50.36839" lon="3.18766">
        <ele>32.7</ele>
        <time>2015-07-18T15:31:03Z</time>
      </trkpt>
      <trkpt lat="50.36843" lon="3.18744">
        <ele>32.8</ele>
        <time>2015-07-18T15:31:05Z</time>
      </trkpt>
      <trkpt lat="50.36848" lon="3.18723">
        <ele>32.7</ele>
        <time>2015-07-18T15:31:07Z</time>
      </trkpt>
      <trkpt lat="50.36851" lon="3.18702">
        <ele>32.7</ele>
        <time>2015-07-18T15:31:09Z</time>
      </trkpt>
      <trkpt lat="50.36855" lon="3.18682">
        <ele>32.7</ele>
        <time>2015-07-18T15:31:11Z</time>
      </trkpt>
      <trkpt lat="50.36858" lon="3.18665">
        <ele>32.7</ele>
        <time>2015-07-18T15:31:13Z</time>
      </trkpt>
      <trkpt lat="50.3686" lon="3.18651">
        <ele>32.7</ele>
        <time>2015-07-18T15:31:15Z</time>
      </trkpt>
      <trkpt lat="50.36863" lon="3.18632">
        <ele>32.6</ele>
        <time>2015-07-18T15:31:18Z</time>
      </trkpt>
      <trkpt lat="50.36875" lon="3.1862">
        <ele>32.5</ele>
        <time>2015-07-18T15:31:21Z</time>
      </trkpt>
      <trkpt lat="50.36885" lon="3.18615">
        <ele>32.5</ele>
        <time>2015-07-18T15:31:23Z</time>
      </trkpt>
      <trkpt lat="50.36895" lon="3.1861">
        <ele>32.4</ele>
        <time>2015-07-18T15:31:25Z</time>
      </trkpt>
      <trkpt lat="50.36906" lon="3.18607">
        <ele>32.4</ele>
        <time>2015-07-18T15:31:27Z</time>
      </trkpt>
      <trkpt lat="50.36918" lon="3.18605">
        <ele>32.4</ele>
        <time>2015-07-18T15:31:29Z</time>
      </trkpt>
      <trkpt lat="50.36929" lon="3.18605">
        <ele>32.3</ele>
        <time>2015-07-18T15:31:31Z</time>
      </trkpt>
      <trkpt lat="50.36941" lon="3.18606">
        <ele>32.3</ele>
        <time>2015-07-18T15:31:33Z</time>
      </trkpt>
      <trkpt lat="50.36953" lon="3.18606">
        <ele>32.1</ele>
        <time>2015-07-18T15:31:35Z</time>
      </trkpt>
      <trkpt lat="50.36965" lon="3.18607">
        <ele>32</ele>
        <time>2015-07-18T15:31:37Z</time>
      </trkpt>
      <trkpt lat="50.36977" lon="3.18606">
        <ele>32</ele>
        <time>2015-07-18T15:31:39Z</time>
      </trkpt>
      <trkpt lat="50.36989" lon="3.18606">
        <ele>31.9</ele>
        <time>2015-07-18T15:31:41Z</time>
      </trkpt>
      <trkpt lat="50.37001" lon="3.18605">
        <ele>31.8</ele>
        <time>2015-07-18T15:31:43Z</time>
      </trkpt>
      <trkpt lat="50.37012" lon="3.18604">
        <ele>31.7</ele>
        <time>2015-07-18T15:31:45Z</time>
      </trkpt>
      <trkpt lat="50.37023" lon="3.18603">
        <ele>31.6</ele>
        <time>2015-07-18T15:31:47Z</time>
      </trkpt>
      <trkpt lat="50.37034" lon="3.18604">
        <ele>31.5</ele>
        <time>2015-07-18T15:31:49Z</time>
      </trkpt>
      <trkpt lat="50.37045" lon="3.18604">
        <ele>31.4</ele>
        <time>2015-07-18T15:31:51Z</time>
      </trkpt>
      <trkpt lat="50.37056" lon="3.18603">
        <ele>31.4</ele>
        <time>2015-07-18T15:31:53Z</time>
      </trkpt>
      <trkpt lat="50.37067" lon="3.18601">
        <ele>31.3</ele>
        <time>2015-07-18T15:31:55Z</time>
      </trkpt>
      <trkpt lat="50.37077" lon="3.18599">
        <ele>31.2</ele>
        <time>2015-07-18T15:31:57Z</time>
      </trkpt>
      <trkpt lat="50.37089" lon="3.18599">
        <ele>31.2</ele>
        <time>2015-07-18T15:31:59Z</time>
      </trkpt>
      <trkpt lat="50.371" lon="3.18601">
        <ele>31.2</ele>
        <time>2015-07-18T15:32:01Z</time>
      </trkpt>
      <trkpt lat="50.37113" lon="3.18605">
        <ele>31.2</ele>
        <time>2015-07-18T15:32:03Z</time>
      </trkpt>
      <trkpt lat="50.37124" lon="3.1861">
        <ele>31.1</ele>
        <time>2015-07-18T15:32:05Z</time>
      </trkpt>
      <trkpt lat="50.37135" lon="3.18616">
        <ele>31.1</ele>
        <time>2015-07-18T15:32:07Z</time>
      </trkpt>
      <trkpt lat="50.37146" lon="3.18623">
        <ele>31.1</ele>
        <time>2015-07-18T15:32:09Z</time>
      </trkpt>
      <trkpt lat="50.37155" lon="3.18629">
        <ele>31</ele>
        <time>2015-07-18T15:32:11Z</time>
      </trkpt>
      <trkpt lat="50.37165" lon="3.18634">
        <ele>30.9</ele>
        <time>2015-07-18T15:32:13Z</time>
      </trkpt>
      <trkpt lat="50.37174" lon="3.18639">
        <ele>30.9</ele>
        <time>2015-07-18T15:32:15Z</time>
      </trkpt>
      <trkpt lat="50.37184" lon="3.18645">
        <ele>30.8</ele>
        <time>2015-07-18T15:32:17Z</time>
      </trkpt>
      <trkpt lat="50.37193" lon="3.18651">
        <ele>30.8</ele>
        <time>2015-07-18T15:32:19Z</time>
      </trkpt>
      <trkpt lat="50.37206" lon="3.18659">
        <ele>30.7</ele>
        <time>2015-07-18T15:32:22Z</time>
      </trkpt>
      <trkpt lat="50.37215" lon="3.18669">
        <ele>30.7</ele>
        <time>2015-07-18T15:32:24Z</time>
      </trkpt>
      <trkpt lat="50.37223" lon="3.18682">
        <ele>30.7</ele>
        <time>2015-07-18T15:32:26Z</time>
      </trkpt>
      <trkpt lat="50.37231" lon="3.18694">
        <ele>30.7</ele>
        <time>2015-07-18T15:32:28Z</time>
      </trkpt>
      <trkpt lat="50.37239" lon="3.18705">
        <ele>30.7</ele>
        <time>2015-07-18T15:32:30Z</time>
      </trkpt>
      <trkpt lat="50.37248" lon="3.18714">
        <ele>30.6</ele>
        <time>2015-07-18T15:32:32Z</time>
      </trkpt>
      <trkpt lat="50.37257" lon="3.18718">
        <ele>30.6</ele>
        <time>2015-07-18T15:32:34Z</time>
      </trkpt>
      <trkpt lat="50.37269" lon="3.1872">
        <ele>30.6</ele>
        <time>2015-07-18T15:32:37Z</time>
      </trkpt>
      <trkpt lat="50.37281" lon="3.18713">
        <ele>30.6</ele>
        <time>2015-07-18T15:32:40Z</time>
      </trkpt>
      <trkpt lat="50.37292" lon="3.187">
        <ele>30.6</ele>
        <time>2015-07-18T15:32:43Z</time>
      </trkpt>
      <trkpt lat="50.37299" lon="3.1869">
        <ele>30.6</ele>
        <time>2015-07-18T15:32:45Z</time>
      </trkpt>
      <trkpt lat="50.37306" lon="3.18679">
        <ele>30.6</ele>
        <time>2015-07-18T15:32:47Z</time>
      </trkpt>
      <trkpt lat="50.37312" lon="3.18668">
        <ele>30.6</ele>
        <time>2015-07-18T15:32:49Z</time>
      </trkpt>
      <trkpt lat="50.37317" lon="3.18649">
        <ele>30.5</ele>
        <time>2015-07-18T15:32:52Z</time>
      </trkpt>
      <trkpt lat="50.37316" lon="3.18633">
        <ele>30.5</ele>
        <time>2015-07-18T15:32:54Z</time>
      </trkpt>
      <trkpt lat="50.37315" lon="3.18618">
        <ele>30.6</ele>
        <time>2015-07-18T15:32:56Z</time>
      </trkpt>
      <trkpt lat="50.3731" lon="3.18605">
        <ele>30.6</ele>
        <time>2015-07-18T15:32:58Z</time>
      </trkpt>
      <trkpt lat="50.37303" lon="3.18594">
        <ele>30.6</ele>
        <time>2015-07-18T15:33:00Z</time>
      </trkpt>
      <trkpt lat="50.37295" lon="3.18583">
        <ele>30.6</ele>
        <time>2015-07-18T15:33:02Z</time>
      </trkpt>
      <trkpt lat="50.37287" lon="3.18571">
        <ele>30.6</ele>
        <time>2015-07-18T15:33:04Z</time>
      </trkpt>
      <trkpt lat="50.3728" lon="3.18559">
        <ele>30.7</ele>
        <time>2015-07-18T15:33:06Z</time>
      </trkpt>
      <trkpt lat="50.37273" lon="3.18547">
        <ele>30.7</ele>
        <time>2015-07-18T15:33:08Z</time>
      </trkpt>
      <trkpt lat="50.37265" lon="3.18532">
        <ele>30.7</ele>
        <time>2015-07-18T15:33:11Z</time>
      </trkpt>
      <trkpt lat="50.37257" lon="3.18517">
        <ele>30.7</ele>
        <time>2015-07-18T15:33:14Z</time>
      </trkpt>
      <trkpt lat="50.37253" lon="3.18497">
        <ele>30.8</ele>
        <time>2015-07-18T15:33:17Z</time>
      </trkpt>
      <trkpt lat="50.37255" lon="3.18483">
        <ele>30.8</ele>
        <time>2015-07-18T15:33:19Z</time>
      </trkpt>
      <trkpt lat="50.37261" lon="3.1847">
        <ele>30.8</ele>
        <time>2015-07-18T15:33:21Z</time>
      </trkpt>
      <trkpt lat="50.37268" lon="3.18459">
        <ele>30.8</ele>
        <time>2015-07-18T15:33:23Z</time>
      </trkpt>
      <trkpt lat="50.37274" lon="3.18448">
        <ele>30.9</ele>
        <time>2015-07-18T15:33:25Z</time>
      </trkpt>
      <trkpt lat="50.37278" lon="3.18435">
        <ele>30.9</ele>
        <time>2015-07-18T15:33:27Z</time>
      </trkpt>
      <trkpt lat="50.37279" lon="3.1842">
        <ele>31</ele>
        <time>2015-07-18T15:33:29Z</time>
      </trkpt>
      <trkpt lat="50.37281" lon="3.184">
        <ele>31</ele>
        <time>2015-07-18T15:33:32Z</time>
      </trkpt>
      <trkpt lat="50.37289" lon="3.18391">
        <ele>31.1</ele>
        <time>2015-07-18T15:33:35Z</time>
      </trkpt>
      <trkpt lat="50.373" lon="3.18391">
        <ele>31.1</ele>
        <time>2015-07-18T15:33:38Z</time>
      </trkpt>
      <trkpt lat="50.37309" lon="3.18391">
        <ele>31.1</ele>
        <time>2015-07-18T15:33:41Z</time>
      </trkpt>
      <trkpt lat="50.37318" lon="3.18392">
        <ele>31.1</ele>
        <time>2015-07-18T15:33:44Z</time>
      </trkpt>
      <trkpt lat="50.37328" lon="3.18392">
        <ele>31.2</ele>
        <time>2015-07-18T15:33:47Z</time>
      </trkpt>
      <trkpt lat="50.37339" lon="3.18393">
        <ele>31.2</ele>
        <time>2015-07-18T15:33:50Z</time>
      </trkpt>
      <trkpt lat="50.3735" lon="3.18393">
        <ele>31.2</ele>
        <time>2015-07-18T15:33:53Z</time>
      </trkpt>
      <trkpt lat="50.3736" lon="3.18394">
        <ele>31.2</ele>
        <time>2015-07-18T15:33:56Z</time>
      </trkpt>
      <trkpt lat="50.37372" lon="3.18395">
        <ele>31.1</ele>
        <time>2015-07-18T15:33:59Z</time>
      </trkpt>
      <trkpt lat="50.37383" lon="3.18395">
        <ele>31</ele>
        <time>2015-07-18T15:34:02Z</time>
      </trkpt>
      <trkpt lat="50.37394" lon="3.18394">
        <ele>31</ele>
        <time>2015-07-18T15:34:05Z</time>
      </trkpt>
      <trkpt lat="50.37403" lon="3.18384">
        <ele>30.9</ele>
        <time>2015-07-18T15:34:09Z</time>
      </trkpt>
      <trkpt lat="50.37404" lon="3.18364">
        <ele>30.9</ele>
        <time>2015-07-18T15:34:12Z</time>
      </trkpt>
      <trkpt lat="50.37405" lon="3.18349">
        <ele>30.9</ele>
        <time>2015-07-18T15:34:14Z</time>
      </trkpt>
      <trkpt lat="50.37406" lon="3.18332">
        <ele>30.9</ele>
        <time>2015-07-18T15:34:16Z</time>
      </trkpt>
      <trkpt lat="50.37406" lon="3.18315">
        <ele>30.9</ele>
        <time>2015-07-18T15:34:18Z</time>
      </trkpt>
      <trkpt lat="50.37407" lon="3.18299">
        <ele>30.8</ele>
        <time>2015-07-18T15:34:20Z</time>
      </trkpt>
      <trkpt lat="50.37407" lon="3.18283">
        <ele>30.8</ele>
        <time>2015-07-18T15:34:22Z</time>
      </trkpt>
      <trkpt lat="50.37407" lon="3.18268">
        <ele>30.8</ele>
        <time>2015-07-18T15:34:24Z</time>
      </trkpt>
      <trkpt lat="50.37407" lon="3.18253">
        <ele>30.8</ele>
        <time>2015-07-18T15:34:26Z</time>
      </trkpt>
      <trkpt lat="50.37408" lon="3.18233">
        <ele>30.8</ele>
        <time>2015-07-18T15:34:29Z</time>
      </trkpt>
      <trkpt lat="50.37415" lon="3.18222">
        <ele>30.7</ele>
        <time>2015-07-18T15:34:32Z</time>
      </trkpt>
      <trkpt lat="50.37428" lon="3.18223">
        <ele>30.7</ele>
        <time>2015-07-18T15:34:35Z</time>
      </trkpt>
      <trkpt lat="50.37438" lon="3.18231">
        <ele>30.6</ele>
        <time>2015-07-18T15:34:37Z</time>
      </trkpt>
      <trkpt lat="50.37447" lon="3.18241">
        <ele>30.6</ele>
        <time>2015-07-18T15:34:39Z</time>
      </trkpt>
      <trkpt lat="50.37457" lon="3.18253">
        <ele>30.5</ele>
        <time>2015-07-18T15:34:41Z</time>
      </trkpt>
      <trkpt lat="50.37467" lon="3.18263">
        <ele>30.5</ele>
        <time>2015-07-18T15:34:43Z</time>
      </trkpt>
      <trkpt lat="50.37475" lon="3.18273">
        <ele>30.5</ele>
        <time>2015-07-18T15:34:45Z</time>
      </trkpt>
      <trkpt lat="50.37483" lon="3.18281">
        <ele>30.4</ele>
        <time>2015-07-18T15:34:47Z</time>
      </trkpt>
      <trkpt lat="50.37495" lon="3.18278">
        <ele>30.4</ele>
        <time>2015-07-18T15:34:50Z</time>
      </trkpt>
      <trkpt lat="50.37502" lon="3.18267">
        <ele>30.4</ele>
        <time>2015-07-18T15:34:52Z</time>
      </trkpt>
      <trkpt lat="50.37507" lon="3.18252">
        <ele>30.3</ele>
        <time>2015-07-18T15:34:54Z</time>
      </trkpt>
      <trkpt lat="50.37511" lon="3.18236">
        <ele>30.3</ele>
        <time>2015-07-18T15:34:56Z</time>
      </trkpt>
      <trkpt lat="50.37516" lon="3.1822">
        <ele>30.3</ele>
        <time>2015-07-18T15:34:58Z</time>
      </trkpt>
      <trkpt lat="50.37521" lon="3.18205">
        <ele>30.3</ele>
        <time>2015-07-18T15:35:00Z</time>
      </trkpt>
      <trkpt lat="50.37526" lon="3.18187">
        <ele>30.3</ele>
        <time>2015-07-18T15:35:02Z</time>
      </trkpt>
      <trkpt lat="50.37531" lon="3.1817">
        <ele>30.2</ele>
        <time>2015-07-18T15:35:04Z</time>
      </trkpt>
      <trkpt lat="50.37535" lon="3.18155">
        <ele>30.1</ele>
        <time>2015-07-18T15:35:06Z</time>
      </trkpt>
      <trkpt lat="50.3754" lon="3.18142">
        <ele>30.1</ele>
        <time>2015-07-18T15:35:08Z</time>
      </trkpt>
      <trkpt lat="50.37544" lon="3.18129">
        <ele>30</ele>
        <time>2015-07-18T15:35:10Z</time>
      </trkpt>
      <trkpt lat="50.37546" lon="3.18115">
        <ele>30</ele>
        <time>2015-07-18T15:35:12Z</time>
      </trkpt>
      <trkpt lat="50.37547" lon="3.18099">
        <ele>29.9</ele>
        <time>2015-07-18T15:35:14Z</time>
      </trkpt>
      <trkpt lat="50.37547" lon="3.18084">
        <ele>29.8</ele>
        <time>2015-07-18T15:35:16Z</time>
      </trkpt>
      <trkpt lat="50.37547" lon="3.18067">
        <ele>29.8</ele>
        <time>2015-07-18T15:35:18Z</time>
      </trkpt>
      <trkpt lat="50.37547" lon="3.18051">
        <ele>29.7</ele>
        <time>2015-07-18T15:35:20Z</time>
      </trkpt>
      <trkpt lat="50.37546" lon="3.18035">
        <ele>29.7</ele>
        <time>2015-07-18T15:35:22Z</time>
      </trkpt>
      <trkpt lat="50.37546" lon="3.18015">
        <ele>29.7</ele>
        <time>2015-07-18T15:35:25Z</time>
      </trkpt>
      <trkpt lat="50.3754" lon="3.18">
        <ele>29.6</ele>
        <time>2015-07-18T15:35:28Z</time>
      </trkpt>
      <trkpt lat="50.37528" lon="3.1799">
        <ele>29.5</ele>
        <time>2015-07-18T15:35:31Z</time>
      </trkpt>
      <trkpt lat="50.3752" lon="3.17982">
        <ele>29.5</ele>
        <time>2015-07-18T15:35:33Z</time>
      </trkpt>
      <trkpt lat="50.37511" lon="3.17976">
        <ele>29.5</ele>
        <time>2015-07-18T15:35:35Z</time>
      </trkpt>
      <trkpt lat="50.37502" lon="3.1797">
        <ele>29.5</ele>
        <time>2015-07-18T15:35:37Z</time>
      </trkpt>
      <trkpt lat="50.37492" lon="3.17965">
        <ele>29.4</ele>
        <time>2015-07-18T15:35:39Z</time>
      </trkpt>
      <trkpt lat="50.37483" lon="3.17961">
        <ele>29.4</ele>
        <time>2015-07-18T15:35:41Z</time>
      </trkpt>
      <trkpt lat="50.37474" lon="3.17957">
        <ele>29.4</ele>
        <time>2015-07-18T15:35:43Z</time>
      </trkpt>
      <trkpt lat="50.37464" lon="3.17953">
        <ele>29.4</ele>
        <time>2015-07-18T15:35:45Z</time>
      </trkpt>
      <trkpt lat="50.37455" lon="3.1795">
        <ele>29.3</ele>
        <time>2015-07-18T15:35:47Z</time>
      </trkpt>
      <trkpt lat="50.37446" lon="3.17947">
        <ele>29.3</ele>
        <time>2015-07-18T15:35:49Z</time>
      </trkpt>
      <trkpt lat="50.37437" lon="3.17945">
        <ele>29.3</ele>
        <time>2015-07-18T15:35:51Z</time>
      </trkpt>
      <trkpt lat="50.37427" lon="3.17942">
        <ele>29.3</ele>
        <time>2015-07-18T15:35:53Z</time>
      </trkpt>
      <trkpt lat="50.37417" lon="3.1794">
        <ele>29.3</ele>
        <time>2015-07-18T15:35:55Z</time>
      </trkpt>
      <trkpt lat="50.37406" lon="3.17939">
        <ele>29.3</ele>
        <time>2015-07-18T15:35:57Z</time>
      </trkpt>
      <trkpt lat="50.37396" lon="3.1794">
        <ele>29.3</ele>
        <time>2015-07-18T15:35:59Z</time>
      </trkpt>
      <trkpt lat="50.37385" lon="3.17941">
        <ele>29.3</ele>
        <time>2015-07-18T15:36:01Z</time>
      </trkpt>
      <trkpt lat="50.37375" lon="3.17942">
        <ele>29.3</ele>
        <time>2015-07-18T15:36:03Z</time>
      </trkpt>
      <trkpt lat="50.37364" lon="3.17942">
        <ele>29.3</ele>
        <time>2015-07-18T15:36:05Z</time>
      </trkpt>
      <trkpt lat="50.37354" lon="3.17939">
        <ele>29.3</ele>
        <time>2015-07-18T15:36:07Z</time>
      </trkpt>
      <trkpt lat="50.37345" lon="3.17933">
        <ele>29.3</ele>
        <time>2015-07-18T15:36:09Z</time>
      </trkpt>
      <trkpt lat="50.37335" lon="3.17925">
        <ele>29.3</ele>
        <time>2015-07-18T15:36:11Z</time>
      </trkpt>
      <trkpt lat="50.37326" lon="3.17915">
        <ele>29.3</ele>
        <time>2015-07-18T15:36:13Z</time>
      </trkpt>
      <trkpt lat="50.37316" lon="3.17907">
        <ele>29.4</ele>
        <time>2015-07-18T15:36:15Z</time>
      </trkpt>
      <trkpt lat="50.37307" lon="3.179">
        <ele>29.5</ele>
        <time>2015-07-18T15:36:17Z</time>
      </trkpt>
      <trkpt lat="50.37298" lon="3.17894">
        <ele>29.5</ele>
        <time>2015-07-18T15:36:19Z</time>
      </trkpt>
      <trkpt lat="50.3729" lon="3.17889">
        <ele>29.6</ele>
        <time>2015-07-18T15:36:21Z</time>
      </trkpt>
      <trkpt lat="50.37277" lon="3.17886">
        <ele>29.8</ele>
        <time>2015-07-18T15:36:24Z</time>
      </trkpt>
      <trkpt lat="50.37266" lon="3.17899">
        <ele>30</ele>
        <time>2015-07-18T15:36:27Z</time>
      </trkpt>
      <trkpt lat="50.37262" lon="3.17915">
        <ele>30</ele>
        <time>2015-07-18T15:36:29Z</time>
      </trkpt>
      <trkpt lat="50.3726" lon="3.17931">
        <ele>30.1</ele>
        <time>2015-07-18T15:36:31Z</time>
      </trkpt>
      <trkpt lat="50.37258" lon="3.17946">
        <ele>30.1</ele>
        <time>2015-07-18T15:36:33Z</time>
      </trkpt>
      <trkpt lat="50.37256" lon="3.17961">
        <ele>30.2</ele>
        <time>2015-07-18T15:36:36Z</time>
      </trkpt>
      <trkpt lat="50.37252" lon="3.17979">
        <ele>30.2</ele>
        <time>2015-07-18T15:36:41Z</time>
      </trkpt>
      <trkpt lat="50.3725" lon="3.17997">
        <ele>30.2</ele>
        <time>2015-07-18T15:36:44Z</time>
      </trkpt>
      <trkpt lat="50.37248" lon="3.18015">
        <ele>30.2</ele>
        <time>2015-07-18T15:36:47Z</time>
      </trkpt>
      <trkpt lat="50.37245" lon="3.18034">
        <ele>30.2</ele>
        <time>2015-07-18T15:36:50Z</time>
      </trkpt>
      <trkpt lat="50.37242" lon="3.18047">
        <ele>30.2</ele>
        <time>2015-07-18T15:36:52Z</time>
      </trkpt>
      <trkpt lat="50.3724" lon="3.18062">
        <ele>30.2</ele>
        <time>2015-07-18T15:36:54Z</time>
      </trkpt>
      <trkpt lat="50.37237" lon="3.18077">
        <ele>30.2</ele>
        <time>2015-07-18T15:36:56Z</time>
      </trkpt>
      <trkpt lat="50.37234" lon="3.18092">
        <ele>30.2</ele>
        <time>2015-07-18T15:36:58Z</time>
      </trkpt>
      <trkpt lat="50.3723" lon="3.18106">
        <ele>30.2</ele>
        <time>2015-07-18T15:37:00Z</time>
      </trkpt>
      <trkpt lat="50.37227" lon="3.18121">
        <ele>30.2</ele>
        <time>2015-07-18T15:37:02Z</time>
      </trkpt>
      <trkpt lat="50.37223" lon="3.18137">
        <ele>30.2</ele>
        <time>2015-07-18T15:37:04Z</time>
      </trkpt>
      <trkpt lat="50.3722" lon="3.18154">
        <ele>30.2</ele>
        <time>2015-07-18T15:37:06Z</time>
      </trkpt>
      <trkpt lat="50.37217" lon="3.18172">
        <ele>30.2</ele>
        <time>2015-07-18T15:37:08Z</time>
      </trkpt>
      <trkpt lat="50.37214" lon="3.18189">
        <ele>30.3</ele>
        <time>2015-07-18T15:37:10Z</time>
      </trkpt>
      <trkpt lat="50.37211" lon="3.18207">
        <ele>30.3</ele>
        <time>2015-07-18T15:37:12Z</time>
      </trkpt>
      <trkpt lat="50.37208" lon="3.18224">
        <ele>30.3</ele>
        <time>2015-07-18T15:37:14Z</time>
      </trkpt>
      <trkpt lat="50.37205" lon="3.18242">
        <ele>30.3</ele>
        <time>2015-07-18T15:37:16Z</time>
      </trkpt>
      <trkpt lat="50.37202" lon="3.1826">
        <ele>30.3</ele>
        <time>2015-07-18T15:37:18Z</time>
      </trkpt>
      <trkpt lat="50.37199" lon="3.18277">
        <ele>30.3</ele>
        <time>2015-07-18T15:37:20Z</time>
      </trkpt>
      <trkpt lat="50.37195" lon="3.18294">
        <ele>30.3</ele>
        <time>2015-07-18T15:37:22Z</time>
      </trkpt>
      <trkpt lat="50.37192" lon="3.18311">
        <ele>30.3</ele>
        <time>2015-07-18T15:37:24Z</time>
      </trkpt>
      <trkpt lat="50.37189" lon="3.18328">
        <ele>30.3</ele>
        <time>2015-07-18T15:37:26Z</time>
      </trkpt>
      <trkpt lat="50.37186" lon="3.18346">
        <ele>30.4</ele>
        <time>2015-07-18T15:37:28Z</time>
      </trkpt>
      <trkpt lat="50.37183" lon="3.18364">
        <ele>30.5</ele>
        <time>2015-07-18T15:37:30Z</time>
      </trkpt>
      <trkpt lat="50.3718" lon="3.18381">
        <ele>30.5</ele>
        <time>2015-07-18T15:37:32Z</time>
      </trkpt>
      <trkpt lat="50.37176" lon="3.18399">
        <ele>30.6</ele>
        <time>2015-07-18T15:37:34Z</time>
      </trkpt>
      <trkpt lat="50.37174" lon="3.18415">
        <ele>30.7</ele>
        <time>2015-07-18T15:37:36Z</time>
      </trkpt>
      <trkpt lat="50.37171" lon="3.18431">
        <ele>30.7</ele>
        <time>2015-07-18T15:37:38Z</time>
      </trkpt>
      <trkpt lat="50.37169" lon="3.18446">
        <ele>30.7</ele>
        <time>2015-07-18T15:37:40Z</time>
      </trkpt>
      <trkpt lat="50.37167" lon="3.18461">
        <ele>30.7</ele>
        <time>2015-07-18T15:37:42Z</time>
      </trkpt>
      <trkpt lat="50.37166" lon="3.18476">
        <ele>30.7</ele>
        <time>2015-07-18T15:37:44Z</time>
      </trkpt>
      <trkpt lat="50.37162" lon="3.18488">
        <ele>30.7</ele>
        <time>2015-07-18T15:37:46Z</time>
      </trkpt>
      <trkpt lat="50.37154" lon="3.18497">
        <ele>30.7</ele>
        <time>2015-07-18T15:37:48Z</time>
      </trkpt>
      <trkpt lat="50.37144" lon="3.18498">
        <ele>30.7</ele>
        <time>2015-07-18T15:37:50Z</time>
      </trkpt>
      <trkpt lat="50.37134" lon="3.18497">
        <ele>30.7</ele>
        <time>2015-07-18T15:37:52Z</time>
      </trkpt>
      <trkpt lat="50.37122" lon="3.18496">
        <ele>30.7</ele>
        <time>2015-07-18T15:37:54Z</time>
      </trkpt>
      <trkpt lat="50.37111" lon="3.18496">
        <ele>30.6</ele>
        <time>2015-07-18T15:37:56Z</time>
      </trkpt>
      <trkpt lat="50.371" lon="3.18497">
        <ele>30.6</ele>
        <time>2015-07-18T15:37:58Z</time>
      </trkpt>
      <trkpt lat="50.37093" lon="3.18487">
        <ele>30.6</ele>
        <time>2015-07-18T15:38:00Z</time>
      </trkpt>
      <trkpt lat="50.37096" lon="3.18467">
        <ele>30.6</ele>
        <time>2015-07-18T15:38:03Z</time>
      </trkpt>
      <trkpt lat="50.37099" lon="3.1845">
        <ele>30.5</ele>
        <time>2015-07-18T15:38:05Z</time>
      </trkpt>
      <trkpt lat="50.37102" lon="3.18433">
        <ele>30.5</ele>
        <time>2015-07-18T15:38:07Z</time>
      </trkpt>
      <trkpt lat="50.37106" lon="3.18416">
        <ele>30.4</ele>
        <time>2015-07-18T15:38:09Z</time>
      </trkpt>
      <trkpt lat="50.3711" lon="3.18398">
        <ele>30.4</ele>
        <time>2015-07-18T15:38:11Z</time>
      </trkpt>
      <trkpt lat="50.37113" lon="3.18379">
        <ele>30.4</ele>
        <time>2015-07-18T15:38:13Z</time>
      </trkpt>
      <trkpt lat="50.37116" lon="3.1836">
        <ele>30.4</ele>
        <time>2015-07-18T15:38:15Z</time>
      </trkpt>
      <trkpt lat="50.3712" lon="3.18341">
        <ele>30.3</ele>
        <time>2015-07-18T15:38:17Z</time>
      </trkpt>
      <trkpt lat="50.37123" lon="3.18323">
        <ele>30.2</ele>
        <time>2015-07-18T15:38:19Z</time>
      </trkpt>
      <trkpt lat="50.37127" lon="3.18304">
        <ele>30.1</ele>
        <time>2015-07-18T15:38:21Z</time>
      </trkpt>
      <trkpt lat="50.3713" lon="3.18286">
        <ele>30</ele>
        <time>2015-07-18T15:38:23Z</time>
      </trkpt>
      <trkpt lat="50.37134" lon="3.18269">
        <ele>30</ele>
        <time>2015-07-18T15:38:25Z</time>
      </trkpt>
      <trkpt lat="50.37137" lon="3.18252">
        <ele>30</ele>
        <time>2015-07-18T15:38:27Z</time>
      </trkpt>
      <trkpt lat="50.37141" lon="3.18233">
        <ele>30</ele>
        <time>2015-07-18T15:38:29Z</time>
      </trkpt>
      <trkpt lat="50.37144" lon="3.18215">
        <ele>30.1</ele>
        <time>2015-07-18T15:38:31Z</time>
      </trkpt>
      <trkpt lat="50.37147" lon="3.18198">
        <ele>30.1</ele>
        <time>2015-07-18T15:38:33Z</time>
      </trkpt>
      <trkpt lat="50.3715" lon="3.1818">
        <ele>30.1</ele>
        <time>2015-07-18T15:38:35Z</time>
      </trkpt>
      <trkpt lat="50.37153" lon="3.18163">
        <ele>30.1</ele>
        <time>2015-07-18T15:38:37Z</time>
      </trkpt>
      <trkpt lat="50.37157" lon="3.18145">
        <ele>30.1</ele>
        <time>2015-07-18T15:38:39Z</time>
      </trkpt>
      <trkpt lat="50.3716" lon="3.18128">
        <ele>30.2</ele>
        <time>2015-07-18T15:38:41Z</time>
      </trkpt>
      <trkpt lat="50.37163" lon="3.18109">
        <ele>30.2</ele>
        <time>2015-07-18T15:38:43Z</time>
      </trkpt>
      <trkpt lat="50.37167" lon="3.18091">
        <ele>30.2</ele>
        <time>2015-07-18T15:38:45Z</time>
      </trkpt>
      <trkpt lat="50.3717" lon="3.18073">
        <ele>30.2</ele>
        <time>2015-07-18T15:38:47Z</time>
      </trkpt>
      <trkpt lat="50.37173" lon="3.18056">
        <ele>30.1</ele>
        <time>2015-07-18T15:38:49Z</time>
      </trkpt>
      <trkpt lat="50.37177" lon="3.18039">
        <ele>30</ele>
        <time>2015-07-18T15:38:51Z</time>
      </trkpt>
      <trkpt lat="50.3718" lon="3.18022">
        <ele>30</ele>
        <time>2015-07-18T15:38:53Z</time>
      </trkpt>
      <trkpt lat="50.37183" lon="3.18006">
        <ele>29.9</ele>
        <time>2015-07-18T15:38:55Z</time>
      </trkpt>
      <trkpt lat="50.37187" lon="3.1799">
        <ele>29.9</ele>
        <time>2015-07-18T15:38:57Z</time>
      </trkpt>
      <trkpt lat="50.3719" lon="3.17975">
        <ele>29.8</ele>
        <time>2015-07-18T15:38:59Z</time>
      </trkpt>
      <trkpt lat="50.37193" lon="3.17959">
        <ele>29.8</ele>
        <time>2015-07-18T15:39:01Z</time>
      </trkpt>
      <trkpt lat="50.37196" lon="3.17944">
        <ele>29.8</ele>
        <time>2015-07-18T15:39:03Z</time>
      </trkpt>
      <trkpt lat="50.372" lon="3.17927">
        <ele>29.7</ele>
        <time>2015-07-18T15:39:06Z</time>
      </trkpt>
      <trkpt lat="50.37198" lon="3.17913">
        <ele>29.7</ele>
        <time>2015-07-18T15:39:09Z</time>
      </trkpt>
      <trkpt lat="50.37188" lon="3.17902">
        <ele>29.7</ele>
        <time>2015-07-18T15:39:12Z</time>
      </trkpt>
      <trkpt lat="50.3718" lon="3.17896">
        <ele>29.7</ele>
        <time>2015-07-18T15:39:14Z</time>
      </trkpt>
      <trkpt lat="50.37171" lon="3.17889">
        <ele>29.7</ele>
        <time>2015-07-18T15:39:16Z</time>
      </trkpt>
      <trkpt lat="50.37163" lon="3.17882">
        <ele>29.8</ele>
        <time>2015-07-18T15:39:18Z</time>
      </trkpt>
      <trkpt lat="50.37155" lon="3.17875">
        <ele>29.8</ele>
        <time>2015-07-18T15:39:20Z</time>
      </trkpt>
      <trkpt lat="50.37146" lon="3.1787">
        <ele>29.8</ele>
        <time>2015-07-18T15:39:22Z</time>
      </trkpt>
      <trkpt lat="50.37137" lon="3.17865">
        <ele>29.8</ele>
        <time>2015-07-18T15:39:24Z</time>
      </trkpt>
      <trkpt lat="50.37128" lon="3.1786">
        <ele>29.9</ele>
        <time>2015-07-18T15:39:26Z</time>
      </trkpt>
      <trkpt lat="50.37119" lon="3.17855">
        <ele>30</ele>
        <time>2015-07-18T15:39:28Z</time>
      </trkpt>
      <trkpt lat="50.3711" lon="3.1785">
        <ele>30.1</ele>
        <time>2015-07-18T15:39:30Z</time>
      </trkpt>
      <trkpt lat="50.37101" lon="3.17844">
        <ele>30.2</ele>
        <time>2015-07-18T15:39:32Z</time>
      </trkpt>
      <trkpt lat="50.37091" lon="3.17839">
        <ele>30.2</ele>
        <time>2015-07-18T15:39:34Z</time>
      </trkpt>
      <trkpt lat="50.37082" lon="3.17834">
        <ele>30.3</ele>
        <time>2015-07-18T15:39:36Z</time>
      </trkpt>
      <trkpt lat="50.37072" lon="3.17829">
        <ele>30.3</ele>
        <time>2015-07-18T15:39:38Z</time>
      </trkpt>
      <trkpt lat="50.37063" lon="3.17823">
        <ele>30.4</ele>
        <time>2015-07-18T15:39:40Z</time>
      </trkpt>
      <trkpt lat="50.37053" lon="3.17818">
        <ele>30.5</ele>
        <time>2015-07-18T15:39:42Z</time>
      </trkpt>
      <trkpt lat="50.37044" lon="3.17812">
        <ele>30.5</ele>
        <time>2015-07-18T15:39:44Z</time>
      </trkpt>
      <trkpt lat="50.37034" lon="3.17807">
        <ele>30.6</ele>
        <time>2015-07-18T15:39:46Z</time>
      </trkpt>
      <trkpt lat="50.37024" lon="3.17801">
        <ele>30.6</ele>
        <time>2015-07-18T15:39:48Z</time>
      </trkpt>
      <trkpt lat="50.37014" lon="3.17795">
        <ele>30.7</ele>
        <time>2015-07-18T15:39:50Z</time>
      </trkpt>
      <trkpt lat="50.37004" lon="3.17789">
        <ele>30.7</ele>
        <time>2015-07-18T15:39:52Z</time>
      </trkpt>
      <trkpt lat="50.36993" lon="3.17784">
        <ele>30.7</ele>
        <time>2015-07-18T15:39:54Z</time>
      </trkpt>
      <trkpt lat="50.36982" lon="3.17778">
        <ele>30.8</ele>
        <time>2015-07-18T15:39:56Z</time>
      </trkpt>
      <trkpt lat="50.36971" lon="3.17772">
        <ele>30.8</ele>
        <time>2015-07-18T15:39:58Z</time>
      </trkpt>
      <trkpt lat="50.3696" lon="3.17766">
        <ele>30.9</ele>
        <time>2015-07-18T15:40:00Z</time>
      </trkpt>
      <trkpt lat="50.36949" lon="3.17761">
        <ele>30.9</ele>
        <time>2015-07-18T15:40:02Z</time>
      </trkpt>
      <trkpt lat="50.36937" lon="3.17754">
        <ele>30.9</ele>
        <time>2015-07-18T15:40:04Z</time>
      </trkpt>
      <trkpt lat="50.36926" lon="3.17747">
        <ele>31</ele>
        <time>2015-07-18T15:40:06Z</time>
      </trkpt>
      <trkpt lat="50.36915" lon="3.17741">
        <ele>31</ele>
        <time>2015-07-18T15:40:08Z</time>
      </trkpt>
      <trkpt lat="50.36904" lon="3.17734">
        <ele>31</ele>
        <time>2015-07-18T15:40:10Z</time>
      </trkpt>
      <trkpt lat="50.36893" lon="3.17728">
        <ele>31</ele>
        <time>2015-07-18T15:40:12Z</time>
      </trkpt>
      <trkpt lat="50.36882" lon="3.17722">
        <ele>31</ele>
        <time>2015-07-18T15:40:14Z</time>
      </trkpt>
      <trkpt lat="50.36871" lon="3.17715">
        <ele>31.1</ele>
        <time>2015-07-18T15:40:16Z</time>
      </trkpt>
      <trkpt lat="50.3686" lon="3.17707">
        <ele>31.1</ele>
        <time>2015-07-18T15:40:18Z</time>
      </trkpt>
      <trkpt lat="50.36849" lon="3.177">
        <ele>31.1</ele>
        <time>2015-07-18T15:40:20Z</time>
      </trkpt>
      <trkpt lat="50.36838" lon="3.17694">
        <ele>31.1</ele>
        <time>2015-07-18T15:40:22Z</time>
      </trkpt>
      <trkpt lat="50.36827" lon="3.17687">
        <ele>31.1</ele>
        <time>2015-07-18T15:40:24Z</time>
      </trkpt>
      <trkpt lat="50.36815" lon="3.17681">
        <ele>31.1</ele>
        <time>2015-07-18T15:40:26Z</time>
      </trkpt>
      <trkpt lat="50.36804" lon="3.17676">
        <ele>31.1</ele>
        <time>2015-07-18T15:40:28Z</time>
      </trkpt>
      <trkpt lat="50.36793" lon="3.17671">
        <ele>31.1</ele>
        <time>2015-07-18T15:40:30Z</time>
      </trkpt>
      <trkpt lat="50.36782" lon="3.17668">
        <ele>31.1</ele>
        <time>2015-07-18T15:40:32Z</time>
      </trkpt>
      <trkpt lat="50.3677" lon="3.17666">
        <ele>31.1</ele>
        <time>2015-07-18T15:40:34Z</time>
      </trkpt>
      <trkpt lat="50.36758" lon="3.17668">
        <ele>31.1</ele>
        <time>2015-07-18T15:40:36Z</time>
      </trkpt>
      <trkpt lat="50.36747" lon="3.17673">
        <ele>31.1</ele>
        <time>2015-07-18T15:40:38Z</time>
      </trkpt>
      <trkpt lat="50.36736" lon="3.1768">
        <ele>31.2</ele>
        <time>2015-07-18T15:40:40Z</time>
      </trkpt>
      <trkpt lat="50.36727" lon="3.17689">
        <ele>31.2</ele>
        <time>2015-07-18T15:40:42Z</time>
      </trkpt>
      <trkpt lat="50.36718" lon="3.17697">
        <ele>31.3</ele>
        <time>2015-07-18T15:40:44Z</time>
      </trkpt>
      <trkpt lat="50.36711" lon="3.17709">
        <ele>31.4</ele>
        <time>2015-07-18T15:40:46Z</time>
      </trkpt>
      <trkpt lat="50.36706" lon="3.17723">
        <ele>31.5</ele>
        <time>2015-07-18T15:40:48Z</time>
      </trkpt>
      <trkpt lat="50.36702" lon="3.17739">
        <ele>31.6</ele>
        <time>2015-07-18T15:40:50Z</time>
      </trkpt>
      <trkpt lat="50.36698" lon="3.17755">
        <ele>31.7</ele>
        <time>2015-07-18T15:40:52Z</time>
      </trkpt>
      <trkpt lat="50.36695" lon="3.17771">
        <ele>31.9</ele>
        <time>2015-07-18T15:40:54Z</time>
      </trkpt>
      <trkpt lat="50.36689" lon="3.17783">
        <ele>32.2</ele>
        <time>2015-07-18T15:40:56Z</time>
      </trkpt>
      <trkpt lat="50.3668" lon="3.17788">
        <ele>32.6</ele>
        <time>2015-07-18T15:40:58Z</time>
      </trkpt>
      <trkpt lat="50.36671" lon="3.17786">
        <ele>32.9</ele>
        <time>2015-07-18T15:41:00Z</time>
      </trkpt>
      <trkpt lat="50.36659" lon="3.17776">
        <ele>33.4</ele>
        <time>2015-07-18T15:41:03Z</time>
      </trkpt>
      <trkpt lat="50.3665" lon="3.1777">
        <ele>33.6</ele>
        <time>2015-07-18T15:41:05Z</time>
      </trkpt>
      <trkpt lat="50.3664" lon="3.17766">
        <ele>33.9</ele>
        <time>2015-07-18T15:41:07Z</time>
      </trkpt>
      <trkpt lat="50.36634" lon="3.17754">
        <ele>34.1</ele>
        <time>2015-07-18T15:41:09Z</time>
      </trkpt>
      <trkpt lat="50.3663" lon="3.17737">
        <ele>34.3</ele>
        <time>2015-07-18T15:41:11Z</time>
      </trkpt>
      <trkpt lat="50.36628" lon="3.1772">
        <ele>34.5</ele>
        <time>2015-07-18T15:41:13Z</time>
      </trkpt>
      <trkpt lat="50.36625" lon="3.17703">
        <ele>34.6</ele>
        <time>2015-07-18T15:41:15Z</time>
      </trkpt>
      <trkpt lat="50.36621" lon="3.17688">
        <ele>34.8</ele>
        <time>2015-07-18T15:41:17Z</time>
      </trkpt>
      <trkpt lat="50.36617" lon="3.17673">
        <ele>34.9</ele>
        <time>2015-07-18T15:41:19Z</time>
      </trkpt>
      <trkpt lat="50.36612" lon="3.17658">
        <ele>35</ele>
        <time>2015-07-18T15:41:21Z</time>
      </trkpt>
      <trkpt lat="50.36608" lon="3.17645">
        <ele>35.1</ele>
        <time>2015-07-18T15:41:23Z</time>
      </trkpt>
      <trkpt lat="50.36603" lon="3.17632">
        <ele>35.1</ele>
        <time>2015-07-18T15:41:25Z</time>
      </trkpt>
      <trkpt lat="50.36599" lon="3.17619">
        <ele>35.2</ele>
        <time>2015-07-18T15:41:27Z</time>
      </trkpt>
      <trkpt lat="50.36592" lon="3.17602">
        <ele>35.2</ele>
        <time>2015-07-18T15:41:30Z</time>
      </trkpt>
      <trkpt lat="50.36583" lon="3.17589">
        <ele>35.3</ele>
        <time>2015-07-18T15:41:33Z</time>
      </trkpt>
      <trkpt lat="50.36573" lon="3.17583">
        <ele>35.3</ele>
        <time>2015-07-18T15:41:37Z</time>
      </trkpt>
      <trkpt lat="50.36565" lon="3.17577">
        <ele>35.2</ele>
        <time>2015-07-18T15:41:43Z</time>
      </trkpt>
      <trkpt lat="50.36555" lon="3.17571">
        <ele>34.9</ele>
        <time>2015-07-18T15:42:34Z</time>
      </trkpt>
      <trkpt lat="50.36543" lon="3.17563">
        <ele>34.9</ele>
        <time>2015-07-18T15:42:37Z</time>
      </trkpt>
      <trkpt lat="50.36531" lon="3.17557">
        <ele>34.9</ele>
        <time>2015-07-18T15:42:40Z</time>
      </trkpt>
      <trkpt lat="50.36519" lon="3.17548">
        <ele>34.9</ele>
        <time>2015-07-18T15:42:43Z</time>
      </trkpt>
      <trkpt lat="50.36511" lon="3.17542">
        <ele>35</ele>
        <time>2015-07-18T15:42:45Z</time>
      </trkpt>
      <trkpt lat="50.36502" lon="3.17536">
        <ele>35</ele>
        <time>2015-07-18T15:42:47Z</time>
      </trkpt>
      <trkpt lat="50.36493" lon="3.1753">
        <ele>35.1</ele>
        <time>2015-07-18T15:42:49Z</time>
      </trkpt>
      <trkpt lat="50.36484" lon="3.17524">
        <ele>35.2</ele>
        <time>2015-07-18T15:42:51Z</time>
      </trkpt>
      <trkpt lat="50.36476" lon="3.17518">
        <ele>35.4</ele>
        <time>2015-07-18T15:42:53Z</time>
      </trkpt>
      <trkpt lat="50.36467" lon="3.17512">
        <ele>35.5</ele>
        <time>2015-07-18T15:42:55Z</time>
      </trkpt>
      <trkpt lat="50.36455" lon="3.17504">
        <ele>35.7</ele>
        <time>2015-07-18T15:42:58Z</time>
      </trkpt>
      <trkpt lat="50.36444" lon="3.17497">
        <ele>35.9</ele>
        <time>2015-07-18T15:43:01Z</time>
      </trkpt>
      <trkpt lat="50.36433" lon="3.1749">
        <ele>36.2</ele>
        <time>2015-07-18T15:43:04Z</time>
      </trkpt>
      <trkpt lat="50.36423" lon="3.17483">
        <ele>36.4</ele>
        <time>2015-07-18T15:43:07Z</time>
      </trkpt>
      <trkpt lat="50.36412" lon="3.17476">
        <ele>36.8</ele>
        <time>2015-07-18T15:43:10Z</time>
      </trkpt>
      <trkpt lat="50.36401" lon="3.17468">
        <ele>37.2</ele>
        <time>2015-07-18T15:43:13Z</time>
      </trkpt>
      <trkpt lat="50.36391" lon="3.1746">
        <ele>37.5</ele>
        <time>2015-07-18T15:43:16Z</time>
      </trkpt>
      <trkpt lat="50.36383" lon="3.17453">
        <ele>37.9</ele>
        <time>2015-07-18T15:43:19Z</time>
      </trkpt>
      <trkpt lat="50.36374" lon="3.17447">
        <ele>38.5</ele>
        <time>2015-07-18T15:43:24Z</time>
      </trkpt>
      <trkpt lat="50.36371" lon="3.17433">
        <ele>40.7</ele>
        <time>2015-07-18T15:44:42Z</time>
      </trkpt>
      <trkpt lat="50.3636" lon="3.17435">
        <ele>41.5</ele>
        <time>2015-07-18T15:48:34Z</time>
      </trkpt>
      <trkpt lat="50.36352" lon="3.17429">
        <ele>41.6</ele>
        <time>2015-07-18T15:48:38Z</time>
      </trkpt>
      <trkpt lat="50.36341" lon="3.17421">
        <ele>41.8</ele>
        <time>2015-07-18T15:48:42Z</time>
      </trkpt>
      <trkpt lat="50.36332" lon="3.17416">
        <ele>42</ele>
        <time>2015-07-18T15:48:45Z</time>
      </trkpt>
      <trkpt lat="50.36323" lon="3.17411">
        <ele>42.2</ele>
        <time>2015-07-18T15:48:48Z</time>
      </trkpt>
      <trkpt lat="50.36313" lon="3.17406">
        <ele>42.4</ele>
        <time>2015-07-18T15:48:51Z</time>
      </trkpt>
      <trkpt lat="50.36303" lon="3.17399">
        <ele>42.6</ele>
        <time>2015-07-18T15:48:54Z</time>
      </trkpt>
      <trkpt lat="50.36292" lon="3.17393">
        <ele>42.9</ele>
        <time>2015-07-18T15:48:57Z</time>
      </trkpt>
      <trkpt lat="50.3628" lon="3.17388">
        <ele>43.1</ele>
        <time>2015-07-18T15:49:00Z</time>
      </trkpt>
      <trkpt lat="50.36271" lon="3.17388">
        <ele>43.3</ele>
        <time>2015-07-18T15:49:02Z</time>
      </trkpt>
      <trkpt lat="50.36257" lon="3.17388">
        <ele>43.5</ele>
        <time>2015-07-18T15:49:05Z</time>
      </trkpt>
      <trkpt lat="50.36248" lon="3.17386">
        <ele>43.6</ele>
        <time>2015-07-18T15:49:07Z</time>
      </trkpt>
      <trkpt lat="50.3624" lon="3.17381">
        <ele>43.7</ele>
        <time>2015-07-18T15:49:09Z</time>
      </trkpt>
      <trkpt lat="50.36232" lon="3.17373">
        <ele>43.7</ele>
        <time>2015-07-18T15:49:11Z</time>
      </trkpt>
      <trkpt lat="50.36224" lon="3.17364">
        <ele>43.8</ele>
        <time>2015-07-18T15:49:13Z</time>
      </trkpt>
      <trkpt lat="50.36218" lon="3.17352">
        <ele>43.9</ele>
        <time>2015-07-18T15:49:15Z</time>
      </trkpt>
      <trkpt lat="50.36214" lon="3.17337">
        <ele>43.9</ele>
        <time>2015-07-18T15:49:17Z</time>
      </trkpt>
      <trkpt lat="50.36212" lon="3.1732">
        <ele>43.9</ele>
        <time>2015-07-18T15:49:19Z</time>
      </trkpt>
      <trkpt lat="50.3621" lon="3.17301">
        <ele>43.9</ele>
        <time>2015-07-18T15:49:21Z</time>
      </trkpt>
      <trkpt lat="50.36208" lon="3.17282">
        <ele>43.8</ele>
        <time>2015-07-18T15:49:23Z</time>
      </trkpt>
      <trkpt lat="50.36207" lon="3.17262">
        <ele>43.7</ele>
        <time>2015-07-18T15:49:25Z</time>
      </trkpt>
      <trkpt lat="50.36206" lon="3.1724">
        <ele>43.5</ele>
        <time>2015-07-18T15:49:27Z</time>
      </trkpt>
      <trkpt lat="50.36204" lon="3.17219">
        <ele>43.3</ele>
        <time>2015-07-18T15:49:29Z</time>
      </trkpt>
      <trkpt lat="50.36203" lon="3.17197">
        <ele>43.1</ele>
        <time>2015-07-18T15:49:31Z</time>
      </trkpt>
      <trkpt lat="50.36202" lon="3.17174">
        <ele>42.8</ele>
        <time>2015-07-18T15:49:33Z</time>
      </trkpt>
      <trkpt lat="50.362" lon="3.17153">
        <ele>42.5</ele>
        <time>2015-07-18T15:49:35Z</time>
      </trkpt>
      <trkpt lat="50.36198" lon="3.1713">
        <ele>42.3</ele>
        <time>2015-07-18T15:49:37Z</time>
      </trkpt>
      <trkpt lat="50.36197" lon="3.17108">
        <ele>42</ele>
        <time>2015-07-18T15:49:39Z</time>
      </trkpt>
      <trkpt lat="50.36195" lon="3.17084">
        <ele>41.6</ele>
        <time>2015-07-18T15:49:41Z</time>
      </trkpt>
      <trkpt lat="50.36192" lon="3.17062">
        <ele>41.3</ele>
        <time>2015-07-18T15:49:43Z</time>
      </trkpt>
      <trkpt lat="50.36185" lon="3.17041">
        <ele>41.1</ele>
        <time>2015-07-18T15:49:45Z</time>
      </trkpt>
      <trkpt lat="50.36176" lon="3.17022">
        <ele>40.8</ele>
        <time>2015-07-18T15:49:47Z</time>
      </trkpt>
      <trkpt lat="50.36165" lon="3.17003">
        <ele>40.5</ele>
        <time>2015-07-18T15:49:49Z</time>
      </trkpt>
      <trkpt lat="50.36153" lon="3.16984">
        <ele>40.3</ele>
        <time>2015-07-18T15:49:51Z</time>
      </trkpt>
      <trkpt lat="50.36141" lon="3.16966">
        <ele>40</ele>
        <time>2015-07-18T15:49:53Z</time>
      </trkpt>
      <trkpt lat="50.36129" lon="3.16949">
        <ele>39.9</ele>
        <time>2015-07-18T15:49:55Z</time>
      </trkpt>
      <trkpt lat="50.36117" lon="3.16933">
        <ele>39.7</ele>
        <time>2015-07-18T15:49:57Z</time>
      </trkpt>
      <trkpt lat="50.36105" lon="3.16918">
        <ele>39.4</ele>
        <time>2015-07-18T15:49:59Z</time>
      </trkpt>
      <trkpt lat="50.36093" lon="3.16903">
        <ele>39.2</ele>
        <time>2015-07-18T15:50:01Z</time>
      </trkpt>
      <trkpt lat="50.36082" lon="3.16887">
        <ele>39</ele>
        <time>2015-07-18T15:50:03Z</time>
      </trkpt>
      <trkpt lat="50.36076" lon="3.16867">
        <ele>38.8</ele>
        <time>2015-07-18T15:50:05Z</time>
      </trkpt>
      <trkpt lat="50.36074" lon="3.16847">
        <ele>38.7</ele>
        <time>2015-07-18T15:50:07Z</time>
      </trkpt>
      <trkpt lat="50.36069" lon="3.16832">
        <ele>38.6</ele>
        <time>2015-07-18T15:50:09Z</time>
      </trkpt>
      <trkpt lat="50.36059" lon="3.16829">
        <ele>38.5</ele>
        <time>2015-07-18T15:50:11Z</time>
      </trkpt>
      <trkpt lat="50.36049" lon="3.1683">
        <ele>38.4</ele>
        <time>2015-07-18T15:50:13Z</time>
      </trkpt>
      <trkpt lat="50.36039" lon="3.1683">
        <ele>38.4</ele>
        <time>2015-07-18T15:50:15Z</time>
      </trkpt>
      <trkpt lat="50.36027" lon="3.16823">
        <ele>38.3</ele>
        <time>2015-07-18T15:50:17Z</time>
      </trkpt>
      <trkpt lat="50.36018" lon="3.16809">
        <ele>38.2</ele>
        <time>2015-07-18T15:50:19Z</time>
      </trkpt>
      <trkpt lat="50.36009" lon="3.16793">
        <ele>38.1</ele>
        <time>2015-07-18T15:50:21Z</time>
      </trkpt>
      <trkpt lat="50.36" lon="3.16776">
        <ele>37.9</ele>
        <time>2015-07-18T15:50:23Z</time>
      </trkpt>
      <trkpt lat="50.3599" lon="3.1676">
        <ele>37.7</ele>
        <time>2015-07-18T15:50:25Z</time>
      </trkpt>
      <trkpt lat="50.35981" lon="3.16743">
        <ele>37.6</ele>
        <time>2015-07-18T15:50:27Z</time>
      </trkpt>
      <trkpt lat="50.35972" lon="3.16727">
        <ele>37.4</ele>
        <time>2015-07-18T15:50:29Z</time>
      </trkpt>
      <trkpt lat="50.35962" lon="3.16711">
        <ele>37.3</ele>
        <time>2015-07-18T15:50:31Z</time>
      </trkpt>
      <trkpt lat="50.35953" lon="3.16695">
        <ele>37.2</ele>
        <time>2015-07-18T15:50:33Z</time>
      </trkpt>
      <trkpt lat="50.35944" lon="3.1668">
        <ele>37.1</ele>
        <time>2015-07-18T15:50:35Z</time>
      </trkpt>
      <trkpt lat="50.35935" lon="3.16664">
        <ele>37.1</ele>
        <time>2015-07-18T15:50:37Z</time>
      </trkpt>
      <trkpt lat="50.35927" lon="3.16649">
        <ele>37</ele>
        <time>2015-07-18T15:50:39Z</time>
      </trkpt>
      <trkpt lat="50.35918" lon="3.16634">
        <ele>36.9</ele>
        <time>2015-07-18T15:50:41Z</time>
      </trkpt>
      <trkpt lat="50.35909" lon="3.16618">
        <ele>36.9</ele>
        <time>2015-07-18T15:50:43Z</time>
      </trkpt>
      <trkpt lat="50.35901" lon="3.16604">
        <ele>36.8</ele>
        <time>2015-07-18T15:50:45Z</time>
      </trkpt>
      <trkpt lat="50.35892" lon="3.16589">
        <ele>36.8</ele>
        <time>2015-07-18T15:50:47Z</time>
      </trkpt>
      <trkpt lat="50.35884" lon="3.16575">
        <ele>36.7</ele>
        <time>2015-07-18T15:50:49Z</time>
      </trkpt>
      <trkpt lat="50.35876" lon="3.16561">
        <ele>36.7</ele>
        <time>2015-07-18T15:50:51Z</time>
      </trkpt>
      <trkpt lat="50.35868" lon="3.16546">
        <ele>36.6</ele>
        <time>2015-07-18T15:50:53Z</time>
      </trkpt>
      <trkpt lat="50.35859" lon="3.16532">
        <ele>36.5</ele>
        <time>2015-07-18T15:50:55Z</time>
      </trkpt>
      <trkpt lat="50.35851" lon="3.16518">
        <ele>36.5</ele>
        <time>2015-07-18T15:50:57Z</time>
      </trkpt>
      <trkpt lat="50.35843" lon="3.16504">
        <ele>36.4</ele>
        <time>2015-07-18T15:50:59Z</time>
      </trkpt>
      <trkpt lat="50.35835" lon="3.1649">
        <ele>36.3</ele>
        <time>2015-07-18T15:51:01Z</time>
      </trkpt>
      <trkpt lat="50.35827" lon="3.16478">
        <ele>36.2</ele>
        <time>2015-07-18T15:51:03Z</time>
      </trkpt>
      <trkpt lat="50.35819" lon="3.16463">
        <ele>36.1</ele>
        <time>2015-07-18T15:51:06Z</time>
      </trkpt>
      <trkpt lat="50.35817" lon="3.16446">
        <ele>36</ele>
        <time>2015-07-18T15:51:09Z</time>
      </trkpt>
      <trkpt lat="50.35825" lon="3.16429">
        <ele>35.8</ele>
        <time>2015-07-18T15:51:12Z</time>
      </trkpt>
      <trkpt lat="50.35831" lon="3.16415">
        <ele>35.8</ele>
        <time>2015-07-18T15:51:14Z</time>
      </trkpt>
      <trkpt lat="50.35838" lon="3.164">
        <ele>35.7</ele>
        <time>2015-07-18T15:51:16Z</time>
      </trkpt>
      <trkpt lat="50.35845" lon="3.16384">
        <ele>35.7</ele>
        <time>2015-07-18T15:51:18Z</time>
      </trkpt>
      <trkpt lat="50.35852" lon="3.16368">
        <ele>35.6</ele>
        <time>2015-07-18T15:51:20Z</time>
      </trkpt>
      <trkpt lat="50.3586" lon="3.1635">
        <ele>35.6</ele>
        <time>2015-07-18T15:51:22Z</time>
      </trkpt>
      <trkpt lat="50.35867" lon="3.16333">
        <ele>35.5</ele>
        <time>2015-07-18T15:51:24Z</time>
      </trkpt>
      <trkpt lat="50.35874" lon="3.16315">
        <ele>35.5</ele>
        <time>2015-07-18T15:51:26Z</time>
      </trkpt>
      <trkpt lat="50.35881" lon="3.16296">
        <ele>35.5</ele>
        <time>2015-07-18T15:51:28Z</time>
      </trkpt>
      <trkpt lat="50.35887" lon="3.16277">
        <ele>35.4</ele>
        <time>2015-07-18T15:51:30Z</time>
      </trkpt>
      <trkpt lat="50.35894" lon="3.16259">
        <ele>35.4</ele>
        <time>2015-07-18T15:51:32Z</time>
      </trkpt>
      <trkpt lat="50.359" lon="3.16241">
        <ele>35.4</ele>
        <time>2015-07-18T15:51:34Z</time>
      </trkpt>
      <trkpt lat="50.35906" lon="3.16224">
        <ele>35.4</ele>
        <time>2015-07-18T15:51:36Z</time>
      </trkpt>
      <trkpt lat="50.35912" lon="3.16207">
        <ele>35.4</ele>
        <time>2015-07-18T15:51:38Z</time>
      </trkpt>
      <trkpt lat="50.35918" lon="3.16191">
        <ele>35.3</ele>
        <time>2015-07-18T15:51:40Z</time>
      </trkpt>
      <trkpt lat="50.35924" lon="3.16173">
        <ele>35.3</ele>
        <time>2015-07-18T15:51:42Z</time>
      </trkpt>
      <trkpt lat="50.35931" lon="3.16156">
        <ele>35.3</ele>
        <time>2015-07-18T15:51:44Z</time>
      </trkpt>
      <trkpt lat="50.35937" lon="3.16139">
        <ele>35.3</ele>
        <time>2015-07-18T15:51:46Z</time>
      </trkpt>
      <trkpt lat="50.35942" lon="3.16122">
        <ele>35.2</ele>
        <time>2015-07-18T15:51:48Z</time>
      </trkpt>
      <trkpt lat="50.35948" lon="3.16106">
        <ele>35.2</ele>
        <time>2015-07-18T15:51:50Z</time>
      </trkpt>
      <trkpt lat="50.35954" lon="3.1609">
        <ele>35.2</ele>
        <time>2015-07-18T15:51:52Z</time>
      </trkpt>
      <trkpt lat="50.35959" lon="3.16075">
        <ele>35.1</ele>
        <time>2015-07-18T15:51:54Z</time>
      </trkpt>
      <trkpt lat="50.35964" lon="3.1606">
        <ele>35.1</ele>
        <time>2015-07-18T15:51:56Z</time>
      </trkpt>
      <trkpt lat="50.3597" lon="3.16045">
        <ele>35.1</ele>
        <time>2015-07-18T15:51:58Z</time>
      </trkpt>
      <trkpt lat="50.35975" lon="3.16029">
        <ele>35.1</ele>
        <time>2015-07-18T15:52:00Z</time>
      </trkpt>
      <trkpt lat="50.3598" lon="3.16014">
        <ele>35.1</ele>
        <time>2015-07-18T15:52:02Z</time>
      </trkpt>
      <trkpt lat="50.35983" lon="3.16">
        <ele>35</ele>
        <time>2015-07-18T15:52:04Z</time>
      </trkpt>
      <trkpt lat="50.35977" lon="3.15989">
        <ele>35</ele>
        <time>2015-07-18T15:52:06Z</time>
      </trkpt>
      <trkpt lat="50.35967" lon="3.15982">
        <ele>35</ele>
        <time>2015-07-18T15:52:08Z</time>
      </trkpt>
      <trkpt lat="50.35958" lon="3.15973">
        <ele>35</ele>
        <time>2015-07-18T15:52:10Z</time>
      </trkpt>
      <trkpt lat="50.35948" lon="3.15962">
        <ele>35</ele>
        <time>2015-07-18T15:52:12Z</time>
      </trkpt>
      <trkpt lat="50.3594" lon="3.15949">
        <ele>35</ele>
        <time>2015-07-18T15:52:14Z</time>
      </trkpt>
      <trkpt lat="50.35934" lon="3.15934">
        <ele>35</ele>
        <time>2015-07-18T15:52:16Z</time>
      </trkpt>
      <trkpt lat="50.35927" lon="3.15918">
        <ele>35</ele>
        <time>2015-07-18T15:52:18Z</time>
      </trkpt>
      <trkpt lat="50.35921" lon="3.15903">
        <ele>35</ele>
        <time>2015-07-18T15:52:20Z</time>
      </trkpt>
      <trkpt lat="50.35914" lon="3.15887">
        <ele>34.9</ele>
        <time>2015-07-18T15:52:22Z</time>
      </trkpt>
      <trkpt lat="50.35908" lon="3.15871">
        <ele>34.9</ele>
        <time>2015-07-18T15:52:24Z</time>
      </trkpt>
      <trkpt lat="50.35901" lon="3.15854">
        <ele>34.9</ele>
        <time>2015-07-18T15:52:26Z</time>
      </trkpt>
      <trkpt lat="50.35894" lon="3.15837">
        <ele>34.9</ele>
        <time>2015-07-18T15:52:28Z</time>
      </trkpt>
      <trkpt lat="50.35887" lon="3.15819">
        <ele>34.8</ele>
        <time>2015-07-18T15:52:30Z</time>
      </trkpt>
      <trkpt lat="50.35881" lon="3.15803">
        <ele>34.8</ele>
        <time>2015-07-18T15:52:32Z</time>
      </trkpt>
      <trkpt lat="50.35874" lon="3.15786">
        <ele>34.8</ele>
        <time>2015-07-18T15:52:34Z</time>
      </trkpt>
      <trkpt lat="50.35868" lon="3.1577">
        <ele>34.7</ele>
        <time>2015-07-18T15:52:36Z</time>
      </trkpt>
      <trkpt lat="50.35861" lon="3.15754">
        <ele>34.7</ele>
        <time>2015-07-18T15:52:38Z</time>
      </trkpt>
      <trkpt lat="50.35855" lon="3.15739">
        <ele>34.7</ele>
        <time>2015-07-18T15:52:40Z</time>
      </trkpt>
      <trkpt lat="50.35848" lon="3.15723">
        <ele>34.7</ele>
        <time>2015-07-18T15:52:42Z</time>
      </trkpt>
      <trkpt lat="50.35841" lon="3.15707">
        <ele>34.6</ele>
        <time>2015-07-18T15:52:44Z</time>
      </trkpt>
      <trkpt lat="50.35835" lon="3.15691">
        <ele>34.6</ele>
        <time>2015-07-18T15:52:46Z</time>
      </trkpt>
      <trkpt lat="50.3583" lon="3.15675">
        <ele>34.6</ele>
        <time>2015-07-18T15:52:48Z</time>
      </trkpt>
      <trkpt lat="50.35824" lon="3.15659">
        <ele>34.6</ele>
        <time>2015-07-18T15:52:50Z</time>
      </trkpt>
      <trkpt lat="50.35819" lon="3.15641">
        <ele>34.5</ele>
        <time>2015-07-18T15:52:52Z</time>
      </trkpt>
      <trkpt lat="50.35814" lon="3.15624">
        <ele>34.5</ele>
        <time>2015-07-18T15:52:54Z</time>
      </trkpt>
      <trkpt lat="50.35808" lon="3.15607">
        <ele>34.5</ele>
        <time>2015-07-18T15:52:56Z</time>
      </trkpt>
      <trkpt lat="50.35801" lon="3.1559">
        <ele>34.5</ele>
        <time>2015-07-18T15:52:58Z</time>
      </trkpt>
      <trkpt lat="50.35793" lon="3.15574">
        <ele>34.5</ele>
        <time>2015-07-18T15:53:00Z</time>
      </trkpt>
      <trkpt lat="50.35784" lon="3.15559">
        <ele>34.5</ele>
        <time>2015-07-18T15:53:02Z</time>
      </trkpt>
      <trkpt lat="50.35774" lon="3.15546">
        <ele>34.5</ele>
        <time>2015-07-18T15:53:04Z</time>
      </trkpt>
      <trkpt lat="50.35763" lon="3.15533">
        <ele>34.5</ele>
        <time>2015-07-18T15:53:06Z</time>
      </trkpt>
      <trkpt lat="50.35752" lon="3.1552">
        <ele>34.5</ele>
        <time>2015-07-18T15:53:08Z</time>
      </trkpt>
      <trkpt lat="50.35741" lon="3.15507">
        <ele>34.5</ele>
        <time>2015-07-18T15:53:10Z</time>
      </trkpt>
      <trkpt lat="50.3573" lon="3.15494">
        <ele>34.5</ele>
        <time>2015-07-18T15:53:12Z</time>
      </trkpt>
      <trkpt lat="50.3572" lon="3.15481">
        <ele>34.4</ele>
        <time>2015-07-18T15:53:14Z</time>
      </trkpt>
      <trkpt lat="50.3571" lon="3.15466">
        <ele>34.4</ele>
        <time>2015-07-18T15:53:16Z</time>
      </trkpt>
      <trkpt lat="50.35701" lon="3.15452">
        <ele>34.4</ele>
        <time>2015-07-18T15:53:18Z</time>
      </trkpt>
      <trkpt lat="50.35692" lon="3.15437">
        <ele>34.5</ele>
        <time>2015-07-18T15:53:20Z</time>
      </trkpt>
      <trkpt lat="50.35683" lon="3.15423">
        <ele>34.7</ele>
        <time>2015-07-18T15:53:22Z</time>
      </trkpt>
      <trkpt lat="50.35674" lon="3.15408">
        <ele>34.8</ele>
        <time>2015-07-18T15:53:24Z</time>
      </trkpt>
      <trkpt lat="50.35665" lon="3.15394">
        <ele>34.9</ele>
        <time>2015-07-18T15:53:26Z</time>
      </trkpt>
      <trkpt lat="50.35656" lon="3.15379">
        <ele>34.9</ele>
        <time>2015-07-18T15:53:28Z</time>
      </trkpt>
      <trkpt lat="50.35647" lon="3.15363">
        <ele>35</ele>
        <time>2015-07-18T15:53:30Z</time>
      </trkpt>
      <trkpt lat="50.3564" lon="3.15346">
        <ele>34.9</ele>
        <time>2015-07-18T15:53:32Z</time>
      </trkpt>
      <trkpt lat="50.35633" lon="3.15328">
        <ele>34.9</ele>
        <time>2015-07-18T15:53:34Z</time>
      </trkpt>
      <trkpt lat="50.35627" lon="3.15309">
        <ele>34.9</ele>
        <time>2015-07-18T15:53:36Z</time>
      </trkpt>
      <trkpt lat="50.35621" lon="3.1529">
        <ele>34.9</ele>
        <time>2015-07-18T15:53:38Z</time>
      </trkpt>
      <trkpt lat="50.35615" lon="3.15271">
        <ele>34.9</ele>
        <time>2015-07-18T15:53:40Z</time>
      </trkpt>
      <trkpt lat="50.3561" lon="3.15252">
        <ele>34.8</ele>
        <time>2015-07-18T15:53:42Z</time>
      </trkpt>
      <trkpt lat="50.35604" lon="3.15234">
        <ele>34.8</ele>
        <time>2015-07-18T15:53:44Z</time>
      </trkpt>
      <trkpt lat="50.35598" lon="3.15216">
        <ele>34.8</ele>
        <time>2015-07-18T15:53:46Z</time>
      </trkpt>
      <trkpt lat="50.35593" lon="3.15198">
        <ele>34.8</ele>
        <time>2015-07-18T15:53:48Z</time>
      </trkpt>
      <trkpt lat="50.35587" lon="3.15179">
        <ele>34.8</ele>
        <time>2015-07-18T15:53:50Z</time>
      </trkpt>
      <trkpt lat="50.35581" lon="3.1516">
        <ele>34.8</ele>
        <time>2015-07-18T15:53:52Z</time>
      </trkpt>
      <trkpt lat="50.35575" lon="3.15142">
        <ele>34.8</ele>
        <time>2015-07-18T15:53:54Z</time>
      </trkpt>
      <trkpt lat="50.35569" lon="3.15123">
        <ele>34.7</ele>
        <time>2015-07-18T15:53:56Z</time>
      </trkpt>
      <trkpt lat="50.35564" lon="3.15105">
        <ele>34.7</ele>
        <time>2015-07-18T15:53:58Z</time>
      </trkpt>
      <trkpt lat="50.35556" lon="3.15088">
        <ele>34.6</ele>
        <time>2015-07-18T15:54:00Z</time>
      </trkpt>
      <trkpt lat="50.35548" lon="3.15073">
        <ele>34.5</ele>
        <time>2015-07-18T15:54:02Z</time>
      </trkpt>
      <trkpt lat="50.35538" lon="3.1506">
        <ele>34.4</ele>
        <time>2015-07-18T15:54:04Z</time>
      </trkpt>
      <trkpt lat="50.35528" lon="3.15049">
        <ele>34.3</ele>
        <time>2015-07-18T15:54:06Z</time>
      </trkpt>
      <trkpt lat="50.35516" lon="3.15042">
        <ele>34.2</ele>
        <time>2015-07-18T15:54:08Z</time>
      </trkpt>
      <trkpt lat="50.35505" lon="3.15034">
        <ele>34.1</ele>
        <time>2015-07-18T15:54:10Z</time>
      </trkpt>
      <trkpt lat="50.35494" lon="3.15027">
        <ele>34.1</ele>
        <time>2015-07-18T15:54:12Z</time>
      </trkpt>
      <trkpt lat="50.35482" lon="3.15019">
        <ele>34</ele>
        <time>2015-07-18T15:54:14Z</time>
      </trkpt>
      <trkpt lat="50.3547" lon="3.15011">
        <ele>34</ele>
        <time>2015-07-18T15:54:16Z</time>
      </trkpt>
      <trkpt lat="50.35458" lon="3.15003">
        <ele>33.9</ele>
        <time>2015-07-18T15:54:18Z</time>
      </trkpt>
      <trkpt lat="50.35446" lon="3.14995">
        <ele>33.9</ele>
        <time>2015-07-18T15:54:20Z</time>
      </trkpt>
      <trkpt lat="50.35434" lon="3.14988">
        <ele>33.8</ele>
        <time>2015-07-18T15:54:22Z</time>
      </trkpt>
      <trkpt lat="50.35422" lon="3.1498">
        <ele>33.8</ele>
        <time>2015-07-18T15:54:24Z</time>
      </trkpt>
      <trkpt lat="50.3541" lon="3.14971">
        <ele>33.8</ele>
        <time>2015-07-18T15:54:26Z</time>
      </trkpt>
      <trkpt lat="50.35398" lon="3.14962">
        <ele>33.8</ele>
        <time>2015-07-18T15:54:28Z</time>
      </trkpt>
      <trkpt lat="50.35386" lon="3.14954">
        <ele>33.7</ele>
        <time>2015-07-18T15:54:30Z</time>
      </trkpt>
      <trkpt lat="50.35373" lon="3.14946">
        <ele>33.7</ele>
        <time>2015-07-18T15:54:32Z</time>
      </trkpt>
      <trkpt lat="50.35361" lon="3.14937">
        <ele>33.7</ele>
        <time>2015-07-18T15:54:34Z</time>
      </trkpt>
      <trkpt lat="50.35349" lon="3.1493">
        <ele>33.7</ele>
        <time>2015-07-18T15:54:36Z</time>
      </trkpt>
      <trkpt lat="50.35338" lon="3.14922">
        <ele>33.7</ele>
        <time>2015-07-18T15:54:38Z</time>
      </trkpt>
      <trkpt lat="50.35326" lon="3.14914">
        <ele>33.7</ele>
        <time>2015-07-18T15:54:40Z</time>
      </trkpt>
      <trkpt lat="50.35315" lon="3.14906">
        <ele>33.7</ele>
        <time>2015-07-18T15:54:42Z</time>
      </trkpt>
      <trkpt lat="50.35303" lon="3.14898">
        <ele>33.7</ele>
        <time>2015-07-18T15:54:44Z</time>
      </trkpt>
      <trkpt lat="50.35291" lon="3.1489">
        <ele>33.6</ele>
        <time>2015-07-18T15:54:46Z</time>
      </trkpt>
      <trkpt lat="50.3528" lon="3.14881">
        <ele>33.6</ele>
        <time>2015-07-18T15:54:48Z</time>
      </trkpt>
      <trkpt lat="50.35268" lon="3.14873">
        <ele>33.6</ele>
        <time>2015-07-18T15:54:50Z</time>
      </trkpt>
      <trkpt lat="50.35257" lon="3.14865">
        <ele>33.6</ele>
        <time>2015-07-18T15:54:52Z</time>
      </trkpt>
      <trkpt lat="50.35247" lon="3.14857">
        <ele>33.6</ele>
        <time>2015-07-18T15:54:54Z</time>
      </trkpt>
      <trkpt lat="50.35239" lon="3.14845">
        <ele>33.6</ele>
        <time>2015-07-18T15:54:56Z</time>
      </trkpt>
      <trkpt lat="50.35238" lon="3.14829">
        <ele>33.6</ele>
        <time>2015-07-18T15:54:58Z</time>
      </trkpt>
      <trkpt lat="50.35241" lon="3.14812">
        <ele>33.6</ele>
        <time>2015-07-18T15:55:00Z</time>
      </trkpt>
      <trkpt lat="50.35244" lon="3.14797">
        <ele>33.6</ele>
        <time>2015-07-18T15:55:02Z</time>
      </trkpt>
      <trkpt lat="50.35247" lon="3.14783">
        <ele>33.6</ele>
        <time>2015-07-18T15:55:04Z</time>
      </trkpt>
      <trkpt lat="50.3525" lon="3.14769">
        <ele>33.6</ele>
        <time>2015-07-18T15:55:06Z</time>
      </trkpt>
      <trkpt lat="50.35253" lon="3.14755">
        <ele>33.6</ele>
        <time>2015-07-18T15:55:08Z</time>
      </trkpt>
      <trkpt lat="50.35258" lon="3.14736">
        <ele>33.6</ele>
        <time>2015-07-18T15:55:11Z</time>
      </trkpt>
      <trkpt lat="50.35263" lon="3.14717">
        <ele>33.6</ele>
        <time>2015-07-18T15:55:14Z</time>
      </trkpt>
      <trkpt lat="50.35267" lon="3.14698">
        <ele>33.6</ele>
        <time>2015-07-18T15:55:17Z</time>
      </trkpt>
      <trkpt lat="50.3527" lon="3.1468">
        <ele>33.6</ele>
        <time>2015-07-18T15:55:20Z</time>
      </trkpt>
      <trkpt lat="50.35272" lon="3.14663">
        <ele>33.6</ele>
        <time>2015-07-18T15:55:23Z</time>
      </trkpt>
      <trkpt lat="50.35273" lon="3.14646">
        <ele>33.6</ele>
        <time>2015-07-18T15:55:26Z</time>
      </trkpt>
      <trkpt lat="50.35275" lon="3.14631">
        <ele>33.6</ele>
        <time>2015-07-18T15:55:29Z</time>
      </trkpt>
      <trkpt lat="50.35278" lon="3.14615">
        <ele>33.6</ele>
        <time>2015-07-18T15:55:33Z</time>
      </trkpt>
      <trkpt lat="50.3528" lon="3.14597">
        <ele>33.6</ele>
        <time>2015-07-18T15:55:37Z</time>
      </trkpt>
      <trkpt lat="50.35281" lon="3.14582">
        <ele>33.6</ele>
        <time>2015-07-18T15:55:40Z</time>
      </trkpt>
      <trkpt lat="50.35279" lon="3.14566">
        <ele>33.6</ele>
        <time>2015-07-18T15:55:43Z</time>
      </trkpt>
      <trkpt lat="50.35276" lon="3.1455">
        <ele>33.6</ele>
        <time>2015-07-18T15:55:46Z</time>
      </trkpt>
      <trkpt lat="50.3527" lon="3.14535">
        <ele>33.6</ele>
        <time>2015-07-18T15:55:49Z</time>
      </trkpt>
      <trkpt lat="50.35261" lon="3.1452">
        <ele>33.6</ele>
        <time>2015-07-18T15:55:52Z</time>
      </trkpt>
      <trkpt lat="50.35251" lon="3.14507">
        <ele>33.6</ele>
        <time>2015-07-18T15:55:55Z</time>
      </trkpt>
      <trkpt lat="50.35242" lon="3.14492">
        <ele>33.6</ele>
        <time>2015-07-18T15:55:58Z</time>
      </trkpt>
      <trkpt lat="50.35244" lon="3.14474">
        <ele>33.6</ele>
        <time>2015-07-18T15:56:01Z</time>
      </trkpt>
      <trkpt lat="50.35249" lon="3.14461">
        <ele>33.6</ele>
        <time>2015-07-18T15:56:03Z</time>
      </trkpt>
      <trkpt lat="50.35256" lon="3.14444">
        <ele>33.6</ele>
        <time>2015-07-18T15:56:06Z</time>
      </trkpt>
      <trkpt lat="50.35262" lon="3.14426">
        <ele>33.6</ele>
        <time>2015-07-18T15:56:09Z</time>
      </trkpt>
      <trkpt lat="50.35269" lon="3.1441">
        <ele>33.6</ele>
        <time>2015-07-18T15:56:12Z</time>
      </trkpt>
      <trkpt lat="50.35273" lon="3.14396">
        <ele>33.6</ele>
        <time>2015-07-18T15:56:15Z</time>
      </trkpt>
      <trkpt lat="50.35278" lon="3.14382">
        <ele>33.5</ele>
        <time>2015-07-18T15:56:18Z</time>
      </trkpt>
      <trkpt lat="50.35283" lon="3.14366">
        <ele>33.4</ele>
        <time>2015-07-18T15:56:21Z</time>
      </trkpt>
      <trkpt lat="50.35289" lon="3.14349">
        <ele>33.3</ele>
        <time>2015-07-18T15:56:24Z</time>
      </trkpt>
      <trkpt lat="50.35295" lon="3.14333">
        <ele>33.2</ele>
        <time>2015-07-18T15:56:27Z</time>
      </trkpt>
      <trkpt lat="50.353" lon="3.14317">
        <ele>33.1</ele>
        <time>2015-07-18T15:56:30Z</time>
      </trkpt>
      <trkpt lat="50.35302" lon="3.14301">
        <ele>33.1</ele>
        <time>2015-07-18T15:56:33Z</time>
      </trkpt>
      <trkpt lat="50.35301" lon="3.14284">
        <ele>32.9</ele>
        <time>2015-07-18T15:56:36Z</time>
      </trkpt>
      <trkpt lat="50.35301" lon="3.14267">
        <ele>32.7</ele>
        <time>2015-07-18T15:56:40Z</time>
      </trkpt>
      <trkpt lat="50.35303" lon="3.14252">
        <ele>32.6</ele>
        <time>2015-07-18T15:56:44Z</time>
      </trkpt>
      <trkpt lat="50.35298" lon="3.14239">
        <ele>32.4</ele>
        <time>2015-07-18T15:56:48Z</time>
      </trkpt>
      <trkpt lat="50.35288" lon="3.14236">
        <ele>32.4</ele>
        <time>2015-07-18T15:56:51Z</time>
      </trkpt>
      <trkpt lat="50.35278" lon="3.1423">
        <ele>32.3</ele>
        <time>2015-07-18T15:56:54Z</time>
      </trkpt>
      <trkpt lat="50.35269" lon="3.14215">
        <ele>32.1</ele>
        <time>2015-07-18T15:56:57Z</time>
      </trkpt>
      <trkpt lat="50.35262" lon="3.14199">
        <ele>31.9</ele>
        <time>2015-07-18T15:57:00Z</time>
      </trkpt>
      <trkpt lat="50.35256" lon="3.14182">
        <ele>31.8</ele>
        <time>2015-07-18T15:57:03Z</time>
      </trkpt>
      <trkpt lat="50.35248" lon="3.14166">
        <ele>31.7</ele>
        <time>2015-07-18T15:57:06Z</time>
      </trkpt>
      <trkpt lat="50.35241" lon="3.14148">
        <ele>31.7</ele>
        <time>2015-07-18T15:57:09Z</time>
      </trkpt>
      <trkpt lat="50.35234" lon="3.14131">
        <ele>31.6</ele>
        <time>2015-07-18T15:57:12Z</time>
      </trkpt>
      <trkpt lat="50.35227" lon="3.14115">
        <ele>31.6</ele>
        <time>2015-07-18T15:57:15Z</time>
      </trkpt>
      <trkpt lat="50.3522" lon="3.14099">
        <ele>31.6</ele>
        <time>2015-07-18T15:57:18Z</time>
      </trkpt>
      <trkpt lat="50.35212" lon="3.14083">
        <ele>31.6</ele>
        <time>2015-07-18T15:57:21Z</time>
      </trkpt>
      <trkpt lat="50.35205" lon="3.14067">
        <ele>31.6</ele>
        <time>2015-07-18T15:57:24Z</time>
      </trkpt>
      <trkpt lat="50.352" lon="3.14048">
        <ele>31.7</ele>
        <time>2015-07-18T15:57:27Z</time>
      </trkpt>
      <trkpt lat="50.35198" lon="3.14027">
        <ele>31.8</ele>
        <time>2015-07-18T15:57:30Z</time>
      </trkpt>
      <trkpt lat="50.35198" lon="3.14013">
        <ele>31.9</ele>
        <time>2015-07-18T15:57:32Z</time>
      </trkpt>
      <trkpt lat="50.35199" lon="3.13998">
        <ele>32</ele>
        <time>2015-07-18T15:57:34Z</time>
      </trkpt>
      <trkpt lat="50.352" lon="3.13983">
        <ele>32.2</ele>
        <time>2015-07-18T15:57:36Z</time>
      </trkpt>
      <trkpt lat="50.35202" lon="3.13967">
        <ele>32.3</ele>
        <time>2015-07-18T15:57:38Z</time>
      </trkpt>
      <trkpt lat="50.35204" lon="3.13953">
        <ele>32.4</ele>
        <time>2015-07-18T15:57:40Z</time>
      </trkpt>
      <trkpt lat="50.35206" lon="3.13938">
        <ele>32.5</ele>
        <time>2015-07-18T15:57:42Z</time>
      </trkpt>
      <trkpt lat="50.35208" lon="3.13923">
        <ele>32.6</ele>
        <time>2015-07-18T15:57:44Z</time>
      </trkpt>
      <trkpt lat="50.3521" lon="3.13909">
        <ele>32.7</ele>
        <time>2015-07-18T15:57:46Z</time>
      </trkpt>
      <trkpt lat="50.35211" lon="3.13895">
        <ele>32.8</ele>
        <time>2015-07-18T15:57:48Z</time>
      </trkpt>
      <trkpt lat="50.35213" lon="3.13881">
        <ele>32.9</ele>
        <time>2015-07-18T15:57:50Z</time>
      </trkpt>
      <trkpt lat="50.35215" lon="3.13867">
        <ele>33</ele>
        <time>2015-07-18T15:57:52Z</time>
      </trkpt>
      <trkpt lat="50.35218" lon="3.13847">
        <ele>33.1</ele>
        <time>2015-07-18T15:57:55Z</time>
      </trkpt>
      <trkpt lat="50.35221" lon="3.13828">
        <ele>33.2</ele>
        <time>2015-07-18T15:57:58Z</time>
      </trkpt>
      <trkpt lat="50.35225" lon="3.1381">
        <ele>33.4</ele>
        <time>2015-07-18T15:58:01Z</time>
      </trkpt>
      <trkpt lat="50.3523" lon="3.1379">
        <ele>33.6</ele>
        <time>2015-07-18T15:58:04Z</time>
      </trkpt>
      <trkpt lat="50.3523" lon="3.13771">
        <ele>33.7</ele>
        <time>2015-07-18T15:58:07Z</time>
      </trkpt>
      <trkpt lat="50.3524" lon="3.13778">
        <ele>34.4</ele>
        <time>2015-07-18T15:58:15Z</time>
      </trkpt>
      <trkpt lat="50.35249" lon="3.13776">
        <ele>34.5</ele>
        <time>2015-07-18T15:58:18Z</time>
      </trkpt>
      <trkpt lat="50.3526" lon="3.1377">
        <ele>34.6</ele>
        <time>2015-07-18T15:58:21Z</time>
      </trkpt>
      <trkpt lat="50.3527" lon="3.13762">
        <ele>34.6</ele>
        <time>2015-07-18T15:58:24Z</time>
      </trkpt>
      <trkpt lat="50.35278" lon="3.13756">
        <ele>34.7</ele>
        <time>2015-07-18T15:58:27Z</time>
      </trkpt>
      <trkpt lat="50.35287" lon="3.13751">
        <ele>34.7</ele>
        <time>2015-07-18T15:58:30Z</time>
      </trkpt>
      <trkpt lat="50.35297" lon="3.13746">
        <ele>34.7</ele>
        <time>2015-07-18T15:58:33Z</time>
      </trkpt>
      <trkpt lat="50.35308" lon="3.13739">
        <ele>34.7</ele>
        <time>2015-07-18T15:58:36Z</time>
      </trkpt>
      <trkpt lat="50.3532" lon="3.13736">
        <ele>34.8</ele>
        <time>2015-07-18T15:58:39Z</time>
      </trkpt>
      <trkpt lat="50.3533" lon="3.13734">
        <ele>34.8</ele>
        <time>2015-07-18T15:58:41Z</time>
      </trkpt>
      <trkpt lat="50.3534" lon="3.1373">
        <ele>34.8</ele>
        <time>2015-07-18T15:58:43Z</time>
      </trkpt>
      <trkpt lat="50.3535" lon="3.13725">
        <ele>34.7</ele>
        <time>2015-07-18T15:58:45Z</time>
      </trkpt>
      <trkpt lat="50.35361" lon="3.13719">
        <ele>34.6</ele>
        <time>2015-07-18T15:58:47Z</time>
      </trkpt>
      <trkpt lat="50.35374" lon="3.13714">
        <ele>34.5</ele>
        <time>2015-07-18T15:58:49Z</time>
      </trkpt>
      <trkpt lat="50.35386" lon="3.13708">
        <ele>34.5</ele>
        <time>2015-07-18T15:58:51Z</time>
      </trkpt>
      <trkpt lat="50.35399" lon="3.13702">
        <ele>34.4</ele>
        <time>2015-07-18T15:58:53Z</time>
      </trkpt>
      <trkpt lat="50.35411" lon="3.13697">
        <ele>34.3</ele>
        <time>2015-07-18T15:58:55Z</time>
      </trkpt>
      <trkpt lat="50.35423" lon="3.13693">
        <ele>34.3</ele>
        <time>2015-07-18T15:58:57Z</time>
      </trkpt>
      <trkpt lat="50.35434" lon="3.13689">
        <ele>34.2</ele>
        <time>2015-07-18T15:58:59Z</time>
      </trkpt>
      <trkpt lat="50.35445" lon="3.13683">
        <ele>34</ele>
        <time>2015-07-18T15:59:01Z</time>
      </trkpt>
      <trkpt lat="50.35456" lon="3.13678">
        <ele>33.8</ele>
        <time>2015-07-18T15:59:03Z</time>
      </trkpt>
      <trkpt lat="50.35468" lon="3.13672">
        <ele>33.6</ele>
        <time>2015-07-18T15:59:05Z</time>
      </trkpt>
      <trkpt lat="50.35481" lon="3.13666">
        <ele>33.4</ele>
        <time>2015-07-18T15:59:07Z</time>
      </trkpt>
      <trkpt lat="50.35494" lon="3.13661">
        <ele>33.3</ele>
        <time>2015-07-18T15:59:09Z</time>
      </trkpt>
      <trkpt lat="50.35506" lon="3.13656">
        <ele>33.2</ele>
        <time>2015-07-18T15:59:11Z</time>
      </trkpt>
      <trkpt lat="50.35518" lon="3.13649">
        <ele>33.1</ele>
        <time>2015-07-18T15:59:13Z</time>
      </trkpt>
      <trkpt lat="50.35528" lon="3.13642">
        <ele>33</ele>
        <time>2015-07-18T15:59:15Z</time>
      </trkpt>
      <trkpt lat="50.35537" lon="3.13635">
        <ele>32.9</ele>
        <time>2015-07-18T15:59:17Z</time>
      </trkpt>
      <trkpt lat="50.35547" lon="3.13622">
        <ele>32.6</ele>
        <time>2015-07-18T15:59:20Z</time>
      </trkpt>
      <trkpt lat="50.35554" lon="3.13613">
        <ele>32.4</ele>
        <time>2015-07-18T15:59:22Z</time>
      </trkpt>
      <trkpt lat="50.35563" lon="3.136">
        <ele>32.3</ele>
        <time>2015-07-18T15:59:24Z</time>
      </trkpt>
      <trkpt lat="50.35572" lon="3.13585">
        <ele>32.2</ele>
        <time>2015-07-18T15:59:26Z</time>
      </trkpt>
      <trkpt lat="50.3558" lon="3.13566">
        <ele>32.1</ele>
        <time>2015-07-18T15:59:28Z</time>
      </trkpt>
      <trkpt lat="50.35587" lon="3.13546">
        <ele>31.9</ele>
        <time>2015-07-18T15:59:30Z</time>
      </trkpt>
      <trkpt lat="50.35593" lon="3.13525">
        <ele>31.6</ele>
        <time>2015-07-18T15:59:32Z</time>
      </trkpt>
      <trkpt lat="50.35597" lon="3.13504">
        <ele>31.4</ele>
        <time>2015-07-18T15:59:34Z</time>
      </trkpt>
      <trkpt lat="50.35599" lon="3.13487">
        <ele>31.2</ele>
        <time>2015-07-18T15:59:36Z</time>
      </trkpt>
      <trkpt lat="50.35601" lon="3.13471">
        <ele>30.9</ele>
        <time>2015-07-18T15:59:39Z</time>
      </trkpt>
      <trkpt lat="50.35607" lon="3.13455">
        <ele>30.7</ele>
        <time>2015-07-18T15:59:42Z</time>
      </trkpt>
      <trkpt lat="50.35612" lon="3.1344">
        <ele>30.7</ele>
        <time>2015-07-18T15:59:44Z</time>
      </trkpt>
      <trkpt lat="50.35618" lon="3.13424">
        <ele>30.4</ele>
        <time>2015-07-18T15:59:46Z</time>
      </trkpt>
      <trkpt lat="50.35625" lon="3.13408">
        <ele>30.3</ele>
        <time>2015-07-18T15:59:48Z</time>
      </trkpt>
      <trkpt lat="50.35631" lon="3.13393">
        <ele>30.2</ele>
        <time>2015-07-18T15:59:50Z</time>
      </trkpt>
      <trkpt lat="50.35638" lon="3.13379">
        <ele>30.1</ele>
        <time>2015-07-18T15:59:52Z</time>
      </trkpt>
      <trkpt lat="50.35646" lon="3.13369">
        <ele>30</ele>
        <time>2015-07-18T15:59:54Z</time>
      </trkpt>
      <trkpt lat="50.35656" lon="3.13359">
        <ele>29.8</ele>
        <time>2015-07-18T15:59:57Z</time>
      </trkpt>
      <trkpt lat="50.35663" lon="3.13347">
        <ele>29.7</ele>
        <time>2015-07-18T16:00:00Z</time>
      </trkpt>
      <trkpt lat="50.35671" lon="3.13338">
        <ele>29.7</ele>
        <time>2015-07-18T16:00:03Z</time>
      </trkpt>
      <trkpt lat="50.35678" lon="3.1333">
        <ele>29.5</ele>
        <time>2015-07-18T16:00:07Z</time>
      </trkpt>
      <trkpt lat="50.3568" lon="3.13314">
        <ele>29.4</ele>
        <time>2015-07-18T16:00:11Z</time>
      </trkpt>
      <trkpt lat="50.35682" lon="3.13295">
        <ele>29.4</ele>
        <time>2015-07-18T16:00:14Z</time>
      </trkpt>
      <trkpt lat="50.35687" lon="3.13282">
        <ele>29.3</ele>
        <time>2015-07-18T16:00:16Z</time>
      </trkpt>
      <trkpt lat="50.35693" lon="3.13268">
        <ele>29.3</ele>
        <time>2015-07-18T16:00:18Z</time>
      </trkpt>
      <trkpt lat="50.35697" lon="3.13255">
        <ele>29.2</ele>
        <time>2015-07-18T16:00:21Z</time>
      </trkpt>
      <trkpt lat="50.35706" lon="3.13249">
        <ele>29.2</ele>
        <time>2015-07-18T16:00:26Z</time>
      </trkpt>
      <trkpt lat="50.35715" lon="3.13255">
        <ele>29.1</ele>
        <time>2015-07-18T16:00:31Z</time>
      </trkpt>
      <trkpt lat="50.35723" lon="3.13259">
        <ele>28.9</ele>
        <time>2015-07-18T16:00:34Z</time>
      </trkpt>
      <trkpt lat="50.35734" lon="3.13258">
        <ele>28.7</ele>
        <time>2015-07-18T16:00:37Z</time>
      </trkpt>
      <trkpt lat="50.35747" lon="3.13255">
        <ele>28.7</ele>
        <time>2015-07-18T16:00:40Z</time>
      </trkpt>
      <trkpt lat="50.35756" lon="3.13249">
        <ele>28.7</ele>
        <time>2015-07-18T16:00:42Z</time>
      </trkpt>
      <trkpt lat="50.35764" lon="3.13241">
        <ele>28.7</ele>
        <time>2015-07-18T16:00:44Z</time>
      </trkpt>
      <trkpt lat="50.35771" lon="3.13231">
        <ele>28.7</ele>
        <time>2015-07-18T16:00:46Z</time>
      </trkpt>
      <trkpt lat="50.35779" lon="3.13223">
        <ele>28.7</ele>
        <time>2015-07-18T16:00:48Z</time>
      </trkpt>
      <trkpt lat="50.35786" lon="3.13214">
        <ele>28.8</ele>
        <time>2015-07-18T16:00:50Z</time>
      </trkpt>
      <trkpt lat="50.35794" lon="3.13204">
        <ele>28.8</ele>
        <time>2015-07-18T16:00:52Z</time>
      </trkpt>
      <trkpt lat="50.35802" lon="3.13195">
        <ele>28.9</ele>
        <time>2015-07-18T16:00:54Z</time>
      </trkpt>
      <trkpt lat="50.3581" lon="3.13187">
        <ele>29</ele>
        <time>2015-07-18T16:00:56Z</time>
      </trkpt>
      <trkpt lat="50.35818" lon="3.13177">
        <ele>29</ele>
        <time>2015-07-18T16:00:58Z</time>
      </trkpt>
      <trkpt lat="50.35825" lon="3.13167">
        <ele>29.1</ele>
        <time>2015-07-18T16:01:00Z</time>
      </trkpt>
      <trkpt lat="50.35831" lon="3.13157">
        <ele>29.1</ele>
        <time>2015-07-18T16:01:02Z</time>
      </trkpt>
      <trkpt lat="50.35838" lon="3.13146">
        <ele>29.2</ele>
        <time>2015-07-18T16:01:04Z</time>
      </trkpt>
      <trkpt lat="50.35844" lon="3.13134">
        <ele>29.2</ele>
        <time>2015-07-18T16:01:06Z</time>
      </trkpt>
      <trkpt lat="50.35849" lon="3.13121">
        <ele>29.2</ele>
        <time>2015-07-18T16:01:08Z</time>
      </trkpt>
      <trkpt lat="50.35854" lon="3.13109">
        <ele>29.2</ele>
        <time>2015-07-18T16:01:10Z</time>
      </trkpt>
      <trkpt lat="50.35861" lon="3.13091">
        <ele>29.3</ele>
        <time>2015-07-18T16:01:13Z</time>
      </trkpt>
      <trkpt lat="50.35865" lon="3.13078">
        <ele>29.3</ele>
        <time>2015-07-18T16:01:15Z</time>
      </trkpt>
      <trkpt lat="50.35869" lon="3.13064">
        <ele>29.3</ele>
        <time>2015-07-18T16:01:17Z</time>
      </trkpt>
      <trkpt lat="50.35872" lon="3.13049">
        <ele>29.4</ele>
        <time>2015-07-18T16:01:19Z</time>
      </trkpt>
      <trkpt lat="50.35876" lon="3.13035">
        <ele>29.4</ele>
        <time>2015-07-18T16:01:21Z</time>
      </trkpt>
      <trkpt lat="50.35879" lon="3.1302">
        <ele>29.4</ele>
        <time>2015-07-18T16:01:23Z</time>
      </trkpt>
      <trkpt lat="50.35883" lon="3.13007">
        <ele>29.5</ele>
        <time>2015-07-18T16:01:25Z</time>
      </trkpt>
      <trkpt lat="50.35888" lon="3.12992">
        <ele>29.5</ele>
        <time>2015-07-18T16:01:28Z</time>
      </trkpt>
      <trkpt lat="50.35892" lon="3.12979">
        <ele>29.6</ele>
        <time>2015-07-18T16:01:33Z</time>
      </trkpt>
      <trkpt lat="50.359" lon="3.1297">
        <ele>29.6</ele>
        <time>2015-07-18T16:01:38Z</time>
      </trkpt>
      <trkpt lat="50.3591" lon="3.12976">
        <ele>29.6</ele>
        <time>2015-07-18T16:01:42Z</time>
      </trkpt>
      <trkpt lat="50.35921" lon="3.12979">
        <ele>29.6</ele>
        <time>2015-07-18T16:01:45Z</time>
      </trkpt>
      <trkpt lat="50.35931" lon="3.12974">
        <ele>29.6</ele>
        <time>2015-07-18T16:01:47Z</time>
      </trkpt>
      <trkpt lat="50.35941" lon="3.12961">
        <ele>29.6</ele>
        <time>2015-07-18T16:01:50Z</time>
      </trkpt>
      <trkpt lat="50.35947" lon="3.12948">
        <ele>29.8</ele>
        <time>2015-07-18T16:01:52Z</time>
      </trkpt>
      <trkpt lat="50.35952" lon="3.12933">
        <ele>30.1</ele>
        <time>2015-07-18T16:01:54Z</time>
      </trkpt>
      <trkpt lat="50.35957" lon="3.12917">
        <ele>30.5</ele>
        <time>2015-07-18T16:01:57Z</time>
      </trkpt>
      <trkpt lat="50.35962" lon="3.12902">
        <ele>30.9</ele>
        <time>2015-07-18T16:02:00Z</time>
      </trkpt>
      <trkpt lat="50.35961" lon="3.12884">
        <ele>31.3</ele>
        <time>2015-07-18T16:02:03Z</time>
      </trkpt>
      <trkpt lat="50.35959" lon="3.12864">
        <ele>31.7</ele>
        <time>2015-07-18T16:02:06Z</time>
      </trkpt>
      <trkpt lat="50.35957" lon="3.1285">
        <ele>31.9</ele>
        <time>2015-07-18T16:02:08Z</time>
      </trkpt>
      <trkpt lat="50.35957" lon="3.12834">
        <ele>32.3</ele>
        <time>2015-07-18T16:02:10Z</time>
      </trkpt>
      <trkpt lat="50.35957" lon="3.12819">
        <ele>32.5</ele>
        <time>2015-07-18T16:02:12Z</time>
      </trkpt>
      <trkpt lat="50.35959" lon="3.128">
        <ele>32.9</ele>
        <time>2015-07-18T16:02:15Z</time>
      </trkpt>
      <trkpt lat="50.35964" lon="3.12783">
        <ele>33.2</ele>
        <time>2015-07-18T16:02:18Z</time>
      </trkpt>
      <trkpt lat="50.3597" lon="3.1277">
        <ele>33.5</ele>
        <time>2015-07-18T16:02:21Z</time>
      </trkpt>
      <trkpt lat="50.35979" lon="3.12757">
        <ele>33.7</ele>
        <time>2015-07-18T16:02:24Z</time>
      </trkpt>
      <trkpt lat="50.35987" lon="3.12747">
        <ele>33.8</ele>
        <time>2015-07-18T16:02:26Z</time>
      </trkpt>
      <trkpt lat="50.35995" lon="3.12735">
        <ele>33.9</ele>
        <time>2015-07-18T16:02:28Z</time>
      </trkpt>
      <trkpt lat="50.36005" lon="3.12724">
        <ele>33.6</ele>
        <time>2015-07-18T16:02:30Z</time>
      </trkpt>
      <trkpt lat="50.36015" lon="3.12712">
        <ele>33.2</ele>
        <time>2015-07-18T16:02:32Z</time>
      </trkpt>
      <trkpt lat="50.36023" lon="3.12699">
        <ele>32.8</ele>
        <time>2015-07-18T16:02:34Z</time>
      </trkpt>
      <trkpt lat="50.36028" lon="3.12683">
        <ele>32.4</ele>
        <time>2015-07-18T16:02:37Z</time>
      </trkpt>
      <trkpt lat="50.3602" lon="3.12673">
        <ele>30.2</ele>
        <time>2015-07-18T16:03:01Z</time>
      </trkpt>
      <trkpt lat="50.36017" lon="3.12657">
        <ele>30</ele>
        <time>2015-07-18T16:03:04Z</time>
      </trkpt>
      <trkpt lat="50.36016" lon="3.12641">
        <ele>30</ele>
        <time>2015-07-18T16:03:06Z</time>
      </trkpt>
      <trkpt lat="50.36016" lon="3.12622">
        <ele>29.9</ele>
        <time>2015-07-18T16:03:08Z</time>
      </trkpt>
      <trkpt lat="50.36017" lon="3.12601">
        <ele>29.8</ele>
        <time>2015-07-18T16:03:10Z</time>
      </trkpt>
      <trkpt lat="50.36019" lon="3.12577">
        <ele>29.9</ele>
        <time>2015-07-18T16:03:12Z</time>
      </trkpt>
      <trkpt lat="50.36022" lon="3.12554">
        <ele>30</ele>
        <time>2015-07-18T16:03:14Z</time>
      </trkpt>
      <trkpt lat="50.36024" lon="3.12533">
        <ele>30</ele>
        <time>2015-07-18T16:03:16Z</time>
      </trkpt>
      <trkpt lat="50.36026" lon="3.12514">
        <ele>29.9</ele>
        <time>2015-07-18T16:03:18Z</time>
      </trkpt>
      <trkpt lat="50.3603" lon="3.12497">
        <ele>30.1</ele>
        <time>2015-07-18T16:03:20Z</time>
      </trkpt>
      <trkpt lat="50.36036" lon="3.12486">
        <ele>30.1</ele>
        <time>2015-07-18T16:03:22Z</time>
      </trkpt>
      <trkpt lat="50.36045" lon="3.12477">
        <ele>29.9</ele>
        <time>2015-07-18T16:03:26Z</time>
      </trkpt>
      <trkpt lat="50.36036" lon="3.12483">
        <ele>29.6</ele>
        <time>2015-07-18T16:03:51Z</time>
      </trkpt>
      <trkpt lat="50.36028" lon="3.12496">
        <ele>29.6</ele>
        <time>2015-07-18T16:03:56Z</time>
      </trkpt>
      <trkpt lat="50.36023" lon="3.12508">
        <ele>29.6</ele>
        <time>2015-07-18T16:04:01Z</time>
      </trkpt>
      <trkpt lat="50.36021" lon="3.12524">
        <ele>29.5</ele>
        <time>2015-07-18T16:04:07Z</time>
      </trkpt>
      <trkpt lat="50.36018" lon="3.1254">
        <ele>29.5</ele>
        <time>2015-07-18T16:04:15Z</time>
      </trkpt>
      <trkpt lat="50.36017" lon="3.12554">
        <ele>29.5</ele>
        <time>2015-07-18T16:04:20Z</time>
      </trkpt>
      <trkpt lat="50.36016" lon="3.12569">
        <ele>29.5</ele>
        <time>2015-07-18T16:04:25Z</time>
      </trkpt>
      <trkpt lat="50.36012" lon="3.12587">
        <ele>29.3</ele>
        <time>2015-07-18T16:04:30Z</time>
      </trkpt>
      <trkpt lat="50.36011" lon="3.12605">
        <ele>29.1</ele>
        <time>2015-07-18T16:04:34Z</time>
      </trkpt>
      <trkpt lat="50.3601" lon="3.12621">
        <ele>29</ele>
        <time>2015-07-18T16:04:37Z</time>
      </trkpt>
      <trkpt lat="50.3601" lon="3.12639">
        <ele>29</ele>
        <time>2015-07-18T16:04:40Z</time>
      </trkpt>
      <trkpt lat="50.36011" lon="3.12657">
        <ele>29</ele>
        <time>2015-07-18T16:04:43Z</time>
      </trkpt>
      <trkpt lat="50.36014" lon="3.12675">
        <ele>29.1</ele>
        <time>2015-07-18T16:04:46Z</time>
      </trkpt>
      <trkpt lat="50.36017" lon="3.12691">
        <ele>29.2</ele>
        <time>2015-07-18T16:04:49Z</time>
      </trkpt>
      <trkpt lat="50.3602" lon="3.12709">
        <ele>29.3</ele>
        <time>2015-07-18T16:04:52Z</time>
      </trkpt>
      <trkpt lat="50.36023" lon="3.1273">
        <ele>29.3</ele>
        <time>2015-07-18T16:04:55Z</time>
      </trkpt>
      <trkpt lat="50.36025" lon="3.12745">
        <ele>29.3</ele>
        <time>2015-07-18T16:04:57Z</time>
      </trkpt>
      <trkpt lat="50.36029" lon="3.12758">
        <ele>29.2</ele>
        <time>2015-07-18T16:04:59Z</time>
      </trkpt>
      <trkpt lat="50.36035" lon="3.1277">
        <ele>29.1</ele>
        <time>2015-07-18T16:05:01Z</time>
      </trkpt>
      <trkpt lat="50.36041" lon="3.12783">
        <ele>29.2</ele>
        <time>2015-07-18T16:05:03Z</time>
      </trkpt>
      <trkpt lat="50.36046" lon="3.12798">
        <ele>29.3</ele>
        <time>2015-07-18T16:05:05Z</time>
      </trkpt>
      <trkpt lat="50.36047" lon="3.12815">
        <ele>29.3</ele>
        <time>2015-07-18T16:05:07Z</time>
      </trkpt>
      <trkpt lat="50.36045" lon="3.1283">
        <ele>29.3</ele>
        <time>2015-07-18T16:05:09Z</time>
      </trkpt>
      <trkpt lat="50.36043" lon="3.12847">
        <ele>29.4</ele>
        <time>2015-07-18T16:05:11Z</time>
      </trkpt>
      <trkpt lat="50.3604" lon="3.12863">
        <ele>29.6</ele>
        <time>2015-07-18T16:05:13Z</time>
      </trkpt>
      <trkpt lat="50.36037" lon="3.12878">
        <ele>29.7</ele>
        <time>2015-07-18T16:05:15Z</time>
      </trkpt>
      <trkpt lat="50.36034" lon="3.12892">
        <ele>29.8</ele>
        <time>2015-07-18T16:05:17Z</time>
      </trkpt>
      <trkpt lat="50.36029" lon="3.1291">
        <ele>30</ele>
        <time>2015-07-18T16:05:20Z</time>
      </trkpt>
      <trkpt lat="50.36025" lon="3.12925">
        <ele>30.1</ele>
        <time>2015-07-18T16:05:23Z</time>
      </trkpt>
      <trkpt lat="50.36021" lon="3.12941">
        <ele>30.1</ele>
        <time>2015-07-18T16:05:26Z</time>
      </trkpt>
      <trkpt lat="50.36016" lon="3.12958">
        <ele>30.2</ele>
        <time>2015-07-18T16:05:29Z</time>
      </trkpt>
      <trkpt lat="50.36011" lon="3.12975">
        <ele>30.2</ele>
        <time>2015-07-18T16:05:32Z</time>
      </trkpt>
      <trkpt lat="50.36006" lon="3.12987">
        <ele>30.2</ele>
        <time>2015-07-18T16:05:35Z</time>
      </trkpt>
      <trkpt lat="50.36003" lon="3.13">
        <ele>30.2</ele>
        <time>2015-07-18T16:05:39Z</time>
      </trkpt>
      <trkpt lat="50.35998" lon="3.13013">
        <ele>29.7</ele>
        <time>2015-07-18T16:06:23Z</time>
      </trkpt>
      <trkpt lat="50.35994" lon="3.13026">
        <ele>29.5</ele>
        <time>2015-07-18T16:06:42Z</time>
      </trkpt>
      <trkpt lat="50.35996" lon="3.13042">
        <ele>29.4</ele>
        <time>2015-07-18T16:06:46Z</time>
      </trkpt>
      <trkpt lat="50.36001" lon="3.13056">
        <ele>29.4</ele>
        <time>2015-07-18T16:06:49Z</time>
      </trkpt>
      <trkpt lat="50.36008" lon="3.13065">
        <ele>29.3</ele>
        <time>2015-07-18T16:06:52Z</time>
      </trkpt>
      <trkpt lat="50.3602" lon="3.13074">
        <ele>29.2</ele>
        <time>2015-07-18T16:06:55Z</time>
      </trkpt>
      <trkpt lat="50.36028" lon="3.13081">
        <ele>29.1</ele>
        <time>2015-07-18T16:06:57Z</time>
      </trkpt>
      <trkpt lat="50.36035" lon="3.13088">
        <ele>29</ele>
        <time>2015-07-18T16:06:59Z</time>
      </trkpt>
      <trkpt lat="50.36043" lon="3.13097">
        <ele>29</ele>
        <time>2015-07-18T16:07:01Z</time>
      </trkpt>
      <trkpt lat="50.36052" lon="3.13104">
        <ele>28.9</ele>
        <time>2015-07-18T16:07:03Z</time>
      </trkpt>
      <trkpt lat="50.3606" lon="3.13111">
        <ele>28.9</ele>
        <time>2015-07-18T16:07:05Z</time>
      </trkpt>
      <trkpt lat="50.36071" lon="3.1312">
        <ele>28.8</ele>
        <time>2015-07-18T16:07:08Z</time>
      </trkpt>
      <trkpt lat="50.3608" lon="3.13126">
        <ele>28.7</ele>
        <time>2015-07-18T16:07:10Z</time>
      </trkpt>
      <trkpt lat="50.36088" lon="3.13133">
        <ele>28.7</ele>
        <time>2015-07-18T16:07:12Z</time>
      </trkpt>
      <trkpt lat="50.36096" lon="3.13139">
        <ele>28.6</ele>
        <time>2015-07-18T16:07:14Z</time>
      </trkpt>
      <trkpt lat="50.36105" lon="3.13146">
        <ele>28.6</ele>
        <time>2015-07-18T16:07:16Z</time>
      </trkpt>
      <trkpt lat="50.36113" lon="3.13152">
        <ele>28.5</ele>
        <time>2015-07-18T16:07:18Z</time>
      </trkpt>
      <trkpt lat="50.36123" lon="3.13158">
        <ele>28.5</ele>
        <time>2015-07-18T16:07:21Z</time>
      </trkpt>
      <trkpt lat="50.36132" lon="3.13159">
        <ele>28.5</ele>
        <time>2015-07-18T16:07:26Z</time>
      </trkpt>
      <trkpt lat="50.36139" lon="3.13148">
        <ele>28.4</ele>
        <time>2015-07-18T16:07:48Z</time>
      </trkpt>
      <trkpt lat="50.36139" lon="3.13128">
        <ele>28.4</ele>
        <time>2015-07-18T16:07:52Z</time>
      </trkpt>
      <trkpt lat="50.36139" lon="3.13114">
        <ele>28.4</ele>
        <time>2015-07-18T16:07:54Z</time>
      </trkpt>
      <trkpt lat="50.36137" lon="3.13097">
        <ele>28.4</ele>
        <time>2015-07-18T16:07:56Z</time>
      </trkpt>
      <trkpt lat="50.36138" lon="3.13077">
        <ele>28.4</ele>
        <time>2015-07-18T16:07:58Z</time>
      </trkpt>
      <trkpt lat="50.36139" lon="3.13056">
        <ele>28.4</ele>
        <time>2015-07-18T16:08:00Z</time>
      </trkpt>
      <trkpt lat="50.36141" lon="3.13035">
        <ele>28.4</ele>
        <time>2015-07-18T16:08:02Z</time>
      </trkpt>
      <trkpt lat="50.36143" lon="3.13013">
        <ele>28.4</ele>
        <time>2015-07-18T16:08:04Z</time>
      </trkpt>
      <trkpt lat="50.36146" lon="3.12991">
        <ele>28.4</ele>
        <time>2015-07-18T16:08:06Z</time>
      </trkpt>
      <trkpt lat="50.36149" lon="3.12968">
        <ele>28.4</ele>
        <time>2015-07-18T16:08:08Z</time>
      </trkpt>
      <trkpt lat="50.36152" lon="3.12945">
        <ele>28.4</ele>
        <time>2015-07-18T16:08:10Z</time>
      </trkpt>
      <trkpt lat="50.36156" lon="3.12923">
        <ele>28.4</ele>
        <time>2015-07-18T16:08:12Z</time>
      </trkpt>
      <trkpt lat="50.36159" lon="3.12902">
        <ele>28.4</ele>
        <time>2015-07-18T16:08:14Z</time>
      </trkpt>
      <trkpt lat="50.36163" lon="3.12881">
        <ele>28.4</ele>
        <time>2015-07-18T16:08:16Z</time>
      </trkpt>
      <trkpt lat="50.36166" lon="3.12861">
        <ele>28.5</ele>
        <time>2015-07-18T16:08:18Z</time>
      </trkpt>
      <trkpt lat="50.36169" lon="3.12842">
        <ele>28.5</ele>
        <time>2015-07-18T16:08:20Z</time>
      </trkpt>
      <trkpt lat="50.36172" lon="3.12823">
        <ele>28.5</ele>
        <time>2015-07-18T16:08:22Z</time>
      </trkpt>
      <trkpt lat="50.36175" lon="3.12804">
        <ele>28.5</ele>
        <time>2015-07-18T16:08:24Z</time>
      </trkpt>
      <trkpt lat="50.36178" lon="3.12786">
        <ele>28.5</ele>
        <time>2015-07-18T16:08:26Z</time>
      </trkpt>
      <trkpt lat="50.36181" lon="3.12767">
        <ele>28.5</ele>
        <time>2015-07-18T16:08:28Z</time>
      </trkpt>
      <trkpt lat="50.36183" lon="3.12748">
        <ele>28.5</ele>
        <time>2015-07-18T16:08:30Z</time>
      </trkpt>
      <trkpt lat="50.36185" lon="3.1273">
        <ele>28.5</ele>
        <time>2015-07-18T16:08:32Z</time>
      </trkpt>
      <trkpt lat="50.36187" lon="3.12711">
        <ele>28.5</ele>
        <time>2015-07-18T16:08:34Z</time>
      </trkpt>
      <trkpt lat="50.36189" lon="3.12692">
        <ele>28.5</ele>
        <time>2015-07-18T16:08:36Z</time>
      </trkpt>
      <trkpt lat="50.36191" lon="3.12674">
        <ele>28.5</ele>
        <time>2015-07-18T16:08:38Z</time>
      </trkpt>
      <trkpt lat="50.36193" lon="3.12655">
        <ele>28.5</ele>
        <time>2015-07-18T16:08:40Z</time>
      </trkpt>
      <trkpt lat="50.36196" lon="3.12637">
        <ele>28.4</ele>
        <time>2015-07-18T16:08:42Z</time>
      </trkpt>
      <trkpt lat="50.36198" lon="3.12619">
        <ele>28.4</ele>
        <time>2015-07-18T16:08:44Z</time>
      </trkpt>
      <trkpt lat="50.36201" lon="3.12601">
        <ele>28.4</ele>
        <time>2015-07-18T16:08:46Z</time>
      </trkpt>
      <trkpt lat="50.36205" lon="3.12584">
        <ele>28.4</ele>
        <time>2015-07-18T16:08:48Z</time>
      </trkpt>
      <trkpt lat="50.3621" lon="3.12566">
        <ele>28.4</ele>
        <time>2015-07-18T16:08:50Z</time>
      </trkpt>
      <trkpt lat="50.36214" lon="3.12549">
        <ele>28.4</ele>
        <time>2015-07-18T16:08:52Z</time>
      </trkpt>
      <trkpt lat="50.36219" lon="3.12532">
        <ele>28.3</ele>
        <time>2015-07-18T16:08:54Z</time>
      </trkpt>
      <trkpt lat="50.36224" lon="3.12517">
        <ele>28.3</ele>
        <time>2015-07-18T16:08:56Z</time>
      </trkpt>
      <trkpt lat="50.3623" lon="3.12503">
        <ele>28.3</ele>
        <time>2015-07-18T16:08:58Z</time>
      </trkpt>
      <trkpt lat="50.36237" lon="3.12491">
        <ele>28.4</ele>
        <time>2015-07-18T16:09:00Z</time>
      </trkpt>
      <trkpt lat="50.36247" lon="3.12481">
        <ele>28.4</ele>
        <time>2015-07-18T16:09:02Z</time>
      </trkpt>
      <trkpt lat="50.36255" lon="3.12469">
        <ele>28.5</ele>
        <time>2015-07-18T16:09:04Z</time>
      </trkpt>
      <trkpt lat="50.36261" lon="3.12452">
        <ele>28.6</ele>
        <time>2015-07-18T16:09:06Z</time>
      </trkpt>
      <trkpt lat="50.3626" lon="3.12433">
        <ele>28.7</ele>
        <time>2015-07-18T16:09:08Z</time>
      </trkpt>
      <trkpt lat="50.36256" lon="3.12412">
        <ele>28.8</ele>
        <time>2015-07-18T16:09:10Z</time>
      </trkpt>
      <trkpt lat="50.36254" lon="3.12387">
        <ele>28.9</ele>
        <time>2015-07-18T16:09:12Z</time>
      </trkpt>
      <trkpt lat="50.36255" lon="3.12362">
        <ele>28.9</ele>
        <time>2015-07-18T16:09:14Z</time>
      </trkpt>
      <trkpt lat="50.36259" lon="3.12338">
        <ele>28.9</ele>
        <time>2015-07-18T16:09:16Z</time>
      </trkpt>
      <trkpt lat="50.36261" lon="3.12315">
        <ele>28.8</ele>
        <time>2015-07-18T16:09:18Z</time>
      </trkpt>
      <trkpt lat="50.36264" lon="3.12292">
        <ele>28.8</ele>
        <time>2015-07-18T16:09:20Z</time>
      </trkpt>
      <trkpt lat="50.36267" lon="3.1227">
        <ele>28.8</ele>
        <time>2015-07-18T16:09:22Z</time>
      </trkpt>
      <trkpt lat="50.3627" lon="3.1225">
        <ele>28.8</ele>
        <time>2015-07-18T16:09:24Z</time>
      </trkpt>
      <trkpt lat="50.36272" lon="3.1223">
        <ele>28.8</ele>
        <time>2015-07-18T16:09:26Z</time>
      </trkpt>
      <trkpt lat="50.3627" lon="3.12212">
        <ele>28.8</ele>
        <time>2015-07-18T16:09:28Z</time>
      </trkpt>
      <trkpt lat="50.36261" lon="3.122">
        <ele>28.7</ele>
        <time>2015-07-18T16:09:30Z</time>
      </trkpt>
      <trkpt lat="50.36252" lon="3.12188">
        <ele>28.7</ele>
        <time>2015-07-18T16:09:32Z</time>
      </trkpt>
      <trkpt lat="50.36246" lon="3.12172">
        <ele>28.7</ele>
        <time>2015-07-18T16:09:34Z</time>
      </trkpt>
      <trkpt lat="50.36244" lon="3.12156">
        <ele>28.7</ele>
        <time>2015-07-18T16:09:36Z</time>
      </trkpt>
      <trkpt lat="50.36247" lon="3.12139">
        <ele>28.7</ele>
        <time>2015-07-18T16:09:39Z</time>
      </trkpt>
      <trkpt lat="50.36252" lon="3.12123">
        <ele>28.7</ele>
        <time>2015-07-18T16:09:43Z</time>
      </trkpt>
      <trkpt lat="50.36253" lon="3.12107">
        <ele>28.7</ele>
        <time>2015-07-18T16:09:47Z</time>
      </trkpt>
      <trkpt lat="50.36254" lon="3.12093">
        <ele>28.7</ele>
        <time>2015-07-18T16:09:51Z</time>
      </trkpt>
      <trkpt lat="50.36255" lon="3.12078">
        <ele>28.8</ele>
        <time>2015-07-18T16:09:55Z</time>
      </trkpt>
      <trkpt lat="50.36257" lon="3.12063">
        <ele>28.8</ele>
        <time>2015-07-18T16:09:58Z</time>
      </trkpt>
      <trkpt lat="50.36258" lon="3.12044">
        <ele>28.8</ele>
        <time>2015-07-18T16:10:01Z</time>
      </trkpt>
      <trkpt lat="50.36259" lon="3.12023">
        <ele>29</ele>
        <time>2015-07-18T16:10:04Z</time>
      </trkpt>
      <trkpt lat="50.3626" lon="3.12007">
        <ele>29.2</ele>
        <time>2015-07-18T16:10:06Z</time>
      </trkpt>
      <trkpt lat="50.36261" lon="3.11992">
        <ele>29.3</ele>
        <time>2015-07-18T16:10:08Z</time>
      </trkpt>
      <trkpt lat="50.36262" lon="3.11976">
        <ele>29.5</ele>
        <time>2015-07-18T16:10:10Z</time>
      </trkpt>
      <trkpt lat="50.36262" lon="3.1196">
        <ele>29.7</ele>
        <time>2015-07-18T16:10:12Z</time>
      </trkpt>
      <trkpt lat="50.36262" lon="3.11943">
        <ele>29.9</ele>
        <time>2015-07-18T16:10:14Z</time>
      </trkpt>
      <trkpt lat="50.3626" lon="3.11927">
        <ele>30</ele>
        <time>2015-07-18T16:10:16Z</time>
      </trkpt>
      <trkpt lat="50.36258" lon="3.1191">
        <ele>30.1</ele>
        <time>2015-07-18T16:10:18Z</time>
      </trkpt>
      <trkpt lat="50.36255" lon="3.11894">
        <ele>30.3</ele>
        <time>2015-07-18T16:10:20Z</time>
      </trkpt>
      <trkpt lat="50.36252" lon="3.11878">
        <ele>30.4</ele>
        <time>2015-07-18T16:10:22Z</time>
      </trkpt>
      <trkpt lat="50.3625" lon="3.11863">
        <ele>30.4</ele>
        <time>2015-07-18T16:10:24Z</time>
      </trkpt>
      <trkpt lat="50.36249" lon="3.11848">
        <ele>30.5</ele>
        <time>2015-07-18T16:10:26Z</time>
      </trkpt>
      <trkpt lat="50.36248" lon="3.11833">
        <ele>30.7</ele>
        <time>2015-07-18T16:10:28Z</time>
      </trkpt>
      <trkpt lat="50.36249" lon="3.11818">
        <ele>30.8</ele>
        <time>2015-07-18T16:10:30Z</time>
      </trkpt>
      <trkpt lat="50.36249" lon="3.11802">
        <ele>30.8</ele>
        <time>2015-07-18T16:10:32Z</time>
      </trkpt>
      <trkpt lat="50.3625" lon="3.11787">
        <ele>31</ele>
        <time>2015-07-18T16:10:34Z</time>
      </trkpt>
      <trkpt lat="50.36251" lon="3.11771">
        <ele>31.1</ele>
        <time>2015-07-18T16:10:36Z</time>
      </trkpt>
      <trkpt lat="50.36253" lon="3.11756">
        <ele>31.2</ele>
        <time>2015-07-18T16:10:38Z</time>
      </trkpt>
      <trkpt lat="50.36255" lon="3.1174">
        <ele>31.4</ele>
        <time>2015-07-18T16:10:40Z</time>
      </trkpt>
      <trkpt lat="50.36257" lon="3.11724">
        <ele>31.6</ele>
        <time>2015-07-18T16:10:42Z</time>
      </trkpt>
      <trkpt lat="50.3626" lon="3.11708">
        <ele>31.8</ele>
        <time>2015-07-18T16:10:44Z</time>
      </trkpt>
      <trkpt lat="50.36262" lon="3.11692">
        <ele>32</ele>
        <time>2015-07-18T16:10:46Z</time>
      </trkpt>
      <trkpt lat="50.36264" lon="3.11675">
        <ele>32.1</ele>
        <time>2015-07-18T16:10:48Z</time>
      </trkpt>
      <trkpt lat="50.36266" lon="3.11658">
        <ele>32.3</ele>
        <time>2015-07-18T16:10:50Z</time>
      </trkpt>
      <trkpt lat="50.36267" lon="3.11641">
        <ele>32.5</ele>
        <time>2015-07-18T16:10:52Z</time>
      </trkpt>
      <trkpt lat="50.36269" lon="3.11623">
        <ele>32.7</ele>
        <time>2015-07-18T16:10:54Z</time>
      </trkpt>
      <trkpt lat="50.36269" lon="3.11604">
        <ele>33</ele>
        <time>2015-07-18T16:10:56Z</time>
      </trkpt>
      <trkpt lat="50.36269" lon="3.11586">
        <ele>33.4</ele>
        <time>2015-07-18T16:10:58Z</time>
      </trkpt>
      <trkpt lat="50.36269" lon="3.11568">
        <ele>33.7</ele>
        <time>2015-07-18T16:11:00Z</time>
      </trkpt>
      <trkpt lat="50.36268" lon="3.11552">
        <ele>33.9</ele>
        <time>2015-07-18T16:11:02Z</time>
      </trkpt>
      <trkpt lat="50.36269" lon="3.11535">
        <ele>34.2</ele>
        <time>2015-07-18T16:11:04Z</time>
      </trkpt>
      <trkpt lat="50.36271" lon="3.1152">
        <ele>34.4</ele>
        <time>2015-07-18T16:11:06Z</time>
      </trkpt>
      <trkpt lat="50.36273" lon="3.11501">
        <ele>34.6</ele>
        <time>2015-07-18T16:11:09Z</time>
      </trkpt>
      <trkpt lat="50.3628" lon="3.11483">
        <ele>34.9</ele>
        <time>2015-07-18T16:11:12Z</time>
      </trkpt>
      <trkpt lat="50.36286" lon="3.1147">
        <ele>35.1</ele>
        <time>2015-07-18T16:11:14Z</time>
      </trkpt>
      <trkpt lat="50.36294" lon="3.11458">
        <ele>35.3</ele>
        <time>2015-07-18T16:11:16Z</time>
      </trkpt>
      <trkpt lat="50.36301" lon="3.11446">
        <ele>35.4</ele>
        <time>2015-07-18T16:11:18Z</time>
      </trkpt>
      <trkpt lat="50.36309" lon="3.11433">
        <ele>35.6</ele>
        <time>2015-07-18T16:11:20Z</time>
      </trkpt>
      <trkpt lat="50.36316" lon="3.11421">
        <ele>35.7</ele>
        <time>2015-07-18T16:11:22Z</time>
      </trkpt>
      <trkpt lat="50.36324" lon="3.11409">
        <ele>35.8</ele>
        <time>2015-07-18T16:11:24Z</time>
      </trkpt>
      <trkpt lat="50.36331" lon="3.11396">
        <ele>35.9</ele>
        <time>2015-07-18T16:11:26Z</time>
      </trkpt>
      <trkpt lat="50.36338" lon="3.11382">
        <ele>36</ele>
        <time>2015-07-18T16:11:28Z</time>
      </trkpt>
      <trkpt lat="50.36345" lon="3.1137">
        <ele>36.1</ele>
        <time>2015-07-18T16:11:30Z</time>
      </trkpt>
      <trkpt lat="50.36352" lon="3.11358">
        <ele>36.3</ele>
        <time>2015-07-18T16:11:32Z</time>
      </trkpt>
      <trkpt lat="50.3636" lon="3.11346">
        <ele>36.4</ele>
        <time>2015-07-18T16:11:34Z</time>
      </trkpt>
      <trkpt lat="50.36367" lon="3.11333">
        <ele>36.5</ele>
        <time>2015-07-18T16:11:36Z</time>
      </trkpt>
      <trkpt lat="50.36373" lon="3.11319">
        <ele>36.6</ele>
        <time>2015-07-18T16:11:38Z</time>
      </trkpt>
      <trkpt lat="50.36379" lon="3.11306">
        <ele>36.7</ele>
        <time>2015-07-18T16:11:40Z</time>
      </trkpt>
      <trkpt lat="50.36387" lon="3.11294">
        <ele>36.7</ele>
        <time>2015-07-18T16:11:42Z</time>
      </trkpt>
      <trkpt lat="50.36394" lon="3.11281">
        <ele>36.8</ele>
        <time>2015-07-18T16:11:44Z</time>
      </trkpt>
      <trkpt lat="50.364" lon="3.11267">
        <ele>36.9</ele>
        <time>2015-07-18T16:11:46Z</time>
      </trkpt>
      <trkpt lat="50.36406" lon="3.11253">
        <ele>36.9</ele>
        <time>2015-07-18T16:11:48Z</time>
      </trkpt>
      <trkpt lat="50.36414" lon="3.11238">
        <ele>36.9</ele>
        <time>2015-07-18T16:11:50Z</time>
      </trkpt>
      <trkpt lat="50.36421" lon="3.11224">
        <ele>36.9</ele>
        <time>2015-07-18T16:11:52Z</time>
      </trkpt>
      <trkpt lat="50.36429" lon="3.11209">
        <ele>36.9</ele>
        <time>2015-07-18T16:11:54Z</time>
      </trkpt>
      <trkpt lat="50.36437" lon="3.11197">
        <ele>36.9</ele>
        <time>2015-07-18T16:11:56Z</time>
      </trkpt>
      <trkpt lat="50.36446" lon="3.11188">
        <ele>36.9</ele>
        <time>2015-07-18T16:11:58Z</time>
      </trkpt>
      <trkpt lat="50.36454" lon="3.11179">
        <ele>36.8</ele>
        <time>2015-07-18T16:12:00Z</time>
      </trkpt>
      <trkpt lat="50.36453" lon="3.11159">
        <ele>36.7</ele>
        <time>2015-07-18T16:12:03Z</time>
      </trkpt>
      <trkpt lat="50.36449" lon="3.11143">
        <ele>36.7</ele>
        <time>2015-07-18T16:12:05Z</time>
      </trkpt>
      <trkpt lat="50.36452" lon="3.11127">
        <ele>36.5</ele>
        <time>2015-07-18T16:12:07Z</time>
      </trkpt>
      <trkpt lat="50.36457" lon="3.11113">
        <ele>36.4</ele>
        <time>2015-07-18T16:12:09Z</time>
      </trkpt>
      <trkpt lat="50.36462" lon="3.11098">
        <ele>36.3</ele>
        <time>2015-07-18T16:12:11Z</time>
      </trkpt>
      <trkpt lat="50.36467" lon="3.11082">
        <ele>36.2</ele>
        <time>2015-07-18T16:12:13Z</time>
      </trkpt>
      <trkpt lat="50.36474" lon="3.11066">
        <ele>36</ele>
        <time>2015-07-18T16:12:15Z</time>
      </trkpt>
      <trkpt lat="50.3648" lon="3.11049">
        <ele>35.9</ele>
        <time>2015-07-18T16:12:17Z</time>
      </trkpt>
      <trkpt lat="50.36486" lon="3.11032">
        <ele>35.7</ele>
        <time>2015-07-18T16:12:19Z</time>
      </trkpt>
      <trkpt lat="50.36491" lon="3.11017">
        <ele>35.6</ele>
        <time>2015-07-18T16:12:21Z</time>
      </trkpt>
      <trkpt lat="50.36497" lon="3.11001">
        <ele>35.5</ele>
        <time>2015-07-18T16:12:23Z</time>
      </trkpt>
      <trkpt lat="50.36502" lon="3.10984">
        <ele>35.4</ele>
        <time>2015-07-18T16:12:25Z</time>
      </trkpt>
      <trkpt lat="50.36506" lon="3.10967">
        <ele>35.3</ele>
        <time>2015-07-18T16:12:27Z</time>
      </trkpt>
      <trkpt lat="50.36508" lon="3.10951">
        <ele>35.2</ele>
        <time>2015-07-18T16:12:29Z</time>
      </trkpt>
      <trkpt lat="50.36511" lon="3.10935">
        <ele>35.1</ele>
        <time>2015-07-18T16:12:31Z</time>
      </trkpt>
      <trkpt lat="50.36512" lon="3.10915">
        <ele>35.1</ele>
        <time>2015-07-18T16:12:34Z</time>
      </trkpt>
      <trkpt lat="50.36512" lon="3.10894">
        <ele>35</ele>
        <time>2015-07-18T16:12:37Z</time>
      </trkpt>
      <trkpt lat="50.36514" lon="3.10874">
        <ele>34.9</ele>
        <time>2015-07-18T16:12:40Z</time>
      </trkpt>
      <trkpt lat="50.36516" lon="3.10855">
        <ele>34.8</ele>
        <time>2015-07-18T16:12:43Z</time>
      </trkpt>
      <trkpt lat="50.36518" lon="3.10835">
        <ele>34.8</ele>
        <time>2015-07-18T16:12:46Z</time>
      </trkpt>
      <trkpt lat="50.3652" lon="3.10818">
        <ele>34.7</ele>
        <time>2015-07-18T16:12:49Z</time>
      </trkpt>
      <trkpt lat="50.36522" lon="3.10801">
        <ele>34.6</ele>
        <time>2015-07-18T16:12:52Z</time>
      </trkpt>
      <trkpt lat="50.36525" lon="3.10785">
        <ele>34.6</ele>
        <time>2015-07-18T16:12:55Z</time>
      </trkpt>
      <trkpt lat="50.36527" lon="3.1077">
        <ele>34.6</ele>
        <time>2015-07-18T16:12:58Z</time>
      </trkpt>
      <trkpt lat="50.3653" lon="3.10752">
        <ele>34.5</ele>
        <time>2015-07-18T16:13:02Z</time>
      </trkpt>
      <trkpt lat="50.36532" lon="3.10737">
        <ele>34.5</ele>
        <time>2015-07-18T16:13:05Z</time>
      </trkpt>
      <trkpt lat="50.36534" lon="3.10722">
        <ele>34.5</ele>
        <time>2015-07-18T16:13:08Z</time>
      </trkpt>
      <trkpt lat="50.36537" lon="3.10708">
        <ele>34.6</ele>
        <time>2015-07-18T16:13:11Z</time>
      </trkpt>
      <trkpt lat="50.3654" lon="3.10692">
        <ele>34.6</ele>
        <time>2015-07-18T16:13:14Z</time>
      </trkpt>
      <trkpt lat="50.36543" lon="3.10674">
        <ele>34.7</ele>
        <time>2015-07-18T16:13:17Z</time>
      </trkpt>
      <trkpt lat="50.36547" lon="3.10654">
        <ele>34.8</ele>
        <time>2015-07-18T16:13:20Z</time>
      </trkpt>
      <trkpt lat="50.3655" lon="3.1064">
        <ele>34.9</ele>
        <time>2015-07-18T16:13:22Z</time>
      </trkpt>
      <trkpt lat="50.36553" lon="3.10625">
        <ele>35</ele>
        <time>2015-07-18T16:13:24Z</time>
      </trkpt>
      <trkpt lat="50.36557" lon="3.1061">
        <ele>35.1</ele>
        <time>2015-07-18T16:13:26Z</time>
      </trkpt>
      <trkpt lat="50.3656" lon="3.10594">
        <ele>35.2</ele>
        <time>2015-07-18T16:13:28Z</time>
      </trkpt>
      <trkpt lat="50.36564" lon="3.10577">
        <ele>35.3</ele>
        <time>2015-07-18T16:13:30Z</time>
      </trkpt>
      <trkpt lat="50.36568" lon="3.10559">
        <ele>35.4</ele>
        <time>2015-07-18T16:13:32Z</time>
      </trkpt>
      <trkpt lat="50.36572" lon="3.1054">
        <ele>35.6</ele>
        <time>2015-07-18T16:13:34Z</time>
      </trkpt>
      <trkpt lat="50.36576" lon="3.10519">
        <ele>35.7</ele>
        <time>2015-07-18T16:13:36Z</time>
      </trkpt>
      <trkpt lat="50.36581" lon="3.10498">
        <ele>35.8</ele>
        <time>2015-07-18T16:13:38Z</time>
      </trkpt>
      <trkpt lat="50.36585" lon="3.10479">
        <ele>35.9</ele>
        <time>2015-07-18T16:13:40Z</time>
      </trkpt>
      <trkpt lat="50.36589" lon="3.10461">
        <ele>35.9</ele>
        <time>2015-07-18T16:13:42Z</time>
      </trkpt>
      <trkpt lat="50.36593" lon="3.10445">
        <ele>36</ele>
        <time>2015-07-18T16:13:44Z</time>
      </trkpt>
      <trkpt lat="50.36596" lon="3.10428">
        <ele>36.1</ele>
        <time>2015-07-18T16:13:46Z</time>
      </trkpt>
      <trkpt lat="50.366" lon="3.10411">
        <ele>36.2</ele>
        <time>2015-07-18T16:13:48Z</time>
      </trkpt>
      <trkpt lat="50.36603" lon="3.10393">
        <ele>36.2</ele>
        <time>2015-07-18T16:13:50Z</time>
      </trkpt>
      <trkpt lat="50.36606" lon="3.10376">
        <ele>36.3</ele>
        <time>2015-07-18T16:13:52Z</time>
      </trkpt>
      <trkpt lat="50.36608" lon="3.10359">
        <ele>36.4</ele>
        <time>2015-07-18T16:13:54Z</time>
      </trkpt>
      <trkpt lat="50.36611" lon="3.10343">
        <ele>36.4</ele>
        <time>2015-07-18T16:13:56Z</time>
      </trkpt>
      <trkpt lat="50.36614" lon="3.10326">
        <ele>36.5</ele>
        <time>2015-07-18T16:13:58Z</time>
      </trkpt>
      <trkpt lat="50.36616" lon="3.10309">
        <ele>36.6</ele>
        <time>2015-07-18T16:14:00Z</time>
      </trkpt>
      <trkpt lat="50.36618" lon="3.10292">
        <ele>36.6</ele>
        <time>2015-07-18T16:14:02Z</time>
      </trkpt>
      <trkpt lat="50.36621" lon="3.10276">
        <ele>36.7</ele>
        <time>2015-07-18T16:14:04Z</time>
      </trkpt>
      <trkpt lat="50.36624" lon="3.10261">
        <ele>36.8</ele>
        <time>2015-07-18T16:14:06Z</time>
      </trkpt>
      <trkpt lat="50.36627" lon="3.10245">
        <ele>36.9</ele>
        <time>2015-07-18T16:14:08Z</time>
      </trkpt>
      <trkpt lat="50.36629" lon="3.10228">
        <ele>36.9</ele>
        <time>2015-07-18T16:14:10Z</time>
      </trkpt>
      <trkpt lat="50.3663" lon="3.10212">
        <ele>37</ele>
        <time>2015-07-18T16:14:12Z</time>
      </trkpt>
      <trkpt lat="50.36631" lon="3.10195">
        <ele>37</ele>
        <time>2015-07-18T16:14:14Z</time>
      </trkpt>
      <trkpt lat="50.36631" lon="3.10178">
        <ele>37.1</ele>
        <time>2015-07-18T16:14:16Z</time>
      </trkpt>
      <trkpt lat="50.36629" lon="3.10161">
        <ele>37.2</ele>
        <time>2015-07-18T16:14:18Z</time>
      </trkpt>
      <trkpt lat="50.36627" lon="3.10144">
        <ele>37.2</ele>
        <time>2015-07-18T16:14:20Z</time>
      </trkpt>
      <trkpt lat="50.36624" lon="3.10126">
        <ele>37.3</ele>
        <time>2015-07-18T16:14:22Z</time>
      </trkpt>
      <trkpt lat="50.36622" lon="3.10109">
        <ele>37.4</ele>
        <time>2015-07-18T16:14:24Z</time>
      </trkpt>
      <trkpt lat="50.36619" lon="3.10093">
        <ele>37.6</ele>
        <time>2015-07-18T16:14:26Z</time>
      </trkpt>
      <trkpt lat="50.36617" lon="3.10076">
        <ele>37.7</ele>
        <time>2015-07-18T16:14:28Z</time>
      </trkpt>
      <trkpt lat="50.36614" lon="3.10059">
        <ele>37.8</ele>
        <time>2015-07-18T16:14:30Z</time>
      </trkpt>
      <trkpt lat="50.36611" lon="3.10042">
        <ele>37.9</ele>
        <time>2015-07-18T16:14:32Z</time>
      </trkpt>
      <trkpt lat="50.36609" lon="3.10025">
        <ele>37.9</ele>
        <time>2015-07-18T16:14:34Z</time>
      </trkpt>
      <trkpt lat="50.36607" lon="3.10008">
        <ele>38</ele>
        <time>2015-07-18T16:14:36Z</time>
      </trkpt>
      <trkpt lat="50.36604" lon="3.09991">
        <ele>38.1</ele>
        <time>2015-07-18T16:14:38Z</time>
      </trkpt>
      <trkpt lat="50.36601" lon="3.09974">
        <ele>38.1</ele>
        <time>2015-07-18T16:14:40Z</time>
      </trkpt>
      <trkpt lat="50.36598" lon="3.09957">
        <ele>38.2</ele>
        <time>2015-07-18T16:14:42Z</time>
      </trkpt>
      <trkpt lat="50.36596" lon="3.0994">
        <ele>38.2</ele>
        <time>2015-07-18T16:14:44Z</time>
      </trkpt>
      <trkpt lat="50.36593" lon="3.09924">
        <ele>38.3</ele>
        <time>2015-07-18T16:14:46Z</time>
      </trkpt>
      <trkpt lat="50.36589" lon="3.09908">
        <ele>38.4</ele>
        <time>2015-07-18T16:14:48Z</time>
      </trkpt>
      <trkpt lat="50.36584" lon="3.09892">
        <ele>38.5</ele>
        <time>2015-07-18T16:14:50Z</time>
      </trkpt>
      <trkpt lat="50.3658" lon="3.09877">
        <ele>38.6</ele>
        <time>2015-07-18T16:14:52Z</time>
      </trkpt>
      <trkpt lat="50.36575" lon="3.09861">
        <ele>38.7</ele>
        <time>2015-07-18T16:14:54Z</time>
      </trkpt>
      <trkpt lat="50.3657" lon="3.09845">
        <ele>38.8</ele>
        <time>2015-07-18T16:14:56Z</time>
      </trkpt>
      <trkpt lat="50.36565" lon="3.0983">
        <ele>38.9</ele>
        <time>2015-07-18T16:14:58Z</time>
      </trkpt>
      <trkpt lat="50.36561" lon="3.09815">
        <ele>39</ele>
        <time>2015-07-18T16:15:00Z</time>
      </trkpt>
      <trkpt lat="50.36556" lon="3.098">
        <ele>39</ele>
        <time>2015-07-18T16:15:02Z</time>
      </trkpt>
      <trkpt lat="50.36552" lon="3.09786">
        <ele>39.1</ele>
        <time>2015-07-18T16:15:04Z</time>
      </trkpt>
      <trkpt lat="50.36548" lon="3.09772">
        <ele>39.1</ele>
        <time>2015-07-18T16:15:06Z</time>
      </trkpt>
      <trkpt lat="50.36543" lon="3.09752">
        <ele>39.2</ele>
        <time>2015-07-18T16:15:09Z</time>
      </trkpt>
      <trkpt lat="50.3654" lon="3.09738">
        <ele>39.2</ele>
        <time>2015-07-18T16:15:11Z</time>
      </trkpt>
      <trkpt lat="50.36537" lon="3.09723">
        <ele>39.3</ele>
        <time>2015-07-18T16:15:13Z</time>
      </trkpt>
      <trkpt lat="50.36534" lon="3.09709">
        <ele>39.5</ele>
        <time>2015-07-18T16:15:15Z</time>
      </trkpt>
      <trkpt lat="50.36529" lon="3.09696">
        <ele>39.6</ele>
        <time>2015-07-18T16:15:17Z</time>
      </trkpt>
      <trkpt lat="50.36521" lon="3.09684">
        <ele>39.7</ele>
        <time>2015-07-18T16:15:19Z</time>
      </trkpt>
      <trkpt lat="50.36511" lon="3.09676">
        <ele>39.8</ele>
        <time>2015-07-18T16:15:21Z</time>
      </trkpt>
      <trkpt lat="50.365" lon="3.0967">
        <ele>39.8</ele>
        <time>2015-07-18T16:15:23Z</time>
      </trkpt>
      <trkpt lat="50.36488" lon="3.09664">
        <ele>39.9</ele>
        <time>2015-07-18T16:15:25Z</time>
      </trkpt>
      <trkpt lat="50.36476" lon="3.09659">
        <ele>39.9</ele>
        <time>2015-07-18T16:15:27Z</time>
      </trkpt>
      <trkpt lat="50.36465" lon="3.09654">
        <ele>40</ele>
        <time>2015-07-18T16:15:29Z</time>
      </trkpt>
      <trkpt lat="50.36455" lon="3.0965">
        <ele>40</ele>
        <time>2015-07-18T16:15:31Z</time>
      </trkpt>
      <trkpt lat="50.36444" lon="3.09645">
        <ele>40</ele>
        <time>2015-07-18T16:15:34Z</time>
      </trkpt>
      <trkpt lat="50.36436" lon="3.09638">
        <ele>40.1</ele>
        <time>2015-07-18T16:15:39Z</time>
      </trkpt>
      <trkpt lat="50.36434" lon="3.09622">
        <ele>40.1</ele>
        <time>2015-07-18T16:15:43Z</time>
      </trkpt>
      <trkpt lat="50.36437" lon="3.09606">
        <ele>40.1</ele>
        <time>2015-07-18T16:15:46Z</time>
      </trkpt>
      <trkpt lat="50.36439" lon="3.09586">
        <ele>40.1</ele>
        <time>2015-07-18T16:15:49Z</time>
      </trkpt>
      <trkpt lat="50.36441" lon="3.0957">
        <ele>40.1</ele>
        <time>2015-07-18T16:15:51Z</time>
      </trkpt>
      <trkpt lat="50.36442" lon="3.09554">
        <ele>40.1</ele>
        <time>2015-07-18T16:15:53Z</time>
      </trkpt>
      <trkpt lat="50.36443" lon="3.09537">
        <ele>40.1</ele>
        <time>2015-07-18T16:15:55Z</time>
      </trkpt>
      <trkpt lat="50.36444" lon="3.09519">
        <ele>40.1</ele>
        <time>2015-07-18T16:15:57Z</time>
      </trkpt>
      <trkpt lat="50.36444" lon="3.095">
        <ele>40.1</ele>
        <time>2015-07-18T16:15:59Z</time>
      </trkpt>
      <trkpt lat="50.36444" lon="3.09483">
        <ele>40.1</ele>
        <time>2015-07-18T16:16:01Z</time>
      </trkpt>
      <trkpt lat="50.36444" lon="3.09465">
        <ele>40.3</ele>
        <time>2015-07-18T16:16:03Z</time>
      </trkpt>
      <trkpt lat="50.36445" lon="3.09447">
        <ele>40.4</ele>
        <time>2015-07-18T16:16:05Z</time>
      </trkpt>
      <trkpt lat="50.36445" lon="3.0943">
        <ele>40.6</ele>
        <time>2015-07-18T16:16:07Z</time>
      </trkpt>
      <trkpt lat="50.36445" lon="3.09413">
        <ele>40.7</ele>
        <time>2015-07-18T16:16:09Z</time>
      </trkpt>
      <trkpt lat="50.36445" lon="3.09398">
        <ele>40.9</ele>
        <time>2015-07-18T16:16:11Z</time>
      </trkpt>
      <trkpt lat="50.36445" lon="3.09382">
        <ele>41.1</ele>
        <time>2015-07-18T16:16:13Z</time>
      </trkpt>
      <trkpt lat="50.36445" lon="3.09365">
        <ele>41.3</ele>
        <time>2015-07-18T16:16:15Z</time>
      </trkpt>
      <trkpt lat="50.36445" lon="3.09349">
        <ele>41.6</ele>
        <time>2015-07-18T16:16:17Z</time>
      </trkpt>
      <trkpt lat="50.36446" lon="3.09334">
        <ele>41.8</ele>
        <time>2015-07-18T16:16:19Z</time>
      </trkpt>
      <trkpt lat="50.36446" lon="3.09319">
        <ele>42.1</ele>
        <time>2015-07-18T16:16:21Z</time>
      </trkpt>
      <trkpt lat="50.36446" lon="3.09304">
        <ele>42.3</ele>
        <time>2015-07-18T16:16:23Z</time>
      </trkpt>
      <trkpt lat="50.36446" lon="3.09289">
        <ele>42.5</ele>
        <time>2015-07-18T16:16:25Z</time>
      </trkpt>
      <trkpt lat="50.36447" lon="3.09274">
        <ele>42.8</ele>
        <time>2015-07-18T16:16:27Z</time>
      </trkpt>
      <trkpt lat="50.36447" lon="3.09259">
        <ele>43</ele>
        <time>2015-07-18T16:16:29Z</time>
      </trkpt>
      <trkpt lat="50.36447" lon="3.09244">
        <ele>43.4</ele>
        <time>2015-07-18T16:16:31Z</time>
      </trkpt>
      <trkpt lat="50.36447" lon="3.09229">
        <ele>43.7</ele>
        <time>2015-07-18T16:16:33Z</time>
      </trkpt>
      <trkpt lat="50.36447" lon="3.09214">
        <ele>44</ele>
        <time>2015-07-18T16:16:35Z</time>
      </trkpt>
      <trkpt lat="50.36448" lon="3.09197">
        <ele>44.2</ele>
        <time>2015-07-18T16:16:37Z</time>
      </trkpt>
      <trkpt lat="50.3645" lon="3.09179">
        <ele>44.4</ele>
        <time>2015-07-18T16:16:39Z</time>
      </trkpt>
      <trkpt lat="50.36453" lon="3.09161">
        <ele>44.6</ele>
        <time>2015-07-18T16:16:41Z</time>
      </trkpt>
      <trkpt lat="50.36455" lon="3.09142">
        <ele>44.8</ele>
        <time>2015-07-18T16:16:43Z</time>
      </trkpt>
      <trkpt lat="50.36459" lon="3.09127">
        <ele>44.9</ele>
        <time>2015-07-18T16:16:45Z</time>
      </trkpt>
      <trkpt lat="50.36464" lon="3.09114">
        <ele>45</ele>
        <time>2015-07-18T16:16:48Z</time>
      </trkpt>
      <trkpt lat="50.36471" lon="3.09102">
        <ele>44.4</ele>
        <time>2015-07-18T16:19:21Z</time>
      </trkpt>
      <trkpt lat="50.36476" lon="3.09083">
        <ele>44.4</ele>
        <time>2015-07-18T16:19:25Z</time>
      </trkpt>
      <trkpt lat="50.36481" lon="3.09071">
        <ele>44.4</ele>
        <time>2015-07-18T16:19:27Z</time>
      </trkpt>
      <trkpt lat="50.36486" lon="3.09058">
        <ele>44.4</ele>
        <time>2015-07-18T16:19:29Z</time>
      </trkpt>
      <trkpt lat="50.36492" lon="3.09047">
        <ele>44.4</ele>
        <time>2015-07-18T16:19:31Z</time>
      </trkpt>
      <trkpt lat="50.365" lon="3.09035">
        <ele>44.4</ele>
        <time>2015-07-18T16:19:33Z</time>
      </trkpt>
      <trkpt lat="50.36509" lon="3.09023">
        <ele>44.4</ele>
        <time>2015-07-18T16:19:35Z</time>
      </trkpt>
      <trkpt lat="50.36519" lon="3.09011">
        <ele>44.3</ele>
        <time>2015-07-18T16:19:37Z</time>
      </trkpt>
      <trkpt lat="50.36529" lon="3.08998">
        <ele>44.3</ele>
        <time>2015-07-18T16:19:39Z</time>
      </trkpt>
      <trkpt lat="50.36539" lon="3.08983">
        <ele>44.2</ele>
        <time>2015-07-18T16:19:41Z</time>
      </trkpt>
      <trkpt lat="50.3655" lon="3.0897">
        <ele>44.2</ele>
        <time>2015-07-18T16:19:43Z</time>
      </trkpt>
      <trkpt lat="50.36561" lon="3.08957">
        <ele>44.1</ele>
        <time>2015-07-18T16:19:45Z</time>
      </trkpt>
      <trkpt lat="50.36571" lon="3.08943">
        <ele>44.1</ele>
        <time>2015-07-18T16:19:47Z</time>
      </trkpt>
      <trkpt lat="50.36581" lon="3.0893">
        <ele>44</ele>
        <time>2015-07-18T16:19:49Z</time>
      </trkpt>
      <trkpt lat="50.3659" lon="3.08916">
        <ele>43.9</ele>
        <time>2015-07-18T16:19:51Z</time>
      </trkpt>
      <trkpt lat="50.36599" lon="3.08904">
        <ele>43.8</ele>
        <time>2015-07-18T16:19:53Z</time>
      </trkpt>
      <trkpt lat="50.36608" lon="3.08891">
        <ele>43.6</ele>
        <time>2015-07-18T16:19:55Z</time>
      </trkpt>
      <trkpt lat="50.36617" lon="3.08878">
        <ele>43.4</ele>
        <time>2015-07-18T16:19:57Z</time>
      </trkpt>
      <trkpt lat="50.36626" lon="3.08866">
        <ele>43.2</ele>
        <time>2015-07-18T16:19:59Z</time>
      </trkpt>
      <trkpt lat="50.36635" lon="3.08852">
        <ele>43</ele>
        <time>2015-07-18T16:20:01Z</time>
      </trkpt>
      <trkpt lat="50.36645" lon="3.08839">
        <ele>42.8</ele>
        <time>2015-07-18T16:20:03Z</time>
      </trkpt>
      <trkpt lat="50.36655" lon="3.08827">
        <ele>42.7</ele>
        <time>2015-07-18T16:20:05Z</time>
      </trkpt>
      <trkpt lat="50.36665" lon="3.08818">
        <ele>42.5</ele>
        <time>2015-07-18T16:20:07Z</time>
      </trkpt>
      <trkpt lat="50.36677" lon="3.08815">
        <ele>42.3</ele>
        <time>2015-07-18T16:20:09Z</time>
      </trkpt>
      <trkpt lat="50.36689" lon="3.08812">
        <ele>42.1</ele>
        <time>2015-07-18T16:20:11Z</time>
      </trkpt>
      <trkpt lat="50.367" lon="3.0881">
        <ele>42</ele>
        <time>2015-07-18T16:20:13Z</time>
      </trkpt>
      <trkpt lat="50.36711" lon="3.08809">
        <ele>41.8</ele>
        <time>2015-07-18T16:20:15Z</time>
      </trkpt>
      <trkpt lat="50.36724" lon="3.08813">
        <ele>41.6</ele>
        <time>2015-07-18T16:20:18Z</time>
      </trkpt>
      <trkpt lat="50.36734" lon="3.08821">
        <ele>41.5</ele>
        <time>2015-07-18T16:20:20Z</time>
      </trkpt>
      <trkpt lat="50.36744" lon="3.08829">
        <ele>41.4</ele>
        <time>2015-07-18T16:20:22Z</time>
      </trkpt>
      <trkpt lat="50.36753" lon="3.08837">
        <ele>41.3</ele>
        <time>2015-07-18T16:20:24Z</time>
      </trkpt>
      <trkpt lat="50.36764" lon="3.08847">
        <ele>41.2</ele>
        <time>2015-07-18T16:20:26Z</time>
      </trkpt>
      <trkpt lat="50.36775" lon="3.08856">
        <ele>41.1</ele>
        <time>2015-07-18T16:20:28Z</time>
      </trkpt>
      <trkpt lat="50.36786" lon="3.08867">
        <ele>41</ele>
        <time>2015-07-18T16:20:30Z</time>
      </trkpt>
      <trkpt lat="50.36798" lon="3.08877">
        <ele>40.9</ele>
        <time>2015-07-18T16:20:32Z</time>
      </trkpt>
      <trkpt lat="50.36811" lon="3.08886">
        <ele>40.8</ele>
        <time>2015-07-18T16:20:34Z</time>
      </trkpt>
      <trkpt lat="50.36823" lon="3.08896">
        <ele>40.7</ele>
        <time>2015-07-18T16:20:36Z</time>
      </trkpt>
      <trkpt lat="50.36835" lon="3.08907">
        <ele>40.7</ele>
        <time>2015-07-18T16:20:38Z</time>
      </trkpt>
      <trkpt lat="50.36847" lon="3.08919">
        <ele>40.6</ele>
        <time>2015-07-18T16:20:40Z</time>
      </trkpt>
      <trkpt lat="50.36861" lon="3.0893">
        <ele>40.6</ele>
        <time>2015-07-18T16:20:42Z</time>
      </trkpt>
      <trkpt lat="50.36873" lon="3.08943">
        <ele>40.7</ele>
        <time>2015-07-18T16:20:44Z</time>
      </trkpt>
      <trkpt lat="50.36885" lon="3.08949">
        <ele>40.8</ele>
        <time>2015-07-18T16:20:46Z</time>
      </trkpt>
      <trkpt lat="50.36897" lon="3.08955">
        <ele>40.9</ele>
        <time>2015-07-18T16:20:48Z</time>
      </trkpt>
      <trkpt lat="50.36906" lon="3.08965">
        <ele>40.9</ele>
        <time>2015-07-18T16:20:50Z</time>
      </trkpt>
      <trkpt lat="50.36916" lon="3.08972">
        <ele>40.5</ele>
        <time>2015-07-18T16:20:52Z</time>
      </trkpt>
      <trkpt lat="50.3693" lon="3.08971">
        <ele>40.6</ele>
        <time>2015-07-18T16:20:54Z</time>
      </trkpt>
      <trkpt lat="50.36942" lon="3.08966">
        <ele>40.6</ele>
        <time>2015-07-18T16:20:56Z</time>
      </trkpt>
      <trkpt lat="50.36954" lon="3.08962">
        <ele>40.6</ele>
        <time>2015-07-18T16:20:58Z</time>
      </trkpt>
      <trkpt lat="50.36966" lon="3.08956">
        <ele>40.6</ele>
        <time>2015-07-18T16:21:00Z</time>
      </trkpt>
      <trkpt lat="50.36978" lon="3.08951">
        <ele>40.5</ele>
        <time>2015-07-18T16:21:02Z</time>
      </trkpt>
      <trkpt lat="50.36989" lon="3.08947">
        <ele>40.5</ele>
        <time>2015-07-18T16:21:04Z</time>
      </trkpt>
      <trkpt lat="50.37001" lon="3.08944">
        <ele>40.4</ele>
        <time>2015-07-18T16:21:06Z</time>
      </trkpt>
      <trkpt lat="50.37012" lon="3.08941">
        <ele>40.3</ele>
        <time>2015-07-18T16:21:08Z</time>
      </trkpt>
      <trkpt lat="50.37023" lon="3.08939">
        <ele>40.2</ele>
        <time>2015-07-18T16:21:10Z</time>
      </trkpt>
      <trkpt lat="50.37035" lon="3.08938">
        <ele>40.1</ele>
        <time>2015-07-18T16:21:12Z</time>
      </trkpt>
      <trkpt lat="50.37047" lon="3.08938">
        <ele>40</ele>
        <time>2015-07-18T16:21:14Z</time>
      </trkpt>
      <trkpt lat="50.37058" lon="3.08938">
        <ele>39.9</ele>
        <time>2015-07-18T16:21:16Z</time>
      </trkpt>
      <trkpt lat="50.3707" lon="3.08939">
        <ele>39.8</ele>
        <time>2015-07-18T16:21:18Z</time>
      </trkpt>
      <trkpt lat="50.37082" lon="3.0894">
        <ele>39.7</ele>
        <time>2015-07-18T16:21:20Z</time>
      </trkpt>
      <trkpt lat="50.37094" lon="3.0894">
        <ele>39.7</ele>
        <time>2015-07-18T16:21:22Z</time>
      </trkpt>
      <trkpt lat="50.37105" lon="3.08941">
        <ele>39.6</ele>
        <time>2015-07-18T16:21:24Z</time>
      </trkpt>
      <trkpt lat="50.37116" lon="3.08941">
        <ele>39.6</ele>
        <time>2015-07-18T16:21:26Z</time>
      </trkpt>
      <trkpt lat="50.37126" lon="3.08941">
        <ele>39.5</ele>
        <time>2015-07-18T16:21:28Z</time>
      </trkpt>
      <trkpt lat="50.37138" lon="3.08941">
        <ele>39.5</ele>
        <time>2015-07-18T16:21:31Z</time>
      </trkpt>
      <trkpt lat="50.37149" lon="3.0894">
        <ele>39.4</ele>
        <time>2015-07-18T16:21:34Z</time>
      </trkpt>
      <trkpt lat="50.3716" lon="3.08939">
        <ele>39.4</ele>
        <time>2015-07-18T16:21:37Z</time>
      </trkpt>
      <trkpt lat="50.37173" lon="3.08938">
        <ele>39.5</ele>
        <time>2015-07-18T16:21:40Z</time>
      </trkpt>
      <trkpt lat="50.37182" lon="3.08938">
        <ele>39.5</ele>
        <time>2015-07-18T16:21:42Z</time>
      </trkpt>
      <trkpt lat="50.37192" lon="3.08937">
        <ele>39.5</ele>
        <time>2015-07-18T16:21:44Z</time>
      </trkpt>
      <trkpt lat="50.37202" lon="3.08936">
        <ele>39.5</ele>
        <time>2015-07-18T16:21:46Z</time>
      </trkpt>
      <trkpt lat="50.37212" lon="3.08936">
        <ele>39.5</ele>
        <time>2015-07-18T16:21:48Z</time>
      </trkpt>
      <trkpt lat="50.37224" lon="3.08937">
        <ele>39.6</ele>
        <time>2015-07-18T16:21:50Z</time>
      </trkpt>
      <trkpt lat="50.37236" lon="3.08939">
        <ele>39.6</ele>
        <time>2015-07-18T16:21:52Z</time>
      </trkpt>
      <trkpt lat="50.37248" lon="3.0894">
        <ele>39.6</ele>
        <time>2015-07-18T16:21:54Z</time>
      </trkpt>
      <trkpt lat="50.37261" lon="3.08942">
        <ele>39.6</ele>
        <time>2015-07-18T16:21:56Z</time>
      </trkpt>
      <trkpt lat="50.37273" lon="3.08945">
        <ele>39.6</ele>
        <time>2015-07-18T16:21:58Z</time>
      </trkpt>
      <trkpt lat="50.37284" lon="3.08948">
        <ele>39.6</ele>
        <time>2015-07-18T16:22:00Z</time>
      </trkpt>
      <trkpt lat="50.37295" lon="3.0895">
        <ele>39.6</ele>
        <time>2015-07-18T16:22:02Z</time>
      </trkpt>
      <trkpt lat="50.37306" lon="3.08957">
        <ele>39.6</ele>
        <time>2015-07-18T16:22:05Z</time>
      </trkpt>
      <trkpt lat="50.37317" lon="3.0896">
        <ele>39.6</ele>
        <time>2015-07-18T16:22:08Z</time>
      </trkpt>
      <trkpt lat="50.37327" lon="3.08955">
        <ele>39.6</ele>
        <time>2015-07-18T16:22:11Z</time>
      </trkpt>
      <trkpt lat="50.37336" lon="3.08947">
        <ele>39.6</ele>
        <time>2015-07-18T16:22:15Z</time>
      </trkpt>
      <trkpt lat="50.37336" lon="3.0893">
        <ele>39.6</ele>
        <time>2015-07-18T16:22:20Z</time>
      </trkpt>
      <trkpt lat="50.37329" lon="3.08922">
        <ele>39.7</ele>
        <time>2015-07-18T16:22:23Z</time>
      </trkpt>
      <trkpt lat="50.37324" lon="3.08905">
        <ele>39.7</ele>
        <time>2015-07-18T16:22:26Z</time>
      </trkpt>
      <trkpt lat="50.37327" lon="3.0889">
        <ele>39.7</ele>
        <time>2015-07-18T16:22:28Z</time>
      </trkpt>
      <trkpt lat="50.37332" lon="3.08875">
        <ele>39.7</ele>
        <time>2015-07-18T16:22:30Z</time>
      </trkpt>
      <trkpt lat="50.37337" lon="3.08857">
        <ele>39.7</ele>
        <time>2015-07-18T16:22:32Z</time>
      </trkpt>
      <trkpt lat="50.37341" lon="3.08839">
        <ele>39.7</ele>
        <time>2015-07-18T16:22:34Z</time>
      </trkpt>
      <trkpt lat="50.37346" lon="3.0882">
        <ele>39.7</ele>
        <time>2015-07-18T16:22:36Z</time>
      </trkpt>
      <trkpt lat="50.37351" lon="3.08802">
        <ele>39.7</ele>
        <time>2015-07-18T16:22:38Z</time>
      </trkpt>
      <trkpt lat="50.37356" lon="3.08784">
        <ele>39.7</ele>
        <time>2015-07-18T16:22:40Z</time>
      </trkpt>
      <trkpt lat="50.37361" lon="3.08767">
        <ele>39.7</ele>
        <time>2015-07-18T16:22:42Z</time>
      </trkpt>
      <trkpt lat="50.37367" lon="3.08752">
        <ele>39.7</ele>
        <time>2015-07-18T16:22:44Z</time>
      </trkpt>
      <trkpt lat="50.37372" lon="3.08737">
        <ele>39.7</ele>
        <time>2015-07-18T16:22:46Z</time>
      </trkpt>
      <trkpt lat="50.37377" lon="3.08723">
        <ele>39.7</ele>
        <time>2015-07-18T16:22:48Z</time>
      </trkpt>
      <trkpt lat="50.37383" lon="3.08707">
        <ele>39.7</ele>
        <time>2015-07-18T16:22:50Z</time>
      </trkpt>
      <trkpt lat="50.37388" lon="3.08692">
        <ele>39.7</ele>
        <time>2015-07-18T16:22:52Z</time>
      </trkpt>
      <trkpt lat="50.37394" lon="3.08678">
        <ele>39.7</ele>
        <time>2015-07-18T16:22:54Z</time>
      </trkpt>
      <trkpt lat="50.37399" lon="3.08663">
        <ele>39.7</ele>
        <time>2015-07-18T16:22:56Z</time>
      </trkpt>
      <trkpt lat="50.37404" lon="3.08649">
        <ele>39.7</ele>
        <time>2015-07-18T16:22:58Z</time>
      </trkpt>
      <trkpt lat="50.3741" lon="3.08633">
        <ele>39.8</ele>
        <time>2015-07-18T16:23:00Z</time>
      </trkpt>
      <trkpt lat="50.37415" lon="3.08618">
        <ele>39.9</ele>
        <time>2015-07-18T16:23:02Z</time>
      </trkpt>
      <trkpt lat="50.37421" lon="3.08603">
        <ele>40</ele>
        <time>2015-07-18T16:23:04Z</time>
      </trkpt>
      <trkpt lat="50.37425" lon="3.08588">
        <ele>40</ele>
        <time>2015-07-18T16:23:06Z</time>
      </trkpt>
      <trkpt lat="50.37422" lon="3.08568">
        <ele>40.1</ele>
        <time>2015-07-18T16:23:09Z</time>
      </trkpt>
      <trkpt lat="50.37426" lon="3.08555">
        <ele>40.2</ele>
        <time>2015-07-18T16:23:12Z</time>
      </trkpt>
      <trkpt lat="50.37432" lon="3.08544">
        <ele>40.2</ele>
        <time>2015-07-18T16:23:15Z</time>
      </trkpt>
      <trkpt lat="50.37438" lon="3.08534">
        <ele>40.2</ele>
        <time>2015-07-18T16:23:17Z</time>
      </trkpt>
      <trkpt lat="50.37446" lon="3.08517">
        <ele>40.2</ele>
        <time>2015-07-18T16:23:20Z</time>
      </trkpt>
      <trkpt lat="50.37454" lon="3.08502">
        <ele>40.2</ele>
        <time>2015-07-18T16:23:23Z</time>
      </trkpt>
      <trkpt lat="50.37463" lon="3.08486">
        <ele>40.1</ele>
        <time>2015-07-18T16:23:26Z</time>
      </trkpt>
      <trkpt lat="50.37472" lon="3.08473">
        <ele>40.1</ele>
        <time>2015-07-18T16:23:28Z</time>
      </trkpt>
      <trkpt lat="50.3748" lon="3.08458">
        <ele>40</ele>
        <time>2015-07-18T16:23:30Z</time>
      </trkpt>
      <trkpt lat="50.37488" lon="3.08444">
        <ele>40</ele>
        <time>2015-07-18T16:23:32Z</time>
      </trkpt>
      <trkpt lat="50.37496" lon="3.0843">
        <ele>39.9</ele>
        <time>2015-07-18T16:23:34Z</time>
      </trkpt>
      <trkpt lat="50.37504" lon="3.08416">
        <ele>39.9</ele>
        <time>2015-07-18T16:23:36Z</time>
      </trkpt>
      <trkpt lat="50.37512" lon="3.08402">
        <ele>39.9</ele>
        <time>2015-07-18T16:23:38Z</time>
      </trkpt>
      <trkpt lat="50.3752" lon="3.08389">
        <ele>39.8</ele>
        <time>2015-07-18T16:23:40Z</time>
      </trkpt>
      <trkpt lat="50.37527" lon="3.08376">
        <ele>39.8</ele>
        <time>2015-07-18T16:23:42Z</time>
      </trkpt>
      <trkpt lat="50.37536" lon="3.08365">
        <ele>39.8</ele>
        <time>2015-07-18T16:23:44Z</time>
      </trkpt>
      <trkpt lat="50.37545" lon="3.08358">
        <ele>39.7</ele>
        <time>2015-07-18T16:23:46Z</time>
      </trkpt>
      <trkpt lat="50.37554" lon="3.0835">
        <ele>39.7</ele>
        <time>2015-07-18T16:23:48Z</time>
      </trkpt>
      <trkpt lat="50.37563" lon="3.0834">
        <ele>39.6</ele>
        <time>2015-07-18T16:23:50Z</time>
      </trkpt>
      <trkpt lat="50.37572" lon="3.08331">
        <ele>39.6</ele>
        <time>2015-07-18T16:23:52Z</time>
      </trkpt>
      <trkpt lat="50.3758" lon="3.08323">
        <ele>39.4</ele>
        <time>2015-07-18T16:23:54Z</time>
      </trkpt>
      <trkpt lat="50.37588" lon="3.08315">
        <ele>39.3</ele>
        <time>2015-07-18T16:23:56Z</time>
      </trkpt>
      <trkpt lat="50.37598" lon="3.08303">
        <ele>39.2</ele>
        <time>2015-07-18T16:23:59Z</time>
      </trkpt>
      <trkpt lat="50.3761" lon="3.0831">
        <ele>39.1</ele>
        <time>2015-07-18T16:24:02Z</time>
      </trkpt>
      <trkpt lat="50.37617" lon="3.08323">
        <ele>39</ele>
        <time>2015-07-18T16:24:04Z</time>
      </trkpt>
      <trkpt lat="50.37625" lon="3.08334">
        <ele>38.9</ele>
        <time>2015-07-18T16:24:06Z</time>
      </trkpt>
      <trkpt lat="50.37633" lon="3.08344">
        <ele>38.8</ele>
        <time>2015-07-18T16:24:08Z</time>
      </trkpt>
      <trkpt lat="50.37644" lon="3.08354">
        <ele>38.6</ele>
        <time>2015-07-18T16:24:10Z</time>
      </trkpt>
      <trkpt lat="50.37655" lon="3.08363">
        <ele>38.4</ele>
        <time>2015-07-18T16:24:12Z</time>
      </trkpt>
      <trkpt lat="50.37668" lon="3.08371">
        <ele>38.2</ele>
        <time>2015-07-18T16:24:14Z</time>
      </trkpt>
      <trkpt lat="50.3768" lon="3.0838">
        <ele>38.1</ele>
        <time>2015-07-18T16:24:16Z</time>
      </trkpt>
      <trkpt lat="50.37693" lon="3.08386">
        <ele>37.9</ele>
        <time>2015-07-18T16:24:18Z</time>
      </trkpt>
      <trkpt lat="50.37705" lon="3.08393">
        <ele>37.8</ele>
        <time>2015-07-18T16:24:20Z</time>
      </trkpt>
      <trkpt lat="50.37717" lon="3.08401">
        <ele>37.7</ele>
        <time>2015-07-18T16:24:22Z</time>
      </trkpt>
      <trkpt lat="50.37728" lon="3.08409">
        <ele>37.6</ele>
        <time>2015-07-18T16:24:24Z</time>
      </trkpt>
      <trkpt lat="50.37739" lon="3.08412">
        <ele>37.9</ele>
        <time>2015-07-18T16:24:26Z</time>
      </trkpt>
      <trkpt lat="50.37749" lon="3.08404">
        <ele>37.9</ele>
        <time>2015-07-18T16:24:28Z</time>
      </trkpt>
      <trkpt lat="50.37756" lon="3.0839">
        <ele>37.9</ele>
        <time>2015-07-18T16:24:30Z</time>
      </trkpt>
      <trkpt lat="50.37763" lon="3.08374">
        <ele>37.8</ele>
        <time>2015-07-18T16:24:32Z</time>
      </trkpt>
      <trkpt lat="50.37769" lon="3.08357">
        <ele>37.8</ele>
        <time>2015-07-18T16:24:34Z</time>
      </trkpt>
      <trkpt lat="50.37776" lon="3.08342">
        <ele>37.8</ele>
        <time>2015-07-18T16:24:36Z</time>
      </trkpt>
      <trkpt lat="50.37784" lon="3.08328">
        <ele>38</ele>
        <time>2015-07-18T16:24:38Z</time>
      </trkpt>
      <trkpt lat="50.3779" lon="3.08313">
        <ele>38.2</ele>
        <time>2015-07-18T16:24:40Z</time>
      </trkpt>
      <trkpt lat="50.37798" lon="3.08298">
        <ele>38.3</ele>
        <time>2015-07-18T16:24:42Z</time>
      </trkpt>
      <trkpt lat="50.37806" lon="3.08282">
        <ele>38.3</ele>
        <time>2015-07-18T16:24:44Z</time>
      </trkpt>
      <trkpt lat="50.37813" lon="3.08266">
        <ele>38.2</ele>
        <time>2015-07-18T16:24:46Z</time>
      </trkpt>
      <trkpt lat="50.37821" lon="3.08249">
        <ele>38.2</ele>
        <time>2015-07-18T16:24:48Z</time>
      </trkpt>
      <trkpt lat="50.37829" lon="3.08232">
        <ele>38.2</ele>
        <time>2015-07-18T16:24:50Z</time>
      </trkpt>
      <trkpt lat="50.37836" lon="3.08216">
        <ele>38.2</ele>
        <time>2015-07-18T16:24:52Z</time>
      </trkpt>
      <trkpt lat="50.37846" lon="3.08204">
        <ele>38.1</ele>
        <time>2015-07-18T16:24:54Z</time>
      </trkpt>
      <trkpt lat="50.37855" lon="3.0819">
        <ele>38.1</ele>
        <time>2015-07-18T16:24:56Z</time>
      </trkpt>
      <trkpt lat="50.37862" lon="3.08174">
        <ele>38.1</ele>
        <time>2015-07-18T16:24:58Z</time>
      </trkpt>
      <trkpt lat="50.37869" lon="3.08158">
        <ele>38.1</ele>
        <time>2015-07-18T16:25:00Z</time>
      </trkpt>
      <trkpt lat="50.37876" lon="3.08142">
        <ele>38.1</ele>
        <time>2015-07-18T16:25:02Z</time>
      </trkpt>
      <trkpt lat="50.37883" lon="3.08128">
        <ele>38.1</ele>
        <time>2015-07-18T16:25:04Z</time>
      </trkpt>
      <trkpt lat="50.3789" lon="3.08113">
        <ele>38.1</ele>
        <time>2015-07-18T16:25:06Z</time>
      </trkpt>
      <trkpt lat="50.37896" lon="3.08099">
        <ele>38.2</ele>
        <time>2015-07-18T16:25:08Z</time>
      </trkpt>
      <trkpt lat="50.37902" lon="3.08086">
        <ele>38.2</ele>
        <time>2015-07-18T16:25:10Z</time>
      </trkpt>
      <trkpt lat="50.3791" lon="3.08072">
        <ele>38.3</ele>
        <time>2015-07-18T16:25:13Z</time>
      </trkpt>
      <trkpt lat="50.37918" lon="3.08061">
        <ele>38.6</ele>
        <time>2015-07-18T16:25:17Z</time>
      </trkpt>
      <trkpt lat="50.37923" lon="3.08047">
        <ele>38.9</ele>
        <time>2015-07-18T16:25:21Z</time>
      </trkpt>
      <trkpt lat="50.37917" lon="3.08036">
        <ele>39</ele>
        <time>2015-07-18T16:25:24Z</time>
      </trkpt>
      <trkpt lat="50.37908" lon="3.08023">
        <ele>39.1</ele>
        <time>2015-07-18T16:25:27Z</time>
      </trkpt>
      <trkpt lat="50.379" lon="3.08008">
        <ele>39.2</ele>
        <time>2015-07-18T16:25:30Z</time>
      </trkpt>
      <trkpt lat="50.37891" lon="3.07994">
        <ele>39.3</ele>
        <time>2015-07-18T16:25:33Z</time>
      </trkpt>
      <trkpt lat="50.3788" lon="3.07981">
        <ele>39.3</ele>
        <time>2015-07-18T16:25:36Z</time>
      </trkpt>
      <trkpt lat="50.37873" lon="3.0797">
        <ele>39.4</ele>
        <time>2015-07-18T16:25:38Z</time>
      </trkpt>
      <trkpt lat="50.37867" lon="3.07959">
        <ele>39.4</ele>
        <time>2015-07-18T16:25:40Z</time>
      </trkpt>
      <trkpt lat="50.37859" lon="3.07948">
        <ele>39.4</ele>
        <time>2015-07-18T16:25:42Z</time>
      </trkpt>
      <trkpt lat="50.37852" lon="3.07936">
        <ele>39.5</ele>
        <time>2015-07-18T16:25:44Z</time>
      </trkpt>
      <trkpt lat="50.37844" lon="3.07924">
        <ele>39.5</ele>
        <time>2015-07-18T16:25:46Z</time>
      </trkpt>
      <trkpt lat="50.37836" lon="3.07912">
        <ele>39.6</ele>
        <time>2015-07-18T16:25:48Z</time>
      </trkpt>
      <trkpt lat="50.37828" lon="3.079">
        <ele>39.7</ele>
        <time>2015-07-18T16:25:50Z</time>
      </trkpt>
      <trkpt lat="50.3782" lon="3.07889">
        <ele>39.8</ele>
        <time>2015-07-18T16:25:52Z</time>
      </trkpt>
      <trkpt lat="50.37813" lon="3.07877">
        <ele>39.8</ele>
        <time>2015-07-18T16:25:54Z</time>
      </trkpt>
      <trkpt lat="50.37806" lon="3.07867">
        <ele>39.9</ele>
        <time>2015-07-18T16:25:56Z</time>
      </trkpt>
      <trkpt lat="50.37796" lon="3.07853">
        <ele>40</ele>
        <time>2015-07-18T16:25:59Z</time>
      </trkpt>
      <trkpt lat="50.37788" lon="3.0784">
        <ele>40</ele>
        <time>2015-07-18T16:26:02Z</time>
      </trkpt>
      <trkpt lat="50.3778" lon="3.07826">
        <ele>40.1</ele>
        <time>2015-07-18T16:26:05Z</time>
      </trkpt>
      <trkpt lat="50.37771" lon="3.07813">
        <ele>40.1</ele>
        <time>2015-07-18T16:26:08Z</time>
      </trkpt>
      <trkpt lat="50.37765" lon="3.07803">
        <ele>40.1</ele>
        <time>2015-07-18T16:26:10Z</time>
      </trkpt>
      <trkpt lat="50.37758" lon="3.07792">
        <ele>40.1</ele>
        <time>2015-07-18T16:26:12Z</time>
      </trkpt>
      <trkpt lat="50.37751" lon="3.07782">
        <ele>40.2</ele>
        <time>2015-07-18T16:26:14Z</time>
      </trkpt>
      <trkpt lat="50.37744" lon="3.07771">
        <ele>40.2</ele>
        <time>2015-07-18T16:26:16Z</time>
      </trkpt>
      <trkpt lat="50.37737" lon="3.0776">
        <ele>40.2</ele>
        <time>2015-07-18T16:26:18Z</time>
      </trkpt>
      <trkpt lat="50.3773" lon="3.07749">
        <ele>40.2</ele>
        <time>2015-07-18T16:26:20Z</time>
      </trkpt>
      <trkpt lat="50.37723" lon="3.07739">
        <ele>40.2</ele>
        <time>2015-07-18T16:26:22Z</time>
      </trkpt>
      <trkpt lat="50.37714" lon="3.07725">
        <ele>40.2</ele>
        <time>2015-07-18T16:26:25Z</time>
      </trkpt>
      <trkpt lat="50.37706" lon="3.07713">
        <ele>40.2</ele>
        <time>2015-07-18T16:26:28Z</time>
      </trkpt>
      <trkpt lat="50.37698" lon="3.07703">
        <ele>40.2</ele>
        <time>2015-07-18T16:26:31Z</time>
      </trkpt>
      <trkpt lat="50.37691" lon="3.07691">
        <ele>40.2</ele>
        <time>2015-07-18T16:26:34Z</time>
      </trkpt>
      <trkpt lat="50.37689" lon="3.07674">
        <ele>40.1</ele>
        <time>2015-07-18T16:26:37Z</time>
      </trkpt>
      <trkpt lat="50.37681" lon="3.07661">
        <ele>40.1</ele>
        <time>2015-07-18T16:26:40Z</time>
      </trkpt>
      <trkpt lat="50.37669" lon="3.07649">
        <ele>40.1</ele>
        <time>2015-07-18T16:26:43Z</time>
      </trkpt>
      <trkpt lat="50.37662" lon="3.07639">
        <ele>40.1</ele>
        <time>2015-07-18T16:26:45Z</time>
      </trkpt>
      <trkpt lat="50.37656" lon="3.07629">
        <ele>40</ele>
        <time>2015-07-18T16:26:47Z</time>
      </trkpt>
      <trkpt lat="50.37649" lon="3.07618">
        <ele>40</ele>
        <time>2015-07-18T16:26:49Z</time>
      </trkpt>
      <trkpt lat="50.37642" lon="3.07607">
        <ele>40</ele>
        <time>2015-07-18T16:26:51Z</time>
      </trkpt>
      <trkpt lat="50.37634" lon="3.07595">
        <ele>39.9</ele>
        <time>2015-07-18T16:26:53Z</time>
      </trkpt>
      <trkpt lat="50.37627" lon="3.07583">
        <ele>39.9</ele>
        <time>2015-07-18T16:26:55Z</time>
      </trkpt>
      <trkpt lat="50.3762" lon="3.07572">
        <ele>39.9</ele>
        <time>2015-07-18T16:26:57Z</time>
      </trkpt>
      <trkpt lat="50.37612" lon="3.0756">
        <ele>39.8</ele>
        <time>2015-07-18T16:26:59Z</time>
      </trkpt>
      <trkpt lat="50.37605" lon="3.07548">
        <ele>39.8</ele>
        <time>2015-07-18T16:27:01Z</time>
      </trkpt>
      <trkpt lat="50.37597" lon="3.07535">
        <ele>39.8</ele>
        <time>2015-07-18T16:27:03Z</time>
      </trkpt>
      <trkpt lat="50.37589" lon="3.07525">
        <ele>39.9</ele>
        <time>2015-07-18T16:27:05Z</time>
      </trkpt>
      <trkpt lat="50.37581" lon="3.07511">
        <ele>39.9</ele>
        <time>2015-07-18T16:27:07Z</time>
      </trkpt>
      <trkpt lat="50.37573" lon="3.07499">
        <ele>39.9</ele>
        <time>2015-07-18T16:27:09Z</time>
      </trkpt>
      <trkpt lat="50.37565" lon="3.07487">
        <ele>39.9</ele>
        <time>2015-07-18T16:27:11Z</time>
      </trkpt>
      <trkpt lat="50.37558" lon="3.07475">
        <ele>39.9</ele>
        <time>2015-07-18T16:27:13Z</time>
      </trkpt>
      <trkpt lat="50.3755" lon="3.07462">
        <ele>39.9</ele>
        <time>2015-07-18T16:27:15Z</time>
      </trkpt>
      <trkpt lat="50.37542" lon="3.0745">
        <ele>39.9</ele>
        <time>2015-07-18T16:27:17Z</time>
      </trkpt>
      <trkpt lat="50.37534" lon="3.07437">
        <ele>39.9</ele>
        <time>2015-07-18T16:27:19Z</time>
      </trkpt>
      <trkpt lat="50.37527" lon="3.07425">
        <ele>39.9</ele>
        <time>2015-07-18T16:27:21Z</time>
      </trkpt>
      <trkpt lat="50.3752" lon="3.07415">
        <ele>39.9</ele>
        <time>2015-07-18T16:27:23Z</time>
      </trkpt>
      <trkpt lat="50.37515" lon="3.07396">
        <ele>39.9</ele>
        <time>2015-07-18T16:27:26Z</time>
      </trkpt>
      <trkpt lat="50.37521" lon="3.07383">
        <ele>39.9</ele>
        <time>2015-07-18T16:27:29Z</time>
      </trkpt>
      <trkpt lat="50.37523" lon="3.07367">
        <ele>39.9</ele>
        <time>2015-07-18T16:27:33Z</time>
      </trkpt>
      <trkpt lat="50.37518" lon="3.07365">
        <ele>40</ele>
        <time>2015-07-18T16:27:47Z</time>
      </trkpt>
    </trkseg>
  </trk>
</gpx>